<?xml version="1.0" encoding="UTF-8" standalone="no"?>
<gpx xmlns="http://www.topografix.com/GPX/1/1" creator="GPS Master" version="1.1"
xmlns:xsi="http://www.w3.org/2001/XMLSchema-instance"
xsi:schemaLocation="http://www.topografix.com/GPX/1/1 http://www.topografix.com/GPX/1/1/gpx.xsd"
xmlns:gpxtpx="http://www.garmin.com/xmlschemas/TrackPointExtension/v1">
<trk>
 <name>1 (2014-07-04 09:12:31)</name>
 <number>1</number>
 <trkseg>
 <trkpt lat="48.877220000" lon="11.074641600"><ele>414</ele><time>2014-07-04T08:12:31Z</time></trkpt>
 <trkpt lat="48.877218300" lon="11.074638300"><ele>414</ele><time>2014-07-04T08:12:35Z</time></trkpt>
 <trkpt lat="48.877241600" lon="11.074626200"><ele>414</ele><time>2014-07-04T08:12:39Z</time></trkpt>
 <trkpt lat="48.877234500" lon="11.074628200"><ele>413</ele><time>2014-07-04T08:12:43Z</time></trkpt>
 <trkpt lat="48.877223700" lon="11.074624900"><ele>413</ele><time>2014-07-04T08:12:47Z</time></trkpt>
 <trkpt lat="48.877220700" lon="11.074614900"><ele>413</ele><time>2014-07-04T08:12:51Z</time></trkpt>
 <trkpt lat="48.877215700" lon="11.074608300"><ele>413</ele><time>2014-07-04T08:12:55Z</time></trkpt>
 <trkpt lat="48.877210800" lon="11.074604500"><ele>413</ele><time>2014-07-04T08:12:59Z</time></trkpt>
 <trkpt lat="48.877231200" lon="11.074601200"><ele>412</ele><time>2014-07-04T08:13:03Z</time></trkpt>
 <trkpt lat="48.877251600" lon="11.074585300"><ele>411</ele><time>2014-07-04T08:13:07Z</time></trkpt>
 <trkpt lat="48.877259900" lon="11.074583300"><ele>411</ele><time>2014-07-04T08:13:11Z</time></trkpt>
 <trkpt lat="48.877263300" lon="11.074589900"><ele>411</ele><time>2014-07-04T08:13:15Z</time></trkpt>
 <trkpt lat="48.877260800" lon="11.074600800"><ele>410</ele><time>2014-07-04T08:13:19Z</time></trkpt>
 <trkpt lat="48.877260800" lon="11.074600800"><ele>410</ele><time>2014-07-04T08:13:23Z</time></trkpt>
 <trkpt lat="48.877255800" lon="11.074606600"><ele>410</ele><time>2014-07-04T08:13:27Z</time></trkpt>
 <trkpt lat="48.877250300" lon="11.074606200"><ele>410</ele><time>2014-07-04T08:13:31Z</time></trkpt>
 <trkpt lat="48.877250300" lon="11.074606200"><ele>409</ele><time>2014-07-04T08:13:35Z</time></trkpt>
 <trkpt lat="48.877250300" lon="11.074606200"><ele>409</ele><time>2014-07-04T08:13:39Z</time></trkpt>
 <trkpt lat="48.877248300" lon="11.074597900"><ele>409</ele><time>2014-07-04T08:13:43Z</time></trkpt>
 <trkpt lat="48.877248300" lon="11.074597900"><ele>408</ele><time>2014-07-04T08:13:47Z</time></trkpt>
 <trkpt lat="48.877254100" lon="11.074602900"><ele>408</ele><time>2014-07-04T08:13:51Z</time></trkpt>
 <trkpt lat="48.877254100" lon="11.074602900"><ele>408</ele><time>2014-07-04T08:13:55Z</time></trkpt>
 <trkpt lat="48.877257000" lon="11.074610000"><ele>407</ele><time>2014-07-04T08:13:59Z</time></trkpt>
 <trkpt lat="48.877259100" lon="11.074629100"><ele>407</ele><time>2014-07-04T08:14:03Z</time></trkpt>
 <trkpt lat="48.877259100" lon="11.074629100"><ele>407</ele><time>2014-07-04T08:14:07Z</time></trkpt>
 <trkpt lat="48.877259100" lon="11.074629100"><ele>407</ele><time>2014-07-04T08:14:11Z</time></trkpt>
 <trkpt lat="48.877256200" lon="11.074619500"><ele>406</ele><time>2014-07-04T08:14:15Z</time></trkpt>
 <trkpt lat="48.877257000" lon="11.074611200"><ele>406</ele><time>2014-07-04T08:14:19Z</time></trkpt>
 <trkpt lat="48.877257000" lon="11.074611200"><ele>406</ele><time>2014-07-04T08:14:23Z</time></trkpt>
 <trkpt lat="48.877262000" lon="11.074606200"><ele>406</ele><time>2014-07-04T08:14:27Z</time></trkpt>
 <trkpt lat="48.877262000" lon="11.074606200"><ele>406</ele><time>2014-07-04T08:14:31Z</time></trkpt>
 <trkpt lat="48.877262000" lon="11.074606200"><ele>405</ele><time>2014-07-04T08:14:35Z</time></trkpt>
 <trkpt lat="48.877264500" lon="11.074598700"><ele>405</ele><time>2014-07-04T08:14:39Z</time></trkpt>
 <trkpt lat="48.877264500" lon="11.074598700"><ele>405</ele><time>2014-07-04T08:14:43Z</time></trkpt>
 <trkpt lat="48.877264500" lon="11.074598700"><ele>405</ele><time>2014-07-04T08:14:47Z</time></trkpt>
 <trkpt lat="48.877263300" lon="11.074589500"><ele>405</ele><time>2014-07-04T08:14:51Z</time></trkpt>
 <trkpt lat="48.877263300" lon="11.074589500"><ele>405</ele><time>2014-07-04T08:14:55Z</time></trkpt>
 <trkpt lat="48.877263300" lon="11.074589500"><ele>405</ele><time>2014-07-04T08:14:59Z</time></trkpt>
 <trkpt lat="48.877263300" lon="11.074589500"><ele>405</ele><time>2014-07-04T08:15:03Z</time></trkpt>
 <trkpt lat="48.877261600" lon="11.074597400"><ele>405</ele><time>2014-07-04T08:15:07Z</time></trkpt>
 <trkpt lat="48.877261600" lon="11.074597400"><ele>405</ele><time>2014-07-04T08:15:11Z</time></trkpt>
 <trkpt lat="48.877261600" lon="11.074597400"><ele>405</ele><time>2014-07-04T08:15:15Z</time></trkpt>
 <trkpt lat="48.877261600" lon="11.074597400"><ele>405</ele><time>2014-07-04T08:15:19Z</time></trkpt>
 <trkpt lat="48.877261600" lon="11.074597400"><ele>405</ele><time>2014-07-04T08:15:23Z</time></trkpt>
 <trkpt lat="48.877264100" lon="11.074589500"><ele>405</ele><time>2014-07-04T08:15:27Z</time></trkpt>
 <trkpt lat="48.877265800" lon="11.074579900"><ele>405</ele><time>2014-07-04T08:15:31Z</time></trkpt>
 <trkpt lat="48.877257900" lon="11.074578300"><ele>405</ele><time>2014-07-04T08:15:35Z</time></trkpt>
 <trkpt lat="48.877252400" lon="11.074576600"><ele>405</ele><time>2014-07-04T08:15:39Z</time></trkpt>
 <trkpt lat="48.877254500" lon="11.074584500"><ele>405</ele><time>2014-07-04T08:15:43Z</time></trkpt>
 <trkpt lat="48.877279100" lon="11.074633300"><ele>404</ele><time>2014-07-04T08:15:47Z</time></trkpt>
 <trkpt lat="48.877309900" lon="11.074716200"><ele>404</ele><time>2014-07-04T08:15:51Z</time></trkpt>
 <trkpt lat="48.877334900" lon="11.074802400"><ele>404</ele><time>2014-07-04T08:15:55Z</time></trkpt>
 <trkpt lat="48.877358700" lon="11.074874100"><ele>403</ele><time>2014-07-04T08:15:59Z</time></trkpt>
 <trkpt lat="48.877375400" lon="11.074935000"><ele>403</ele><time>2014-07-04T08:16:03Z</time></trkpt>
 <trkpt lat="48.877387900" lon="11.075014500"><ele>403</ele><time>2014-07-04T08:16:07Z</time></trkpt>
 <trkpt lat="48.877367000" lon="11.075097400"><ele>402</ele><time>2014-07-04T08:16:11Z</time></trkpt>
 <trkpt lat="48.877345300" lon="11.075171600"><ele>401</ele><time>2014-07-04T08:16:15Z</time></trkpt>
 <trkpt lat="48.877339500" lon="11.075232000"><ele>401</ele><time>2014-07-04T08:16:19Z</time></trkpt>
 <trkpt lat="48.877337000" lon="11.075281600"><ele>400</ele><time>2014-07-04T08:16:23Z</time></trkpt>
 <trkpt lat="48.877339500" lon="11.075345700"><ele>399</ele><time>2014-07-04T08:16:27Z</time></trkpt>
 <trkpt lat="48.877331600" lon="11.075430300"><ele>398</ele><time>2014-07-04T08:16:31Z</time></trkpt>
 <trkpt lat="48.877329500" lon="11.075485300"><ele>397</ele><time>2014-07-04T08:16:35Z</time></trkpt>
 <trkpt lat="48.877349900" lon="11.075540800"><ele>396</ele><time>2014-07-04T08:16:39Z</time></trkpt>
 <trkpt lat="48.877374100" lon="11.075594500"><ele>395</ele><time>2014-07-04T08:16:43Z</time></trkpt>
 <trkpt lat="48.877397000" lon="11.075630800"><ele>395</ele><time>2014-07-04T08:16:47Z</time></trkpt>
 <trkpt lat="48.877435800" lon="11.075639500"><ele>394</ele><time>2014-07-04T08:16:51Z</time></trkpt>
 <trkpt lat="48.877482400" lon="11.075639900"><ele>393</ele><time>2014-07-04T08:16:55Z</time></trkpt>
 <trkpt lat="48.877538300" lon="11.075645400"><ele>392</ele><time>2014-07-04T08:16:59Z</time></trkpt>
 <trkpt lat="48.877597900" lon="11.075666600"><ele>391</ele><time>2014-07-04T08:17:03Z</time></trkpt>
 <trkpt lat="48.877634900" lon="11.075681600"><ele>390</ele><time>2014-07-04T08:17:07Z</time></trkpt>
 <trkpt lat="48.877648300" lon="11.075678700"><ele>389</ele><time>2014-07-04T08:17:11Z</time></trkpt>
 <trkpt lat="48.877681600" lon="11.075689900"><ele>388</ele><time>2014-07-04T08:17:15Z</time></trkpt>
 <trkpt lat="48.877710400" lon="11.075682800"><ele>388</ele><time>2014-07-04T08:17:19Z</time></trkpt>
 <trkpt lat="48.877748300" lon="11.075666600"><ele>387</ele><time>2014-07-04T08:17:23Z</time></trkpt>
 <trkpt lat="48.877775400" lon="11.075642900"><ele>386</ele><time>2014-07-04T08:17:27Z</time></trkpt>
 <trkpt lat="48.877796600" lon="11.075631200"><ele>386</ele><time>2014-07-04T08:17:31Z</time></trkpt>
 <trkpt lat="48.877814100" lon="11.075625800"><ele>385</ele><time>2014-07-04T08:17:35Z</time></trkpt>
 <trkpt lat="48.877819500" lon="11.075644100"><ele>385</ele><time>2014-07-04T08:17:39Z</time></trkpt>
 <trkpt lat="48.877818700" lon="11.075667400"><ele>384</ele><time>2014-07-04T08:17:43Z</time></trkpt>
 <trkpt lat="48.877839900" lon="11.075709500"><ele>384</ele><time>2014-07-04T08:17:47Z</time></trkpt>
 <trkpt lat="48.877859100" lon="11.075759900"><ele>384</ele><time>2014-07-04T08:17:51Z</time></trkpt>
 <trkpt lat="48.877868700" lon="11.075814500"><ele>384</ele><time>2014-07-04T08:17:55Z</time></trkpt>
 <trkpt lat="48.877864100" lon="11.075878300"><ele>384</ele><time>2014-07-04T08:17:59Z</time></trkpt>
 <trkpt lat="48.877864100" lon="11.075945700"><ele>383</ele><time>2014-07-04T08:18:03Z</time></trkpt>
 <trkpt lat="48.877876600" lon="11.076015300"><ele>383</ele><time>2014-07-04T08:18:07Z</time></trkpt>
 <trkpt lat="48.877890800" lon="11.076087400"><ele>383</ele><time>2014-07-04T08:18:11Z</time></trkpt>
 <trkpt lat="48.877888300" lon="11.076153700"><ele>382</ele><time>2014-07-04T08:18:15Z</time></trkpt>
 <trkpt lat="48.877890300" lon="11.076194100"><ele>382</ele><time>2014-07-04T08:18:19Z</time></trkpt>
 <trkpt lat="48.877914100" lon="11.076244900"><ele>382</ele><time>2014-07-04T08:18:23Z</time></trkpt>
 <trkpt lat="48.877936200" lon="11.076300800"><ele>382</ele><time>2014-07-04T08:18:27Z</time></trkpt>
 <trkpt lat="48.877950800" lon="11.076357400"><ele>381</ele><time>2014-07-04T08:18:31Z</time></trkpt>
 <trkpt lat="48.877968700" lon="11.076408700"><ele>381</ele><time>2014-07-04T08:18:35Z</time></trkpt>
 <trkpt lat="48.877979100" lon="11.076466600"><ele>380</ele><time>2014-07-04T08:18:39Z</time></trkpt>
 <trkpt lat="48.877993700" lon="11.076527000"><ele>380</ele><time>2014-07-04T08:18:43Z</time></trkpt>
 <trkpt lat="48.878012400" lon="11.076574500"><ele>380</ele><time>2014-07-04T08:18:47Z</time></trkpt>
 <trkpt lat="48.878019900" lon="11.076633200"><ele>379</ele><time>2014-07-04T08:18:51Z</time></trkpt>
 <trkpt lat="48.878023300" lon="11.076691200"><ele>379</ele><time>2014-07-04T08:18:55Z</time></trkpt>
 <trkpt lat="48.878034100" lon="11.076754500"><ele>378</ele><time>2014-07-04T08:18:59Z</time></trkpt>
 <trkpt lat="48.878014500" lon="11.076865300"><ele>378</ele><time>2014-07-04T08:19:03Z</time></trkpt>
 <trkpt lat="48.878024900" lon="11.076916200"><ele>377</ele><time>2014-07-04T08:19:07Z</time></trkpt>
 <trkpt lat="48.878034100" lon="11.076972000"><ele>377</ele><time>2014-07-04T08:19:11Z</time></trkpt>
 <trkpt lat="48.878067800" lon="11.077032400"><ele>377</ele><time>2014-07-04T08:19:15Z</time></trkpt>
 <trkpt lat="48.878131200" lon="11.077172000"><ele>376</ele><time>2014-07-04T08:19:19Z</time></trkpt>
 <trkpt lat="48.878122800" lon="11.077226600"><ele>376</ele><time>2014-07-04T08:19:23Z</time></trkpt>
 <trkpt lat="48.878128700" lon="11.077306600"><ele>376</ele><time>2014-07-04T08:19:27Z</time></trkpt>
 <trkpt lat="48.878147800" lon="11.077379900"><ele>375</ele><time>2014-07-04T08:19:31Z</time></trkpt>
 <trkpt lat="48.878158700" lon="11.077436200"><ele>375</ele><time>2014-07-04T08:19:35Z</time></trkpt>
 <trkpt lat="48.878170300" lon="11.077498300"><ele>375</ele><time>2014-07-04T08:19:39Z</time></trkpt>
 <trkpt lat="48.878178300" lon="11.077563700"><ele>375</ele><time>2014-07-04T08:19:43Z</time></trkpt>
 <trkpt lat="48.878185400" lon="11.077623700"><ele>375</ele><time>2014-07-04T08:19:47Z</time></trkpt>
 <trkpt lat="48.878191200" lon="11.077683300"><ele>374</ele><time>2014-07-04T08:19:51Z</time></trkpt>
 <trkpt lat="48.878201600" lon="11.077739500"><ele>374</ele><time>2014-07-04T08:19:55Z</time></trkpt>
 <trkpt lat="48.878220800" lon="11.077806200"><ele>374</ele><time>2014-07-04T08:19:59Z</time></trkpt>
 <trkpt lat="48.878239100" lon="11.077892000"><ele>374</ele><time>2014-07-04T08:20:03Z</time></trkpt>
 <trkpt lat="48.878254900" lon="11.077949900"><ele>374</ele><time>2014-07-04T08:20:07Z</time></trkpt>
 <trkpt lat="48.878274900" lon="11.077998300"><ele>374</ele><time>2014-07-04T08:20:11Z</time></trkpt>
 <trkpt lat="48.878298700" lon="11.078050800"><ele>374</ele><time>2014-07-04T08:20:15Z</time></trkpt>
 <trkpt lat="48.878320800" lon="11.078105800"><ele>374</ele><time>2014-07-04T08:20:19Z</time></trkpt>
 <trkpt lat="48.878354500" lon="11.078155400"><ele>374</ele><time>2014-07-04T08:20:23Z</time></trkpt>
 <trkpt lat="48.878381200" lon="11.078206600"><ele>375</ele><time>2014-07-04T08:20:27Z</time></trkpt>
 <trkpt lat="48.878402000" lon="11.078259100"><ele>375</ele><time>2014-07-04T08:20:31Z</time></trkpt>
 <trkpt lat="48.878416200" lon="11.078320800"><ele>375</ele><time>2014-07-04T08:20:35Z</time></trkpt>
 <trkpt lat="48.878434100" lon="11.078372800"><ele>375</ele><time>2014-07-04T08:20:39Z</time></trkpt>
 <trkpt lat="48.878463300" lon="11.078420400"><ele>376</ele><time>2014-07-04T08:20:43Z</time></trkpt>
 <trkpt lat="48.878494100" lon="11.078474500"><ele>376</ele><time>2014-07-04T08:20:47Z</time></trkpt>
 <trkpt lat="48.878517400" lon="11.078544500"><ele>377</ele><time>2014-07-04T08:20:51Z</time></trkpt>
 <trkpt lat="48.878549500" lon="11.078614100"><ele>377</ele><time>2014-07-04T08:20:55Z</time></trkpt>
 <trkpt lat="48.878573300" lon="11.078680300"><ele>377</ele><time>2014-07-04T08:20:59Z</time></trkpt>
 <trkpt lat="48.878591600" lon="11.078745300"><ele>378</ele><time>2014-07-04T08:21:03Z</time></trkpt>
 <trkpt lat="48.878614100" lon="11.078794900"><ele>378</ele><time>2014-07-04T08:21:07Z</time></trkpt>
 <trkpt lat="48.878643300" lon="11.078844100"><ele>378</ele><time>2014-07-04T08:21:11Z</time></trkpt>
 <trkpt lat="48.878671600" lon="11.078896600"><ele>379</ele><time>2014-07-04T08:21:15Z</time></trkpt>
 <trkpt lat="48.878697400" lon="11.078961600"><ele>379</ele><time>2014-07-04T08:21:19Z</time></trkpt>
 <trkpt lat="48.878720300" lon="11.079016600"><ele>380</ele><time>2014-07-04T08:21:23Z</time></trkpt>
 <trkpt lat="48.878739500" lon="11.079085300"><ele>381</ele><time>2014-07-04T08:21:27Z</time></trkpt>
 <trkpt lat="48.878771600" lon="11.079139900"><ele>381</ele><time>2014-07-04T08:21:31Z</time></trkpt>
 <trkpt lat="48.878799900" lon="11.079182000"><ele>382</ele><time>2014-07-04T08:21:35Z</time></trkpt>
 <trkpt lat="48.878835800" lon="11.079235800"><ele>383</ele><time>2014-07-04T08:21:39Z</time></trkpt>
 <trkpt lat="48.878873700" lon="11.079287800"><ele>384</ele><time>2014-07-04T08:21:43Z</time></trkpt>
 <trkpt lat="48.878911600" lon="11.079258300"><ele>384</ele><time>2014-07-04T08:21:47Z</time></trkpt>
 <trkpt lat="48.878930300" lon="11.079198300"><ele>385</ele><time>2014-07-04T08:21:51Z</time></trkpt>
 <trkpt lat="48.878938700" lon="11.079210300"><ele>386</ele><time>2014-07-04T08:21:55Z</time></trkpt>
 <trkpt lat="48.878943700" lon="11.079223300"><ele>387</ele><time>2014-07-04T08:21:59Z</time></trkpt>
 <trkpt lat="48.878952400" lon="11.079240300"><ele>387</ele><time>2014-07-04T08:22:03Z</time></trkpt>
 <trkpt lat="48.878957000" lon="11.079250400"><ele>388</ele><time>2014-07-04T08:22:07Z</time></trkpt>
 <trkpt lat="48.878957000" lon="11.079250400"><ele>389</ele><time>2014-07-04T08:22:11Z</time></trkpt>
 <trkpt lat="48.878957000" lon="11.079250400"><ele>390</ele><time>2014-07-04T08:22:15Z</time></trkpt>
 <trkpt lat="48.878964100" lon="11.079263700"><ele>390</ele><time>2014-07-04T08:22:19Z</time></trkpt>
 <trkpt lat="48.878982400" lon="11.079311600"><ele>391</ele><time>2014-07-04T08:22:23Z</time></trkpt>
 <trkpt lat="48.879001600" lon="11.079360800"><ele>391</ele><time>2014-07-04T08:22:27Z</time></trkpt>
 <trkpt lat="48.879008700" lon="11.079440300"><ele>392</ele><time>2014-07-04T08:22:31Z</time></trkpt>
 <trkpt lat="48.879011600" lon="11.079493300"><ele>392</ele><time>2014-07-04T08:22:35Z</time></trkpt>
 <trkpt lat="48.879012800" lon="11.079501600"><ele>392</ele><time>2014-07-04T08:22:39Z</time></trkpt>
 <trkpt lat="48.879019500" lon="11.079512400"><ele>392</ele><time>2014-07-04T08:22:43Z</time></trkpt>
 <trkpt lat="48.879045800" lon="11.079551600"><ele>393</ele><time>2014-07-04T08:22:47Z</time></trkpt>
 <trkpt lat="48.879069900" lon="11.079585400"><ele>393</ele><time>2014-07-04T08:22:51Z</time></trkpt>
 <trkpt lat="48.879087900" lon="11.079613700"><ele>393</ele><time>2014-07-04T08:22:55Z</time></trkpt>
 <trkpt lat="48.879107000" lon="11.079656600"><ele>394</ele><time>2014-07-04T08:22:59Z</time></trkpt>
 <trkpt lat="48.879127400" lon="11.079705800"><ele>394</ele><time>2014-07-04T08:23:03Z</time></trkpt>
 <trkpt lat="48.879158700" lon="11.079752900"><ele>395</ele><time>2014-07-04T08:23:07Z</time></trkpt>
 <trkpt lat="48.879177800" lon="11.079790300"><ele>395</ele><time>2014-07-04T08:23:11Z</time></trkpt>
 <trkpt lat="48.879180300" lon="11.079839500"><ele>396</ele><time>2014-07-04T08:23:15Z</time></trkpt>
 <trkpt lat="48.879156200" lon="11.079886600"><ele>396</ele><time>2014-07-04T08:23:19Z</time></trkpt>
 <trkpt lat="48.879126600" lon="11.079936600"><ele>397</ele><time>2014-07-04T08:23:23Z</time></trkpt>
 <trkpt lat="48.879080800" lon="11.079986600"><ele>398</ele><time>2014-07-04T08:23:27Z</time></trkpt>
 <trkpt lat="48.879000000" lon="11.080084500"><ele>399</ele><time>2014-07-04T08:23:31Z</time></trkpt>
 <trkpt lat="48.878933300" lon="11.080133300"><ele>400</ele><time>2014-07-04T08:23:35Z</time></trkpt>
 <trkpt lat="48.878897400" lon="11.080074500"><ele>401</ele><time>2014-07-04T08:23:39Z</time></trkpt>
 <trkpt lat="48.878854900" lon="11.080042800"><ele>402</ele><time>2014-07-04T08:23:43Z</time></trkpt>
 <trkpt lat="48.878816600" lon="11.080008300"><ele>403</ele><time>2014-07-04T08:23:47Z</time></trkpt>
 <trkpt lat="48.878774100" lon="11.079991200"><ele>404</ele><time>2014-07-04T08:23:51Z</time></trkpt>
 <trkpt lat="48.878758700" lon="11.079982400"><ele>405</ele><time>2014-07-04T08:23:55Z</time></trkpt>
 <trkpt lat="48.878758700" lon="11.079982400"><ele>406</ele><time>2014-07-04T08:23:59Z</time></trkpt>
 <trkpt lat="48.878754100" lon="11.079976600"><ele>407</ele><time>2014-07-04T08:24:03Z</time></trkpt>
 <trkpt lat="48.878737400" lon="11.079947400"><ele>408</ele><time>2014-07-04T08:24:07Z</time></trkpt>
 <trkpt lat="48.878727400" lon="11.079931200"><ele>409</ele><time>2014-07-04T08:24:11Z</time></trkpt>
 <trkpt lat="48.878723300" lon="11.079923700"><ele>409</ele><time>2014-07-04T08:24:15Z</time></trkpt>
 <trkpt lat="48.878702400" lon="11.079914900"><ele>410</ele><time>2014-07-04T08:24:19Z</time></trkpt>
 <trkpt lat="48.878665400" lon="11.079928300"><ele>411</ele><time>2014-07-04T08:24:23Z</time></trkpt>
 <trkpt lat="48.878621200" lon="11.079949500"><ele>411</ele><time>2014-07-04T08:24:27Z</time></trkpt>
 <trkpt lat="48.878579100" lon="11.079966200"><ele>412</ele><time>2014-07-04T08:24:31Z</time></trkpt>
 <trkpt lat="48.878524100" lon="11.079964500"><ele>412</ele><time>2014-07-04T08:24:35Z</time></trkpt>
 <trkpt lat="48.878485300" lon="11.079965800"><ele>412</ele><time>2014-07-04T08:24:39Z</time></trkpt>
 <trkpt lat="48.878450800" lon="11.079980800"><ele>412</ele><time>2014-07-04T08:24:43Z</time></trkpt>
 <trkpt lat="48.878411600" lon="11.079992900"><ele>412</ele><time>2014-07-04T08:24:47Z</time></trkpt>
 <trkpt lat="48.878369900" lon="11.080007000"><ele>413</ele><time>2014-07-04T08:24:51Z</time></trkpt>
 <trkpt lat="48.878309900" lon="11.080033700"><ele>413</ele><time>2014-07-04T08:24:55Z</time></trkpt>
 <trkpt lat="48.878255800" lon="11.080012000"><ele>413</ele><time>2014-07-04T08:24:59Z</time></trkpt>
 <trkpt lat="48.878209500" lon="11.080000300"><ele>413</ele><time>2014-07-04T08:25:03Z</time></trkpt>
 <trkpt lat="48.878163300" lon="11.079976200"><ele>414</ele><time>2014-07-04T08:25:07Z</time></trkpt>
 <trkpt lat="48.878117000" lon="11.079971600"><ele>414</ele><time>2014-07-04T08:25:11Z</time></trkpt>
 <trkpt lat="48.878072400" lon="11.079966200"><ele>415</ele><time>2014-07-04T08:25:15Z</time></trkpt>
 <trkpt lat="48.878032800" lon="11.079960800"><ele>415</ele><time>2014-07-04T08:25:19Z</time></trkpt>
 <trkpt lat="48.878010700" lon="11.079965800"><ele>416</ele><time>2014-07-04T08:25:23Z</time></trkpt>
 <trkpt lat="48.877987400" lon="11.079970800"><ele>417</ele><time>2014-07-04T08:25:27Z</time></trkpt>
 <trkpt lat="48.877948700" lon="11.079957800"><ele>417</ele><time>2014-07-04T08:25:31Z</time></trkpt>
 <trkpt lat="48.877852000" lon="11.079940700"><ele>418</ele><time>2014-07-04T08:25:35Z</time></trkpt>
 <trkpt lat="48.877772900" lon="11.079932000"><ele>419</ele><time>2014-07-04T08:25:39Z</time></trkpt>
 <trkpt lat="48.877721600" lon="11.079953700"><ele>421</ele><time>2014-07-04T08:25:43Z</time></trkpt>
 <trkpt lat="48.877663700" lon="11.079962800"><ele>422</ele><time>2014-07-04T08:25:47Z</time></trkpt>
 <trkpt lat="48.877588300" lon="11.079978300"><ele>423</ele><time>2014-07-04T08:25:51Z</time></trkpt>
 <trkpt lat="48.877518300" lon="11.079976200"><ele>425</ele><time>2014-07-04T08:25:55Z</time></trkpt>
 <trkpt lat="48.877457000" lon="11.079978300"><ele>426</ele><time>2014-07-04T08:25:59Z</time></trkpt>
 <trkpt lat="48.877401200" lon="11.079958700"><ele>428</ele><time>2014-07-04T08:26:03Z</time></trkpt>
 <trkpt lat="48.877367800" lon="11.079957500"><ele>429</ele><time>2014-07-04T08:26:07Z</time></trkpt>
 <trkpt lat="48.877321600" lon="11.079962400"><ele>431</ele><time>2014-07-04T08:26:11Z</time></trkpt>
 <trkpt lat="48.877297400" lon="11.079971600"><ele>432</ele><time>2014-07-04T08:26:15Z</time></trkpt>
 <trkpt lat="48.877279900" lon="11.079996600"><ele>434</ele><time>2014-07-04T08:26:19Z</time></trkpt>
 <trkpt lat="48.877284100" lon="11.080040800"><ele>435</ele><time>2014-07-04T08:26:23Z</time></trkpt>
 <trkpt lat="48.877298300" lon="11.080084100"><ele>437</ele><time>2014-07-04T08:26:27Z</time></trkpt>
 <trkpt lat="48.877312800" lon="11.080109100"><ele>438</ele><time>2014-07-04T08:26:31Z</time></trkpt>
 <trkpt lat="48.877316200" lon="11.080137500"><ele>439</ele><time>2014-07-04T08:26:35Z</time></trkpt>
 <trkpt lat="48.877323700" lon="11.080167000"><ele>441</ele><time>2014-07-04T08:26:39Z</time></trkpt>
 <trkpt lat="48.877327000" lon="11.080196600"><ele>442</ele><time>2014-07-04T08:26:43Z</time></trkpt>
 <trkpt lat="48.877330300" lon="11.080225800"><ele>442</ele><time>2014-07-04T08:26:47Z</time></trkpt>
 <trkpt lat="48.877360300" lon="11.080190300"><ele>443</ele><time>2014-07-04T08:26:51Z</time></trkpt>
 <trkpt lat="48.877362000" lon="11.080177400"><ele>443</ele><time>2014-07-04T08:26:55Z</time></trkpt>
 <trkpt lat="48.877326600" lon="11.080155800"><ele>442</ele><time>2014-07-04T08:26:59Z</time></trkpt>
 <trkpt lat="48.877246200" lon="11.080119100"><ele>442</ele><time>2014-07-04T08:27:03Z</time></trkpt>
 <trkpt lat="48.877152000" lon="11.080101600"><ele>441</ele><time>2014-07-04T08:27:07Z</time></trkpt>
 <trkpt lat="48.877096600" lon="11.080081200"><ele>439</ele><time>2014-07-04T08:27:11Z</time></trkpt>
 <trkpt lat="48.877007000" lon="11.080185400"><ele>438</ele><time>2014-07-04T08:27:15Z</time></trkpt>
 <trkpt lat="48.876868700" lon="11.080299500"><ele>436</ele><time>2014-07-04T08:27:19Z</time></trkpt>
 <trkpt lat="48.876790700" lon="11.080335400"><ele>434</ele><time>2014-07-04T08:27:23Z</time></trkpt>
 <trkpt lat="48.876747000" lon="11.080318300"><ele>432</ele><time>2014-07-04T08:27:27Z</time></trkpt>
 <trkpt lat="48.876733700" lon="11.080251200"><ele>429</ele><time>2014-07-04T08:27:31Z</time></trkpt>
 <trkpt lat="48.876719100" lon="11.080218300"><ele>427</ele><time>2014-07-04T08:27:35Z</time></trkpt>
 <trkpt lat="48.876689500" lon="11.080236600"><ele>424</ele><time>2014-07-04T08:27:39Z</time></trkpt>
 <trkpt lat="48.876663300" lon="11.080272400"><ele>422</ele><time>2014-07-04T08:27:43Z</time></trkpt>
 <trkpt lat="48.876642400" lon="11.080315800"><ele>419</ele><time>2014-07-04T08:27:47Z</time></trkpt>
 <trkpt lat="48.876606200" lon="11.080369500"><ele>417</ele><time>2014-07-04T08:27:51Z</time></trkpt>
 <trkpt lat="48.876569100" lon="11.080419100"><ele>415</ele><time>2014-07-04T08:27:55Z</time></trkpt>
 <trkpt lat="48.876539900" lon="11.080483300"><ele>413</ele><time>2014-07-04T08:27:59Z</time></trkpt>
 <trkpt lat="48.876524100" lon="11.080539500"><ele>411</ele><time>2014-07-04T08:28:03Z</time></trkpt>
 <trkpt lat="48.876505800" lon="11.080593700"><ele>409</ele><time>2014-07-04T08:28:07Z</time></trkpt>
 <trkpt lat="48.876484900" lon="11.080637800"><ele>407</ele><time>2014-07-04T08:28:11Z</time></trkpt>
 <trkpt lat="48.876464100" lon="11.080689100"><ele>406</ele><time>2014-07-04T08:28:15Z</time></trkpt>
 <trkpt lat="48.876443700" lon="11.080729900"><ele>404</ele><time>2014-07-04T08:28:19Z</time></trkpt>
 <trkpt lat="48.876427000" lon="11.080771600"><ele>403</ele><time>2014-07-04T08:28:23Z</time></trkpt>
 <trkpt lat="48.876402500" lon="11.080823700"><ele>402</ele><time>2014-07-04T08:28:27Z</time></trkpt>
 <trkpt lat="48.876373700" lon="11.080879500"><ele>400</ele><time>2014-07-04T08:28:31Z</time></trkpt>
 <trkpt lat="48.876349100" lon="11.080925800"><ele>399</ele><time>2014-07-04T08:28:35Z</time></trkpt>
 <trkpt lat="48.876327400" lon="11.080976200"><ele>398</ele><time>2014-07-04T08:28:39Z</time></trkpt>
 <trkpt lat="48.876305300" lon="11.081017000"><ele>397</ele><time>2014-07-04T08:28:43Z</time></trkpt>
 <trkpt lat="48.876286600" lon="11.081071200"><ele>396</ele><time>2014-07-04T08:28:47Z</time></trkpt>
 <trkpt lat="48.876257400" lon="11.081119500"><ele>394</ele><time>2014-07-04T08:28:51Z</time></trkpt>
 <trkpt lat="48.876236200" lon="11.081162400"><ele>393</ele><time>2014-07-04T08:28:55Z</time></trkpt>
 <trkpt lat="48.876212400" lon="11.081210300"><ele>392</ele><time>2014-07-04T08:28:59Z</time></trkpt>
 <trkpt lat="48.876190300" lon="11.081267000"><ele>391</ele><time>2014-07-04T08:29:03Z</time></trkpt>
 <trkpt lat="48.876151200" lon="11.081326200"><ele>390</ele><time>2014-07-04T08:29:07Z</time></trkpt>
 <trkpt lat="48.876108200" lon="11.081380800"><ele>389</ele><time>2014-07-04T08:29:11Z</time></trkpt>
 <trkpt lat="48.876073700" lon="11.081446600"><ele>388</ele><time>2014-07-04T08:29:15Z</time></trkpt>
 <trkpt lat="48.876050800" lon="11.081510300"><ele>388</ele><time>2014-07-04T08:29:19Z</time></trkpt>
 <trkpt lat="48.876020300" lon="11.081574500"><ele>387</ele><time>2014-07-04T08:29:23Z</time></trkpt>
 <trkpt lat="48.876002800" lon="11.081632800"><ele>386</ele><time>2014-07-04T08:29:27Z</time></trkpt>
 <trkpt lat="48.875971200" lon="11.081694500"><ele>386</ele><time>2014-07-04T08:29:31Z</time></trkpt>
 <trkpt lat="48.875957400" lon="11.081733700"><ele>385</ele><time>2014-07-04T08:29:35Z</time></trkpt>
 <trkpt lat="48.875963700" lon="11.081745800"><ele>385</ele><time>2014-07-04T08:29:39Z</time></trkpt>
 <trkpt lat="48.875949500" lon="11.081779500"><ele>385</ele><time>2014-07-04T08:29:43Z</time></trkpt>
 <trkpt lat="48.875909900" lon="11.081847400"><ele>385</ele><time>2014-07-04T08:29:47Z</time></trkpt>
 <trkpt lat="48.875865300" lon="11.081929100"><ele>384</ele><time>2014-07-04T08:29:51Z</time></trkpt>
 <trkpt lat="48.875833700" lon="11.081998700"><ele>384</ele><time>2014-07-04T08:29:55Z</time></trkpt>
 <trkpt lat="48.875801200" lon="11.082049900"><ele>384</ele><time>2014-07-04T08:29:59Z</time></trkpt>
 <trkpt lat="48.875785300" lon="11.082107400"><ele>384</ele><time>2014-07-04T08:30:03Z</time></trkpt>
 <trkpt lat="48.875750400" lon="11.082177000"><ele>385</ele><time>2014-07-04T08:30:07Z</time></trkpt>
 <trkpt lat="48.875715800" lon="11.082239100"><ele>385</ele><time>2014-07-04T08:30:11Z</time></trkpt>
 <trkpt lat="48.875688200" lon="11.082297900"><ele>385</ele><time>2014-07-04T08:30:15Z</time></trkpt>
 <trkpt lat="48.875669500" lon="11.082361200"><ele>385</ele><time>2014-07-04T08:30:19Z</time></trkpt>
 <trkpt lat="48.875657000" lon="11.082419500"><ele>385</ele><time>2014-07-04T08:30:23Z</time></trkpt>
 <trkpt lat="48.875647800" lon="11.082473300"><ele>385</ele><time>2014-07-04T08:30:27Z</time></trkpt>
 <trkpt lat="48.875637000" lon="11.082529900"><ele>385</ele><time>2014-07-04T08:30:31Z</time></trkpt>
 <trkpt lat="48.875625800" lon="11.082589100"><ele>385</ele><time>2014-07-04T08:30:35Z</time></trkpt>
 <trkpt lat="48.875624500" lon="11.082650300"><ele>385</ele><time>2014-07-04T08:30:39Z</time></trkpt>
 <trkpt lat="48.875615300" lon="11.082706600"><ele>386</ele><time>2014-07-04T08:30:43Z</time></trkpt>
 <trkpt lat="48.875606600" lon="11.082762500"><ele>386</ele><time>2014-07-04T08:30:47Z</time></trkpt>
 <trkpt lat="48.875596200" lon="11.082819500"><ele>386</ele><time>2014-07-04T08:30:51Z</time></trkpt>
 <trkpt lat="48.875589900" lon="11.082864100"><ele>386</ele><time>2014-07-04T08:30:55Z</time></trkpt>
 <trkpt lat="48.875585800" lon="11.082909900"><ele>386</ele><time>2014-07-04T08:30:59Z</time></trkpt>
 <trkpt lat="48.875584500" lon="11.082939100"><ele>386</ele><time>2014-07-04T08:31:03Z</time></trkpt>
 <trkpt lat="48.875579500" lon="11.082963300"><ele>386</ele><time>2014-07-04T08:31:07Z</time></trkpt>
 <trkpt lat="48.875579500" lon="11.082963300"><ele>386</ele><time>2014-07-04T08:31:11Z</time></trkpt>
 <trkpt lat="48.875582400" lon="11.082957000"><ele>387</ele><time>2014-07-04T08:31:15Z</time></trkpt>
 <trkpt lat="48.875584500" lon="11.082965800"><ele>387</ele><time>2014-07-04T08:31:19Z</time></trkpt>
 <trkpt lat="48.875578300" lon="11.082967400"><ele>387</ele><time>2014-07-04T08:31:23Z</time></trkpt>
 <trkpt lat="48.875579100" lon="11.082957000"><ele>387</ele><time>2014-07-04T08:31:27Z</time></trkpt>
 <trkpt lat="48.875580400" lon="11.082947400"><ele>387</ele><time>2014-07-04T08:31:31Z</time></trkpt>
 <trkpt lat="48.875580400" lon="11.082947400"><ele>388</ele><time>2014-07-04T08:31:35Z</time></trkpt>
 <trkpt lat="48.875580400" lon="11.082947400"><ele>388</ele><time>2014-07-04T08:31:39Z</time></trkpt>
 <trkpt lat="48.875576600" lon="11.082954100"><ele>388</ele><time>2014-07-04T08:31:43Z</time></trkpt>
 <trkpt lat="48.875570800" lon="11.082976600"><ele>389</ele><time>2014-07-04T08:31:47Z</time></trkpt>
 <trkpt lat="48.875567000" lon="11.083022400"><ele>389</ele><time>2014-07-04T08:31:51Z</time></trkpt>
 <trkpt lat="48.875553700" lon="11.083086600"><ele>389</ele><time>2014-07-04T08:31:55Z</time></trkpt>
 <trkpt lat="48.875537800" lon="11.083149900"><ele>390</ele><time>2014-07-04T08:31:59Z</time></trkpt>
 <trkpt lat="48.875529100" lon="11.083215400"><ele>391</ele><time>2014-07-04T08:32:03Z</time></trkpt>
 <trkpt lat="48.875525000" lon="11.083292400"><ele>391</ele><time>2014-07-04T08:32:07Z</time></trkpt>
 <trkpt lat="48.875523300" lon="11.083346200"><ele>392</ele><time>2014-07-04T08:32:11Z</time></trkpt>
 <trkpt lat="48.875527400" lon="11.083393700"><ele>393</ele><time>2014-07-04T08:32:15Z</time></trkpt>
 <trkpt lat="48.875525800" lon="11.083442400"><ele>394</ele><time>2014-07-04T08:32:19Z</time></trkpt>
 <trkpt lat="48.875523300" lon="11.083485000"><ele>396</ele><time>2014-07-04T08:32:23Z</time></trkpt>
 <trkpt lat="48.875520700" lon="11.083528300"><ele>397</ele><time>2014-07-04T08:32:27Z</time></trkpt>
 <trkpt lat="48.875517000" lon="11.083581600"><ele>399</ele><time>2014-07-04T08:32:31Z</time></trkpt>
 <trkpt lat="48.875517000" lon="11.083627800"><ele>400</ele><time>2014-07-04T08:32:35Z</time></trkpt>
 <trkpt lat="48.875509900" lon="11.083674100"><ele>402</ele><time>2014-07-04T08:32:39Z</time></trkpt>
 <trkpt lat="48.875503700" lon="11.083715000"><ele>403</ele><time>2014-07-04T08:32:43Z</time></trkpt>
 <trkpt lat="48.875502000" lon="11.083749500"><ele>405</ele><time>2014-07-04T08:32:47Z</time></trkpt>
 <trkpt lat="48.875503700" lon="11.083776200"><ele>406</ele><time>2014-07-04T08:32:51Z</time></trkpt>
 <trkpt lat="48.875510400" lon="11.083801200"><ele>408</ele><time>2014-07-04T08:32:55Z</time></trkpt>
 <trkpt lat="48.875509100" lon="11.083838200"><ele>410</ele><time>2014-07-04T08:32:59Z</time></trkpt>
 <trkpt lat="48.875502400" lon="11.083862800"><ele>411</ele><time>2014-07-04T08:33:03Z</time></trkpt>
 <trkpt lat="48.875498300" lon="11.083897400"><ele>412</ele><time>2014-07-04T08:33:07Z</time></trkpt>
 <trkpt lat="48.875490300" lon="11.083932400"><ele>414</ele><time>2014-07-04T08:33:11Z</time></trkpt>
 <trkpt lat="48.875484100" lon="11.083977900"><ele>415</ele><time>2014-07-04T08:33:15Z</time></trkpt>
 <trkpt lat="48.875484900" lon="11.084043700"><ele>416</ele><time>2014-07-04T08:33:19Z</time></trkpt>
 <trkpt lat="48.875477900" lon="11.084099100"><ele>417</ele><time>2014-07-04T08:33:23Z</time></trkpt>
 <trkpt lat="48.875456200" lon="11.084153700"><ele>418</ele><time>2014-07-04T08:33:27Z</time></trkpt>
 <trkpt lat="48.875442800" lon="11.084213700"><ele>419</ele><time>2014-07-04T08:33:31Z</time></trkpt>
 <trkpt lat="48.875427800" lon="11.084282000"><ele>420</ele><time>2014-07-04T08:33:35Z</time></trkpt>
 <trkpt lat="48.875408700" lon="11.084345300"><ele>421</ele><time>2014-07-04T08:33:39Z</time></trkpt>
 <trkpt lat="48.875387900" lon="11.084407000"><ele>422</ele><time>2014-07-04T08:33:43Z</time></trkpt>
 <trkpt lat="48.875375300" lon="11.084464900"><ele>422</ele><time>2014-07-04T08:33:47Z</time></trkpt>
 <trkpt lat="48.875352400" lon="11.084525300"><ele>423</ele><time>2014-07-04T08:33:51Z</time></trkpt>
 <trkpt lat="48.875316600" lon="11.084600800"><ele>424</ele><time>2014-07-04T08:33:55Z</time></trkpt>
 <trkpt lat="48.875282400" lon="11.084664500"><ele>425</ele><time>2014-07-04T08:33:59Z</time></trkpt>
 <trkpt lat="48.875257000" lon="11.084689500"><ele>425</ele><time>2014-07-04T08:34:03Z</time></trkpt>
 <trkpt lat="48.875254900" lon="11.084724500"><ele>426</ele><time>2014-07-04T08:34:07Z</time></trkpt>
 <trkpt lat="48.875244500" lon="11.084779100"><ele>427</ele><time>2014-07-04T08:34:11Z</time></trkpt>
 <trkpt lat="48.875232400" lon="11.084838700"><ele>428</ele><time>2014-07-04T08:34:15Z</time></trkpt>
 <trkpt lat="48.875212400" lon="11.084924100"><ele>428</ele><time>2014-07-04T08:34:19Z</time></trkpt>
 <trkpt lat="48.875197400" lon="11.084983700"><ele>429</ele><time>2014-07-04T08:34:23Z</time></trkpt>
 <trkpt lat="48.875168200" lon="11.085044100"><ele>429</ele><time>2014-07-04T08:34:27Z</time></trkpt>
 <trkpt lat="48.875135400" lon="11.085128300"><ele>429</ele><time>2014-07-04T08:34:31Z</time></trkpt>
 <trkpt lat="48.875106600" lon="11.085232400"><ele>430</ele><time>2014-07-04T08:34:35Z</time></trkpt>
 <trkpt lat="48.875064900" lon="11.085325800"><ele>430</ele><time>2014-07-04T08:34:39Z</time></trkpt>
 <trkpt lat="48.875039100" lon="11.085428700"><ele>430</ele><time>2014-07-04T08:34:43Z</time></trkpt>
 <trkpt lat="48.875023700" lon="11.085495300"><ele>430</ele><time>2014-07-04T08:34:47Z</time></trkpt>
 <trkpt lat="48.875006200" lon="11.085557000"><ele>430</ele><time>2014-07-04T08:34:51Z</time></trkpt>
 <trkpt lat="48.874992000" lon="11.085634500"><ele>430</ele><time>2014-07-04T08:34:55Z</time></trkpt>
 <trkpt lat="48.874958300" lon="11.085725800"><ele>431</ele><time>2014-07-04T08:34:59Z</time></trkpt>
 <trkpt lat="48.874944100" lon="11.085801200"><ele>431</ele><time>2014-07-04T08:35:03Z</time></trkpt>
 <trkpt lat="48.874925300" lon="11.085882800"><ele>431</ele><time>2014-07-04T08:35:07Z</time></trkpt>
 <trkpt lat="48.874912800" lon="11.085945700"><ele>431</ele><time>2014-07-04T08:35:11Z</time></trkpt>
 <trkpt lat="48.874910400" lon="11.085996200"><ele>432</ele><time>2014-07-04T08:35:15Z</time></trkpt>
 <trkpt lat="48.874896200" lon="11.086042500"><ele>432</ele><time>2014-07-04T08:35:19Z</time></trkpt>
 <trkpt lat="48.874878700" lon="11.086098700"><ele>433</ele><time>2014-07-04T08:35:23Z</time></trkpt>
 <trkpt lat="48.874869500" lon="11.086156600"><ele>433</ele><time>2014-07-04T08:35:27Z</time></trkpt>
 <trkpt lat="48.874849900" lon="11.086216200"><ele>433</ele><time>2014-07-04T08:35:31Z</time></trkpt>
 <trkpt lat="48.874826200" lon="11.086278300"><ele>434</ele><time>2014-07-04T08:35:35Z</time></trkpt>
 <trkpt lat="48.874810400" lon="11.086341600"><ele>434</ele><time>2014-07-04T08:35:39Z</time></trkpt>
 <trkpt lat="48.874799500" lon="11.086412800"><ele>435</ele><time>2014-07-04T08:35:43Z</time></trkpt>
 <trkpt lat="48.874763700" lon="11.086432900"><ele>435</ele><time>2014-07-04T08:35:47Z</time></trkpt>
 <trkpt lat="48.874738300" lon="11.086476200"><ele>436</ele><time>2014-07-04T08:35:51Z</time></trkpt>
 <trkpt lat="48.874723200" lon="11.086558700"><ele>436</ele><time>2014-07-04T08:35:55Z</time></trkpt>
 <trkpt lat="48.874711600" lon="11.086618700"><ele>436</ele><time>2014-07-04T08:35:59Z</time></trkpt>
 <trkpt lat="48.874678700" lon="11.086705700"><ele>437</ele><time>2014-07-04T08:36:03Z</time></trkpt>
 <trkpt lat="48.874654900" lon="11.086781200"><ele>437</ele><time>2014-07-04T08:36:07Z</time></trkpt>
 <trkpt lat="48.874630800" lon="11.086848300"><ele>437</ele><time>2014-07-04T08:36:11Z</time></trkpt>
 <trkpt lat="48.874607000" lon="11.086908700"><ele>437</ele><time>2014-07-04T08:36:15Z</time></trkpt>
 <trkpt lat="48.874583300" lon="11.086985800"><ele>436</ele><time>2014-07-04T08:36:19Z</time></trkpt>
 <trkpt lat="48.874561200" lon="11.087056600"><ele>436</ele><time>2014-07-04T08:36:23Z</time></trkpt>
 <trkpt lat="48.874529100" lon="11.087116200"><ele>436</ele><time>2014-07-04T08:36:27Z</time></trkpt>
 <trkpt lat="48.874492400" lon="11.087187000"><ele>436</ele><time>2014-07-04T08:36:31Z</time></trkpt>
 <trkpt lat="48.874460800" lon="11.087250400"><ele>436</ele><time>2014-07-04T08:36:35Z</time></trkpt>
 <trkpt lat="48.874431200" lon="11.087328200"><ele>436</ele><time>2014-07-04T08:36:39Z</time></trkpt>
 <trkpt lat="48.874407400" lon="11.087387900"><ele>435</ele><time>2014-07-04T08:36:43Z</time></trkpt>
 <trkpt lat="48.874383300" lon="11.087453700"><ele>435</ele><time>2014-07-04T08:36:47Z</time></trkpt>
 <trkpt lat="48.874344900" lon="11.087519500"><ele>434</ele><time>2014-07-04T08:36:51Z</time></trkpt>
 <trkpt lat="48.874310300" lon="11.087576200"><ele>434</ele><time>2014-07-04T08:36:55Z</time></trkpt>
 <trkpt lat="48.874282400" lon="11.087618300"><ele>433</ele><time>2014-07-04T08:36:59Z</time></trkpt>
 <trkpt lat="48.874258300" lon="11.087674500"><ele>433</ele><time>2014-07-04T08:37:03Z</time></trkpt>
 <trkpt lat="48.874233700" lon="11.087725800"><ele>432</ele><time>2014-07-04T08:37:07Z</time></trkpt>
 <trkpt lat="48.874201600" lon="11.087782000"><ele>432</ele><time>2014-07-04T08:37:11Z</time></trkpt>
 <trkpt lat="48.874173700" lon="11.087841600"><ele>431</ele><time>2014-07-04T08:37:15Z</time></trkpt>
 <trkpt lat="48.874137400" lon="11.087904500"><ele>430</ele><time>2014-07-04T08:37:19Z</time></trkpt>
 <trkpt lat="48.874105800" lon="11.087956200"><ele>429</ele><time>2014-07-04T08:37:23Z</time></trkpt>
 <trkpt lat="48.874075700" lon="11.088015800"><ele>429</ele><time>2014-07-04T08:37:27Z</time></trkpt>
 <trkpt lat="48.874049900" lon="11.088064500"><ele>428</ele><time>2014-07-04T08:37:31Z</time></trkpt>
 <trkpt lat="48.874022000" lon="11.088119500"><ele>427</ele><time>2014-07-04T08:37:35Z</time></trkpt>
 <trkpt lat="48.873993300" lon="11.088168300"><ele>425</ele><time>2014-07-04T08:37:39Z</time></trkpt>
 <trkpt lat="48.873962800" lon="11.088224100"><ele>424</ele><time>2014-07-04T08:37:43Z</time></trkpt>
 <trkpt lat="48.873933300" lon="11.088265700"><ele>423</ele><time>2014-07-04T08:37:47Z</time></trkpt>
 <trkpt lat="48.873903700" lon="11.088319100"><ele>422</ele><time>2014-07-04T08:37:51Z</time></trkpt>
 <trkpt lat="48.873866600" lon="11.088374500"><ele>422</ele><time>2014-07-04T08:37:55Z</time></trkpt>
 <trkpt lat="48.873832800" lon="11.088425800"><ele>421</ele><time>2014-07-04T08:37:59Z</time></trkpt>
 <trkpt lat="48.873799500" lon="11.088478700"><ele>420</ele><time>2014-07-04T08:38:03Z</time></trkpt>
 <trkpt lat="48.873767800" lon="11.088536200"><ele>419</ele><time>2014-07-04T08:38:07Z</time></trkpt>
 <trkpt lat="48.873744100" lon="11.088580800"><ele>419</ele><time>2014-07-04T08:38:11Z</time></trkpt>
 <trkpt lat="48.873728300" lon="11.088559500"><ele>418</ele><time>2014-07-04T08:38:15Z</time></trkpt>
 <trkpt lat="48.873719100" lon="11.088543700"><ele>418</ele><time>2014-07-04T08:38:19Z</time></trkpt>
 <trkpt lat="48.873714500" lon="11.088549500"><ele>418</ele><time>2014-07-04T08:38:23Z</time></trkpt>
 <trkpt lat="48.873710000" lon="11.088564900"><ele>417</ele><time>2014-07-04T08:38:27Z</time></trkpt>
 <trkpt lat="48.873709100" lon="11.088573700"><ele>417</ele><time>2014-07-04T08:38:31Z</time></trkpt>
 <trkpt lat="48.873705000" lon="11.088592400"><ele>417</ele><time>2014-07-04T08:38:35Z</time></trkpt>
 <trkpt lat="48.873706200" lon="11.088602800"><ele>417</ele><time>2014-07-04T08:38:39Z</time></trkpt>
 <trkpt lat="48.873707400" lon="11.088612400"><ele>417</ele><time>2014-07-04T08:38:43Z</time></trkpt>
 <trkpt lat="48.873707400" lon="11.088612400"><ele>417</ele><time>2014-07-04T08:38:47Z</time></trkpt>
 <trkpt lat="48.873698700" lon="11.088616200"><ele>417</ele><time>2014-07-04T08:38:51Z</time></trkpt>
 <trkpt lat="48.873694500" lon="11.088607400"><ele>417</ele><time>2014-07-04T08:38:55Z</time></trkpt>
 <trkpt lat="48.873685800" lon="11.088629100"><ele>417</ele><time>2014-07-04T08:38:59Z</time></trkpt>
 <trkpt lat="48.873675300" lon="11.088694100"><ele>417</ele><time>2014-07-04T08:39:03Z</time></trkpt>
 <trkpt lat="48.873663700" lon="11.088752400"><ele>418</ele><time>2014-07-04T08:39:07Z</time></trkpt>
 <trkpt lat="48.873633300" lon="11.088832900"><ele>418</ele><time>2014-07-04T08:39:11Z</time></trkpt>
 <trkpt lat="48.873591600" lon="11.088890800"><ele>418</ele><time>2014-07-04T08:39:15Z</time></trkpt>
 <trkpt lat="48.873555800" lon="11.088946200"><ele>418</ele><time>2014-07-04T08:39:19Z</time></trkpt>
 <trkpt lat="48.873514100" lon="11.089017400"><ele>418</ele><time>2014-07-04T08:39:23Z</time></trkpt>
 <trkpt lat="48.873467900" lon="11.089067400"><ele>418</ele><time>2014-07-04T08:39:27Z</time></trkpt>
 <trkpt lat="48.873417000" lon="11.089111200"><ele>418</ele><time>2014-07-04T08:39:31Z</time></trkpt>
 <trkpt lat="48.873361200" lon="11.089164500"><ele>418</ele><time>2014-07-04T08:39:35Z</time></trkpt>
 <trkpt lat="48.873310300" lon="11.089203300"><ele>419</ele><time>2014-07-04T08:39:39Z</time></trkpt>
 <trkpt lat="48.873257400" lon="11.089250800"><ele>419</ele><time>2014-07-04T08:39:43Z</time></trkpt>
 <trkpt lat="48.873209500" lon="11.089307400"><ele>419</ele><time>2014-07-04T08:39:47Z</time></trkpt>
 <trkpt lat="48.873175300" lon="11.089347000"><ele>419</ele><time>2014-07-04T08:39:51Z</time></trkpt>
 <trkpt lat="48.873135400" lon="11.089405300"><ele>420</ele><time>2014-07-04T08:39:55Z</time></trkpt>
 <trkpt lat="48.873085300" lon="11.089461200"><ele>420</ele><time>2014-07-04T08:39:59Z</time></trkpt>
 <trkpt lat="48.873026600" lon="11.089502400"><ele>421</ele><time>2014-07-04T08:40:03Z</time></trkpt>
 <trkpt lat="48.872976200" lon="11.089554900"><ele>421</ele><time>2014-07-04T08:40:07Z</time></trkpt>
 <trkpt lat="48.872924900" lon="11.089619500"><ele>421</ele><time>2014-07-04T08:40:11Z</time></trkpt>
 <trkpt lat="48.872885800" lon="11.089676200"><ele>422</ele><time>2014-07-04T08:40:15Z</time></trkpt>
 <trkpt lat="48.872847900" lon="11.089736600"><ele>422</ele><time>2014-07-04T08:40:19Z</time></trkpt>
 <trkpt lat="48.872804500" lon="11.089800300"><ele>422</ele><time>2014-07-04T08:40:23Z</time></trkpt>
 <trkpt lat="48.872761600" lon="11.089847500"><ele>422</ele><time>2014-07-04T08:40:27Z</time></trkpt>
 <trkpt lat="48.872713300" lon="11.089904900"><ele>422</ele><time>2014-07-04T08:40:31Z</time></trkpt>
 <trkpt lat="48.872679100" lon="11.089960800"><ele>422</ele><time>2014-07-04T08:40:35Z</time></trkpt>
 <trkpt lat="48.872649900" lon="11.090002000"><ele>422</ele><time>2014-07-04T08:40:39Z</time></trkpt>
 <trkpt lat="48.872606600" lon="11.090063300"><ele>422</ele><time>2014-07-04T08:40:43Z</time></trkpt>
 <trkpt lat="48.872567000" lon="11.090118700"><ele>422</ele><time>2014-07-04T08:40:47Z</time></trkpt>
 <trkpt lat="48.872535300" lon="11.090177000"><ele>422</ele><time>2014-07-04T08:40:51Z</time></trkpt>
 <trkpt lat="48.872496600" lon="11.090235700"><ele>422</ele><time>2014-07-04T08:40:55Z</time></trkpt>
 <trkpt lat="48.872470300" lon="11.090279500"><ele>421</ele><time>2014-07-04T08:40:59Z</time></trkpt>
 <trkpt lat="48.872448700" lon="11.090347000"><ele>421</ele><time>2014-07-04T08:41:03Z</time></trkpt>
 <trkpt lat="48.872425300" lon="11.090407000"><ele>421</ele><time>2014-07-04T08:41:07Z</time></trkpt>
 <trkpt lat="48.872396200" lon="11.090462400"><ele>420</ele><time>2014-07-04T08:41:11Z</time></trkpt>
 <trkpt lat="48.872372000" lon="11.090518300"><ele>420</ele><time>2014-07-04T08:41:15Z</time></trkpt>
 <trkpt lat="48.872350700" lon="11.090574900"><ele>419</ele><time>2014-07-04T08:41:19Z</time></trkpt>
 <trkpt lat="48.872329900" lon="11.090637000"><ele>419</ele><time>2014-07-04T08:41:23Z</time></trkpt>
 <trkpt lat="48.872312000" lon="11.090702000"><ele>418</ele><time>2014-07-04T08:41:27Z</time></trkpt>
 <trkpt lat="48.872287400" lon="11.090768300"><ele>418</ele><time>2014-07-04T08:41:31Z</time></trkpt>
 <trkpt lat="48.872257000" lon="11.090837000"><ele>418</ele><time>2014-07-04T08:41:35Z</time></trkpt>
 <trkpt lat="48.872219500" lon="11.090896600"><ele>418</ele><time>2014-07-04T08:41:39Z</time></trkpt>
 <trkpt lat="48.872175800" lon="11.090964100"><ele>417</ele><time>2014-07-04T08:41:43Z</time></trkpt>
 <trkpt lat="48.872146200" lon="11.091020300"><ele>417</ele><time>2014-07-04T08:41:47Z</time></trkpt>
 <trkpt lat="48.872107800" lon="11.091092400"><ele>417</ele><time>2014-07-04T08:41:51Z</time></trkpt>
 <trkpt lat="48.872073700" lon="11.091141600"><ele>417</ele><time>2014-07-04T08:41:55Z</time></trkpt>
 <trkpt lat="48.872035800" lon="11.091204100"><ele>417</ele><time>2014-07-04T08:41:59Z</time></trkpt>
 <trkpt lat="48.872002800" lon="11.091266200"><ele>416</ele><time>2014-07-04T08:42:03Z</time></trkpt>
 <trkpt lat="48.871971600" lon="11.091313700"><ele>416</ele><time>2014-07-04T08:42:07Z</time></trkpt>
 <trkpt lat="48.871937000" lon="11.091359500"><ele>416</ele><time>2014-07-04T08:42:11Z</time></trkpt>
 <trkpt lat="48.871888700" lon="11.091406200"><ele>416</ele><time>2014-07-04T08:42:15Z</time></trkpt>
 <trkpt lat="48.871851600" lon="11.091456600"><ele>416</ele><time>2014-07-04T08:42:19Z</time></trkpt>
 <trkpt lat="48.871809500" lon="11.091513300"><ele>416</ele><time>2014-07-04T08:42:23Z</time></trkpt>
 <trkpt lat="48.871770300" lon="11.091576600"><ele>416</ele><time>2014-07-04T08:42:27Z</time></trkpt>
 <trkpt lat="48.871742400" lon="11.091623300"><ele>416</ele><time>2014-07-04T08:42:31Z</time></trkpt>
 <trkpt lat="48.871704100" lon="11.091690400"><ele>417</ele><time>2014-07-04T08:42:35Z</time></trkpt>
 <trkpt lat="48.871670700" lon="11.091752000"><ele>417</ele><time>2014-07-04T08:42:39Z</time></trkpt>
 <trkpt lat="48.871630800" lon="11.091821600"><ele>417</ele><time>2014-07-04T08:42:43Z</time></trkpt>
 <trkpt lat="48.871594500" lon="11.091884900"><ele>417</ele><time>2014-07-04T08:42:47Z</time></trkpt>
 <trkpt lat="48.871554900" lon="11.091934100"><ele>418</ele><time>2014-07-04T08:42:51Z</time></trkpt>
 <trkpt lat="48.871511600" lon="11.091994100"><ele>418</ele><time>2014-07-04T08:42:55Z</time></trkpt>
 <trkpt lat="48.871481200" lon="11.092040300"><ele>418</ele><time>2014-07-04T08:42:59Z</time></trkpt>
 <trkpt lat="48.871442900" lon="11.092107000"><ele>418</ele><time>2014-07-04T08:43:03Z</time></trkpt>
 <trkpt lat="48.871407400" lon="11.092172000"><ele>419</ele><time>2014-07-04T08:43:07Z</time></trkpt>
 <trkpt lat="48.871371200" lon="11.092225800"><ele>419</ele><time>2014-07-04T08:43:11Z</time></trkpt>
 <trkpt lat="48.871320800" lon="11.092283700"><ele>419</ele><time>2014-07-04T08:43:15Z</time></trkpt>
 <trkpt lat="48.871280700" lon="11.092333700"><ele>420</ele><time>2014-07-04T08:43:19Z</time></trkpt>
 <trkpt lat="48.871233300" lon="11.092375400"><ele>420</ele><time>2014-07-04T08:43:23Z</time></trkpt>
 <trkpt lat="48.871190800" lon="11.092420800"><ele>420</ele><time>2014-07-04T08:43:27Z</time></trkpt>
 <trkpt lat="48.871154100" lon="11.092460800"><ele>420</ele><time>2014-07-04T08:43:31Z</time></trkpt>
 <trkpt lat="48.871113300" lon="11.092495300"><ele>420</ele><time>2014-07-04T08:43:35Z</time></trkpt>
 <trkpt lat="48.871074900" lon="11.092519100"><ele>420</ele><time>2014-07-04T08:43:39Z</time></trkpt>
 <trkpt lat="48.871033700" lon="11.092567400"><ele>420</ele><time>2014-07-04T08:43:43Z</time></trkpt>
 <trkpt lat="48.870977000" lon="11.092626200"><ele>420</ele><time>2014-07-04T08:43:47Z</time></trkpt>
 <trkpt lat="48.870932800" lon="11.092669900"><ele>420</ele><time>2014-07-04T08:43:51Z</time></trkpt>
 <trkpt lat="48.870895000" lon="11.092713700"><ele>420</ele><time>2014-07-04T08:43:55Z</time></trkpt>
 <trkpt lat="48.870865800" lon="11.092760800"><ele>420</ele><time>2014-07-04T08:43:59Z</time></trkpt>
 <trkpt lat="48.870830800" lon="11.092821200"><ele>420</ele><time>2014-07-04T08:44:03Z</time></trkpt>
 <trkpt lat="48.870801200" lon="11.092882800"><ele>420</ele><time>2014-07-04T08:44:07Z</time></trkpt>
 <trkpt lat="48.870767400" lon="11.092949100"><ele>419</ele><time>2014-07-04T08:44:11Z</time></trkpt>
 <trkpt lat="48.870722000" lon="11.092993700"><ele>419</ele><time>2014-07-04T08:44:15Z</time></trkpt>
 <trkpt lat="48.870679900" lon="11.093046600"><ele>419</ele><time>2014-07-04T08:44:19Z</time></trkpt>
 <trkpt lat="48.870630400" lon="11.093101200"><ele>419</ele><time>2014-07-04T08:44:23Z</time></trkpt>
 <trkpt lat="48.870587800" lon="11.093141200"><ele>419</ele><time>2014-07-04T08:44:27Z</time></trkpt>
 <trkpt lat="48.870547800" lon="11.093182000"><ele>419</ele><time>2014-07-04T08:44:31Z</time></trkpt>
 <trkpt lat="48.870515800" lon="11.093230800"><ele>419</ele><time>2014-07-04T08:44:35Z</time></trkpt>
 <trkpt lat="48.870487400" lon="11.093287000"><ele>420</ele><time>2014-07-04T08:44:39Z</time></trkpt>
 <trkpt lat="48.870456200" lon="11.093325800"><ele>420</ele><time>2014-07-04T08:44:43Z</time></trkpt>
 <trkpt lat="48.870394100" lon="11.093362000"><ele>420</ele><time>2014-07-04T08:44:47Z</time></trkpt>
 <trkpt lat="48.870351600" lon="11.093419900"><ele>421</ele><time>2014-07-04T08:44:51Z</time></trkpt>
 <trkpt lat="48.870311200" lon="11.093467000"><ele>421</ele><time>2014-07-04T08:44:55Z</time></trkpt>
 <trkpt lat="48.870268700" lon="11.093506200"><ele>422</ele><time>2014-07-04T08:44:59Z</time></trkpt>
 <trkpt lat="48.870231200" lon="11.093555300"><ele>423</ele><time>2014-07-04T08:45:03Z</time></trkpt>
 <trkpt lat="48.870190800" lon="11.093603300"><ele>424</ele><time>2014-07-04T08:45:07Z</time></trkpt>
 <trkpt lat="48.870146200" lon="11.093634500"><ele>425</ele><time>2014-07-04T08:45:11Z</time></trkpt>
 <trkpt lat="48.870100400" lon="11.093674500"><ele>426</ele><time>2014-07-04T08:45:15Z</time></trkpt>
 <trkpt lat="48.870054500" lon="11.093722000"><ele>427</ele><time>2014-07-04T08:45:19Z</time></trkpt>
 <trkpt lat="48.870013200" lon="11.093757800"><ele>428</ele><time>2014-07-04T08:45:23Z</time></trkpt>
 <trkpt lat="48.869989900" lon="11.093788700"><ele>429</ele><time>2014-07-04T08:45:27Z</time></trkpt>
 <trkpt lat="48.869962400" lon="11.093816200"><ele>430</ele><time>2014-07-04T08:45:31Z</time></trkpt>
 <trkpt lat="48.869921200" lon="11.093853300"><ele>431</ele><time>2014-07-04T08:45:35Z</time></trkpt>
 <trkpt lat="48.869884500" lon="11.093893300"><ele>433</ele><time>2014-07-04T08:45:39Z</time></trkpt>
 <trkpt lat="48.869848700" lon="11.093917000"><ele>434</ele><time>2014-07-04T08:45:43Z</time></trkpt>
 <trkpt lat="48.869810300" lon="11.093932800"><ele>434</ele><time>2014-07-04T08:45:47Z</time></trkpt>
 <trkpt lat="48.869781200" lon="11.093959100"><ele>435</ele><time>2014-07-04T08:45:51Z</time></trkpt>
 <trkpt lat="48.869749900" lon="11.093987000"><ele>436</ele><time>2014-07-04T08:45:55Z</time></trkpt>
 <trkpt lat="48.869716600" lon="11.094022000"><ele>437</ele><time>2014-07-04T08:45:59Z</time></trkpt>
 <trkpt lat="48.869716600" lon="11.094022000"><ele>437</ele><time>2014-07-04T08:46:03Z</time></trkpt>
 <trkpt lat="48.869720800" lon="11.094016600"><ele>438</ele><time>2014-07-04T08:46:07Z</time></trkpt>
 <trkpt lat="48.869719500" lon="11.094027000"><ele>438</ele><time>2014-07-04T08:46:11Z</time></trkpt>
 <trkpt lat="48.869719500" lon="11.094027000"><ele>439</ele><time>2014-07-04T08:46:15Z</time></trkpt>
 <trkpt lat="48.869719500" lon="11.094027000"><ele>439</ele><time>2014-07-04T08:46:19Z</time></trkpt>
 <trkpt lat="48.869713700" lon="11.094029900"><ele>439</ele><time>2014-07-04T08:46:23Z</time></trkpt>
 <trkpt lat="48.869710800" lon="11.094045300"><ele>439</ele><time>2014-07-04T08:46:27Z</time></trkpt>
 <trkpt lat="48.869713300" lon="11.094053700"><ele>439</ele><time>2014-07-04T08:46:31Z</time></trkpt>
 <trkpt lat="48.869711600" lon="11.094044100"><ele>439</ele><time>2014-07-04T08:46:35Z</time></trkpt>
 <trkpt lat="48.869719100" lon="11.094051600"><ele>439</ele><time>2014-07-04T08:46:39Z</time></trkpt>
 <trkpt lat="48.869725000" lon="11.094053300"><ele>439</ele><time>2014-07-04T08:46:43Z</time></trkpt>
 <trkpt lat="48.869717000" lon="11.094024900"><ele>439</ele><time>2014-07-04T08:46:47Z</time></trkpt>
 <trkpt lat="48.869707400" lon="11.094005400"><ele>439</ele><time>2014-07-04T08:46:51Z</time></trkpt>
 <trkpt lat="48.869694900" lon="11.094008300"><ele>439</ele><time>2014-07-04T08:46:55Z</time></trkpt>
 <trkpt lat="48.869664500" lon="11.094058300"><ele>439</ele><time>2014-07-04T08:46:59Z</time></trkpt>
 <trkpt lat="48.869633700" lon="11.094103700"><ele>438</ele><time>2014-07-04T08:47:03Z</time></trkpt>
 <trkpt lat="48.869612000" lon="11.094154900"><ele>438</ele><time>2014-07-04T08:47:07Z</time></trkpt>
 <trkpt lat="48.869586200" lon="11.094210800"><ele>438</ele><time>2014-07-04T08:47:11Z</time></trkpt>
 <trkpt lat="48.869559100" lon="11.094271200"><ele>438</ele><time>2014-07-04T08:47:15Z</time></trkpt>
 <trkpt lat="48.869528700" lon="11.094336200"><ele>438</ele><time>2014-07-04T08:47:19Z</time></trkpt>
 <trkpt lat="48.869493300" lon="11.094373700"><ele>438</ele><time>2014-07-04T08:47:23Z</time></trkpt>
 <trkpt lat="48.869450300" lon="11.094424900"><ele>438</ele><time>2014-07-04T08:47:27Z</time></trkpt>
 <trkpt lat="48.869407800" lon="11.094529100"><ele>438</ele><time>2014-07-04T08:47:31Z</time></trkpt>
 <trkpt lat="48.869364100" lon="11.094599900"><ele>438</ele><time>2014-07-04T08:47:35Z</time></trkpt>
 <trkpt lat="48.869333700" lon="11.094640800"><ele>438</ele><time>2014-07-04T08:47:39Z</time></trkpt>
 <trkpt lat="48.869320300" lon="11.094687400"><ele>438</ele><time>2014-07-04T08:47:43Z</time></trkpt>
 <trkpt lat="48.869294500" lon="11.094721600"><ele>438</ele><time>2014-07-04T08:47:47Z</time></trkpt>
 <trkpt lat="48.869273700" lon="11.094749900"><ele>438</ele><time>2014-07-04T08:47:51Z</time></trkpt>
 <trkpt lat="48.869260300" lon="11.094793300"><ele>438</ele><time>2014-07-04T08:47:55Z</time></trkpt>
 <trkpt lat="48.869241200" lon="11.094819900"><ele>438</ele><time>2014-07-04T08:47:59Z</time></trkpt>
 <trkpt lat="48.869241200" lon="11.094839100"><ele>439</ele><time>2014-07-04T08:48:03Z</time></trkpt>
 <trkpt lat="48.869241200" lon="11.094839100"><ele>439</ele><time>2014-07-04T08:48:07Z</time></trkpt>
 <trkpt lat="48.869241200" lon="11.094839100"><ele>439</ele><time>2014-07-04T08:48:11Z</time></trkpt>
 <trkpt lat="48.869241200" lon="11.094839100"><ele>439</ele><time>2014-07-04T08:48:15Z</time></trkpt>
 <trkpt lat="48.869241200" lon="11.094839100"><ele>440</ele><time>2014-07-04T08:48:19Z</time></trkpt>
 <trkpt lat="48.869239100" lon="11.094864500"><ele>440</ele><time>2014-07-04T08:48:23Z</time></trkpt>
 <trkpt lat="48.869245300" lon="11.094877800"><ele>440</ele><time>2014-07-04T08:48:27Z</time></trkpt>
 <trkpt lat="48.869245300" lon="11.094877800"><ele>440</ele><time>2014-07-04T08:48:31Z</time></trkpt>
 <trkpt lat="48.869245400" lon="11.094887400"><ele>440</ele><time>2014-07-04T08:48:35Z</time></trkpt>
 <trkpt lat="48.869245400" lon="11.094887400"><ele>440</ele><time>2014-07-04T08:48:39Z</time></trkpt>
 <trkpt lat="48.869252800" lon="11.094896600"><ele>440</ele><time>2014-07-04T08:48:43Z</time></trkpt>
 <trkpt lat="48.869267900" lon="11.094909900"><ele>440</ele><time>2014-07-04T08:48:47Z</time></trkpt>
 <trkpt lat="48.869301600" lon="11.094945700"><ele>440</ele><time>2014-07-04T08:48:51Z</time></trkpt>
 <trkpt lat="48.869347400" lon="11.094975800"><ele>440</ele><time>2014-07-04T08:48:55Z</time></trkpt>
 <trkpt lat="48.869399500" lon="11.095024100"><ele>440</ele><time>2014-07-04T08:48:59Z</time></trkpt>
 <trkpt lat="48.869445300" lon="11.095078300"><ele>440</ele><time>2014-07-04T08:49:03Z</time></trkpt>
 <trkpt lat="48.869478300" lon="11.095142800"><ele>440</ele><time>2014-07-04T08:49:07Z</time></trkpt>
 <trkpt lat="48.869507800" lon="11.095212400"><ele>440</ele><time>2014-07-04T08:49:11Z</time></trkpt>
 <trkpt lat="48.869543300" lon="11.095269500"><ele>441</ele><time>2014-07-04T08:49:15Z</time></trkpt>
 <trkpt lat="48.869582900" lon="11.095336600"><ele>441</ele><time>2014-07-04T08:49:19Z</time></trkpt>
 <trkpt lat="48.869618700" lon="11.095410800"><ele>441</ele><time>2014-07-04T08:49:23Z</time></trkpt>
 <trkpt lat="48.869655800" lon="11.095493300"><ele>442</ele><time>2014-07-04T08:49:27Z</time></trkpt>
 <trkpt lat="48.869685800" lon="11.095559100"><ele>442</ele><time>2014-07-04T08:49:31Z</time></trkpt>
 <trkpt lat="48.869726200" lon="11.095605300"><ele>442</ele><time>2014-07-04T08:49:35Z</time></trkpt>
 <trkpt lat="48.869773700" lon="11.095659500"><ele>442</ele><time>2014-07-04T08:49:39Z</time></trkpt>
 <trkpt lat="48.869810800" lon="11.095709500"><ele>443</ele><time>2014-07-04T08:49:43Z</time></trkpt>
 <trkpt lat="48.869849100" lon="11.095767900"><ele>443</ele><time>2014-07-04T08:49:47Z</time></trkpt>
 <trkpt lat="48.869902000" lon="11.095830400"><ele>443</ele><time>2014-07-04T08:49:51Z</time></trkpt>
 <trkpt lat="48.869950300" lon="11.095873700"><ele>444</ele><time>2014-07-04T08:49:55Z</time></trkpt>
 <trkpt lat="48.869997000" lon="11.095913700"><ele>444</ele><time>2014-07-04T08:49:59Z</time></trkpt>
 <trkpt lat="48.870043700" lon="11.095962900"><ele>444</ele><time>2014-07-04T08:50:03Z</time></trkpt>
 <trkpt lat="48.870097000" lon="11.096009500"><ele>444</ele><time>2014-07-04T08:50:07Z</time></trkpt>
 <trkpt lat="48.870140300" lon="11.096057000"><ele>444</ele><time>2014-07-04T08:50:11Z</time></trkpt>
 <trkpt lat="48.870201200" lon="11.096113300"><ele>444</ele><time>2014-07-04T08:50:15Z</time></trkpt>
 <trkpt lat="48.870230800" lon="11.096161600"><ele>444</ele><time>2014-07-04T08:50:19Z</time></trkpt>
 <trkpt lat="48.870272400" lon="11.096205800"><ele>444</ele><time>2014-07-04T08:50:23Z</time></trkpt>
 <trkpt lat="48.870327800" lon="11.096266600"><ele>444</ele><time>2014-07-04T08:50:27Z</time></trkpt>
 <trkpt lat="48.870370700" lon="11.096330800"><ele>444</ele><time>2014-07-04T08:50:31Z</time></trkpt>
 <trkpt lat="48.870414900" lon="11.096374500"><ele>444</ele><time>2014-07-04T08:50:35Z</time></trkpt>
 <trkpt lat="48.870478700" lon="11.096401200"><ele>444</ele><time>2014-07-04T08:50:39Z</time></trkpt>
 <trkpt lat="48.870510300" lon="11.096424900"><ele>443</ele><time>2014-07-04T08:50:43Z</time></trkpt>
 <trkpt lat="48.870551200" lon="11.096459100"><ele>443</ele><time>2014-07-04T08:50:47Z</time></trkpt>
 <trkpt lat="48.870593700" lon="11.096509900"><ele>443</ele><time>2014-07-04T08:50:51Z</time></trkpt>
 <trkpt lat="48.870623300" lon="11.096554500"><ele>442</ele><time>2014-07-04T08:50:55Z</time></trkpt>
 <trkpt lat="48.870665300" lon="11.096612400"><ele>442</ele><time>2014-07-04T08:50:59Z</time></trkpt>
 <trkpt lat="48.870711200" lon="11.096657900"><ele>442</ele><time>2014-07-04T08:51:03Z</time></trkpt>
 <trkpt lat="48.870742000" lon="11.096695800"><ele>442</ele><time>2014-07-04T08:51:07Z</time></trkpt>
 <trkpt lat="48.870803700" lon="11.096741600"><ele>441</ele><time>2014-07-04T08:51:11Z</time></trkpt>
 <trkpt lat="48.870866600" lon="11.096768300"><ele>441</ele><time>2014-07-04T08:51:15Z</time></trkpt>
 <trkpt lat="48.870919100" lon="11.096797400"><ele>441</ele><time>2014-07-04T08:51:19Z</time></trkpt>
 <trkpt lat="48.870968300" lon="11.096850300"><ele>440</ele><time>2014-07-04T08:51:23Z</time></trkpt>
 <trkpt lat="48.871001600" lon="11.096915300"><ele>440</ele><time>2014-07-04T08:51:27Z</time></trkpt>
 <trkpt lat="48.871050300" lon="11.096972400"><ele>440</ele><time>2014-07-04T08:51:31Z</time></trkpt>
 <trkpt lat="48.871093300" lon="11.097028700"><ele>439</ele><time>2014-07-04T08:51:35Z</time></trkpt>
 <trkpt lat="48.871109900" lon="11.097040800"><ele>439</ele><time>2014-07-04T08:51:39Z</time></trkpt>
 <trkpt lat="48.871155300" lon="11.097079500"><ele>439</ele><time>2014-07-04T08:51:43Z</time></trkpt>
 <trkpt lat="48.871202400" lon="11.097121600"><ele>439</ele><time>2014-07-04T08:51:47Z</time></trkpt>
 <trkpt lat="48.871239100" lon="11.097167800"><ele>438</ele><time>2014-07-04T08:51:51Z</time></trkpt>
 <trkpt lat="48.871275700" lon="11.097214100"><ele>438</ele><time>2014-07-04T08:51:55Z</time></trkpt>
 <trkpt lat="48.871334900" lon="11.097267000"><ele>438</ele><time>2014-07-04T08:51:59Z</time></trkpt>
 <trkpt lat="48.871373700" lon="11.097283300"><ele>437</ele><time>2014-07-04T08:52:03Z</time></trkpt>
 <trkpt lat="48.871428700" lon="11.097326200"><ele>437</ele><time>2014-07-04T08:52:07Z</time></trkpt>
 <trkpt lat="48.871474100" lon="11.097372900"><ele>437</ele><time>2014-07-04T08:52:11Z</time></trkpt>
 <trkpt lat="48.871503700" lon="11.097422800"><ele>436</ele><time>2014-07-04T08:52:15Z</time></trkpt>
 <trkpt lat="48.871542900" lon="11.097466200"><ele>436</ele><time>2014-07-04T08:52:19Z</time></trkpt>
 <trkpt lat="48.871591200" lon="11.097503700"><ele>435</ele><time>2014-07-04T08:52:23Z</time></trkpt>
 <trkpt lat="48.871624500" lon="11.097547400"><ele>435</ele><time>2014-07-04T08:52:27Z</time></trkpt>
 <trkpt lat="48.871670400" lon="11.097587400"><ele>434</ele><time>2014-07-04T08:52:31Z</time></trkpt>
 <trkpt lat="48.871720800" lon="11.097637400"><ele>433</ele><time>2014-07-04T08:52:35Z</time></trkpt>
 <trkpt lat="48.871752800" lon="11.097682400"><ele>433</ele><time>2014-07-04T08:52:39Z</time></trkpt>
 <trkpt lat="48.871752400" lon="11.097646600"><ele>432</ele><time>2014-07-04T08:52:43Z</time></trkpt>
 <trkpt lat="48.871776200" lon="11.097649900"><ele>431</ele><time>2014-07-04T08:52:47Z</time></trkpt>
 <trkpt lat="48.871818300" lon="11.097695800"><ele>431</ele><time>2014-07-04T08:52:51Z</time></trkpt>
 <trkpt lat="48.871860800" lon="11.097731200"><ele>430</ele><time>2014-07-04T08:52:55Z</time></trkpt>
 <trkpt lat="48.871915800" lon="11.097774100"><ele>429</ele><time>2014-07-04T08:52:59Z</time></trkpt>
 <trkpt lat="48.871969900" lon="11.097787900"><ele>428</ele><time>2014-07-04T08:53:03Z</time></trkpt>
 <trkpt lat="48.872024500" lon="11.097792000"><ele>427</ele><time>2014-07-04T08:53:07Z</time></trkpt>
 <trkpt lat="48.872099500" lon="11.097827900"><ele>426</ele><time>2014-07-04T08:53:11Z</time></trkpt>
 <trkpt lat="48.872150800" lon="11.097857000"><ele>425</ele><time>2014-07-04T08:53:15Z</time></trkpt>
 <trkpt lat="48.872192000" lon="11.097882400"><ele>424</ele><time>2014-07-04T08:53:19Z</time></trkpt>
 <trkpt lat="48.872249100" lon="11.097913700"><ele>423</ele><time>2014-07-04T08:53:23Z</time></trkpt>
 <trkpt lat="48.872289100" lon="11.097949500"><ele>422</ele><time>2014-07-04T08:53:27Z</time></trkpt>
 <trkpt lat="48.872338700" lon="11.097988300"><ele>421</ele><time>2014-07-04T08:53:31Z</time></trkpt>
 <trkpt lat="48.872386600" lon="11.098028700"><ele>420</ele><time>2014-07-04T08:53:35Z</time></trkpt>
 <trkpt lat="48.872419500" lon="11.098060800"><ele>419</ele><time>2014-07-04T08:53:39Z</time></trkpt>
 <trkpt lat="48.872468200" lon="11.098074100"><ele>418</ele><time>2014-07-04T08:53:43Z</time></trkpt>
 <trkpt lat="48.872511600" lon="11.098090300"><ele>417</ele><time>2014-07-04T08:53:47Z</time></trkpt>
 <trkpt lat="48.872559100" lon="11.098092800"><ele>416</ele><time>2014-07-04T08:53:51Z</time></trkpt>
 <trkpt lat="48.872628200" lon="11.098092000"><ele>415</ele><time>2014-07-04T08:53:55Z</time></trkpt>
 <trkpt lat="48.872681600" lon="11.098097400"><ele>413</ele><time>2014-07-04T08:53:59Z</time></trkpt>
 <trkpt lat="48.872753700" lon="11.098092800"><ele>412</ele><time>2014-07-04T08:54:03Z</time></trkpt>
 <trkpt lat="48.872854900" lon="11.098090400"><ele>411</ele><time>2014-07-04T08:54:07Z</time></trkpt>
 <trkpt lat="48.872906600" lon="11.098094100"><ele>410</ele><time>2014-07-04T08:54:11Z</time></trkpt>
 <trkpt lat="48.872946600" lon="11.098094100"><ele>409</ele><time>2014-07-04T08:54:15Z</time></trkpt>
 <trkpt lat="48.872995800" lon="11.098094900"><ele>407</ele><time>2014-07-04T08:54:19Z</time></trkpt>
 <trkpt lat="48.873035300" lon="11.098106600"><ele>406</ele><time>2014-07-04T08:54:23Z</time></trkpt>
 <trkpt lat="48.873074100" lon="11.098131600"><ele>405</ele><time>2014-07-04T08:54:27Z</time></trkpt>
 <trkpt lat="48.873121200" lon="11.098172800"><ele>403</ele><time>2014-07-04T08:54:31Z</time></trkpt>
 <trkpt lat="48.873156600" lon="11.098182000"><ele>402</ele><time>2014-07-04T08:54:35Z</time></trkpt>
 <trkpt lat="48.873193700" lon="11.098218300"><ele>401</ele><time>2014-07-04T08:54:39Z</time></trkpt>
 <trkpt lat="48.873232400" lon="11.098237000"><ele>400</ele><time>2014-07-04T08:54:43Z</time></trkpt>
 <trkpt lat="48.873273700" lon="11.098241600"><ele>398</ele><time>2014-07-04T08:54:47Z</time></trkpt>
 <trkpt lat="48.873322000" lon="11.098219500"><ele>397</ele><time>2014-07-04T08:54:51Z</time></trkpt>
 <trkpt lat="48.873369500" lon="11.098204100"><ele>396</ele><time>2014-07-04T08:54:55Z</time></trkpt>
 <trkpt lat="48.873415300" lon="11.098211600"><ele>395</ele><time>2014-07-04T08:54:59Z</time></trkpt>
 <trkpt lat="48.873492900" lon="11.098224500"><ele>395</ele><time>2014-07-04T08:55:03Z</time></trkpt>
 <trkpt lat="48.873562000" lon="11.098214500"><ele>394</ele><time>2014-07-04T08:55:07Z</time></trkpt>
 <trkpt lat="48.873618300" lon="11.098198700"><ele>393</ele><time>2014-07-04T08:55:11Z</time></trkpt>
 <trkpt lat="48.873676600" lon="11.098240800"><ele>393</ele><time>2014-07-04T08:55:15Z</time></trkpt>
 <trkpt lat="48.873732900" lon="11.098264900"><ele>393</ele><time>2014-07-04T08:55:19Z</time></trkpt>
 <trkpt lat="48.873775300" lon="11.098306200"><ele>392</ele><time>2014-07-04T08:55:23Z</time></trkpt>
 <trkpt lat="48.873827900" lon="11.098337000"><ele>392</ele><time>2014-07-04T08:55:27Z</time></trkpt>
 <trkpt lat="48.873883700" lon="11.098356200"><ele>392</ele><time>2014-07-04T08:55:31Z</time></trkpt>
 <trkpt lat="48.873933700" lon="11.098396200"><ele>392</ele><time>2014-07-04T08:55:35Z</time></trkpt>
 <trkpt lat="48.873976600" lon="11.098412000"><ele>392</ele><time>2014-07-04T08:55:39Z</time></trkpt>
 <trkpt lat="48.874025400" lon="11.098403700"><ele>392</ele><time>2014-07-04T08:55:43Z</time></trkpt>
 <trkpt lat="48.874080300" lon="11.098404100"><ele>392</ele><time>2014-07-04T08:55:47Z</time></trkpt>
 <trkpt lat="48.874118300" lon="11.098397400"><ele>393</ele><time>2014-07-04T08:55:51Z</time></trkpt>
 <trkpt lat="48.874160800" lon="11.098389500"><ele>393</ele><time>2014-07-04T08:55:55Z</time></trkpt>
 <trkpt lat="48.874212000" lon="11.098382000"><ele>394</ele><time>2014-07-04T08:55:59Z</time></trkpt>
 <trkpt lat="48.874269100" lon="11.098389500"><ele>394</ele><time>2014-07-04T08:56:03Z</time></trkpt>
 <trkpt lat="48.874337400" lon="11.098375800"><ele>395</ele><time>2014-07-04T08:56:07Z</time></trkpt>
 <trkpt lat="48.874394900" lon="11.098355800"><ele>396</ele><time>2014-07-04T08:56:11Z</time></trkpt>
 <trkpt lat="48.874449900" lon="11.098389900"><ele>397</ele><time>2014-07-04T08:56:15Z</time></trkpt>
 <trkpt lat="48.874514100" lon="11.098420300"><ele>398</ele><time>2014-07-04T08:56:19Z</time></trkpt>
 <trkpt lat="48.874557000" lon="11.098452400"><ele>399</ele><time>2014-07-04T08:56:23Z</time></trkpt>
 <trkpt lat="48.874614500" lon="11.098487000"><ele>400</ele><time>2014-07-04T08:56:27Z</time></trkpt>
 <trkpt lat="48.874666200" lon="11.098506600"><ele>401</ele><time>2014-07-04T08:56:31Z</time></trkpt>
 <trkpt lat="48.874699500" lon="11.098530400"><ele>403</ele><time>2014-07-04T08:56:35Z</time></trkpt>
 <trkpt lat="48.874759900" lon="11.098554100"><ele>404</ele><time>2014-07-04T08:56:39Z</time></trkpt>
 <trkpt lat="48.874816200" lon="11.098570400"><ele>405</ele><time>2014-07-04T08:56:43Z</time></trkpt>
 <trkpt lat="48.874887900" lon="11.098572400"><ele>407</ele><time>2014-07-04T08:56:47Z</time></trkpt>
 <trkpt lat="48.874946200" lon="11.098583300"><ele>408</ele><time>2014-07-04T08:56:51Z</time></trkpt>
 <trkpt lat="48.875001200" lon="11.098590800"><ele>410</ele><time>2014-07-04T08:56:55Z</time></trkpt>
 <trkpt lat="48.875046600" lon="11.098609500"><ele>411</ele><time>2014-07-04T08:56:59Z</time></trkpt>
 <trkpt lat="48.875086200" lon="11.098618300"><ele>413</ele><time>2014-07-04T08:57:03Z</time></trkpt>
 <trkpt lat="48.875141600" lon="11.098635800"><ele>414</ele><time>2014-07-04T08:57:07Z</time></trkpt>
 <trkpt lat="48.875208200" lon="11.098646600"><ele>415</ele><time>2014-07-04T08:57:11Z</time></trkpt>
 <trkpt lat="48.875267400" lon="11.098656200"><ele>417</ele><time>2014-07-04T08:57:15Z</time></trkpt>
 <trkpt lat="48.875311200" lon="11.098660800"><ele>418</ele><time>2014-07-04T08:57:19Z</time></trkpt>
 <trkpt lat="48.875367000" lon="11.098665400"><ele>419</ele><time>2014-07-04T08:57:23Z</time></trkpt>
 <trkpt lat="48.875430800" lon="11.098674900"><ele>420</ele><time>2014-07-04T08:57:27Z</time></trkpt>
 <trkpt lat="48.875482400" lon="11.098683700"><ele>422</ele><time>2014-07-04T08:57:31Z</time></trkpt>
 <trkpt lat="48.875521200" lon="11.098692400"><ele>423</ele><time>2014-07-04T08:57:35Z</time></trkpt>
 <trkpt lat="48.875569500" lon="11.098686600"><ele>424</ele><time>2014-07-04T08:57:39Z</time></trkpt>
 <trkpt lat="48.875629100" lon="11.098657000"><ele>425</ele><time>2014-07-04T08:57:43Z</time></trkpt>
 <trkpt lat="48.875674100" lon="11.098645800"><ele>426</ele><time>2014-07-04T08:57:47Z</time></trkpt>
 <trkpt lat="48.875728700" lon="11.098635300"><ele>427</ele><time>2014-07-04T08:57:51Z</time></trkpt>
 <trkpt lat="48.875764100" lon="11.098642400"><ele>428</ele><time>2014-07-04T08:57:55Z</time></trkpt>
 <trkpt lat="48.875803700" lon="11.098639500"><ele>429</ele><time>2014-07-04T08:57:59Z</time></trkpt>
 <trkpt lat="48.875844900" lon="11.098633300"><ele>430</ele><time>2014-07-04T08:58:03Z</time></trkpt>
 <trkpt lat="48.875906600" lon="11.098639500"><ele>431</ele><time>2014-07-04T08:58:07Z</time></trkpt>
 <trkpt lat="48.875969900" lon="11.098641200"><ele>432</ele><time>2014-07-04T08:58:11Z</time></trkpt>
 <trkpt lat="48.876013700" lon="11.098610300"><ele>433</ele><time>2014-07-04T08:58:15Z</time></trkpt>
 <trkpt lat="48.876038700" lon="11.098585800"><ele>434</ele><time>2014-07-04T08:58:19Z</time></trkpt>
 <trkpt lat="48.876085300" lon="11.098554500"><ele>435</ele><time>2014-07-04T08:58:23Z</time></trkpt>
 <trkpt lat="48.876119500" lon="11.098518700"><ele>436</ele><time>2014-07-04T08:58:27Z</time></trkpt>
 <trkpt lat="48.876142000" lon="11.098507400"><ele>437</ele><time>2014-07-04T08:58:31Z</time></trkpt>
 <trkpt lat="48.876164500" lon="11.098487000"><ele>437</ele><time>2014-07-04T08:58:35Z</time></trkpt>
 <trkpt lat="48.876193300" lon="11.098460800"><ele>438</ele><time>2014-07-04T08:58:39Z</time></trkpt>
 <trkpt lat="48.876219900" lon="11.098443700"><ele>439</ele><time>2014-07-04T08:58:43Z</time></trkpt>
 <trkpt lat="48.876223700" lon="11.098436200"><ele>439</ele><time>2014-07-04T08:58:47Z</time></trkpt>
 <trkpt lat="48.876229500" lon="11.098424900"><ele>440</ele><time>2014-07-04T08:58:51Z</time></trkpt>
 <trkpt lat="48.876295800" lon="11.098396600"><ele>440</ele><time>2014-07-04T08:58:55Z</time></trkpt>
 <trkpt lat="48.876344500" lon="11.098369900"><ele>441</ele><time>2014-07-04T08:58:59Z</time></trkpt>
 <trkpt lat="48.876382400" lon="11.098346600"><ele>442</ele><time>2014-07-04T08:59:03Z</time></trkpt>
 <trkpt lat="48.876400300" lon="11.098342000"><ele>442</ele><time>2014-07-04T08:59:07Z</time></trkpt>
 <trkpt lat="48.876427400" lon="11.098351600"><ele>443</ele><time>2014-07-04T08:59:11Z</time></trkpt>
 <trkpt lat="48.876448300" lon="11.098350800"><ele>444</ele><time>2014-07-04T08:59:15Z</time></trkpt>
 <trkpt lat="48.876456200" lon="11.098327400"><ele>444</ele><time>2014-07-04T08:59:19Z</time></trkpt>
 <trkpt lat="48.876482400" lon="11.098302800"><ele>445</ele><time>2014-07-04T08:59:23Z</time></trkpt>
 <trkpt lat="48.876517000" lon="11.098277400"><ele>446</ele><time>2014-07-04T08:59:27Z</time></trkpt>
 <trkpt lat="48.876555800" lon="11.098226200"><ele>446</ele><time>2014-07-04T08:59:31Z</time></trkpt>
 <trkpt lat="48.876586200" lon="11.098190800"><ele>447</ele><time>2014-07-04T08:59:35Z</time></trkpt>
 <trkpt lat="48.876609500" lon="11.098153300"><ele>447</ele><time>2014-07-04T08:59:39Z</time></trkpt>
 <trkpt lat="48.876633700" lon="11.098126600"><ele>448</ele><time>2014-07-04T08:59:43Z</time></trkpt>
 <trkpt lat="48.876649500" lon="11.098118700"><ele>448</ele><time>2014-07-04T08:59:47Z</time></trkpt>
 <trkpt lat="48.876678700" lon="11.098115300"><ele>449</ele><time>2014-07-04T08:59:51Z</time></trkpt>
 <trkpt lat="48.876708700" lon="11.098104500"><ele>449</ele><time>2014-07-04T08:59:55Z</time></trkpt>
 <trkpt lat="48.876734100" lon="11.098077000"><ele>450</ele><time>2014-07-04T08:59:59Z</time></trkpt>
 <trkpt lat="48.876768300" lon="11.098045400"><ele>450</ele><time>2014-07-04T09:00:03Z</time></trkpt>
 <trkpt lat="48.876781200" lon="11.098022800"><ele>451</ele><time>2014-07-04T09:00:07Z</time></trkpt>
 <trkpt lat="48.876796600" lon="11.097987800"><ele>452</ele><time>2014-07-04T09:00:11Z</time></trkpt>
 <trkpt lat="48.876831600" lon="11.097969100"><ele>452</ele><time>2014-07-04T09:00:15Z</time></trkpt>
 <trkpt lat="48.876860800" lon="11.097940400"><ele>453</ele><time>2014-07-04T09:00:19Z</time></trkpt>
 <trkpt lat="48.876894900" lon="11.097907000"><ele>453</ele><time>2014-07-04T09:00:23Z</time></trkpt>
 <trkpt lat="48.876925400" lon="11.097872800"><ele>454</ele><time>2014-07-04T09:00:27Z</time></trkpt>
 <trkpt lat="48.876965700" lon="11.097858700"><ele>454</ele><time>2014-07-04T09:00:31Z</time></trkpt>
 <trkpt lat="48.876990800" lon="11.097838700"><ele>455</ele><time>2014-07-04T09:00:35Z</time></trkpt>
 <trkpt lat="48.877012000" lon="11.097826600"><ele>456</ele><time>2014-07-04T09:00:39Z</time></trkpt>
 <trkpt lat="48.877042000" lon="11.097816600"><ele>456</ele><time>2014-07-04T09:00:43Z</time></trkpt>
 <trkpt lat="48.877070800" lon="11.097809500"><ele>457</ele><time>2014-07-04T09:00:47Z</time></trkpt>
 <trkpt lat="48.877097800" lon="11.097806200"><ele>458</ele><time>2014-07-04T09:00:51Z</time></trkpt>
 <trkpt lat="48.877132000" lon="11.097792000"><ele>458</ele><time>2014-07-04T09:00:55Z</time></trkpt>
 <trkpt lat="48.877168700" lon="11.097762800"><ele>459</ele><time>2014-07-04T09:00:59Z</time></trkpt>
 <trkpt lat="48.877177000" lon="11.097722800"><ele>459</ele><time>2014-07-04T09:01:03Z</time></trkpt>
 <trkpt lat="48.877204900" lon="11.097685800"><ele>459</ele><time>2014-07-04T09:01:07Z</time></trkpt>
 <trkpt lat="48.877247400" lon="11.097651600"><ele>460</ele><time>2014-07-04T09:01:11Z</time></trkpt>
 <trkpt lat="48.877291200" lon="11.097609100"><ele>460</ele><time>2014-07-04T09:01:15Z</time></trkpt>
 <trkpt lat="48.877322500" lon="11.097590800"><ele>460</ele><time>2014-07-04T09:01:19Z</time></trkpt>
 <trkpt lat="48.877362000" lon="11.097566600"><ele>460</ele><time>2014-07-04T09:01:23Z</time></trkpt>
 <trkpt lat="48.877409500" lon="11.097533700"><ele>460</ele><time>2014-07-04T09:01:27Z</time></trkpt>
 <trkpt lat="48.877437400" lon="11.097498700"><ele>461</ele><time>2014-07-04T09:01:31Z</time></trkpt>
 <trkpt lat="48.877457400" lon="11.097465800"><ele>461</ele><time>2014-07-04T09:01:35Z</time></trkpt>
 <trkpt lat="48.877493700" lon="11.097426600"><ele>461</ele><time>2014-07-04T09:01:39Z</time></trkpt>
 <trkpt lat="48.877518700" lon="11.097378300"><ele>460</ele><time>2014-07-04T09:01:43Z</time></trkpt>
 <trkpt lat="48.877561200" lon="11.097335800"><ele>460</ele><time>2014-07-04T09:01:47Z</time></trkpt>
 <trkpt lat="48.877595800" lon="11.097303700"><ele>460</ele><time>2014-07-04T09:01:51Z</time></trkpt>
 <trkpt lat="48.877611600" lon="11.097289500"><ele>460</ele><time>2014-07-04T09:01:55Z</time></trkpt>
 <trkpt lat="48.877651200" lon="11.097275800"><ele>460</ele><time>2014-07-04T09:01:59Z</time></trkpt>
 <trkpt lat="48.877682000" lon="11.097284100"><ele>460</ele><time>2014-07-04T09:02:03Z</time></trkpt>
 <trkpt lat="48.877719900" lon="11.097296600"><ele>460</ele><time>2014-07-04T09:02:07Z</time></trkpt>
 <trkpt lat="48.877757400" lon="11.097322000"><ele>459</ele><time>2014-07-04T09:02:11Z</time></trkpt>
 <trkpt lat="48.877783300" lon="11.097356200"><ele>459</ele><time>2014-07-04T09:02:15Z</time></trkpt>
 <trkpt lat="48.877828700" lon="11.097399500"><ele>459</ele><time>2014-07-04T09:02:19Z</time></trkpt>
 <trkpt lat="48.877901600" lon="11.097449100"><ele>459</ele><time>2014-07-04T09:02:23Z</time></trkpt>
 <trkpt lat="48.877935800" lon="11.097489500"><ele>459</ele><time>2014-07-04T09:02:27Z</time></trkpt>
 <trkpt lat="48.877983700" lon="11.097519500"><ele>459</ele><time>2014-07-04T09:02:31Z</time></trkpt>
 <trkpt lat="48.878040800" lon="11.097547800"><ele>459</ele><time>2014-07-04T09:02:35Z</time></trkpt>
 <trkpt lat="48.878099900" lon="11.097555800"><ele>459</ele><time>2014-07-04T09:02:39Z</time></trkpt>
 <trkpt lat="48.878162800" lon="11.097556200"><ele>458</ele><time>2014-07-04T09:02:43Z</time></trkpt>
 <trkpt lat="48.878225800" lon="11.097528700"><ele>458</ele><time>2014-07-04T09:02:47Z</time></trkpt>
 <trkpt lat="48.878282900" lon="11.097494100"><ele>458</ele><time>2014-07-04T09:02:51Z</time></trkpt>
 <trkpt lat="48.878350400" lon="11.097454500"><ele>457</ele><time>2014-07-04T09:02:55Z</time></trkpt>
 <trkpt lat="48.878392800" lon="11.097408700"><ele>457</ele><time>2014-07-04T09:02:59Z</time></trkpt>
 <trkpt lat="48.878420300" lon="11.097373300"><ele>457</ele><time>2014-07-04T09:03:03Z</time></trkpt>
 <trkpt lat="48.878461600" lon="11.097333700"><ele>456</ele><time>2014-07-04T09:03:07Z</time></trkpt>
 <trkpt lat="48.878527900" lon="11.097284100"><ele>456</ele><time>2014-07-04T09:03:11Z</time></trkpt>
 <trkpt lat="48.878604900" lon="11.097257400"><ele>456</ele><time>2014-07-04T09:03:15Z</time></trkpt>
 <trkpt lat="48.878710800" lon="11.097254500"><ele>455</ele><time>2014-07-04T09:03:19Z</time></trkpt>
 <trkpt lat="48.878784100" lon="11.097238700"><ele>455</ele><time>2014-07-04T09:03:23Z</time></trkpt>
 <trkpt lat="48.878802400" lon="11.097219900"><ele>455</ele><time>2014-07-04T09:03:27Z</time></trkpt>
 <trkpt lat="48.878796600" lon="11.097213700"><ele>454</ele><time>2014-07-04T09:03:31Z</time></trkpt>
 <trkpt lat="48.878803700" lon="11.097250800"><ele>454</ele><time>2014-07-04T09:03:35Z</time></trkpt>
 <trkpt lat="48.878823300" lon="11.097301600"><ele>454</ele><time>2014-07-04T09:03:39Z</time></trkpt>
 <trkpt lat="48.878852800" lon="11.097348300"><ele>454</ele><time>2014-07-04T09:03:43Z</time></trkpt>
 <trkpt lat="48.878879100" lon="11.097410800"><ele>454</ele><time>2014-07-04T09:03:47Z</time></trkpt>
 <trkpt lat="48.878889900" lon="11.097482800"><ele>454</ele><time>2014-07-04T09:03:51Z</time></trkpt>
 <trkpt lat="48.878917000" lon="11.097532800"><ele>454</ele><time>2014-07-04T09:03:55Z</time></trkpt>
 <trkpt lat="48.878945300" lon="11.097589900"><ele>454</ele><time>2014-07-04T09:03:59Z</time></trkpt>
 <trkpt lat="48.878984500" lon="11.097647900"><ele>454</ele><time>2014-07-04T09:04:03Z</time></trkpt>
 <trkpt lat="48.879023300" lon="11.097703200"><ele>454</ele><time>2014-07-04T09:04:07Z</time></trkpt>
 <trkpt lat="48.879066200" lon="11.097739500"><ele>454</ele><time>2014-07-04T09:04:11Z</time></trkpt>
 <trkpt lat="48.879119100" lon="11.097747400"><ele>455</ele><time>2014-07-04T09:04:15Z</time></trkpt>
 <trkpt lat="48.879175300" lon="11.097774900"><ele>455</ele><time>2014-07-04T09:04:19Z</time></trkpt>
 <trkpt lat="48.879227900" lon="11.097801600"><ele>455</ele><time>2014-07-04T09:04:23Z</time></trkpt>
 <trkpt lat="48.879291200" lon="11.097804100"><ele>455</ele><time>2014-07-04T09:04:27Z</time></trkpt>
 <trkpt lat="48.879340800" lon="11.097823300"><ele>455</ele><time>2014-07-04T09:04:31Z</time></trkpt>
 <trkpt lat="48.879389100" lon="11.097835400"><ele>455</ele><time>2014-07-04T09:04:35Z</time></trkpt>
 <trkpt lat="48.879442000" lon="11.097831200"><ele>455</ele><time>2014-07-04T09:04:39Z</time></trkpt>
 <trkpt lat="48.879479100" lon="11.097836600"><ele>455</ele><time>2014-07-04T09:04:43Z</time></trkpt>
 <trkpt lat="48.879539100" lon="11.097839100"><ele>454</ele><time>2014-07-04T09:04:47Z</time></trkpt>
 <trkpt lat="48.879588700" lon="11.097846600"><ele>453</ele><time>2014-07-04T09:04:51Z</time></trkpt>
 <trkpt lat="48.879627000" lon="11.097844500"><ele>452</ele><time>2014-07-04T09:04:55Z</time></trkpt>
 <trkpt lat="48.879685000" lon="11.097851200"><ele>450</ele><time>2014-07-04T09:04:59Z</time></trkpt>
 <trkpt lat="48.879735800" lon="11.097861600"><ele>449</ele><time>2014-07-04T09:05:03Z</time></trkpt>
 <trkpt lat="48.879791600" lon="11.097858300"><ele>447</ele><time>2014-07-04T09:05:07Z</time></trkpt>
 <trkpt lat="48.879839500" lon="11.097840800"><ele>445</ele><time>2014-07-04T09:05:11Z</time></trkpt>
 <trkpt lat="48.879887400" lon="11.097830400"><ele>443</ele><time>2014-07-04T09:05:15Z</time></trkpt>
 <trkpt lat="48.879937000" lon="11.097821200"><ele>441</ele><time>2014-07-04T09:05:19Z</time></trkpt>
 <trkpt lat="48.879972000" lon="11.097818300"><ele>439</ele><time>2014-07-04T09:05:23Z</time></trkpt>
 <trkpt lat="48.880024900" lon="11.097809100"><ele>437</ele><time>2014-07-04T09:05:27Z</time></trkpt>
 <trkpt lat="48.880066600" lon="11.097801200"><ele>435</ele><time>2014-07-04T09:05:31Z</time></trkpt>
 <trkpt lat="48.880103700" lon="11.097802000"><ele>433</ele><time>2014-07-04T09:05:35Z</time></trkpt>
 <trkpt lat="48.880154900" lon="11.097779900"><ele>430</ele><time>2014-07-04T09:05:39Z</time></trkpt>
 <trkpt lat="48.880212000" lon="11.097745700"><ele>428</ele><time>2014-07-04T09:05:43Z</time></trkpt>
 <trkpt lat="48.880269900" lon="11.097701600"><ele>426</ele><time>2014-07-04T09:05:47Z</time></trkpt>
 <trkpt lat="48.880314100" lon="11.097664100"><ele>424</ele><time>2014-07-04T09:05:51Z</time></trkpt>
 <trkpt lat="48.880353700" lon="11.097659500"><ele>422</ele><time>2014-07-04T09:05:55Z</time></trkpt>
 <trkpt lat="48.880400400" lon="11.097627000"><ele>420</ele><time>2014-07-04T09:05:59Z</time></trkpt>
 <trkpt lat="48.880431600" lon="11.097589500"><ele>418</ele><time>2014-07-04T09:06:03Z</time></trkpt>
 <trkpt lat="48.880459100" lon="11.097533300"><ele>417</ele><time>2014-07-04T09:06:07Z</time></trkpt>
 <trkpt lat="48.880487800" lon="11.097497400"><ele>415</ele><time>2014-07-04T09:06:11Z</time></trkpt>
 <trkpt lat="48.880524100" lon="11.097460300"><ele>414</ele><time>2014-07-04T09:06:15Z</time></trkpt>
 <trkpt lat="48.880552000" lon="11.097435800"><ele>412</ele><time>2014-07-04T09:06:19Z</time></trkpt>
 <trkpt lat="48.880621200" lon="11.097403300"><ele>410</ele><time>2014-07-04T09:06:23Z</time></trkpt>
 <trkpt lat="48.880694900" lon="11.097375700"><ele>409</ele><time>2014-07-04T09:06:27Z</time></trkpt>
 <trkpt lat="48.880752800" lon="11.097354500"><ele>407</ele><time>2014-07-04T09:06:31Z</time></trkpt>
 <trkpt lat="48.880805300" lon="11.097342800"><ele>406</ele><time>2014-07-04T09:06:35Z</time></trkpt>
 <trkpt lat="48.880850800" lon="11.097343300"><ele>404</ele><time>2014-07-04T09:06:39Z</time></trkpt>
 <trkpt lat="48.880896600" lon="11.097344500"><ele>403</ele><time>2014-07-04T09:06:43Z</time></trkpt>
 <trkpt lat="48.880937800" lon="11.097359100"><ele>402</ele><time>2014-07-04T09:06:47Z</time></trkpt>
 <trkpt lat="48.880991200" lon="11.097369900"><ele>401</ele><time>2014-07-04T09:06:51Z</time></trkpt>
 <trkpt lat="48.881034500" lon="11.097376600"><ele>400</ele><time>2014-07-04T09:06:55Z</time></trkpt>
 <trkpt lat="48.881091200" lon="11.097379500"><ele>400</ele><time>2014-07-04T09:06:59Z</time></trkpt>
 <trkpt lat="48.881141200" lon="11.097394500"><ele>399</ele><time>2014-07-04T09:07:03Z</time></trkpt>
 <trkpt lat="48.881180700" lon="11.097462000"><ele>399</ele><time>2014-07-04T09:07:07Z</time></trkpt>
 <trkpt lat="48.881217000" lon="11.097509100"><ele>398</ele><time>2014-07-04T09:07:11Z</time></trkpt>
 <trkpt lat="48.881261200" lon="11.097515700"><ele>398</ele><time>2014-07-04T09:07:15Z</time></trkpt>
 <trkpt lat="48.881338300" lon="11.097498700"><ele>398</ele><time>2014-07-04T09:07:19Z</time></trkpt>
 <trkpt lat="48.881387400" lon="11.097494100"><ele>397</ele><time>2014-07-04T09:07:23Z</time></trkpt>
 <trkpt lat="48.881426600" lon="11.097489500"><ele>397</ele><time>2014-07-04T09:07:27Z</time></trkpt>
 <trkpt lat="48.881474500" lon="11.097512400"><ele>397</ele><time>2014-07-04T09:07:31Z</time></trkpt>
 <trkpt lat="48.881514100" lon="11.097545800"><ele>397</ele><time>2014-07-04T09:07:35Z</time></trkpt>
 <trkpt lat="48.881567400" lon="11.097569500"><ele>397</ele><time>2014-07-04T09:07:39Z</time></trkpt>
 <trkpt lat="48.881598700" lon="11.097598300"><ele>397</ele><time>2014-07-04T09:07:43Z</time></trkpt>
 <trkpt lat="48.881634100" lon="11.097642800"><ele>397</ele><time>2014-07-04T09:07:47Z</time></trkpt>
 <trkpt lat="48.881670400" lon="11.097677900"><ele>396</ele><time>2014-07-04T09:07:51Z</time></trkpt>
 <trkpt lat="48.881716600" lon="11.097714500"><ele>396</ele><time>2014-07-04T09:07:55Z</time></trkpt>
 <trkpt lat="48.881766600" lon="11.097745300"><ele>396</ele><time>2014-07-04T09:07:59Z</time></trkpt>
 <trkpt lat="48.881811200" lon="11.097757800"><ele>396</ele><time>2014-07-04T09:08:03Z</time></trkpt>
 <trkpt lat="48.881863300" lon="11.097756200"><ele>396</ele><time>2014-07-04T09:08:07Z</time></trkpt>
 <trkpt lat="48.881893700" lon="11.097773300"><ele>396</ele><time>2014-07-04T09:08:11Z</time></trkpt>
 <trkpt lat="48.881936600" lon="11.097794500"><ele>397</ele><time>2014-07-04T09:08:15Z</time></trkpt>
 <trkpt lat="48.882000300" lon="11.097785300"><ele>397</ele><time>2014-07-04T09:08:19Z</time></trkpt>
 <trkpt lat="48.882059500" lon="11.097811600"><ele>398</ele><time>2014-07-04T09:08:23Z</time></trkpt>
 <trkpt lat="48.882117500" lon="11.097841200"><ele>399</ele><time>2014-07-04T09:08:27Z</time></trkpt>
 <trkpt lat="48.882173700" lon="11.097859100"><ele>400</ele><time>2014-07-04T09:08:31Z</time></trkpt>
 <trkpt lat="48.882230800" lon="11.097894500"><ele>402</ele><time>2014-07-04T09:08:35Z</time></trkpt>
 <trkpt lat="48.882287500" lon="11.097926200"><ele>403</ele><time>2014-07-04T09:08:39Z</time></trkpt>
 <trkpt lat="48.882336600" lon="11.097953700"><ele>405</ele><time>2014-07-04T09:08:43Z</time></trkpt>
 <trkpt lat="48.882382000" lon="11.097965800"><ele>406</ele><time>2014-07-04T09:08:47Z</time></trkpt>
 <trkpt lat="48.882432400" lon="11.097980800"><ele>408</ele><time>2014-07-04T09:08:51Z</time></trkpt>
 <trkpt lat="48.882491200" lon="11.098007800"><ele>410</ele><time>2014-07-04T09:08:55Z</time></trkpt>
 <trkpt lat="48.882541600" lon="11.098037900"><ele>412</ele><time>2014-07-04T09:08:59Z</time></trkpt>
 <trkpt lat="48.882600400" lon="11.098059100"><ele>414</ele><time>2014-07-04T09:09:03Z</time></trkpt>
 <trkpt lat="48.882649100" lon="11.098079900"><ele>416</ele><time>2014-07-04T09:09:07Z</time></trkpt>
 <trkpt lat="48.882708700" lon="11.098073300"><ele>418</ele><time>2014-07-04T09:09:11Z</time></trkpt>
 <trkpt lat="48.882742000" lon="11.098075800"><ele>420</ele><time>2014-07-04T09:09:15Z</time></trkpt>
 <trkpt lat="48.882819500" lon="11.098069500"><ele>421</ele><time>2014-07-04T09:09:19Z</time></trkpt>
 <trkpt lat="48.882859100" lon="11.098069500"><ele>423</ele><time>2014-07-04T09:09:23Z</time></trkpt>
 <trkpt lat="48.882885800" lon="11.098049900"><ele>424</ele><time>2014-07-04T09:09:27Z</time></trkpt>
 <trkpt lat="48.882912400" lon="11.098027900"><ele>425</ele><time>2014-07-04T09:09:31Z</time></trkpt>
 <trkpt lat="48.882957800" lon="11.098000800"><ele>427</ele><time>2014-07-04T09:09:35Z</time></trkpt>
 <trkpt lat="48.882996200" lon="11.097980800"><ele>428</ele><time>2014-07-04T09:09:39Z</time></trkpt>
 <trkpt lat="48.883039100" lon="11.097969100"><ele>429</ele><time>2014-07-04T09:09:43Z</time></trkpt>
 <trkpt lat="48.883087800" lon="11.097949100"><ele>430</ele><time>2014-07-04T09:09:47Z</time></trkpt>
 <trkpt lat="48.883153700" lon="11.097918700"><ele>431</ele><time>2014-07-04T09:09:51Z</time></trkpt>
 <trkpt lat="48.883192800" lon="11.097886600"><ele>432</ele><time>2014-07-04T09:09:55Z</time></trkpt>
 <trkpt lat="48.883223300" lon="11.097868700"><ele>433</ele><time>2014-07-04T09:09:59Z</time></trkpt>
 <trkpt lat="48.883246200" lon="11.097851600"><ele>433</ele><time>2014-07-04T09:10:03Z</time></trkpt>
 <trkpt lat="48.883274500" lon="11.097840400"><ele>434</ele><time>2014-07-04T09:10:07Z</time></trkpt>
 <trkpt lat="48.883306600" lon="11.097815400"><ele>435</ele><time>2014-07-04T09:10:11Z</time></trkpt>
 <trkpt lat="48.883340800" lon="11.097791200"><ele>436</ele><time>2014-07-04T09:10:15Z</time></trkpt>
 <trkpt lat="48.883372800" lon="11.097778700"><ele>436</ele><time>2014-07-04T09:10:19Z</time></trkpt>
 <trkpt lat="48.883415800" lon="11.097777000"><ele>437</ele><time>2014-07-04T09:10:23Z</time></trkpt>
 <trkpt lat="48.883469900" lon="11.097768300"><ele>438</ele><time>2014-07-04T09:10:27Z</time></trkpt>
 <trkpt lat="48.883520800" lon="11.097749900"><ele>438</ele><time>2014-07-04T09:10:31Z</time></trkpt>
 <trkpt lat="48.883571200" lon="11.097742800"><ele>439</ele><time>2014-07-04T09:10:35Z</time></trkpt>
 <trkpt lat="48.883613700" lon="11.097734500"><ele>440</ele><time>2014-07-04T09:10:39Z</time></trkpt>
 <trkpt lat="48.883670300" lon="11.097744900"><ele>441</ele><time>2014-07-04T09:10:43Z</time></trkpt>
 <trkpt lat="48.883716600" lon="11.097752400"><ele>441</ele><time>2014-07-04T09:10:47Z</time></trkpt>
 <trkpt lat="48.883757000" lon="11.097768700"><ele>442</ele><time>2014-07-04T09:10:51Z</time></trkpt>
 <trkpt lat="48.883792000" lon="11.097807800"><ele>443</ele><time>2014-07-04T09:10:55Z</time></trkpt>
 <trkpt lat="48.883840300" lon="11.097854100"><ele>444</ele><time>2014-07-04T09:10:59Z</time></trkpt>
 <trkpt lat="48.883903300" lon="11.097867000"><ele>444</ele><time>2014-07-04T09:11:03Z</time></trkpt>
 <trkpt lat="48.883952400" lon="11.097889100"><ele>445</ele><time>2014-07-04T09:11:07Z</time></trkpt>
 <trkpt lat="48.884003200" lon="11.097908300"><ele>446</ele><time>2014-07-04T09:11:11Z</time></trkpt>
 <trkpt lat="48.884050400" lon="11.097930800"><ele>447</ele><time>2014-07-04T09:11:15Z</time></trkpt>
 <trkpt lat="48.884092900" lon="11.097985800"><ele>448</ele><time>2014-07-04T09:11:19Z</time></trkpt>
 <trkpt lat="48.884147000" lon="11.098035700"><ele>448</ele><time>2014-07-04T09:11:23Z</time></trkpt>
 <trkpt lat="48.884201600" lon="11.098085300"><ele>449</ele><time>2014-07-04T09:11:27Z</time></trkpt>
 <trkpt lat="48.884237000" lon="11.098130800"><ele>450</ele><time>2014-07-04T09:11:31Z</time></trkpt>
 <trkpt lat="48.884278700" lon="11.098150800"><ele>451</ele><time>2014-07-04T09:11:35Z</time></trkpt>
 <trkpt lat="48.884324500" lon="11.098144500"><ele>452</ele><time>2014-07-04T09:11:39Z</time></trkpt>
 <trkpt lat="48.884375800" lon="11.098149100"><ele>453</ele><time>2014-07-04T09:11:43Z</time></trkpt>
 <trkpt lat="48.884408700" lon="11.098162400"><ele>455</ele><time>2014-07-04T09:11:47Z</time></trkpt>
 <trkpt lat="48.884438700" lon="11.098173300"><ele>456</ele><time>2014-07-04T09:11:51Z</time></trkpt>
 <trkpt lat="48.884492400" lon="11.098179900"><ele>457</ele><time>2014-07-04T09:11:55Z</time></trkpt>
 <trkpt lat="48.884577900" lon="11.098184900"><ele>458</ele><time>2014-07-04T09:11:59Z</time></trkpt>
 <trkpt lat="48.884619900" lon="11.098209100"><ele>459</ele><time>2014-07-04T09:12:03Z</time></trkpt>
 <trkpt lat="48.884652800" lon="11.098221600"><ele>461</ele><time>2014-07-04T09:12:07Z</time></trkpt>
 <trkpt lat="48.884692800" lon="11.098242000"><ele>462</ele><time>2014-07-04T09:12:11Z</time></trkpt>
 <trkpt lat="48.884735400" lon="11.098263300"><ele>463</ele><time>2014-07-04T09:12:15Z</time></trkpt>
 <trkpt lat="48.884778300" lon="11.098287000"><ele>464</ele><time>2014-07-04T09:12:19Z</time></trkpt>
 <trkpt lat="48.884828300" lon="11.098328700"><ele>466</ele><time>2014-07-04T09:12:23Z</time></trkpt>
 <trkpt lat="48.884872000" lon="11.098402400"><ele>467</ele><time>2014-07-04T09:12:27Z</time></trkpt>
 <trkpt lat="48.884929100" lon="11.098410800"><ele>468</ele><time>2014-07-04T09:12:31Z</time></trkpt>
 <trkpt lat="48.884976600" lon="11.098424100"><ele>469</ele><time>2014-07-04T09:12:35Z</time></trkpt>
 <trkpt lat="48.885028700" lon="11.098432800"><ele>471</ele><time>2014-07-04T09:12:39Z</time></trkpt>
 <trkpt lat="48.885068700" lon="11.098446200"><ele>472</ele><time>2014-07-04T09:12:43Z</time></trkpt>
 <trkpt lat="48.885110800" lon="11.098444900"><ele>473</ele><time>2014-07-04T09:12:47Z</time></trkpt>
 <trkpt lat="48.885167400" lon="11.098425800"><ele>474</ele><time>2014-07-04T09:12:51Z</time></trkpt>
 <trkpt lat="48.885239500" lon="11.098347800"><ele>475</ele><time>2014-07-04T09:12:55Z</time></trkpt>
 <trkpt lat="48.885312000" lon="11.098359100"><ele>477</ele><time>2014-07-04T09:12:59Z</time></trkpt>
 <trkpt lat="48.885358700" lon="11.098384500"><ele>478</ele><time>2014-07-04T09:13:03Z</time></trkpt>
 <trkpt lat="48.885400300" lon="11.098409500"><ele>479</ele><time>2014-07-04T09:13:07Z</time></trkpt>
 <trkpt lat="48.885451200" lon="11.098431600"><ele>481</ele><time>2014-07-04T09:13:11Z</time></trkpt>
 <trkpt lat="48.885502900" lon="11.098449900"><ele>482</ele><time>2014-07-04T09:13:15Z</time></trkpt>
 <trkpt lat="48.885550300" lon="11.098491600"><ele>483</ele><time>2014-07-04T09:13:19Z</time></trkpt>
 <trkpt lat="48.885585800" lon="11.098535400"><ele>485</ele><time>2014-07-04T09:13:23Z</time></trkpt>
 <trkpt lat="48.885628700" lon="11.098571200"><ele>487</ele><time>2014-07-04T09:13:27Z</time></trkpt>
 <trkpt lat="48.885668700" lon="11.098604500"><ele>488</ele><time>2014-07-04T09:13:31Z</time></trkpt>
 <trkpt lat="48.885711200" lon="11.098648200"><ele>490</ele><time>2014-07-04T09:13:35Z</time></trkpt>
 <trkpt lat="48.885732800" lon="11.098659500"><ele>492</ele><time>2014-07-04T09:13:39Z</time></trkpt>
 <trkpt lat="48.885779500" lon="11.098675400"><ele>493</ele><time>2014-07-04T09:13:43Z</time></trkpt>
 <trkpt lat="48.885814500" lon="11.098724900"><ele>495</ele><time>2014-07-04T09:13:47Z</time></trkpt>
 <trkpt lat="48.885852400" lon="11.098770800"><ele>496</ele><time>2014-07-04T09:13:51Z</time></trkpt>
 <trkpt lat="48.885862000" lon="11.098819900"><ele>497</ele><time>2014-07-04T09:13:55Z</time></trkpt>
 <trkpt lat="48.885870800" lon="11.098836200"><ele>499</ele><time>2014-07-04T09:13:59Z</time></trkpt>
 <trkpt lat="48.885872800" lon="11.098827900"><ele>500</ele><time>2014-07-04T09:14:03Z</time></trkpt>
 <trkpt lat="48.885872800" lon="11.098827900"><ele>501</ele><time>2014-07-04T09:14:07Z</time></trkpt>
 <trkpt lat="48.885868300" lon="11.098834100"><ele>502</ele><time>2014-07-04T09:14:11Z</time></trkpt>
 <trkpt lat="48.885876200" lon="11.098818700"><ele>503</ele><time>2014-07-04T09:14:15Z</time></trkpt>
 <trkpt lat="48.885882000" lon="11.098807000"><ele>504</ele><time>2014-07-04T09:14:19Z</time></trkpt>
 <trkpt lat="48.885882000" lon="11.098807000"><ele>504</ele><time>2014-07-04T09:14:23Z</time></trkpt>
 <trkpt lat="48.885882400" lon="11.098798300"><ele>504</ele><time>2014-07-04T09:14:27Z</time></trkpt>
 <trkpt lat="48.885882400" lon="11.098798300"><ele>505</ele><time>2014-07-04T09:14:31Z</time></trkpt>
 <trkpt lat="48.885884100" lon="11.098789100"><ele>505</ele><time>2014-07-04T09:14:35Z</time></trkpt>
 <trkpt lat="48.885890800" lon="11.098787400"><ele>505</ele><time>2014-07-04T09:14:39Z</time></trkpt>
 <trkpt lat="48.885921600" lon="11.098804900"><ele>505</ele><time>2014-07-04T09:14:43Z</time></trkpt>
 <trkpt lat="48.885968300" lon="11.098826600"><ele>505</ele><time>2014-07-04T09:14:47Z</time></trkpt>
 <trkpt lat="48.886012000" lon="11.098833300"><ele>505</ele><time>2014-07-04T09:14:51Z</time></trkpt>
 <trkpt lat="48.886053700" lon="11.098840400"><ele>505</ele><time>2014-07-04T09:14:55Z</time></trkpt>
 <trkpt lat="48.886089100" lon="11.098835300"><ele>504</ele><time>2014-07-04T09:14:59Z</time></trkpt>
 <trkpt lat="48.886127400" lon="11.098842800"><ele>504</ele><time>2014-07-04T09:15:03Z</time></trkpt>
 <trkpt lat="48.886173700" lon="11.098849500"><ele>504</ele><time>2014-07-04T09:15:07Z</time></trkpt>
 <trkpt lat="48.886220800" lon="11.098850800"><ele>504</ele><time>2014-07-04T09:15:11Z</time></trkpt>
 <trkpt lat="48.886270800" lon="11.098857400"><ele>503</ele><time>2014-07-04T09:15:15Z</time></trkpt>
 <trkpt lat="48.886322800" lon="11.098857400"><ele>503</ele><time>2014-07-04T09:15:19Z</time></trkpt>
 <trkpt lat="48.886378300" lon="11.098843300"><ele>502</ele><time>2014-07-04T09:15:23Z</time></trkpt>
 <trkpt lat="48.886432400" lon="11.098826600"><ele>502</ele><time>2014-07-04T09:15:27Z</time></trkpt>
 <trkpt lat="48.886489100" lon="11.098844500"><ele>501</ele><time>2014-07-04T09:15:31Z</time></trkpt>
 <trkpt lat="48.886535800" lon="11.098838700"><ele>501</ele><time>2014-07-04T09:15:35Z</time></trkpt>
 <trkpt lat="48.886585000" lon="11.098815800"><ele>500</ele><time>2014-07-04T09:15:39Z</time></trkpt>
 <trkpt lat="48.886625800" lon="11.098812900"><ele>499</ele><time>2014-07-04T09:15:43Z</time></trkpt>
 <trkpt lat="48.886664900" lon="11.098812800"><ele>498</ele><time>2014-07-04T09:15:47Z</time></trkpt>
 <trkpt lat="48.886699900" lon="11.098806600"><ele>498</ele><time>2014-07-04T09:15:51Z</time></trkpt>
 <trkpt lat="48.886733700" lon="11.098786600"><ele>497</ele><time>2014-07-04T09:15:55Z</time></trkpt>
 <trkpt lat="48.886775300" lon="11.098777900"><ele>496</ele><time>2014-07-04T09:15:59Z</time></trkpt>
 <trkpt lat="48.886827000" lon="11.098764100"><ele>495</ele><time>2014-07-04T09:16:03Z</time></trkpt>
 <trkpt lat="48.886869100" lon="11.098755800"><ele>493</ele><time>2014-07-04T09:16:07Z</time></trkpt>
 <trkpt lat="48.886909900" lon="11.098742800"><ele>492</ele><time>2014-07-04T09:16:11Z</time></trkpt>
 <trkpt lat="48.886954900" lon="11.098709900"><ele>490</ele><time>2014-07-04T09:16:15Z</time></trkpt>
 <trkpt lat="48.887005400" lon="11.098703300"><ele>488</ele><time>2014-07-04T09:16:19Z</time></trkpt>
 <trkpt lat="48.887054900" lon="11.098679100"><ele>487</ele><time>2014-07-04T09:16:23Z</time></trkpt>
 <trkpt lat="48.887103300" lon="11.098692800"><ele>485</ele><time>2014-07-04T09:16:27Z</time></trkpt>
 <trkpt lat="48.887140800" lon="11.098682000"><ele>483</ele><time>2014-07-04T09:16:31Z</time></trkpt>
 <trkpt lat="48.887183300" lon="11.098634900"><ele>481</ele><time>2014-07-04T09:16:35Z</time></trkpt>
 <trkpt lat="48.887221200" lon="11.098623200"><ele>478</ele><time>2014-07-04T09:16:39Z</time></trkpt>
 <trkpt lat="48.887248700" lon="11.098603700"><ele>476</ele><time>2014-07-04T09:16:43Z</time></trkpt>
 <trkpt lat="48.887287800" lon="11.098567900"><ele>473</ele><time>2014-07-04T09:16:47Z</time></trkpt>
 <trkpt lat="48.887323300" lon="11.098527800"><ele>471</ele><time>2014-07-04T09:16:51Z</time></trkpt>
 <trkpt lat="48.887365800" lon="11.098506200"><ele>468</ele><time>2014-07-04T09:16:55Z</time></trkpt>
 <trkpt lat="48.887405300" lon="11.098494500"><ele>466</ele><time>2014-07-04T09:16:59Z</time></trkpt>
 <trkpt lat="48.887442400" lon="11.098496600"><ele>463</ele><time>2014-07-04T09:17:03Z</time></trkpt>
 <trkpt lat="48.887487000" lon="11.098497400"><ele>460</ele><time>2014-07-04T09:17:07Z</time></trkpt>
 <trkpt lat="48.887517400" lon="11.098520400"><ele>457</ele><time>2014-07-04T09:17:11Z</time></trkpt>
 <trkpt lat="48.887556200" lon="11.098543300"><ele>455</ele><time>2014-07-04T09:17:15Z</time></trkpt>
 <trkpt lat="48.887617900" lon="11.098550800"><ele>452</ele><time>2014-07-04T09:17:19Z</time></trkpt>
 <trkpt lat="48.887662000" lon="11.098553700"><ele>450</ele><time>2014-07-04T09:17:23Z</time></trkpt>
 <trkpt lat="48.887717800" lon="11.098542800"><ele>448</ele><time>2014-07-04T09:17:27Z</time></trkpt>
 <trkpt lat="48.887772800" lon="11.098532800"><ele>446</ele><time>2014-07-04T09:17:31Z</time></trkpt>
 <trkpt lat="48.887816600" lon="11.098515800"><ele>444</ele><time>2014-07-04T09:17:35Z</time></trkpt>
 <trkpt lat="48.887838300" lon="11.098502400"><ele>442</ele><time>2014-07-04T09:17:39Z</time></trkpt>
 <trkpt lat="48.887863700" lon="11.098501600"><ele>440</ele><time>2014-07-04T09:17:43Z</time></trkpt>
 <trkpt lat="48.887890800" lon="11.098503700"><ele>438</ele><time>2014-07-04T09:17:47Z</time></trkpt>
 <trkpt lat="48.887925800" lon="11.098497000"><ele>436</ele><time>2014-07-04T09:17:51Z</time></trkpt>
 <trkpt lat="48.887987000" lon="11.098499500"><ele>435</ele><time>2014-07-04T09:17:55Z</time></trkpt>
 <trkpt lat="48.888037800" lon="11.098527000"><ele>434</ele><time>2014-07-04T09:17:59Z</time></trkpt>
 <trkpt lat="48.888079500" lon="11.098558700"><ele>432</ele><time>2014-07-04T09:18:03Z</time></trkpt>
 <trkpt lat="48.888120800" lon="11.098588300"><ele>431</ele><time>2014-07-04T09:18:07Z</time></trkpt>
 <trkpt lat="48.888174100" lon="11.098620400"><ele>431</ele><time>2014-07-04T09:18:11Z</time></trkpt>
 <trkpt lat="48.888205800" lon="11.098632000"><ele>430</ele><time>2014-07-04T09:18:15Z</time></trkpt>
 <trkpt lat="48.888232900" lon="11.098643300"><ele>429</ele><time>2014-07-04T09:18:19Z</time></trkpt>
 <trkpt lat="48.888274100" lon="11.098662800"><ele>429</ele><time>2014-07-04T09:18:23Z</time></trkpt>
 <trkpt lat="48.888320700" lon="11.098683300"><ele>429</ele><time>2014-07-04T09:18:27Z</time></trkpt>
 <trkpt lat="48.888366600" lon="11.098706600"><ele>428</ele><time>2014-07-04T09:18:31Z</time></trkpt>
 <trkpt lat="48.888413700" lon="11.098721200"><ele>428</ele><time>2014-07-04T09:18:35Z</time></trkpt>
 <trkpt lat="48.888463700" lon="11.098732900"><ele>428</ele><time>2014-07-04T09:18:39Z</time></trkpt>
 <trkpt lat="48.888478700" lon="11.098736600"><ele>428</ele><time>2014-07-04T09:18:43Z</time></trkpt>
 <trkpt lat="48.888478700" lon="11.098736600"><ele>428</ele><time>2014-07-04T09:18:47Z</time></trkpt>
 <trkpt lat="48.888463700" lon="11.098739100"><ele>428</ele><time>2014-07-04T09:18:51Z</time></trkpt>
 <trkpt lat="48.888446600" lon="11.098729500"><ele>428</ele><time>2014-07-04T09:18:55Z</time></trkpt>
 <trkpt lat="48.888446600" lon="11.098729500"><ele>428</ele><time>2014-07-04T09:18:59Z</time></trkpt>
 <trkpt lat="48.888460300" lon="11.098738700"><ele>428</ele><time>2014-07-04T09:19:03Z</time></trkpt>
 <trkpt lat="48.888480300" lon="11.098742400"><ele>428</ele><time>2014-07-04T09:19:07Z</time></trkpt>
 <trkpt lat="48.888499500" lon="11.098736600"><ele>428</ele><time>2014-07-04T09:19:11Z</time></trkpt>
 <trkpt lat="48.888512000" lon="11.098723700"><ele>428</ele><time>2014-07-04T09:19:15Z</time></trkpt>
 <trkpt lat="48.888512000" lon="11.098723700"><ele>428</ele><time>2014-07-04T09:19:19Z</time></trkpt>
 <trkpt lat="48.888517400" lon="11.098718700"><ele>428</ele><time>2014-07-04T09:19:23Z</time></trkpt>
 <trkpt lat="48.888522400" lon="11.098711200"><ele>428</ele><time>2014-07-04T09:19:27Z</time></trkpt>
 <trkpt lat="48.888522400" lon="11.098711200"><ele>428</ele><time>2014-07-04T09:19:31Z</time></trkpt>
 <trkpt lat="48.888513300" lon="11.098733700"><ele>428</ele><time>2014-07-04T09:19:35Z</time></trkpt>
 <trkpt lat="48.888526600" lon="11.098764500"><ele>428</ele><time>2014-07-04T09:19:39Z</time></trkpt>
 <trkpt lat="48.888539500" lon="11.098790800"><ele>428</ele><time>2014-07-04T09:19:43Z</time></trkpt>
 <trkpt lat="48.888542800" lon="11.098799500"><ele>428</ele><time>2014-07-04T09:19:47Z</time></trkpt>
 <trkpt lat="48.888542800" lon="11.098799500"><ele>428</ele><time>2014-07-04T09:19:51Z</time></trkpt>
 <trkpt lat="48.888545800" lon="11.098807000"><ele>428</ele><time>2014-07-04T09:19:55Z</time></trkpt>
 <trkpt lat="48.888549100" lon="11.098814100"><ele>428</ele><time>2014-07-04T09:19:59Z</time></trkpt>
 <trkpt lat="48.888554500" lon="11.098819500"><ele>427</ele><time>2014-07-04T09:20:03Z</time></trkpt>
 <trkpt lat="48.888554500" lon="11.098819500"><ele>427</ele><time>2014-07-04T09:20:07Z</time></trkpt>
 <trkpt lat="48.888554500" lon="11.098819500"><ele>427</ele><time>2014-07-04T09:20:11Z</time></trkpt>
 <trkpt lat="48.888553300" lon="11.098827800"><ele>427</ele><time>2014-07-04T09:20:15Z</time></trkpt>
 <trkpt lat="48.888553300" lon="11.098827800"><ele>427</ele><time>2014-07-04T09:20:19Z</time></trkpt>
 <trkpt lat="48.888553300" lon="11.098827800"><ele>427</ele><time>2014-07-04T09:20:23Z</time></trkpt>
 <trkpt lat="48.888549100" lon="11.098822400"><ele>427</ele><time>2014-07-04T09:20:27Z</time></trkpt>
 <trkpt lat="48.888547000" lon="11.098814100"><ele>428</ele><time>2014-07-04T09:20:31Z</time></trkpt>
 <trkpt lat="48.888550300" lon="11.098806200"><ele>428</ele><time>2014-07-04T09:20:35Z</time></trkpt>
 <trkpt lat="48.888555300" lon="11.098801200"><ele>428</ele><time>2014-07-04T09:20:39Z</time></trkpt>
 <trkpt lat="48.888560800" lon="11.098797800"><ele>428</ele><time>2014-07-04T09:20:43Z</time></trkpt>
 <trkpt lat="48.888570800" lon="11.098789500"><ele>428</ele><time>2014-07-04T09:20:47Z</time></trkpt>
 <trkpt lat="48.888570800" lon="11.098789500"><ele>428</ele><time>2014-07-04T09:20:51Z</time></trkpt>
 <trkpt lat="48.888576600" lon="11.098784900"><ele>428</ele><time>2014-07-04T09:20:55Z</time></trkpt>
 <trkpt lat="48.888588300" lon="11.098773300"><ele>429</ele><time>2014-07-04T09:20:59Z</time></trkpt>
 <trkpt lat="48.888616200" lon="11.098779500"><ele>429</ele><time>2014-07-04T09:21:03Z</time></trkpt>
 <trkpt lat="48.888645800" lon="11.098779100"><ele>429</ele><time>2014-07-04T09:21:07Z</time></trkpt>
 <trkpt lat="48.888665700" lon="11.098787800"><ele>429</ele><time>2014-07-04T09:21:11Z</time></trkpt>
 <trkpt lat="48.888699900" lon="11.098799900"><ele>429</ele><time>2014-07-04T09:21:15Z</time></trkpt>
 <trkpt lat="48.888755800" lon="11.098794900"><ele>428</ele><time>2014-07-04T09:21:19Z</time></trkpt>
 <trkpt lat="48.888822000" lon="11.098799100"><ele>428</ele><time>2014-07-04T09:21:23Z</time></trkpt>
 <trkpt lat="48.888885300" lon="11.098799100"><ele>428</ele><time>2014-07-04T09:21:27Z</time></trkpt>
 <trkpt lat="48.888936200" lon="11.098804100"><ele>429</ele><time>2014-07-04T09:21:31Z</time></trkpt>
 <trkpt lat="48.888987400" lon="11.098817900"><ele>429</ele><time>2014-07-04T09:21:35Z</time></trkpt>
 <trkpt lat="48.889039100" lon="11.098817000"><ele>429</ele><time>2014-07-04T09:21:39Z</time></trkpt>
 <trkpt lat="48.889104900" lon="11.098814500"><ele>429</ele><time>2014-07-04T09:21:43Z</time></trkpt>
 <trkpt lat="48.889160700" lon="11.098827000"><ele>429</ele><time>2014-07-04T09:21:47Z</time></trkpt>
 <trkpt lat="48.889220300" lon="11.098827800"><ele>430</ele><time>2014-07-04T09:21:51Z</time></trkpt>
 <trkpt lat="48.889274900" lon="11.098841600"><ele>430</ele><time>2014-07-04T09:21:55Z</time></trkpt>
 <trkpt lat="48.889315800" lon="11.098872900"><ele>431</ele><time>2014-07-04T09:21:59Z</time></trkpt>
 <trkpt lat="48.889350800" lon="11.098924500"><ele>431</ele><time>2014-07-04T09:22:03Z</time></trkpt>
 <trkpt lat="48.889394500" lon="11.098955300"><ele>432</ele><time>2014-07-04T09:22:07Z</time></trkpt>
 <trkpt lat="48.889447500" lon="11.098984100"><ele>433</ele><time>2014-07-04T09:22:11Z</time></trkpt>
 <trkpt lat="48.889496200" lon="11.099013700"><ele>434</ele><time>2014-07-04T09:22:15Z</time></trkpt>
 <trkpt lat="48.889523700" lon="11.099045300"><ele>435</ele><time>2014-07-04T09:22:19Z</time></trkpt>
 <trkpt lat="48.889562800" lon="11.099095300"><ele>436</ele><time>2014-07-04T09:22:23Z</time></trkpt>
 <trkpt lat="48.889610800" lon="11.099144100"><ele>437</ele><time>2014-07-04T09:22:27Z</time></trkpt>
 <trkpt lat="48.889673300" lon="11.099177400"><ele>438</ele><time>2014-07-04T09:22:31Z</time></trkpt>
 <trkpt lat="48.889720000" lon="11.099219500"><ele>439</ele><time>2014-07-04T09:22:35Z</time></trkpt>
 <trkpt lat="48.889759900" lon="11.099259900"><ele>440</ele><time>2014-07-04T09:22:39Z</time></trkpt>
 <trkpt lat="48.889800800" lon="11.099297400"><ele>441</ele><time>2014-07-04T09:22:43Z</time></trkpt>
 <trkpt lat="48.889837400" lon="11.099342400"><ele>441</ele><time>2014-07-04T09:22:47Z</time></trkpt>
 <trkpt lat="48.889869500" lon="11.099386200"><ele>442</ele><time>2014-07-04T09:22:51Z</time></trkpt>
 <trkpt lat="48.889877400" lon="11.099412800"><ele>443</ele><time>2014-07-04T09:22:55Z</time></trkpt>
 <trkpt lat="48.889874100" lon="11.099433200"><ele>443</ele><time>2014-07-04T09:22:59Z</time></trkpt>
 <trkpt lat="48.889887000" lon="11.099449900"><ele>444</ele><time>2014-07-04T09:23:03Z</time></trkpt>
 <trkpt lat="48.889906200" lon="11.099477000"><ele>444</ele><time>2014-07-04T09:23:07Z</time></trkpt>
 <trkpt lat="48.889945400" lon="11.099532800"><ele>445</ele><time>2014-07-04T09:23:11Z</time></trkpt>
 <trkpt lat="48.889983300" lon="11.099576600"><ele>445</ele><time>2014-07-04T09:23:15Z</time></trkpt>
 <trkpt lat="48.890022800" lon="11.099608700"><ele>446</ele><time>2014-07-04T09:23:19Z</time></trkpt>
 <trkpt lat="48.890050300" lon="11.099639500"><ele>446</ele><time>2014-07-04T09:23:23Z</time></trkpt>
 <trkpt lat="48.890079500" lon="11.099691600"><ele>446</ele><time>2014-07-04T09:23:27Z</time></trkpt>
 <trkpt lat="48.890122800" lon="11.099730400"><ele>446</ele><time>2014-07-04T09:23:31Z</time></trkpt>
 <trkpt lat="48.890192000" lon="11.099756200"><ele>447</ele><time>2014-07-04T09:23:35Z</time></trkpt>
 <trkpt lat="48.890248700" lon="11.099769500"><ele>447</ele><time>2014-07-04T09:23:39Z</time></trkpt>
 <trkpt lat="48.890301600" lon="11.099761200"><ele>447</ele><time>2014-07-04T09:23:43Z</time></trkpt>
 <trkpt lat="48.890354100" lon="11.099766600"><ele>447</ele><time>2014-07-04T09:23:47Z</time></trkpt>
 <trkpt lat="48.890404100" lon="11.099764100"><ele>447</ele><time>2014-07-04T09:23:51Z</time></trkpt>
 <trkpt lat="48.890462800" lon="11.099755800"><ele>447</ele><time>2014-07-04T09:23:55Z</time></trkpt>
 <trkpt lat="48.890510800" lon="11.099768700"><ele>447</ele><time>2014-07-04T09:23:59Z</time></trkpt>
 <trkpt lat="48.890550800" lon="11.099767000"><ele>447</ele><time>2014-07-04T09:24:03Z</time></trkpt>
 <trkpt lat="48.890580700" lon="11.099766600"><ele>447</ele><time>2014-07-04T09:24:07Z</time></trkpt>
 <trkpt lat="48.890598700" lon="11.099769500"><ele>447</ele><time>2014-07-04T09:24:11Z</time></trkpt>
 <trkpt lat="48.890613700" lon="11.099775700"><ele>447</ele><time>2014-07-04T09:24:15Z</time></trkpt>
 <trkpt lat="48.890622000" lon="11.099796200"><ele>446</ele><time>2014-07-04T09:24:19Z</time></trkpt>
 <trkpt lat="48.890635800" lon="11.099828700"><ele>446</ele><time>2014-07-04T09:24:23Z</time></trkpt>
 <trkpt lat="48.890655700" lon="11.099852000"><ele>446</ele><time>2014-07-04T09:24:27Z</time></trkpt>
 <trkpt lat="48.890667000" lon="11.099871200"><ele>446</ele><time>2014-07-04T09:24:31Z</time></trkpt>
 <trkpt lat="48.890697000" lon="11.099900700"><ele>447</ele><time>2014-07-04T09:24:35Z</time></trkpt>
 <trkpt lat="48.890732800" lon="11.099928700"><ele>447</ele><time>2014-07-04T09:24:39Z</time></trkpt>
 <trkpt lat="48.890762400" lon="11.099939100"><ele>447</ele><time>2014-07-04T09:24:43Z</time></trkpt>
 <trkpt lat="48.890807800" lon="11.099942900"><ele>447</ele><time>2014-07-04T09:24:47Z</time></trkpt>
 <trkpt lat="48.890861200" lon="11.099950300"><ele>447</ele><time>2014-07-04T09:24:51Z</time></trkpt>
 <trkpt lat="48.890900400" lon="11.099990300"><ele>447</ele><time>2014-07-04T09:24:55Z</time></trkpt>
 <trkpt lat="48.890947000" lon="11.100027800"><ele>447</ele><time>2014-07-04T09:24:59Z</time></trkpt>
 <trkpt lat="48.890993700" lon="11.100049900"><ele>448</ele><time>2014-07-04T09:25:03Z</time></trkpt>
 <trkpt lat="48.891033300" lon="11.100074500"><ele>448</ele><time>2014-07-04T09:25:07Z</time></trkpt>
 <trkpt lat="48.891077900" lon="11.100105800"><ele>448</ele><time>2014-07-04T09:25:11Z</time></trkpt>
 <trkpt lat="48.891123300" lon="11.100146600"><ele>448</ele><time>2014-07-04T09:25:15Z</time></trkpt>
 <trkpt lat="48.891173300" lon="11.100201600"><ele>449</ele><time>2014-07-04T09:25:19Z</time></trkpt>
 <trkpt lat="48.891229500" lon="11.100229500"><ele>449</ele><time>2014-07-04T09:25:23Z</time></trkpt>
 <trkpt lat="48.891272400" lon="11.100256600"><ele>449</ele><time>2014-07-04T09:25:27Z</time></trkpt>
 <trkpt lat="48.891303300" lon="11.100275300"><ele>450</ele><time>2014-07-04T09:25:31Z</time></trkpt>
 <trkpt lat="48.891334100" lon="11.100305300"><ele>450</ele><time>2014-07-04T09:25:35Z</time></trkpt>
 <trkpt lat="48.891371200" lon="11.100332400"><ele>450</ele><time>2014-07-04T09:25:39Z</time></trkpt>
 <trkpt lat="48.891434500" lon="11.100371600"><ele>451</ele><time>2014-07-04T09:25:43Z</time></trkpt>
 <trkpt lat="48.891489500" lon="11.100429900"><ele>451</ele><time>2014-07-04T09:25:47Z</time></trkpt>
 <trkpt lat="48.891562000" lon="11.100499100"><ele>452</ele><time>2014-07-04T09:25:51Z</time></trkpt>
 <trkpt lat="48.891616600" lon="11.100545300"><ele>452</ele><time>2014-07-04T09:25:55Z</time></trkpt>
 <trkpt lat="48.891653300" lon="11.100587000"><ele>453</ele><time>2014-07-04T09:25:59Z</time></trkpt>
 <trkpt lat="48.891691600" lon="11.100629900"><ele>453</ele><time>2014-07-04T09:26:03Z</time></trkpt>
 <trkpt lat="48.891730800" lon="11.100670400"><ele>454</ele><time>2014-07-04T09:26:07Z</time></trkpt>
 <trkpt lat="48.891784500" lon="11.100706200"><ele>454</ele><time>2014-07-04T09:26:11Z</time></trkpt>
 <trkpt lat="48.891836600" lon="11.100747800"><ele>455</ele><time>2014-07-04T09:26:15Z</time></trkpt>
 <trkpt lat="48.891879500" lon="11.100794500"><ele>456</ele><time>2014-07-04T09:26:19Z</time></trkpt>
 <trkpt lat="48.891929900" lon="11.100877900"><ele>457</ele><time>2014-07-04T09:26:23Z</time></trkpt>
 <trkpt lat="48.891989500" lon="11.100932800"><ele>458</ele><time>2014-07-04T09:26:27Z</time></trkpt>
 <trkpt lat="48.892064500" lon="11.100957800"><ele>458</ele><time>2014-07-04T09:26:31Z</time></trkpt>
 <trkpt lat="48.892114500" lon="11.101018300"><ele>459</ele><time>2014-07-04T09:26:35Z</time></trkpt>
 <trkpt lat="48.892162900" lon="11.101048300"><ele>461</ele><time>2014-07-04T09:26:39Z</time></trkpt>
 <trkpt lat="48.892212400" lon="11.101071600"><ele>462</ele><time>2014-07-04T09:26:43Z</time></trkpt>
 <trkpt lat="48.892251600" lon="11.101106600"><ele>463</ele><time>2014-07-04T09:26:47Z</time></trkpt>
 <trkpt lat="48.892295300" lon="11.101137800"><ele>464</ele><time>2014-07-04T09:26:51Z</time></trkpt>
 <trkpt lat="48.892353200" lon="11.101164100"><ele>465</ele><time>2014-07-04T09:26:55Z</time></trkpt>
 <trkpt lat="48.892384900" lon="11.101202400"><ele>467</ele><time>2014-07-04T09:26:59Z</time></trkpt>
 <trkpt lat="48.892427400" lon="11.101227800"><ele>468</ele><time>2014-07-04T09:27:03Z</time></trkpt>
 <trkpt lat="48.892464900" lon="11.101241200"><ele>469</ele><time>2014-07-04T09:27:07Z</time></trkpt>
 <trkpt lat="48.892497800" lon="11.101277000"><ele>470</ele><time>2014-07-04T09:27:11Z</time></trkpt>
 <trkpt lat="48.892519900" lon="11.101342800"><ele>472</ele><time>2014-07-04T09:27:15Z</time></trkpt>
 <trkpt lat="48.892534900" lon="11.101422400"><ele>473</ele><time>2014-07-04T09:27:19Z</time></trkpt>
 <trkpt lat="48.892575400" lon="11.101474500"><ele>474</ele><time>2014-07-04T09:27:23Z</time></trkpt>
 <trkpt lat="48.892628700" lon="11.101534500"><ele>476</ele><time>2014-07-04T09:27:27Z</time></trkpt>
 <trkpt lat="48.892677000" lon="11.101586200"><ele>477</ele><time>2014-07-04T09:27:31Z</time></trkpt>
 <trkpt lat="48.892736600" lon="11.101595700"><ele>478</ele><time>2014-07-04T09:27:35Z</time></trkpt>
 <trkpt lat="48.892764500" lon="11.101656600"><ele>479</ele><time>2014-07-04T09:27:39Z</time></trkpt>
 <trkpt lat="48.892811200" lon="11.101723300"><ele>480</ele><time>2014-07-04T09:27:43Z</time></trkpt>
 <trkpt lat="48.892836600" lon="11.101773300"><ele>481</ele><time>2014-07-04T09:27:47Z</time></trkpt>
 <trkpt lat="48.892876600" lon="11.101837000"><ele>482</ele><time>2014-07-04T09:27:51Z</time></trkpt>
 <trkpt lat="48.892920800" lon="11.101875800"><ele>483</ele><time>2014-07-04T09:27:55Z</time></trkpt>
 <trkpt lat="48.892962800" lon="11.101925800"><ele>484</ele><time>2014-07-04T09:27:59Z</time></trkpt>
 <trkpt lat="48.892995300" lon="11.101986200"><ele>485</ele><time>2014-07-04T09:28:03Z</time></trkpt>
 <trkpt lat="48.893062000" lon="11.102046600"><ele>487</ele><time>2014-07-04T09:28:07Z</time></trkpt>
 <trkpt lat="48.893106600" lon="11.102104900"><ele>488</ele><time>2014-07-04T09:28:11Z</time></trkpt>
 <trkpt lat="48.893149100" lon="11.102174500"><ele>489</ele><time>2014-07-04T09:28:15Z</time></trkpt>
 <trkpt lat="48.893193300" lon="11.102224900"><ele>490</ele><time>2014-07-04T09:28:19Z</time></trkpt>
 <trkpt lat="48.893231600" lon="11.102272400"><ele>491</ele><time>2014-07-04T09:28:23Z</time></trkpt>
 <trkpt lat="48.893255300" lon="11.102326600"><ele>492</ele><time>2014-07-04T09:28:27Z</time></trkpt>
 <trkpt lat="48.893282000" lon="11.102392400"><ele>493</ele><time>2014-07-04T09:28:31Z</time></trkpt>
 <trkpt lat="48.893323300" lon="11.102473300"><ele>494</ele><time>2014-07-04T09:28:35Z</time></trkpt>
 <trkpt lat="48.893362400" lon="11.102556600"><ele>494</ele><time>2014-07-04T09:28:39Z</time></trkpt>
 <trkpt lat="48.893363300" lon="11.102629900"><ele>495</ele><time>2014-07-04T09:28:43Z</time></trkpt>
 <trkpt lat="48.893388300" lon="11.102707800"><ele>496</ele><time>2014-07-04T09:28:47Z</time></trkpt>
 <trkpt lat="48.893434500" lon="11.102777400"><ele>497</ele><time>2014-07-04T09:28:51Z</time></trkpt>
 <trkpt lat="48.893475400" lon="11.102825800"><ele>498</ele><time>2014-07-04T09:28:55Z</time></trkpt>
 <trkpt lat="48.893513300" lon="11.102887000"><ele>499</ele><time>2014-07-04T09:28:59Z</time></trkpt>
 <trkpt lat="48.893537800" lon="11.102916600"><ele>500</ele><time>2014-07-04T09:29:03Z</time></trkpt>
 <trkpt lat="48.893578300" lon="11.102945800"><ele>500</ele><time>2014-07-04T09:29:07Z</time></trkpt>
 <trkpt lat="48.893605700" lon="11.103004500"><ele>501</ele><time>2014-07-04T09:29:11Z</time></trkpt>
 <trkpt lat="48.893617800" lon="11.103039900"><ele>501</ele><time>2014-07-04T09:29:15Z</time></trkpt>
 <trkpt lat="48.893625800" lon="11.103089900"><ele>502</ele><time>2014-07-04T09:29:19Z</time></trkpt>
 <trkpt lat="48.893642000" lon="11.103174500"><ele>503</ele><time>2014-07-04T09:29:23Z</time></trkpt>
 <trkpt lat="48.893679500" lon="11.103206200"><ele>503</ele><time>2014-07-04T09:29:27Z</time></trkpt>
 <trkpt lat="48.893716200" lon="11.103233700"><ele>504</ele><time>2014-07-04T09:29:31Z</time></trkpt>
 <trkpt lat="48.893740800" lon="11.103312800"><ele>504</ele><time>2014-07-04T09:29:35Z</time></trkpt>
 <trkpt lat="48.893780300" lon="11.103352000"><ele>505</ele><time>2014-07-04T09:29:39Z</time></trkpt>
 <trkpt lat="48.893840800" lon="11.103362400"><ele>505</ele><time>2014-07-04T09:29:43Z</time></trkpt>
 <trkpt lat="48.893900300" lon="11.103381600"><ele>505</ele><time>2014-07-04T09:29:47Z</time></trkpt>
 <trkpt lat="48.893944900" lon="11.103429500"><ele>506</ele><time>2014-07-04T09:29:51Z</time></trkpt>
 <trkpt lat="48.894016200" lon="11.103507400"><ele>506</ele><time>2014-07-04T09:29:55Z</time></trkpt>
 <trkpt lat="48.894067800" lon="11.103563700"><ele>506</ele><time>2014-07-04T09:29:59Z</time></trkpt>
 <trkpt lat="48.894112800" lon="11.103608300"><ele>506</ele><time>2014-07-04T09:30:03Z</time></trkpt>
 <trkpt lat="48.894140700" lon="11.103672400"><ele>507</ele><time>2014-07-04T09:30:07Z</time></trkpt>
 <trkpt lat="48.894177000" lon="11.103733300"><ele>507</ele><time>2014-07-04T09:30:11Z</time></trkpt>
 <trkpt lat="48.894215700" lon="11.103785300"><ele>507</ele><time>2014-07-04T09:30:15Z</time></trkpt>
 <trkpt lat="48.894269500" lon="11.103808700"><ele>507</ele><time>2014-07-04T09:30:19Z</time></trkpt>
 <trkpt lat="48.894327800" lon="11.103851200"><ele>508</ele><time>2014-07-04T09:30:23Z</time></trkpt>
 <trkpt lat="48.894343300" lon="11.103903700"><ele>508</ele><time>2014-07-04T09:30:27Z</time></trkpt>
 <trkpt lat="48.894366200" lon="11.103950300"><ele>508</ele><time>2014-07-04T09:30:31Z</time></trkpt>
 <trkpt lat="48.894405800" lon="11.103985700"><ele>508</ele><time>2014-07-04T09:30:35Z</time></trkpt>
 <trkpt lat="48.894447400" lon="11.104052400"><ele>508</ele><time>2014-07-04T09:30:39Z</time></trkpt>
 <trkpt lat="48.894482400" lon="11.104108300"><ele>508</ele><time>2014-07-04T09:30:43Z</time></trkpt>
 <trkpt lat="48.894524900" lon="11.104154100"><ele>508</ele><time>2014-07-04T09:30:47Z</time></trkpt>
 <trkpt lat="48.894569500" lon="11.104236600"><ele>508</ele><time>2014-07-04T09:30:51Z</time></trkpt>
 <trkpt lat="48.894603300" lon="11.104306600"><ele>509</ele><time>2014-07-04T09:30:55Z</time></trkpt>
 <trkpt lat="48.894621200" lon="11.104380800"><ele>509</ele><time>2014-07-04T09:30:59Z</time></trkpt>
 <trkpt lat="48.894658700" lon="11.104458700"><ele>509</ele><time>2014-07-04T09:31:03Z</time></trkpt>
 <trkpt lat="48.894681600" lon="11.104509900"><ele>509</ele><time>2014-07-04T09:31:07Z</time></trkpt>
 <trkpt lat="48.894692000" lon="11.104573300"><ele>509</ele><time>2014-07-04T09:31:11Z</time></trkpt>
 <trkpt lat="48.894720800" lon="11.104630300"><ele>509</ele><time>2014-07-04T09:31:15Z</time></trkpt>
 <trkpt lat="48.894754900" lon="11.104721200"><ele>509</ele><time>2014-07-04T09:31:19Z</time></trkpt>
 <trkpt lat="48.894797400" lon="11.104799900"><ele>509</ele><time>2014-07-04T09:31:23Z</time></trkpt>
 <trkpt lat="48.894820400" lon="11.104862400"><ele>509</ele><time>2014-07-04T09:31:27Z</time></trkpt>
 <trkpt lat="48.894826600" lon="11.104945300"><ele>509</ele><time>2014-07-04T09:31:31Z</time></trkpt>
 <trkpt lat="48.894823300" lon="11.105014100"><ele>509</ele><time>2014-07-04T09:31:35Z</time></trkpt>
 <trkpt lat="48.894825800" lon="11.105094500"><ele>509</ele><time>2014-07-04T09:31:39Z</time></trkpt>
 <trkpt lat="48.894838700" lon="11.105158700"><ele>509</ele><time>2014-07-04T09:31:43Z</time></trkpt>
 <trkpt lat="48.894832000" lon="11.105222400"><ele>509</ele><time>2014-07-04T09:31:47Z</time></trkpt>
 <trkpt lat="48.894862400" lon="11.105285300"><ele>508</ele><time>2014-07-04T09:31:51Z</time></trkpt>
 <trkpt lat="48.894876200" lon="11.105385300"><ele>508</ele><time>2014-07-04T09:31:55Z</time></trkpt>
 <trkpt lat="48.894824100" lon="11.105508700"><ele>508</ele><time>2014-07-04T09:31:59Z</time></trkpt>
 <trkpt lat="48.894802000" lon="11.105582400"><ele>508</ele><time>2014-07-04T09:32:03Z</time></trkpt>
 <trkpt lat="48.894773700" lon="11.105669100"><ele>507</ele><time>2014-07-04T09:32:07Z</time></trkpt>
 <trkpt lat="48.894754500" lon="11.105749900"><ele>507</ele><time>2014-07-04T09:32:11Z</time></trkpt>
 <trkpt lat="48.894761200" lon="11.105804100"><ele>507</ele><time>2014-07-04T09:32:15Z</time></trkpt>
 <trkpt lat="48.894802000" lon="11.105823300"><ele>507</ele><time>2014-07-04T09:32:19Z</time></trkpt>
 <trkpt lat="48.894867400" lon="11.105740800"><ele>506</ele><time>2014-07-04T09:32:23Z</time></trkpt>
 <trkpt lat="48.894905300" lon="11.105725400"><ele>506</ele><time>2014-07-04T09:32:27Z</time></trkpt>
 <trkpt lat="48.894934500" lon="11.105716200"><ele>506</ele><time>2014-07-04T09:32:31Z</time></trkpt>
 <trkpt lat="48.894972400" lon="11.105688700"><ele>505</ele><time>2014-07-04T09:32:35Z</time></trkpt>
 <trkpt lat="48.895006200" lon="11.105671600"><ele>505</ele><time>2014-07-04T09:32:39Z</time></trkpt>
 <trkpt lat="48.895038700" lon="11.105674500"><ele>504</ele><time>2014-07-04T09:32:43Z</time></trkpt>
 <trkpt lat="48.895078700" lon="11.105697000"><ele>504</ele><time>2014-07-04T09:32:47Z</time></trkpt>
 <trkpt lat="48.895114500" lon="11.105709500"><ele>504</ele><time>2014-07-04T09:32:51Z</time></trkpt>
 <trkpt lat="48.895143300" lon="11.105708300"><ele>504</ele><time>2014-07-04T09:32:55Z</time></trkpt>
 <trkpt lat="48.895158300" lon="11.105704100"><ele>503</ele><time>2014-07-04T09:32:59Z</time></trkpt>
 <trkpt lat="48.895184100" lon="11.105706600"><ele>503</ele><time>2014-07-04T09:33:03Z</time></trkpt>
 <trkpt lat="48.895213700" lon="11.105700800"><ele>503</ele><time>2014-07-04T09:33:07Z</time></trkpt>
 <trkpt lat="48.895242800" lon="11.105678700"><ele>502</ele><time>2014-07-04T09:33:11Z</time></trkpt>
 <trkpt lat="48.895266600" lon="11.105677000"><ele>502</ele><time>2014-07-04T09:33:15Z</time></trkpt>
 <trkpt lat="48.895312000" lon="11.105675400"><ele>501</ele><time>2014-07-04T09:33:19Z</time></trkpt>
 <trkpt lat="48.895344100" lon="11.105663700"><ele>501</ele><time>2014-07-04T09:33:23Z</time></trkpt>
 <trkpt lat="48.895421200" lon="11.105647000"><ele>500</ele><time>2014-07-04T09:33:27Z</time></trkpt>
 <trkpt lat="48.895457900" lon="11.105618700"><ele>500</ele><time>2014-07-04T09:33:31Z</time></trkpt>
 <trkpt lat="48.895472900" lon="11.105612800"><ele>499</ele><time>2014-07-04T09:33:35Z</time></trkpt>
 <trkpt lat="48.895494500" lon="11.105589100"><ele>499</ele><time>2014-07-04T09:33:39Z</time></trkpt>
 <trkpt lat="48.895512400" lon="11.105576200"><ele>498</ele><time>2014-07-04T09:33:43Z</time></trkpt>
 <trkpt lat="48.895540800" lon="11.105549500"><ele>498</ele><time>2014-07-04T09:33:47Z</time></trkpt>
 <trkpt lat="48.895585800" lon="11.105538300"><ele>497</ele><time>2014-07-04T09:33:51Z</time></trkpt>
 <trkpt lat="48.895619500" lon="11.105552400"><ele>496</ele><time>2014-07-04T09:33:55Z</time></trkpt>
 <trkpt lat="48.895640300" lon="11.105569100"><ele>495</ele><time>2014-07-04T09:33:59Z</time></trkpt>
 <trkpt lat="48.895659500" lon="11.105592000"><ele>494</ele><time>2014-07-04T09:34:03Z</time></trkpt>
 <trkpt lat="48.895679900" lon="11.105628700"><ele>493</ele><time>2014-07-04T09:34:07Z</time></trkpt>
 <trkpt lat="48.895686200" lon="11.105676600"><ele>492</ele><time>2014-07-04T09:34:11Z</time></trkpt>
 <trkpt lat="48.895684500" lon="11.105738700"><ele>491</ele><time>2014-07-04T09:34:15Z</time></trkpt>
 <trkpt lat="48.895667800" lon="11.105812000"><ele>489</ele><time>2014-07-04T09:34:19Z</time></trkpt>
 <trkpt lat="48.895664500" lon="11.105899500"><ele>488</ele><time>2014-07-04T09:34:23Z</time></trkpt>
 <trkpt lat="48.895655800" lon="11.105957400"><ele>487</ele><time>2014-07-04T09:34:27Z</time></trkpt>
 <trkpt lat="48.895654100" lon="11.106021600"><ele>485</ele><time>2014-07-04T09:34:31Z</time></trkpt>
 <trkpt lat="48.895644100" lon="11.106073700"><ele>483</ele><time>2014-07-04T09:34:35Z</time></trkpt>
 <trkpt lat="48.895624100" lon="11.106156200"><ele>482</ele><time>2014-07-04T09:34:39Z</time></trkpt>
 <trkpt lat="48.895615400" lon="11.106238700"><ele>480</ele><time>2014-07-04T09:34:43Z</time></trkpt>
 <trkpt lat="48.895612400" lon="11.106323300"><ele>478</ele><time>2014-07-04T09:34:47Z</time></trkpt>
 <trkpt lat="48.895615800" lon="11.106408300"><ele>477</ele><time>2014-07-04T09:34:51Z</time></trkpt>
 <trkpt lat="48.895657400" lon="11.106483700"><ele>475</ele><time>2014-07-04T09:34:55Z</time></trkpt>
 <trkpt lat="48.895682400" lon="11.106569500"><ele>473</ele><time>2014-07-04T09:34:59Z</time></trkpt>
 <trkpt lat="48.895693700" lon="11.106636600"><ele>472</ele><time>2014-07-04T09:35:03Z</time></trkpt>
 <trkpt lat="48.895699900" lon="11.106698700"><ele>470</ele><time>2014-07-04T09:35:07Z</time></trkpt>
 <trkpt lat="48.895725800" lon="11.106741200"><ele>469</ele><time>2014-07-04T09:35:11Z</time></trkpt>
 <trkpt lat="48.895752800" lon="11.106807400"><ele>467</ele><time>2014-07-04T09:35:15Z</time></trkpt>
 <trkpt lat="48.895781600" lon="11.106877000"><ele>466</ele><time>2014-07-04T09:35:19Z</time></trkpt>
 <trkpt lat="48.895801600" lon="11.106958700"><ele>465</ele><time>2014-07-04T09:35:23Z</time></trkpt>
 <trkpt lat="48.895817400" lon="11.107015400"><ele>463</ele><time>2014-07-04T09:35:27Z</time></trkpt>
 <trkpt lat="48.895846600" lon="11.107051200"><ele>462</ele><time>2014-07-04T09:35:31Z</time></trkpt>
 <trkpt lat="48.895868300" lon="11.107077400"><ele>461</ele><time>2014-07-04T09:35:35Z</time></trkpt>
 <trkpt lat="48.895895800" lon="11.107124500"><ele>459</ele><time>2014-07-04T09:35:39Z</time></trkpt>
 <trkpt lat="48.895919900" lon="11.107167000"><ele>458</ele><time>2014-07-04T09:35:43Z</time></trkpt>
 <trkpt lat="48.895945300" lon="11.107200800"><ele>456</ele><time>2014-07-04T09:35:47Z</time></trkpt>
 <trkpt lat="48.895977900" lon="11.107232800"><ele>455</ele><time>2014-07-04T09:35:51Z</time></trkpt>
 <trkpt lat="48.896008300" lon="11.107266600"><ele>453</ele><time>2014-07-04T09:35:55Z</time></trkpt>
 <trkpt lat="48.896033300" lon="11.107312000"><ele>452</ele><time>2014-07-04T09:35:59Z</time></trkpt>
 <trkpt lat="48.896040300" lon="11.107369500"><ele>450</ele><time>2014-07-04T09:36:03Z</time></trkpt>
 <trkpt lat="48.896054500" lon="11.107432400"><ele>448</ele><time>2014-07-04T09:36:07Z</time></trkpt>
 <trkpt lat="48.896069500" lon="11.107511200"><ele>447</ele><time>2014-07-04T09:36:11Z</time></trkpt>
 <trkpt lat="48.896085800" lon="11.107581600"><ele>445</ele><time>2014-07-04T09:36:15Z</time></trkpt>
 <trkpt lat="48.896099500" lon="11.107655400"><ele>443</ele><time>2014-07-04T09:36:19Z</time></trkpt>
 <trkpt lat="48.896109900" lon="11.107727000"><ele>441</ele><time>2014-07-04T09:36:23Z</time></trkpt>
 <trkpt lat="48.896121600" lon="11.107809500"><ele>439</ele><time>2014-07-04T09:36:27Z</time></trkpt>
 <trkpt lat="48.896129900" lon="11.107875400"><ele>437</ele><time>2014-07-04T09:36:31Z</time></trkpt>
 <trkpt lat="48.896145800" lon="11.107934500"><ele>436</ele><time>2014-07-04T09:36:35Z</time></trkpt>
 <trkpt lat="48.896154900" lon="11.107994900"><ele>434</ele><time>2014-07-04T09:36:39Z</time></trkpt>
 <trkpt lat="48.896173300" lon="11.108056600"><ele>432</ele><time>2014-07-04T09:36:43Z</time></trkpt>
 <trkpt lat="48.896188300" lon="11.108116200"><ele>430</ele><time>2014-07-04T09:36:47Z</time></trkpt>
 <trkpt lat="48.896197000" lon="11.108186600"><ele>428</ele><time>2014-07-04T09:36:51Z</time></trkpt>
 <trkpt lat="48.896204100" lon="11.108254900"><ele>426</ele><time>2014-07-04T09:36:55Z</time></trkpt>
 <trkpt lat="48.896211200" lon="11.108324100"><ele>424</ele><time>2014-07-04T09:36:59Z</time></trkpt>
 <trkpt lat="48.896229500" lon="11.108392000"><ele>422</ele><time>2014-07-04T09:37:03Z</time></trkpt>
 <trkpt lat="48.896257000" lon="11.108458300"><ele>421</ele><time>2014-07-04T09:37:07Z</time></trkpt>
 <trkpt lat="48.896280400" lon="11.108514100"><ele>419</ele><time>2014-07-04T09:37:11Z</time></trkpt>
 <trkpt lat="48.896293300" lon="11.108574100"><ele>417</ele><time>2014-07-04T09:37:15Z</time></trkpt>
 <trkpt lat="48.896314500" lon="11.108646600"><ele>416</ele><time>2014-07-04T09:37:19Z</time></trkpt>
 <trkpt lat="48.896337800" lon="11.108706600"><ele>414</ele><time>2014-07-04T09:37:23Z</time></trkpt>
 <trkpt lat="48.896367000" lon="11.108757800"><ele>412</ele><time>2014-07-04T09:37:27Z</time></trkpt>
 <trkpt lat="48.896390800" lon="11.108813300"><ele>411</ele><time>2014-07-04T09:37:31Z</time></trkpt>
 <trkpt lat="48.896403300" lon="11.108874500"><ele>410</ele><time>2014-07-04T09:37:35Z</time></trkpt>
 <trkpt lat="48.896402000" lon="11.108957000"><ele>408</ele><time>2014-07-04T09:37:39Z</time></trkpt>
 <trkpt lat="48.896401200" lon="11.109030800"><ele>407</ele><time>2014-07-04T09:37:43Z</time></trkpt>
 <trkpt lat="48.896405300" lon="11.109116200"><ele>406</ele><time>2014-07-04T09:37:47Z</time></trkpt>
 <trkpt lat="48.896404100" lon="11.109199900"><ele>404</ele><time>2014-07-04T09:37:51Z</time></trkpt>
 <trkpt lat="48.896412800" lon="11.109283700"><ele>403</ele><time>2014-07-04T09:37:55Z</time></trkpt>
 <trkpt lat="48.896434500" lon="11.109368700"><ele>402</ele><time>2014-07-04T09:37:59Z</time></trkpt>
 <trkpt lat="48.896455800" lon="11.109446600"><ele>401</ele><time>2014-07-04T09:38:03Z</time></trkpt>
 <trkpt lat="48.896477900" lon="11.109515400"><ele>400</ele><time>2014-07-04T09:38:07Z</time></trkpt>
 <trkpt lat="48.896482000" lon="11.109593300"><ele>399</ele><time>2014-07-04T09:38:11Z</time></trkpt>
 <trkpt lat="48.896492000" lon="11.109672000"><ele>398</ele><time>2014-07-04T09:38:15Z</time></trkpt>
 <trkpt lat="48.896512000" lon="11.109749500"><ele>397</ele><time>2014-07-04T09:38:19Z</time></trkpt>
 <trkpt lat="48.896528300" lon="11.109829500"><ele>396</ele><time>2014-07-04T09:38:23Z</time></trkpt>
 <trkpt lat="48.896541600" lon="11.109897400"><ele>395</ele><time>2014-07-04T09:38:27Z</time></trkpt>
 <trkpt lat="48.896560300" lon="11.109971200"><ele>395</ele><time>2014-07-04T09:38:31Z</time></trkpt>
 <trkpt lat="48.896566600" lon="11.110033700"><ele>394</ele><time>2014-07-04T09:38:35Z</time></trkpt>
 <trkpt lat="48.896573700" lon="11.110124100"><ele>393</ele><time>2014-07-04T09:38:39Z</time></trkpt>
 <trkpt lat="48.896577900" lon="11.110197400"><ele>392</ele><time>2014-07-04T09:38:43Z</time></trkpt>
 <trkpt lat="48.896589100" lon="11.110279500"><ele>392</ele><time>2014-07-04T09:38:47Z</time></trkpt>
 <trkpt lat="48.896605800" lon="11.110365300"><ele>391</ele><time>2014-07-04T09:38:51Z</time></trkpt>
 <trkpt lat="48.896613700" lon="11.110437000"><ele>390</ele><time>2014-07-04T09:38:55Z</time></trkpt>
 <trkpt lat="48.896634100" lon="11.110515400"><ele>390</ele><time>2014-07-04T09:38:59Z</time></trkpt>
 <trkpt lat="48.896648200" lon="11.110600400"><ele>390</ele><time>2014-07-04T09:39:03Z</time></trkpt>
 <trkpt lat="48.896660800" lon="11.110673700"><ele>389</ele><time>2014-07-04T09:39:07Z</time></trkpt>
 <trkpt lat="48.896677800" lon="11.110743300"><ele>389</ele><time>2014-07-04T09:39:11Z</time></trkpt>
 <trkpt lat="48.896702400" lon="11.110809100"><ele>389</ele><time>2014-07-04T09:39:15Z</time></trkpt>
 <trkpt lat="48.896723300" lon="11.110880800"><ele>389</ele><time>2014-07-04T09:39:19Z</time></trkpt>
 <trkpt lat="48.896737000" lon="11.110949100"><ele>389</ele><time>2014-07-04T09:39:23Z</time></trkpt>
 <trkpt lat="48.896764900" lon="11.111024500"><ele>389</ele><time>2014-07-04T09:39:27Z</time></trkpt>
 <trkpt lat="48.896778300" lon="11.111105300"><ele>390</ele><time>2014-07-04T09:39:31Z</time></trkpt>
 <trkpt lat="48.896799500" lon="11.111198300"><ele>390</ele><time>2014-07-04T09:39:35Z</time></trkpt>
 <trkpt lat="48.896814500" lon="11.111266200"><ele>390</ele><time>2014-07-04T09:39:39Z</time></trkpt>
 <trkpt lat="48.896828700" lon="11.111341600"><ele>391</ele><time>2014-07-04T09:39:43Z</time></trkpt>
 <trkpt lat="48.896846600" lon="11.111409500"><ele>391</ele><time>2014-07-04T09:39:47Z</time></trkpt>
 <trkpt lat="48.896862000" lon="11.111485700"><ele>391</ele><time>2014-07-04T09:39:51Z</time></trkpt>
 <trkpt lat="48.896885800" lon="11.111574500"><ele>392</ele><time>2014-07-04T09:39:55Z</time></trkpt>
 <trkpt lat="48.896906200" lon="11.111656600"><ele>392</ele><time>2014-07-04T09:39:59Z</time></trkpt>
 <trkpt lat="48.896935800" lon="11.111736600"><ele>393</ele><time>2014-07-04T09:40:03Z</time></trkpt>
 <trkpt lat="48.896951200" lon="11.111792400"><ele>393</ele><time>2014-07-04T09:40:07Z</time></trkpt>
 <trkpt lat="48.896959100" lon="11.111860300"><ele>394</ele><time>2014-07-04T09:40:11Z</time></trkpt>
 <trkpt lat="48.896977400" lon="11.111925300"><ele>394</ele><time>2014-07-04T09:40:15Z</time></trkpt>
 <trkpt lat="48.896995700" lon="11.111983300"><ele>394</ele><time>2014-07-04T09:40:19Z</time></trkpt>
 <trkpt lat="48.897012000" lon="11.112042400"><ele>395</ele><time>2014-07-04T09:40:23Z</time></trkpt>
 <trkpt lat="48.897032400" lon="11.112111200"><ele>395</ele><time>2014-07-04T09:40:27Z</time></trkpt>
 <trkpt lat="48.897034500" lon="11.112215800"><ele>396</ele><time>2014-07-04T09:40:31Z</time></trkpt>
 <trkpt lat="48.897040300" lon="11.112351200"><ele>396</ele><time>2014-07-04T09:40:35Z</time></trkpt>
 <trkpt lat="48.897042800" lon="11.112434100"><ele>396</ele><time>2014-07-04T09:40:39Z</time></trkpt>
 <trkpt lat="48.897040800" lon="11.112496600"><ele>396</ele><time>2014-07-04T09:40:43Z</time></trkpt>
 <trkpt lat="48.897042800" lon="11.112569100"><ele>397</ele><time>2014-07-04T09:40:47Z</time></trkpt>
 <trkpt lat="48.897044500" lon="11.112659100"><ele>397</ele><time>2014-07-04T09:40:51Z</time></trkpt>
 <trkpt lat="48.897036600" lon="11.112735400"><ele>397</ele><time>2014-07-04T09:40:55Z</time></trkpt>
 <trkpt lat="48.897034100" lon="11.112791600"><ele>398</ele><time>2014-07-04T09:40:59Z</time></trkpt>
 <trkpt lat="48.897056200" lon="11.112872800"><ele>398</ele><time>2014-07-04T09:41:03Z</time></trkpt>
 <trkpt lat="48.897074500" lon="11.112957000"><ele>399</ele><time>2014-07-04T09:41:07Z</time></trkpt>
 <trkpt lat="48.897085300" lon="11.113028300"><ele>399</ele><time>2014-07-04T09:41:11Z</time></trkpt>
 <trkpt lat="48.897084900" lon="11.113102000"><ele>400</ele><time>2014-07-04T09:41:15Z</time></trkpt>
 <trkpt lat="48.897088700" lon="11.113171600"><ele>400</ele><time>2014-07-04T09:41:19Z</time></trkpt>
 <trkpt lat="48.897093300" lon="11.113244100"><ele>401</ele><time>2014-07-04T09:41:23Z</time></trkpt>
 <trkpt lat="48.897096600" lon="11.113314100"><ele>402</ele><time>2014-07-04T09:41:27Z</time></trkpt>
 <trkpt lat="48.897105700" lon="11.113401600"><ele>403</ele><time>2014-07-04T09:41:31Z</time></trkpt>
 <trkpt lat="48.897115400" lon="11.113469100"><ele>404</ele><time>2014-07-04T09:41:35Z</time></trkpt>
 <trkpt lat="48.897124100" lon="11.113548700"><ele>405</ele><time>2014-07-04T09:41:39Z</time></trkpt>
 <trkpt lat="48.897132400" lon="11.113620800"><ele>406</ele><time>2014-07-04T09:41:43Z</time></trkpt>
 <trkpt lat="48.897140300" lon="11.113695800"><ele>407</ele><time>2014-07-04T09:41:47Z</time></trkpt>
 <trkpt lat="48.897152000" lon="11.113765800"><ele>409</ele><time>2014-07-04T09:41:51Z</time></trkpt>
 <trkpt lat="48.897167400" lon="11.113841200"><ele>410</ele><time>2014-07-04T09:41:55Z</time></trkpt>
 <trkpt lat="48.897183700" lon="11.113913300"><ele>411</ele><time>2014-07-04T09:41:59Z</time></trkpt>
 <trkpt lat="48.897202800" lon="11.113985300"><ele>412</ele><time>2014-07-04T09:42:03Z</time></trkpt>
 <trkpt lat="48.897232000" lon="11.114062400"><ele>414</ele><time>2014-07-04T09:42:07Z</time></trkpt>
 <trkpt lat="48.897258700" lon="11.114133300"><ele>415</ele><time>2014-07-04T09:42:11Z</time></trkpt>
 <trkpt lat="48.897277800" lon="11.114214500"><ele>416</ele><time>2014-07-04T09:42:15Z</time></trkpt>
 <trkpt lat="48.897296600" lon="11.114270300"><ele>417</ele><time>2014-07-04T09:42:19Z</time></trkpt>
 <trkpt lat="48.897315300" lon="11.114317800"><ele>418</ele><time>2014-07-04T09:42:23Z</time></trkpt>
 <trkpt lat="48.897334500" lon="11.114377000"><ele>419</ele><time>2014-07-04T09:42:27Z</time></trkpt>
 <trkpt lat="48.897350300" lon="11.114434500"><ele>420</ele><time>2014-07-04T09:42:31Z</time></trkpt>
 <trkpt lat="48.897361200" lon="11.114509500"><ele>421</ele><time>2014-07-04T09:42:35Z</time></trkpt>
 <trkpt lat="48.897374100" lon="11.114584100"><ele>422</ele><time>2014-07-04T09:42:39Z</time></trkpt>
 <trkpt lat="48.897387800" lon="11.114657400"><ele>422</ele><time>2014-07-04T09:42:43Z</time></trkpt>
 <trkpt lat="48.897403300" lon="11.114725800"><ele>423</ele><time>2014-07-04T09:42:47Z</time></trkpt>
 <trkpt lat="48.897404100" lon="11.114826600"><ele>424</ele><time>2014-07-04T09:42:51Z</time></trkpt>
 <trkpt lat="48.897406200" lon="11.114917800"><ele>424</ele><time>2014-07-04T09:42:55Z</time></trkpt>
 <trkpt lat="48.897408700" lon="11.115008700"><ele>425</ele><time>2014-07-04T09:42:59Z</time></trkpt>
 <trkpt lat="48.897414500" lon="11.115079100"><ele>426</ele><time>2014-07-04T09:43:03Z</time></trkpt>
 <trkpt lat="48.897426200" lon="11.115148300"><ele>426</ele><time>2014-07-04T09:43:07Z</time></trkpt>
 <trkpt lat="48.897432800" lon="11.115224900"><ele>427</ele><time>2014-07-04T09:43:11Z</time></trkpt>
 <trkpt lat="48.897440300" lon="11.115301600"><ele>428</ele><time>2014-07-04T09:43:15Z</time></trkpt>
 <trkpt lat="48.897444900" lon="11.115392000"><ele>428</ele><time>2014-07-04T09:43:19Z</time></trkpt>
 <trkpt lat="48.897449900" lon="11.115464900"><ele>429</ele><time>2014-07-04T09:43:23Z</time></trkpt>
 <trkpt lat="48.897453700" lon="11.115548200"><ele>429</ele><time>2014-07-04T09:43:27Z</time></trkpt>
 <trkpt lat="48.897457400" lon="11.115630800"><ele>430</ele><time>2014-07-04T09:43:31Z</time></trkpt>
 <trkpt lat="48.897455800" lon="11.115718700"><ele>431</ele><time>2014-07-04T09:43:35Z</time></trkpt>
 <trkpt lat="48.897455700" lon="11.115804900"><ele>432</ele><time>2014-07-04T09:43:39Z</time></trkpt>
 <trkpt lat="48.897473200" lon="11.115869900"><ele>432</ele><time>2014-07-04T09:43:43Z</time></trkpt>
 <trkpt lat="48.897493300" lon="11.115933700"><ele>433</ele><time>2014-07-04T09:43:47Z</time></trkpt>
 <trkpt lat="48.897514100" lon="11.116002400"><ele>434</ele><time>2014-07-04T09:43:51Z</time></trkpt>
 <trkpt lat="48.897505700" lon="11.116062000"><ele>435</ele><time>2014-07-04T09:43:55Z</time></trkpt>
 <trkpt lat="48.897511200" lon="11.116119500"><ele>436</ele><time>2014-07-04T09:43:59Z</time></trkpt>
 <trkpt lat="48.897529500" lon="11.116171600"><ele>438</ele><time>2014-07-04T09:44:03Z</time></trkpt>
 <trkpt lat="48.897554100" lon="11.116219900"><ele>439</ele><time>2014-07-04T09:44:07Z</time></trkpt>
 <trkpt lat="48.897614900" lon="11.116305400"><ele>440</ele><time>2014-07-04T09:44:11Z</time></trkpt>
 <trkpt lat="48.897644500" lon="11.116369500"><ele>441</ele><time>2014-07-04T09:44:15Z</time></trkpt>
 <trkpt lat="48.897659100" lon="11.116450800"><ele>443</ele><time>2014-07-04T09:44:19Z</time></trkpt>
 <trkpt lat="48.897667000" lon="11.116539100"><ele>444</ele><time>2014-07-04T09:44:23Z</time></trkpt>
 <trkpt lat="48.897675400" lon="11.116629900"><ele>446</ele><time>2014-07-04T09:44:27Z</time></trkpt>
 <trkpt lat="48.897680300" lon="11.116699100"><ele>447</ele><time>2014-07-04T09:44:31Z</time></trkpt>
 <trkpt lat="48.897682400" lon="11.116784100"><ele>449</ele><time>2014-07-04T09:44:35Z</time></trkpt>
 <trkpt lat="48.897691600" lon="11.116882900"><ele>450</ele><time>2014-07-04T09:44:39Z</time></trkpt>
 <trkpt lat="48.897714500" lon="11.117000800"><ele>452</ele><time>2014-07-04T09:44:43Z</time></trkpt>
 <trkpt lat="48.897721600" lon="11.117091600"><ele>454</ele><time>2014-07-04T09:44:47Z</time></trkpt>
 <trkpt lat="48.897713300" lon="11.117169100"><ele>455</ele><time>2014-07-04T09:44:51Z</time></trkpt>
 <trkpt lat="48.897721200" lon="11.117258200"><ele>457</ele><time>2014-07-04T09:44:55Z</time></trkpt>
 <trkpt lat="48.897737000" lon="11.117328300"><ele>459</ele><time>2014-07-04T09:44:59Z</time></trkpt>
 <trkpt lat="48.897724500" lon="11.117427800"><ele>460</ele><time>2014-07-04T09:45:03Z</time></trkpt>
 <trkpt lat="48.897676600" lon="11.117525800"><ele>462</ele><time>2014-07-04T09:45:07Z</time></trkpt>
 <trkpt lat="48.897653700" lon="11.117641600"><ele>464</ele><time>2014-07-04T09:45:11Z</time></trkpt>
 <trkpt lat="48.897649100" lon="11.117729900"><ele>466</ele><time>2014-07-04T09:45:15Z</time></trkpt>
 <trkpt lat="48.897647000" lon="11.117815800"><ele>468</ele><time>2014-07-04T09:45:19Z</time></trkpt>
 <trkpt lat="48.897641600" lon="11.117905300"><ele>470</ele><time>2014-07-04T09:45:23Z</time></trkpt>
 <trkpt lat="48.897658700" lon="11.118009100"><ele>472</ele><time>2014-07-04T09:45:27Z</time></trkpt>
 <trkpt lat="48.897669500" lon="11.118117900"><ele>474</ele><time>2014-07-04T09:45:31Z</time></trkpt>
 <trkpt lat="48.897673300" lon="11.118189100"><ele>476</ele><time>2014-07-04T09:45:35Z</time></trkpt>
 <trkpt lat="48.897669500" lon="11.118291600"><ele>478</ele><time>2014-07-04T09:45:39Z</time></trkpt>
 <trkpt lat="48.897683700" lon="11.118371600"><ele>480</ele><time>2014-07-04T09:45:43Z</time></trkpt>
 <trkpt lat="48.897702900" lon="11.118449100"><ele>482</ele><time>2014-07-04T09:45:47Z</time></trkpt>
 <trkpt lat="48.897734900" lon="11.118512900"><ele>484</ele><time>2014-07-04T09:45:51Z</time></trkpt>
 <trkpt lat="48.897749500" lon="11.118589500"><ele>486</ele><time>2014-07-04T09:45:55Z</time></trkpt>
 <trkpt lat="48.897752400" lon="11.118679900"><ele>488</ele><time>2014-07-04T09:45:59Z</time></trkpt>
 <trkpt lat="48.897760800" lon="11.118758700"><ele>490</ele><time>2014-07-04T09:46:03Z</time></trkpt>
 <trkpt lat="48.897784100" lon="11.118791200"><ele>491</ele><time>2014-07-04T09:46:07Z</time></trkpt>
 <trkpt lat="48.897845800" lon="11.118797800"><ele>493</ele><time>2014-07-04T09:46:11Z</time></trkpt>
 <trkpt lat="48.897887900" lon="11.118836200"><ele>494</ele><time>2014-07-04T09:46:15Z</time></trkpt>
 <trkpt lat="48.897911600" lon="11.118879500"><ele>495</ele><time>2014-07-04T09:46:19Z</time></trkpt>
 <trkpt lat="48.897939500" lon="11.118940800"><ele>497</ele><time>2014-07-04T09:46:23Z</time></trkpt>
 <trkpt lat="48.897959100" lon="11.119021200"><ele>498</ele><time>2014-07-04T09:46:27Z</time></trkpt>
 <trkpt lat="48.897957400" lon="11.119138700"><ele>499</ele><time>2014-07-04T09:46:31Z</time></trkpt>
 <trkpt lat="48.897947400" lon="11.119231200"><ele>501</ele><time>2014-07-04T09:46:35Z</time></trkpt>
 <trkpt lat="48.897947800" lon="11.119329100"><ele>502</ele><time>2014-07-04T09:46:39Z</time></trkpt>
 <trkpt lat="48.897959100" lon="11.119400400"><ele>503</ele><time>2014-07-04T09:46:43Z</time></trkpt>
 <trkpt lat="48.897969100" lon="11.119473300"><ele>504</ele><time>2014-07-04T09:46:47Z</time></trkpt>
 <trkpt lat="48.897993700" lon="11.119562800"><ele>506</ele><time>2014-07-04T09:46:51Z</time></trkpt>
 <trkpt lat="48.897997800" lon="11.119646200"><ele>507</ele><time>2014-07-04T09:46:55Z</time></trkpt>
 <trkpt lat="48.898001200" lon="11.119736200"><ele>508</ele><time>2014-07-04T09:46:59Z</time></trkpt>
 <trkpt lat="48.898003300" lon="11.119818700"><ele>510</ele><time>2014-07-04T09:47:03Z</time></trkpt>
 <trkpt lat="48.898006600" lon="11.119926200"><ele>511</ele><time>2014-07-04T09:47:07Z</time></trkpt>
 <trkpt lat="48.897995800" lon="11.120003200"><ele>512</ele><time>2014-07-04T09:47:11Z</time></trkpt>
 <trkpt lat="48.897990400" lon="11.119997800"><ele>513</ele><time>2014-07-04T09:47:15Z</time></trkpt>
 <trkpt lat="48.897982000" lon="11.119984500"><ele>514</ele><time>2014-07-04T09:47:19Z</time></trkpt>
 <trkpt lat="48.897962000" lon="11.119985400"><ele>515</ele><time>2014-07-04T09:47:23Z</time></trkpt>
 <trkpt lat="48.897958300" lon="11.119962000"><ele>515</ele><time>2014-07-04T09:47:27Z</time></trkpt>
 <trkpt lat="48.897973300" lon="11.119938300"><ele>515</ele><time>2014-07-04T09:47:31Z</time></trkpt>
 <trkpt lat="48.897995800" lon="11.119965800"><ele>515</ele><time>2014-07-04T09:47:35Z</time></trkpt>
 <trkpt lat="48.897994100" lon="11.119990300"><ele>515</ele><time>2014-07-04T09:47:39Z</time></trkpt>
 <trkpt lat="48.897996600" lon="11.120054500"><ele>515</ele><time>2014-07-04T09:47:43Z</time></trkpt>
 <trkpt lat="48.897987400" lon="11.120119900"><ele>514</ele><time>2014-07-04T09:47:47Z</time></trkpt>
 <trkpt lat="48.897989900" lon="11.120191200"><ele>514</ele><time>2014-07-04T09:47:51Z</time></trkpt>
 <trkpt lat="48.897973300" lon="11.120290300"><ele>513</ele><time>2014-07-04T09:47:55Z</time></trkpt>
 <trkpt lat="48.897947400" lon="11.120363700"><ele>513</ele><time>2014-07-04T09:47:59Z</time></trkpt>
 <trkpt lat="48.897957900" lon="11.120444900"><ele>512</ele><time>2014-07-04T09:48:03Z</time></trkpt>
 <trkpt lat="48.897959900" lon="11.120508200"><ele>511</ele><time>2014-07-04T09:48:07Z</time></trkpt>
 <trkpt lat="48.897984500" lon="11.120545400"><ele>510</ele><time>2014-07-04T09:48:11Z</time></trkpt>
 <trkpt lat="48.898010400" lon="11.120571200"><ele>509</ele><time>2014-07-04T09:48:15Z</time></trkpt>
 <trkpt lat="48.898032400" lon="11.120603700"><ele>508</ele><time>2014-07-04T09:48:19Z</time></trkpt>
 <trkpt lat="48.898048200" lon="11.120649100"><ele>507</ele><time>2014-07-04T09:48:23Z</time></trkpt>
 <trkpt lat="48.898091200" lon="11.120649500"><ele>506</ele><time>2014-07-04T09:48:27Z</time></trkpt>
 <trkpt lat="48.898156200" lon="11.120649100"><ele>505</ele><time>2014-07-04T09:48:31Z</time></trkpt>
 <trkpt lat="48.898215300" lon="11.120701200"><ele>504</ele><time>2014-07-04T09:48:35Z</time></trkpt>
 <trkpt lat="48.898228300" lon="11.120795400"><ele>503</ele><time>2014-07-04T09:48:39Z</time></trkpt>
 <trkpt lat="48.898181600" lon="11.120911200"><ele>502</ele><time>2014-07-04T09:48:43Z</time></trkpt>
 <trkpt lat="48.898193300" lon="11.120970800"><ele>500</ele><time>2014-07-04T09:48:47Z</time></trkpt>
 <trkpt lat="48.898177400" lon="11.121047800"><ele>498</ele><time>2014-07-04T09:48:51Z</time></trkpt>
 <trkpt lat="48.898140400" lon="11.121121600"><ele>497</ele><time>2014-07-04T09:48:55Z</time></trkpt>
 <trkpt lat="48.898131600" lon="11.121207800"><ele>495</ele><time>2014-07-04T09:48:59Z</time></trkpt>
 <trkpt lat="48.898127400" lon="11.121294900"><ele>493</ele><time>2014-07-04T09:49:03Z</time></trkpt>
 <trkpt lat="48.898126200" lon="11.121359900"><ele>491</ele><time>2014-07-04T09:49:07Z</time></trkpt>
 <trkpt lat="48.898142900" lon="11.121376200"><ele>489</ele><time>2014-07-04T09:49:11Z</time></trkpt>
 <trkpt lat="48.898147000" lon="11.121441200"><ele>487</ele><time>2014-07-04T09:49:15Z</time></trkpt>
 <trkpt lat="48.898146200" lon="11.121508300"><ele>485</ele><time>2014-07-04T09:49:19Z</time></trkpt>
 <trkpt lat="48.898123700" lon="11.121598700"><ele>483</ele><time>2014-07-04T09:49:23Z</time></trkpt>
 <trkpt lat="48.898113300" lon="11.121682400"><ele>481</ele><time>2014-07-04T09:49:27Z</time></trkpt>
 <trkpt lat="48.898124100" lon="11.121767400"><ele>479</ele><time>2014-07-04T09:49:31Z</time></trkpt>
 <trkpt lat="48.898111600" lon="11.121850300"><ele>477</ele><time>2014-07-04T09:49:35Z</time></trkpt>
 <trkpt lat="48.898089500" lon="11.121907000"><ele>475</ele><time>2014-07-04T09:49:39Z</time></trkpt>
 <trkpt lat="48.898083300" lon="11.121972000"><ele>474</ele><time>2014-07-04T09:49:43Z</time></trkpt>
 <trkpt lat="48.898048300" lon="11.122038700"><ele>472</ele><time>2014-07-04T09:49:47Z</time></trkpt>
 <trkpt lat="48.898032400" lon="11.122088300"><ele>471</ele><time>2014-07-04T09:49:51Z</time></trkpt>
 <trkpt lat="48.898019900" lon="11.122153300"><ele>469</ele><time>2014-07-04T09:49:55Z</time></trkpt>
 <trkpt lat="48.898002000" lon="11.122204500"><ele>468</ele><time>2014-07-04T09:49:59Z</time></trkpt>
 <trkpt lat="48.897994100" lon="11.122260800"><ele>467</ele><time>2014-07-04T09:50:03Z</time></trkpt>
 <trkpt lat="48.897974900" lon="11.122320300"><ele>465</ele><time>2014-07-04T09:50:07Z</time></trkpt>
 <trkpt lat="48.897943700" lon="11.122379100"><ele>464</ele><time>2014-07-04T09:50:11Z</time></trkpt>
 <trkpt lat="48.897897800" lon="11.122470300"><ele>462</ele><time>2014-07-04T09:50:15Z</time></trkpt>
 <trkpt lat="48.897873300" lon="11.122532000"><ele>461</ele><time>2014-07-04T09:50:19Z</time></trkpt>
 <trkpt lat="48.897838700" lon="11.122616600"><ele>459</ele><time>2014-07-04T09:50:23Z</time></trkpt>
 <trkpt lat="48.897812400" lon="11.122691600"><ele>458</ele><time>2014-07-04T09:50:27Z</time></trkpt>
 <trkpt lat="48.897788300" lon="11.122773300"><ele>457</ele><time>2014-07-04T09:50:31Z</time></trkpt>
 <trkpt lat="48.897766200" lon="11.122836200"><ele>456</ele><time>2014-07-04T09:50:35Z</time></trkpt>
 <trkpt lat="48.897724900" lon="11.122891200"><ele>454</ele><time>2014-07-04T09:50:39Z</time></trkpt>
 <trkpt lat="48.897690400" lon="11.122961200"><ele>453</ele><time>2014-07-04T09:50:43Z</time></trkpt>
 <trkpt lat="48.897663300" lon="11.123027000"><ele>452</ele><time>2014-07-04T09:50:47Z</time></trkpt>
 <trkpt lat="48.897620000" lon="11.123091200"><ele>451</ele><time>2014-07-04T09:50:51Z</time></trkpt>
 <trkpt lat="48.897578300" lon="11.123164500"><ele>450</ele><time>2014-07-04T09:50:55Z</time></trkpt>
 <trkpt lat="48.897567400" lon="11.123247000"><ele>449</ele><time>2014-07-04T09:50:59Z</time></trkpt>
 <trkpt lat="48.897538700" lon="11.123317800"><ele>447</ele><time>2014-07-04T09:51:03Z</time></trkpt>
 <trkpt lat="48.897518300" lon="11.123374100"><ele>446</ele><time>2014-07-04T09:51:07Z</time></trkpt>
 <trkpt lat="48.897492400" lon="11.123432000"><ele>445</ele><time>2014-07-04T09:51:11Z</time></trkpt>
 <trkpt lat="48.897470300" lon="11.123477400"><ele>445</ele><time>2014-07-04T09:51:15Z</time></trkpt>
 <trkpt lat="48.897445400" lon="11.123536200"><ele>444</ele><time>2014-07-04T09:51:19Z</time></trkpt>
 <trkpt lat="48.897417400" lon="11.123586600"><ele>443</ele><time>2014-07-04T09:51:23Z</time></trkpt>
 <trkpt lat="48.897399500" lon="11.123646600"><ele>442</ele><time>2014-07-04T09:51:27Z</time></trkpt>
 <trkpt lat="48.897375300" lon="11.123703700"><ele>441</ele><time>2014-07-04T09:51:31Z</time></trkpt>
 <trkpt lat="48.897342800" lon="11.123770300"><ele>440</ele><time>2014-07-04T09:51:35Z</time></trkpt>
 <trkpt lat="48.897318300" lon="11.123847000"><ele>439</ele><time>2014-07-04T09:51:39Z</time></trkpt>
 <trkpt lat="48.897300800" lon="11.123890800"><ele>438</ele><time>2014-07-04T09:51:43Z</time></trkpt>
 <trkpt lat="48.897276600" lon="11.123956200"><ele>437</ele><time>2014-07-04T09:51:47Z</time></trkpt>
 <trkpt lat="48.897258300" lon="11.124027000"><ele>436</ele><time>2014-07-04T09:51:51Z</time></trkpt>
 <trkpt lat="48.897237400" lon="11.124094100"><ele>435</ele><time>2014-07-04T09:51:55Z</time></trkpt>
 <trkpt lat="48.897230400" lon="11.124162400"><ele>434</ele><time>2014-07-04T09:51:59Z</time></trkpt>
 <trkpt lat="48.897210400" lon="11.124214900"><ele>434</ele><time>2014-07-04T09:52:03Z</time></trkpt>
 <trkpt lat="48.897191600" lon="11.124287000"><ele>433</ele><time>2014-07-04T09:52:07Z</time></trkpt>
 <trkpt lat="48.897174100" lon="11.124349900"><ele>432</ele><time>2014-07-04T09:52:11Z</time></trkpt>
 <trkpt lat="48.897145800" lon="11.124408300"><ele>431</ele><time>2014-07-04T09:52:15Z</time></trkpt>
 <trkpt lat="48.897117000" lon="11.124492900"><ele>430</ele><time>2014-07-04T09:52:19Z</time></trkpt>
 <trkpt lat="48.897091600" lon="11.124557800"><ele>430</ele><time>2014-07-04T09:52:23Z</time></trkpt>
 <trkpt lat="48.897073300" lon="11.124634100"><ele>429</ele><time>2014-07-04T09:52:27Z</time></trkpt>
 <trkpt lat="48.897046600" lon="11.124719900"><ele>428</ele><time>2014-07-04T09:52:31Z</time></trkpt>
 <trkpt lat="48.896999100" lon="11.124812400"><ele>427</ele><time>2014-07-04T09:52:35Z</time></trkpt>
 <trkpt lat="48.896979500" lon="11.124853200"><ele>426</ele><time>2014-07-04T09:52:39Z</time></trkpt>
 <trkpt lat="48.896966600" lon="11.124914100"><ele>426</ele><time>2014-07-04T09:52:43Z</time></trkpt>
 <trkpt lat="48.896962000" lon="11.124976200"><ele>425</ele><time>2014-07-04T09:52:47Z</time></trkpt>
 <trkpt lat="48.896959100" lon="11.125054100"><ele>424</ele><time>2014-07-04T09:52:51Z</time></trkpt>
 <trkpt lat="48.896952800" lon="11.125129900"><ele>423</ele><time>2014-07-04T09:52:55Z</time></trkpt>
 <trkpt lat="48.896941200" lon="11.125199500"><ele>423</ele><time>2014-07-04T09:52:59Z</time></trkpt>
 <trkpt lat="48.896940300" lon="11.125272000"><ele>422</ele><time>2014-07-04T09:53:03Z</time></trkpt>
 <trkpt lat="48.896925800" lon="11.125345400"><ele>422</ele><time>2014-07-04T09:53:07Z</time></trkpt>
 <trkpt lat="48.896887900" lon="11.125434900"><ele>421</ele><time>2014-07-04T09:53:11Z</time></trkpt>
 <trkpt lat="48.896865800" lon="11.125506200"><ele>421</ele><time>2014-07-04T09:53:15Z</time></trkpt>
 <trkpt lat="48.896829900" lon="11.125569500"><ele>420</ele><time>2014-07-04T09:53:19Z</time></trkpt>
 <trkpt lat="48.896802400" lon="11.125625400"><ele>420</ele><time>2014-07-04T09:53:23Z</time></trkpt>
 <trkpt lat="48.896774900" lon="11.125703700"><ele>419</ele><time>2014-07-04T09:53:27Z</time></trkpt>
 <trkpt lat="48.896752900" lon="11.125775700"><ele>419</ele><time>2014-07-04T09:53:31Z</time></trkpt>
 <trkpt lat="48.896737000" lon="11.125844900"><ele>418</ele><time>2014-07-04T09:53:35Z</time></trkpt>
 <trkpt lat="48.896722800" lon="11.125905300"><ele>418</ele><time>2014-07-04T09:53:39Z</time></trkpt>
 <trkpt lat="48.896708700" lon="11.125964900"><ele>417</ele><time>2014-07-04T09:53:43Z</time></trkpt>
 <trkpt lat="48.896688300" lon="11.126031600"><ele>417</ele><time>2014-07-04T09:53:47Z</time></trkpt>
 <trkpt lat="48.896679900" lon="11.126080300"><ele>416</ele><time>2014-07-04T09:53:51Z</time></trkpt>
 <trkpt lat="48.896684500" lon="11.126137000"><ele>415</ele><time>2014-07-04T09:53:55Z</time></trkpt>
 <trkpt lat="48.896692000" lon="11.126185800"><ele>415</ele><time>2014-07-04T09:53:59Z</time></trkpt>
 <trkpt lat="48.896679100" lon="11.126224100"><ele>414</ele><time>2014-07-04T09:54:03Z</time></trkpt>
 <trkpt lat="48.896663300" lon="11.126264500"><ele>413</ele><time>2014-07-04T09:54:07Z</time></trkpt>
 <trkpt lat="48.896644500" lon="11.126323700"><ele>412</ele><time>2014-07-04T09:54:11Z</time></trkpt>
 <trkpt lat="48.896631600" lon="11.126369500"><ele>411</ele><time>2014-07-04T09:54:15Z</time></trkpt>
 <trkpt lat="48.896599100" lon="11.126447400"><ele>411</ele><time>2014-07-04T09:54:19Z</time></trkpt>
 <trkpt lat="48.896559900" lon="11.126514900"><ele>410</ele><time>2014-07-04T09:54:23Z</time></trkpt>
 <trkpt lat="48.896537900" lon="11.126577800"><ele>409</ele><time>2014-07-04T09:54:27Z</time></trkpt>
 <trkpt lat="48.896507000" lon="11.126659900"><ele>408</ele><time>2014-07-04T09:54:31Z</time></trkpt>
 <trkpt lat="48.896490800" lon="11.126723700"><ele>407</ele><time>2014-07-04T09:54:35Z</time></trkpt>
 <trkpt lat="48.896472900" lon="11.126783700"><ele>406</ele><time>2014-07-04T09:54:39Z</time></trkpt>
 <trkpt lat="48.896456200" lon="11.126849500"><ele>405</ele><time>2014-07-04T09:54:43Z</time></trkpt>
 <trkpt lat="48.896446600" lon="11.126927400"><ele>404</ele><time>2014-07-04T09:54:47Z</time></trkpt>
 <trkpt lat="48.896438200" lon="11.126998700"><ele>403</ele><time>2014-07-04T09:54:51Z</time></trkpt>
 <trkpt lat="48.896420300" lon="11.127069500"><ele>402</ele><time>2014-07-04T09:54:55Z</time></trkpt>
 <trkpt lat="48.896405300" lon="11.127134900"><ele>401</ele><time>2014-07-04T09:54:59Z</time></trkpt>
 <trkpt lat="48.896388700" lon="11.127197400"><ele>400</ele><time>2014-07-04T09:55:03Z</time></trkpt>
 <trkpt lat="48.896376600" lon="11.127280400"><ele>399</ele><time>2014-07-04T09:55:07Z</time></trkpt>
 <trkpt lat="48.896371200" lon="11.127329900"><ele>398</ele><time>2014-07-04T09:55:11Z</time></trkpt>
 <trkpt lat="48.896362400" lon="11.127412400"><ele>397</ele><time>2014-07-04T09:55:15Z</time></trkpt>
 <trkpt lat="48.896365800" lon="11.127494900"><ele>397</ele><time>2014-07-04T09:55:19Z</time></trkpt>
 <trkpt lat="48.896344500" lon="11.127582800"><ele>396</ele><time>2014-07-04T09:55:23Z</time></trkpt>
 <trkpt lat="48.896322400" lon="11.127656200"><ele>395</ele><time>2014-07-04T09:55:27Z</time></trkpt>
 <trkpt lat="48.896313700" lon="11.127719500"><ele>395</ele><time>2014-07-04T09:55:31Z</time></trkpt>
 <trkpt lat="48.896302500" lon="11.127758300"><ele>394</ele><time>2014-07-04T09:55:35Z</time></trkpt>
 <trkpt lat="48.896293700" lon="11.127776200"><ele>394</ele><time>2014-07-04T09:55:39Z</time></trkpt>
 <trkpt lat="48.896264500" lon="11.127856200"><ele>394</ele><time>2014-07-04T09:55:43Z</time></trkpt>
 <trkpt lat="48.896237000" lon="11.127928200"><ele>394</ele><time>2014-07-04T09:55:47Z</time></trkpt>
 <trkpt lat="48.896230800" lon="11.127986200"><ele>393</ele><time>2014-07-04T09:55:51Z</time></trkpt>
 <trkpt lat="48.896212900" lon="11.128074900"><ele>393</ele><time>2014-07-04T09:55:55Z</time></trkpt>
 <trkpt lat="48.896198300" lon="11.128137800"><ele>393</ele><time>2014-07-04T09:55:59Z</time></trkpt>
 <trkpt lat="48.896201600" lon="11.128180800"><ele>393</ele><time>2014-07-04T09:56:03Z</time></trkpt>
 <trkpt lat="48.896188700" lon="11.128244100"><ele>394</ele><time>2014-07-04T09:56:07Z</time></trkpt>
 <trkpt lat="48.896173200" lon="11.128298300"><ele>394</ele><time>2014-07-04T09:56:11Z</time></trkpt>
 <trkpt lat="48.896143700" lon="11.128369500"><ele>394</ele><time>2014-07-04T09:56:15Z</time></trkpt>
 <trkpt lat="48.896123700" lon="11.128441600"><ele>394</ele><time>2014-07-04T09:56:19Z</time></trkpt>
 <trkpt lat="48.896097900" lon="11.128522400"><ele>395</ele><time>2014-07-04T09:56:23Z</time></trkpt>
 <trkpt lat="48.896064100" lon="11.128598300"><ele>395</ele><time>2014-07-04T09:56:27Z</time></trkpt>
 <trkpt lat="48.896027400" lon="11.128683700"><ele>395</ele><time>2014-07-04T09:56:31Z</time></trkpt>
 <trkpt lat="48.895994100" lon="11.128759100"><ele>396</ele><time>2014-07-04T09:56:35Z</time></trkpt>
 <trkpt lat="48.895965300" lon="11.128851600"><ele>396</ele><time>2014-07-04T09:56:39Z</time></trkpt>
 <trkpt lat="48.895953200" lon="11.128913300"><ele>397</ele><time>2014-07-04T09:56:43Z</time></trkpt>
 <trkpt lat="48.895920800" lon="11.129001600"><ele>397</ele><time>2014-07-04T09:56:47Z</time></trkpt>
 <trkpt lat="48.895908300" lon="11.129079500"><ele>398</ele><time>2014-07-04T09:56:51Z</time></trkpt>
 <trkpt lat="48.895909100" lon="11.129150300"><ele>399</ele><time>2014-07-04T09:56:55Z</time></trkpt>
 <trkpt lat="48.895887800" lon="11.129211600"><ele>400</ele><time>2014-07-04T09:56:59Z</time></trkpt>
 <trkpt lat="48.895860800" lon="11.129304500"><ele>401</ele><time>2014-07-04T09:57:03Z</time></trkpt>
 <trkpt lat="48.895838300" lon="11.129390800"><ele>402</ele><time>2014-07-04T09:57:07Z</time></trkpt>
 <trkpt lat="48.895808700" lon="11.129466200"><ele>403</ele><time>2014-07-04T09:57:11Z</time></trkpt>
 <trkpt lat="48.895780300" lon="11.129542000"><ele>404</ele><time>2014-07-04T09:57:15Z</time></trkpt>
 <trkpt lat="48.895745700" lon="11.129623700"><ele>406</ele><time>2014-07-04T09:57:19Z</time></trkpt>
 <trkpt lat="48.895722000" lon="11.129714100"><ele>407</ele><time>2014-07-04T09:57:23Z</time></trkpt>
 <trkpt lat="48.895703700" lon="11.129787800"><ele>409</ele><time>2014-07-04T09:57:27Z</time></trkpt>
 <trkpt lat="48.895685400" lon="11.129860800"><ele>410</ele><time>2014-07-04T09:57:31Z</time></trkpt>
 <trkpt lat="48.895660300" lon="11.129926600"><ele>412</ele><time>2014-07-04T09:57:35Z</time></trkpt>
 <trkpt lat="48.895643700" lon="11.129992000"><ele>413</ele><time>2014-07-04T09:57:39Z</time></trkpt>
 <trkpt lat="48.895631200" lon="11.130054500"><ele>415</ele><time>2014-07-04T09:57:43Z</time></trkpt>
 <trkpt lat="48.895617400" lon="11.130125400"><ele>417</ele><time>2014-07-04T09:57:47Z</time></trkpt>
 <trkpt lat="48.895604900" lon="11.130194100"><ele>418</ele><time>2014-07-04T09:57:51Z</time></trkpt>
 <trkpt lat="48.895602400" lon="11.130279100"><ele>420</ele><time>2014-07-04T09:57:55Z</time></trkpt>
 <trkpt lat="48.895574500" lon="11.130340300"><ele>421</ele><time>2014-07-04T09:57:59Z</time></trkpt>
 <trkpt lat="48.895544900" lon="11.130414100"><ele>423</ele><time>2014-07-04T09:58:03Z</time></trkpt>
 <trkpt lat="48.895522400" lon="11.130480300"><ele>425</ele><time>2014-07-04T09:58:07Z</time></trkpt>
 <trkpt lat="48.895495300" lon="11.130545400"><ele>426</ele><time>2014-07-04T09:58:11Z</time></trkpt>
 <trkpt lat="48.895477900" lon="11.130564100"><ele>427</ele><time>2014-07-04T09:58:15Z</time></trkpt>
 <trkpt lat="48.895451600" lon="11.130637800"><ele>429</ele><time>2014-07-04T09:58:19Z</time></trkpt>
 <trkpt lat="48.895414500" lon="11.130716200"><ele>430</ele><time>2014-07-04T09:58:23Z</time></trkpt>
 <trkpt lat="48.895366600" lon="11.130799500"><ele>431</ele><time>2014-07-04T09:58:27Z</time></trkpt>
 <trkpt lat="48.895331200" lon="11.130832000"><ele>432</ele><time>2014-07-04T09:58:31Z</time></trkpt>
 <trkpt lat="48.895284500" lon="11.130911600"><ele>433</ele><time>2014-07-04T09:58:35Z</time></trkpt>
 <trkpt lat="48.895261600" lon="11.130972000"><ele>434</ele><time>2014-07-04T09:58:39Z</time></trkpt>
 <trkpt lat="48.895240300" lon="11.131041200"><ele>435</ele><time>2014-07-04T09:58:43Z</time></trkpt>
 <trkpt lat="48.895217400" lon="11.131104500"><ele>435</ele><time>2014-07-04T09:58:47Z</time></trkpt>
 <trkpt lat="48.895189500" lon="11.131172900"><ele>436</ele><time>2014-07-04T09:58:51Z</time></trkpt>
 <trkpt lat="48.895147000" lon="11.131241200"><ele>436</ele><time>2014-07-04T09:58:55Z</time></trkpt>
 <trkpt lat="48.895122800" lon="11.131310800"><ele>436</ele><time>2014-07-04T09:58:59Z</time></trkpt>
 <trkpt lat="48.895096600" lon="11.131376600"><ele>436</ele><time>2014-07-04T09:59:03Z</time></trkpt>
 <trkpt lat="48.895100800" lon="11.131383300"><ele>436</ele><time>2014-07-04T09:59:07Z</time></trkpt>
 <trkpt lat="48.895104900" lon="11.131376200"><ele>436</ele><time>2014-07-04T09:59:11Z</time></trkpt>
 <trkpt lat="48.895108300" lon="11.131383300"><ele>435</ele><time>2014-07-04T09:59:15Z</time></trkpt>
 <trkpt lat="48.895108300" lon="11.131383300"><ele>435</ele><time>2014-07-04T09:59:19Z</time></trkpt>
 <trkpt lat="48.895108700" lon="11.131373700"><ele>434</ele><time>2014-07-04T09:59:23Z</time></trkpt>
 <trkpt lat="48.895107800" lon="11.131362900"><ele>433</ele><time>2014-07-04T09:59:27Z</time></trkpt>
 <trkpt lat="48.895107800" lon="11.131362900"><ele>432</ele><time>2014-07-04T09:59:31Z</time></trkpt>
 <trkpt lat="48.895110400" lon="11.131354500"><ele>431</ele><time>2014-07-04T09:59:35Z</time></trkpt>
 <trkpt lat="48.895109500" lon="11.131344100"><ele>430</ele><time>2014-07-04T09:59:39Z</time></trkpt>
 <trkpt lat="48.895109500" lon="11.131344100"><ele>429</ele><time>2014-07-04T09:59:43Z</time></trkpt>
 <trkpt lat="48.895106200" lon="11.131334100"><ele>428</ele><time>2014-07-04T09:59:47Z</time></trkpt>
 <trkpt lat="48.895100300" lon="11.131333700"><ele>427</ele><time>2014-07-04T09:59:51Z</time></trkpt>
 <trkpt lat="48.895100300" lon="11.131333700"><ele>427</ele><time>2014-07-04T09:59:55Z</time></trkpt>
 <trkpt lat="48.895095400" lon="11.131339900"><ele>426</ele><time>2014-07-04T09:59:59Z</time></trkpt>
 <trkpt lat="48.895105300" lon="11.131347000"><ele>425</ele><time>2014-07-04T10:00:03Z</time></trkpt>
 <trkpt lat="48.895108300" lon="11.131339500"><ele>425</ele><time>2014-07-04T10:00:07Z</time></trkpt>
 <trkpt lat="48.895108300" lon="11.131339500"><ele>424</ele><time>2014-07-04T10:00:11Z</time></trkpt>
 <trkpt lat="48.895114500" lon="11.131339900"><ele>424</ele><time>2014-07-04T10:00:15Z</time></trkpt>
 <trkpt lat="48.895114500" lon="11.131339900"><ele>423</ele><time>2014-07-04T10:00:19Z</time></trkpt>
 <trkpt lat="48.895114500" lon="11.131339900"><ele>423</ele><time>2014-07-04T10:00:23Z</time></trkpt>
 <trkpt lat="48.895109100" lon="11.131341200"><ele>423</ele><time>2014-07-04T10:00:27Z</time></trkpt>
 <trkpt lat="48.895109100" lon="11.131341200"><ele>423</ele><time>2014-07-04T10:00:31Z</time></trkpt>
 <trkpt lat="48.895109100" lon="11.131341200"><ele>422</ele><time>2014-07-04T10:00:35Z</time></trkpt>
 <trkpt lat="48.895113300" lon="11.131346600"><ele>422</ele><time>2014-07-04T10:00:39Z</time></trkpt>
 <trkpt lat="48.895117800" lon="11.131352000"><ele>422</ele><time>2014-07-04T10:00:43Z</time></trkpt>
 <trkpt lat="48.895117800" lon="11.131352000"><ele>422</ele><time>2014-07-04T10:00:47Z</time></trkpt>
 <trkpt lat="48.895111600" lon="11.131348300"><ele>422</ele><time>2014-07-04T10:00:51Z</time></trkpt>
 <trkpt lat="48.895111600" lon="11.131348300"><ele>422</ele><time>2014-07-04T10:00:55Z</time></trkpt>
 <trkpt lat="48.895107800" lon="11.131341200"><ele>422</ele><time>2014-07-04T10:00:59Z</time></trkpt>
 <trkpt lat="48.895102900" lon="11.131337400"><ele>422</ele><time>2014-07-04T10:01:03Z</time></trkpt>
 <trkpt lat="48.895097000" lon="11.131337000"><ele>421</ele><time>2014-07-04T10:01:07Z</time></trkpt>
 <trkpt lat="48.895097000" lon="11.131337000"><ele>421</ele><time>2014-07-04T10:01:11Z</time></trkpt>
 <trkpt lat="48.895110800" lon="11.131337400"><ele>421</ele><time>2014-07-04T10:01:15Z</time></trkpt>
 <trkpt lat="48.895117400" lon="11.131336600"><ele>421</ele><time>2014-07-04T10:01:19Z</time></trkpt>
 <trkpt lat="48.895122800" lon="11.131337800"><ele>421</ele><time>2014-07-04T10:01:23Z</time></trkpt>
 <trkpt lat="48.895122800" lon="11.131337800"><ele>421</ele><time>2014-07-04T10:01:27Z</time></trkpt>
 <trkpt lat="48.895128300" lon="11.131335400"><ele>421</ele><time>2014-07-04T10:01:31Z</time></trkpt>
 <trkpt lat="48.895128300" lon="11.131335400"><ele>421</ele><time>2014-07-04T10:01:35Z</time></trkpt>
 <trkpt lat="48.895128300" lon="11.131335400"><ele>421</ele><time>2014-07-04T10:01:39Z</time></trkpt>
 <trkpt lat="48.895128300" lon="11.131335400"><ele>421</ele><time>2014-07-04T10:01:43Z</time></trkpt>
 <trkpt lat="48.895126600" lon="11.131327000"><ele>421</ele><time>2014-07-04T10:01:47Z</time></trkpt>
 <trkpt lat="48.895124900" lon="11.131318700"><ele>421</ele><time>2014-07-04T10:01:51Z</time></trkpt>
 <trkpt lat="48.895124900" lon="11.131318700"><ele>421</ele><time>2014-07-04T10:01:55Z</time></trkpt>
 <trkpt lat="48.895119500" lon="11.131322400"><ele>421</ele><time>2014-07-04T10:01:59Z</time></trkpt>
 <trkpt lat="48.895119500" lon="11.131322400"><ele>421</ele><time>2014-07-04T10:02:03Z</time></trkpt>
 <trkpt lat="48.895119500" lon="11.131322400"><ele>421</ele><time>2014-07-04T10:02:07Z</time></trkpt>
 <trkpt lat="48.895119500" lon="11.131322400"><ele>421</ele><time>2014-07-04T10:02:11Z</time></trkpt>
 <trkpt lat="48.895119500" lon="11.131322400"><ele>421</ele><time>2014-07-04T10:02:15Z</time></trkpt>
 <trkpt lat="48.895119500" lon="11.131322400"><ele>421</ele><time>2014-07-04T10:02:19Z</time></trkpt>
 <trkpt lat="48.895119500" lon="11.131322400"><ele>421</ele><time>2014-07-04T10:02:23Z</time></trkpt>
 <trkpt lat="48.895119500" lon="11.131322400"><ele>421</ele><time>2014-07-04T10:02:27Z</time></trkpt>
 <trkpt lat="48.895119500" lon="11.131322400"><ele>421</ele><time>2014-07-04T10:02:31Z</time></trkpt>
 <trkpt lat="48.895119500" lon="11.131322400"><ele>421</ele><time>2014-07-04T10:02:35Z</time></trkpt>
 <trkpt lat="48.895119500" lon="11.131322400"><ele>421</ele><time>2014-07-04T10:02:39Z</time></trkpt>
 <trkpt lat="48.895119500" lon="11.131322400"><ele>421</ele><time>2014-07-04T10:02:43Z</time></trkpt>
 <trkpt lat="48.895119500" lon="11.131322400"><ele>421</ele><time>2014-07-04T10:02:47Z</time></trkpt>
 <trkpt lat="48.895119500" lon="11.131322400"><ele>421</ele><time>2014-07-04T10:02:51Z</time></trkpt>
 <trkpt lat="48.895119500" lon="11.131322400"><ele>421</ele><time>2014-07-04T10:02:55Z</time></trkpt>
 <trkpt lat="48.895119500" lon="11.131322400"><ele>421</ele><time>2014-07-04T10:02:59Z</time></trkpt>
 <trkpt lat="48.895119500" lon="11.131322400"><ele>421</ele><time>2014-07-04T10:03:03Z</time></trkpt>
 <trkpt lat="48.895119500" lon="11.131322400"><ele>421</ele><time>2014-07-04T10:03:07Z</time></trkpt>
 <trkpt lat="48.895119500" lon="11.131322400"><ele>420</ele><time>2014-07-04T10:03:11Z</time></trkpt>
 <trkpt lat="48.895119500" lon="11.131322400"><ele>420</ele><time>2014-07-04T10:03:15Z</time></trkpt>
 <trkpt lat="48.895119500" lon="11.131322400"><ele>420</ele><time>2014-07-04T10:03:19Z</time></trkpt>
 <trkpt lat="48.895119500" lon="11.131322400"><ele>420</ele><time>2014-07-04T10:03:23Z</time></trkpt>
 <trkpt lat="48.895119500" lon="11.131322400"><ele>420</ele><time>2014-07-04T10:03:27Z</time></trkpt>
 <trkpt lat="48.895119500" lon="11.131322400"><ele>420</ele><time>2014-07-04T10:03:31Z</time></trkpt>
 <trkpt lat="48.895119500" lon="11.131322400"><ele>420</ele><time>2014-07-04T10:03:35Z</time></trkpt>
 <trkpt lat="48.895119500" lon="11.131322400"><ele>420</ele><time>2014-07-04T10:03:39Z</time></trkpt>
 <trkpt lat="48.895119500" lon="11.131322400"><ele>420</ele><time>2014-07-04T10:03:43Z</time></trkpt>
 <trkpt lat="48.895119500" lon="11.131322400"><ele>420</ele><time>2014-07-04T10:03:47Z</time></trkpt>
 <trkpt lat="48.895119500" lon="11.131322400"><ele>420</ele><time>2014-07-04T10:03:51Z</time></trkpt>
 <trkpt lat="48.895119500" lon="11.131322400"><ele>420</ele><time>2014-07-04T10:03:55Z</time></trkpt>
 <trkpt lat="48.895119500" lon="11.131322400"><ele>420</ele><time>2014-07-04T10:03:59Z</time></trkpt>
 <trkpt lat="48.895119500" lon="11.131322400"><ele>420</ele><time>2014-07-04T10:04:03Z</time></trkpt>
 <trkpt lat="48.895119500" lon="11.131322400"><ele>420</ele><time>2014-07-04T10:04:07Z</time></trkpt>
 <trkpt lat="48.895119500" lon="11.131322400"><ele>420</ele><time>2014-07-04T10:04:11Z</time></trkpt>
 <trkpt lat="48.895119500" lon="11.131322400"><ele>420</ele><time>2014-07-04T10:04:15Z</time></trkpt>
 <trkpt lat="48.895119500" lon="11.131322400"><ele>420</ele><time>2014-07-04T10:04:19Z</time></trkpt>
 <trkpt lat="48.895119500" lon="11.131322400"><ele>420</ele><time>2014-07-04T10:04:23Z</time></trkpt>
 <trkpt lat="48.895119500" lon="11.131322400"><ele>420</ele><time>2014-07-04T10:04:27Z</time></trkpt>
 <trkpt lat="48.895119500" lon="11.131322400"><ele>420</ele><time>2014-07-04T10:04:31Z</time></trkpt>
 <trkpt lat="48.895119500" lon="11.131322400"><ele>420</ele><time>2014-07-04T10:04:35Z</time></trkpt>
 <trkpt lat="48.895119500" lon="11.131322400"><ele>420</ele><time>2014-07-04T10:04:39Z</time></trkpt>
 <trkpt lat="48.895119500" lon="11.131322400"><ele>420</ele><time>2014-07-04T10:04:43Z</time></trkpt>
 <trkpt lat="48.895119500" lon="11.131322400"><ele>420</ele><time>2014-07-04T10:04:47Z</time></trkpt>
 <trkpt lat="48.895119500" lon="11.131322400"><ele>420</ele><time>2014-07-04T10:04:51Z</time></trkpt>
 <trkpt lat="48.895119500" lon="11.131322400"><ele>420</ele><time>2014-07-04T10:04:55Z</time></trkpt>
 <trkpt lat="48.895119500" lon="11.131322400"><ele>420</ele><time>2014-07-04T10:04:59Z</time></trkpt>
 <trkpt lat="48.895119500" lon="11.131322400"><ele>420</ele><time>2014-07-04T10:05:03Z</time></trkpt>
 <trkpt lat="48.895119500" lon="11.131322400"><ele>420</ele><time>2014-07-04T10:05:07Z</time></trkpt>
 <trkpt lat="48.895119500" lon="11.131322400"><ele>420</ele><time>2014-07-04T10:05:11Z</time></trkpt>
 <trkpt lat="48.895119500" lon="11.131322400"><ele>420</ele><time>2014-07-04T10:05:15Z</time></trkpt>
 <trkpt lat="48.895119500" lon="11.131322400"><ele>420</ele><time>2014-07-04T10:05:19Z</time></trkpt>
 <trkpt lat="48.895119500" lon="11.131322400"><ele>420</ele><time>2014-07-04T10:05:23Z</time></trkpt>
 <trkpt lat="48.895119500" lon="11.131322400"><ele>420</ele><time>2014-07-04T10:05:27Z</time></trkpt>
 <trkpt lat="48.895119500" lon="11.131322400"><ele>420</ele><time>2014-07-04T10:05:31Z</time></trkpt>
 <trkpt lat="48.895119500" lon="11.131322400"><ele>420</ele><time>2014-07-04T10:05:35Z</time></trkpt>
 <trkpt lat="48.895119500" lon="11.131322400"><ele>420</ele><time>2014-07-04T10:05:39Z</time></trkpt>
 <trkpt lat="48.895119500" lon="11.131322400"><ele>420</ele><time>2014-07-04T10:05:43Z</time></trkpt>
 <trkpt lat="48.895119500" lon="11.131322400"><ele>420</ele><time>2014-07-04T10:05:47Z</time></trkpt>
 <trkpt lat="48.895119500" lon="11.131322400"><ele>420</ele><time>2014-07-04T10:05:51Z</time></trkpt>
 <trkpt lat="48.895119500" lon="11.131322400"><ele>420</ele><time>2014-07-04T10:05:55Z</time></trkpt>
 <trkpt lat="48.895119500" lon="11.131322400"><ele>420</ele><time>2014-07-04T10:05:59Z</time></trkpt>
 <trkpt lat="48.895119500" lon="11.131322400"><ele>420</ele><time>2014-07-04T10:06:03Z</time></trkpt>
 <trkpt lat="48.895119500" lon="11.131322400"><ele>420</ele><time>2014-07-04T10:06:07Z</time></trkpt>
 <trkpt lat="48.895119500" lon="11.131322400"><ele>420</ele><time>2014-07-04T10:06:11Z</time></trkpt>
 <trkpt lat="48.895119500" lon="11.131322400"><ele>420</ele><time>2014-07-04T10:06:15Z</time></trkpt>
 <trkpt lat="48.895119500" lon="11.131322400"><ele>420</ele><time>2014-07-04T10:06:19Z</time></trkpt>
 <trkpt lat="48.895119500" lon="11.131322400"><ele>420</ele><time>2014-07-04T10:06:23Z</time></trkpt>
 <trkpt lat="48.895119500" lon="11.131322400"><ele>420</ele><time>2014-07-04T10:06:27Z</time></trkpt>
 <trkpt lat="48.895119500" lon="11.131322400"><ele>420</ele><time>2014-07-04T10:06:31Z</time></trkpt>
 <trkpt lat="48.895119500" lon="11.131322400"><ele>420</ele><time>2014-07-04T10:06:35Z</time></trkpt>
 <trkpt lat="48.895119500" lon="11.131322400"><ele>420</ele><time>2014-07-04T10:06:39Z</time></trkpt>
 <trkpt lat="48.895119500" lon="11.131322400"><ele>420</ele><time>2014-07-04T10:06:43Z</time></trkpt>
 <trkpt lat="48.895119500" lon="11.131322400"><ele>420</ele><time>2014-07-04T10:06:47Z</time></trkpt>
 <trkpt lat="48.895119500" lon="11.131322400"><ele>420</ele><time>2014-07-04T10:06:51Z</time></trkpt>
 <trkpt lat="48.895119500" lon="11.131322400"><ele>420</ele><time>2014-07-04T10:06:55Z</time></trkpt>
 <trkpt lat="48.895119500" lon="11.131322400"><ele>420</ele><time>2014-07-04T10:06:59Z</time></trkpt>
 <trkpt lat="48.895119500" lon="11.131322400"><ele>420</ele><time>2014-07-04T10:07:03Z</time></trkpt>
 <trkpt lat="48.895119500" lon="11.131322400"><ele>420</ele><time>2014-07-04T10:07:07Z</time></trkpt>
 <trkpt lat="48.895119500" lon="11.131322400"><ele>420</ele><time>2014-07-04T10:07:11Z</time></trkpt>
 <trkpt lat="48.895119500" lon="11.131322400"><ele>420</ele><time>2014-07-04T10:07:15Z</time></trkpt>
 <trkpt lat="48.895119500" lon="11.131322400"><ele>420</ele><time>2014-07-04T10:07:19Z</time></trkpt>
 <trkpt lat="48.895119500" lon="11.131322400"><ele>420</ele><time>2014-07-04T10:07:23Z</time></trkpt>
 <trkpt lat="48.895119500" lon="11.131322400"><ele>420</ele><time>2014-07-04T10:07:27Z</time></trkpt>
 <trkpt lat="48.895119500" lon="11.131322400"><ele>420</ele><time>2014-07-04T10:07:31Z</time></trkpt>
 <trkpt lat="48.895119500" lon="11.131322400"><ele>420</ele><time>2014-07-04T10:07:35Z</time></trkpt>
 <trkpt lat="48.895119500" lon="11.131322400"><ele>420</ele><time>2014-07-04T10:07:39Z</time></trkpt>
 <trkpt lat="48.895119500" lon="11.131322400"><ele>420</ele><time>2014-07-04T10:07:43Z</time></trkpt>
 <trkpt lat="48.895119500" lon="11.131322400"><ele>420</ele><time>2014-07-04T10:07:47Z</time></trkpt>
 <trkpt lat="48.895119500" lon="11.131322400"><ele>420</ele><time>2014-07-04T10:07:51Z</time></trkpt>
 <trkpt lat="48.895119500" lon="11.131322400"><ele>420</ele><time>2014-07-04T10:07:55Z</time></trkpt>
 <trkpt lat="48.895119500" lon="11.131322400"><ele>420</ele><time>2014-07-04T10:07:59Z</time></trkpt>
 <trkpt lat="48.895119500" lon="11.131322400"><ele>420</ele><time>2014-07-04T10:08:03Z</time></trkpt>
 <trkpt lat="48.895119500" lon="11.131322400"><ele>420</ele><time>2014-07-04T10:08:07Z</time></trkpt>
 <trkpt lat="48.895119500" lon="11.131322400"><ele>420</ele><time>2014-07-04T10:08:11Z</time></trkpt>
 <trkpt lat="48.895119500" lon="11.131322400"><ele>420</ele><time>2014-07-04T10:08:15Z</time></trkpt>
 <trkpt lat="48.895119500" lon="11.131322400"><ele>420</ele><time>2014-07-04T10:08:19Z</time></trkpt>
 <trkpt lat="48.895119500" lon="11.131322400"><ele>420</ele><time>2014-07-04T10:08:23Z</time></trkpt>
 <trkpt lat="48.895119500" lon="11.131322400"><ele>420</ele><time>2014-07-04T10:08:27Z</time></trkpt>
 <trkpt lat="48.895119500" lon="11.131322400"><ele>420</ele><time>2014-07-04T10:08:31Z</time></trkpt>
 <trkpt lat="48.895119500" lon="11.131322400"><ele>420</ele><time>2014-07-04T10:08:35Z</time></trkpt>
 <trkpt lat="48.895119500" lon="11.131322400"><ele>420</ele><time>2014-07-04T10:08:39Z</time></trkpt>
 <trkpt lat="48.895119500" lon="11.131322400"><ele>420</ele><time>2014-07-04T10:08:43Z</time></trkpt>
 <trkpt lat="48.895119500" lon="11.131322400"><ele>420</ele><time>2014-07-04T10:08:47Z</time></trkpt>
 <trkpt lat="48.895119500" lon="11.131322400"><ele>420</ele><time>2014-07-04T10:08:51Z</time></trkpt>
 <trkpt lat="48.895119500" lon="11.131322400"><ele>419</ele><time>2014-07-04T10:08:55Z</time></trkpt>
 <trkpt lat="48.895096200" lon="11.131307000"><ele>419</ele><time>2014-07-04T10:08:59Z</time></trkpt>
 <trkpt lat="48.895067400" lon="11.131282800"><ele>419</ele><time>2014-07-04T10:09:03Z</time></trkpt>
 <trkpt lat="48.895064500" lon="11.131270400"><ele>419</ele><time>2014-07-04T10:09:07Z</time></trkpt>
 <trkpt lat="48.895071600" lon="11.131305800"><ele>419</ele><time>2014-07-04T10:09:11Z</time></trkpt>
 <trkpt lat="48.895086200" lon="11.131324500"><ele>419</ele><time>2014-07-04T10:09:15Z</time></trkpt>
 <trkpt lat="48.895099500" lon="11.131342400"><ele>419</ele><time>2014-07-04T10:09:19Z</time></trkpt>
 <trkpt lat="48.895104100" lon="11.131350300"><ele>419</ele><time>2014-07-04T10:09:23Z</time></trkpt>
 <trkpt lat="48.895104100" lon="11.131350300"><ele>419</ele><time>2014-07-04T10:09:27Z</time></trkpt>
 <trkpt lat="48.895104500" lon="11.131359100"><ele>418</ele><time>2014-07-04T10:09:31Z</time></trkpt>
 <trkpt lat="48.895104500" lon="11.131359100"><ele>418</ele><time>2014-07-04T10:09:35Z</time></trkpt>
 <trkpt lat="48.895104500" lon="11.131359100"><ele>418</ele><time>2014-07-04T10:09:39Z</time></trkpt>
 <trkpt lat="48.895104500" lon="11.131359100"><ele>418</ele><time>2014-07-04T10:09:43Z</time></trkpt>
 <trkpt lat="48.895107800" lon="11.131352400"><ele>418</ele><time>2014-07-04T10:09:47Z</time></trkpt>
 <trkpt lat="48.895107800" lon="11.131352400"><ele>418</ele><time>2014-07-04T10:09:51Z</time></trkpt>
 <trkpt lat="48.895107800" lon="11.131352400"><ele>418</ele><time>2014-07-04T10:09:55Z</time></trkpt>
 <trkpt lat="48.895107800" lon="11.131352400"><ele>418</ele><time>2014-07-04T10:09:59Z</time></trkpt>
 <trkpt lat="48.895103700" lon="11.131345800"><ele>417</ele><time>2014-07-04T10:10:03Z</time></trkpt>
 <trkpt lat="48.895098300" lon="11.131346600"><ele>417</ele><time>2014-07-04T10:10:07Z</time></trkpt>
 <trkpt lat="48.895098300" lon="11.131346600"><ele>417</ele><time>2014-07-04T10:10:11Z</time></trkpt>
 <trkpt lat="48.895100800" lon="11.131356200"><ele>417</ele><time>2014-07-04T10:10:15Z</time></trkpt>
 <trkpt lat="48.895103700" lon="11.131364100"><ele>417</ele><time>2014-07-04T10:10:19Z</time></trkpt>
 <trkpt lat="48.895103700" lon="11.131364100"><ele>417</ele><time>2014-07-04T10:10:23Z</time></trkpt>
 <trkpt lat="48.895107400" lon="11.131370300"><ele>417</ele><time>2014-07-04T10:10:27Z</time></trkpt>
 <trkpt lat="48.895107400" lon="11.131370300"><ele>417</ele><time>2014-07-04T10:10:31Z</time></trkpt>
 <trkpt lat="48.895112800" lon="11.131374500"><ele>417</ele><time>2014-07-04T10:10:35Z</time></trkpt>
 <trkpt lat="48.895112800" lon="11.131374500"><ele>417</ele><time>2014-07-04T10:10:39Z</time></trkpt>
 <trkpt lat="48.895117800" lon="11.131379900"><ele>417</ele><time>2014-07-04T10:10:43Z</time></trkpt>
 <trkpt lat="48.895117800" lon="11.131379900"><ele>417</ele><time>2014-07-04T10:10:47Z</time></trkpt>
 <trkpt lat="48.895117800" lon="11.131379900"><ele>417</ele><time>2014-07-04T10:10:51Z</time></trkpt>
 <trkpt lat="48.895117800" lon="11.131379900"><ele>417</ele><time>2014-07-04T10:10:55Z</time></trkpt>
 <trkpt lat="48.895117800" lon="11.131379900"><ele>417</ele><time>2014-07-04T10:10:59Z</time></trkpt>
 <trkpt lat="48.895117800" lon="11.131379900"><ele>417</ele><time>2014-07-04T10:11:03Z</time></trkpt>
 <trkpt lat="48.895117800" lon="11.131379900"><ele>417</ele><time>2014-07-04T10:11:07Z</time></trkpt>
 <trkpt lat="48.895117800" lon="11.131379900"><ele>417</ele><time>2014-07-04T10:11:11Z</time></trkpt>
 <trkpt lat="48.895117800" lon="11.131379900"><ele>417</ele><time>2014-07-04T10:11:15Z</time></trkpt>
 <trkpt lat="48.895117800" lon="11.131379900"><ele>417</ele><time>2014-07-04T10:11:19Z</time></trkpt>
 <trkpt lat="48.895117400" lon="11.131388700"><ele>417</ele><time>2014-07-04T10:11:23Z</time></trkpt>
 <trkpt lat="48.895117400" lon="11.131388700"><ele>417</ele><time>2014-07-04T10:11:27Z</time></trkpt>
 <trkpt lat="48.895117400" lon="11.131388700"><ele>417</ele><time>2014-07-04T10:11:31Z</time></trkpt>
 <trkpt lat="48.895112000" lon="11.131390800"><ele>417</ele><time>2014-07-04T10:11:35Z</time></trkpt>
 <trkpt lat="48.895099500" lon="11.131390800"><ele>417</ele><time>2014-07-04T10:11:39Z</time></trkpt>
 <trkpt lat="48.895093700" lon="11.131395800"><ele>417</ele><time>2014-07-04T10:11:43Z</time></trkpt>
 <trkpt lat="48.895089100" lon="11.131400300"><ele>416</ele><time>2014-07-04T10:11:47Z</time></trkpt>
 <trkpt lat="48.895084500" lon="11.131394900"><ele>416</ele><time>2014-07-04T10:11:51Z</time></trkpt>
 <trkpt lat="48.895088300" lon="11.131375800"><ele>416</ele><time>2014-07-04T10:11:55Z</time></trkpt>
 <trkpt lat="48.895094500" lon="11.131366600"><ele>416</ele><time>2014-07-04T10:11:59Z</time></trkpt>
 <trkpt lat="48.895094500" lon="11.131350300"><ele>416</ele><time>2014-07-04T10:12:03Z</time></trkpt>
 <trkpt lat="48.895080700" lon="11.131361600"><ele>416</ele><time>2014-07-04T10:12:07Z</time></trkpt>
 <trkpt lat="48.895064100" lon="11.131392400"><ele>416</ele><time>2014-07-04T10:12:11Z</time></trkpt>
 <trkpt lat="48.895047400" lon="11.131428700"><ele>416</ele><time>2014-07-04T10:12:15Z</time></trkpt>
 <trkpt lat="48.895045300" lon="11.131474900"><ele>416</ele><time>2014-07-04T10:12:19Z</time></trkpt>
 <trkpt lat="48.895045800" lon="11.131519500"><ele>416</ele><time>2014-07-04T10:12:23Z</time></trkpt>
 <trkpt lat="48.895040800" lon="11.131575400"><ele>416</ele><time>2014-07-04T10:12:27Z</time></trkpt>
 <trkpt lat="48.895058700" lon="11.131608200"><ele>416</ele><time>2014-07-04T10:12:31Z</time></trkpt>
 <trkpt lat="48.895076200" lon="11.131648200"><ele>416</ele><time>2014-07-04T10:12:35Z</time></trkpt>
 <trkpt lat="48.895074900" lon="11.131694900"><ele>416</ele><time>2014-07-04T10:12:39Z</time></trkpt>
 <trkpt lat="48.895074100" lon="11.131743300"><ele>416</ele><time>2014-07-04T10:12:43Z</time></trkpt>
 <trkpt lat="48.895082400" lon="11.131793700"><ele>416</ele><time>2014-07-04T10:12:47Z</time></trkpt>
 <trkpt lat="48.895073700" lon="11.131842000"><ele>415</ele><time>2014-07-04T10:12:51Z</time></trkpt>
 <trkpt lat="48.895056600" lon="11.131904500"><ele>415</ele><time>2014-07-04T10:12:55Z</time></trkpt>
 <trkpt lat="48.895046200" lon="11.131960400"><ele>415</ele><time>2014-07-04T10:12:59Z</time></trkpt>
 <trkpt lat="48.895039100" lon="11.132019100"><ele>415</ele><time>2014-07-04T10:13:03Z</time></trkpt>
 <trkpt lat="48.895036200" lon="11.132068700"><ele>415</ele><time>2014-07-04T10:13:07Z</time></trkpt>
 <trkpt lat="48.895043700" lon="11.132104100"><ele>415</ele><time>2014-07-04T10:13:11Z</time></trkpt>
 <trkpt lat="48.895038700" lon="11.132124900"><ele>415</ele><time>2014-07-04T10:13:15Z</time></trkpt>
 <trkpt lat="48.895026200" lon="11.132162800"><ele>415</ele><time>2014-07-04T10:13:19Z</time></trkpt>
 <trkpt lat="48.895020700" lon="11.132193300"><ele>414</ele><time>2014-07-04T10:13:23Z</time></trkpt>
 <trkpt lat="48.895002900" lon="11.132226600"><ele>414</ele><time>2014-07-04T10:13:27Z</time></trkpt>
 <trkpt lat="48.894984900" lon="11.132280800"><ele>414</ele><time>2014-07-04T10:13:31Z</time></trkpt>
 <trkpt lat="48.894972000" lon="11.132340300"><ele>414</ele><time>2014-07-04T10:13:35Z</time></trkpt>
 <trkpt lat="48.894964500" lon="11.132388700"><ele>413</ele><time>2014-07-04T10:13:39Z</time></trkpt>
 <trkpt lat="48.894964100" lon="11.132411200"><ele>413</ele><time>2014-07-04T10:13:43Z</time></trkpt>
 <trkpt lat="48.894964900" lon="11.132456200"><ele>413</ele><time>2014-07-04T10:13:47Z</time></trkpt>
 <trkpt lat="48.894956600" lon="11.132503700"><ele>412</ele><time>2014-07-04T10:13:51Z</time></trkpt>
 <trkpt lat="48.894933700" lon="11.132560800"><ele>412</ele><time>2014-07-04T10:13:55Z</time></trkpt>
 <trkpt lat="48.894908700" lon="11.132617000"><ele>411</ele><time>2014-07-04T10:13:59Z</time></trkpt>
 <trkpt lat="48.894883700" lon="11.132675400"><ele>411</ele><time>2014-07-04T10:14:03Z</time></trkpt>
 <trkpt lat="48.894859900" lon="11.132756200"><ele>410</ele><time>2014-07-04T10:14:07Z</time></trkpt>
 <trkpt lat="48.894845300" lon="11.132822800"><ele>410</ele><time>2014-07-04T10:14:11Z</time></trkpt>
 <trkpt lat="48.894837800" lon="11.132885800"><ele>410</ele><time>2014-07-04T10:14:15Z</time></trkpt>
 <trkpt lat="48.894838700" lon="11.132934500"><ele>409</ele><time>2014-07-04T10:14:19Z</time></trkpt>
 <trkpt lat="48.894834900" lon="11.132988300"><ele>409</ele><time>2014-07-04T10:14:23Z</time></trkpt>
 <trkpt lat="48.894826600" lon="11.133042000"><ele>408</ele><time>2014-07-04T10:14:27Z</time></trkpt>
 <trkpt lat="48.894814100" lon="11.133090300"><ele>408</ele><time>2014-07-04T10:14:31Z</time></trkpt>
 <trkpt lat="48.894802800" lon="11.133153700"><ele>407</ele><time>2014-07-04T10:14:35Z</time></trkpt>
 <trkpt lat="48.894789500" lon="11.133214500"><ele>407</ele><time>2014-07-04T10:14:39Z</time></trkpt>
 <trkpt lat="48.894759900" lon="11.133301600"><ele>406</ele><time>2014-07-04T10:14:43Z</time></trkpt>
 <trkpt lat="48.894755800" lon="11.133360300"><ele>406</ele><time>2014-07-04T10:14:47Z</time></trkpt>
 <trkpt lat="48.894754100" lon="11.133412400"><ele>405</ele><time>2014-07-04T10:14:51Z</time></trkpt>
 <trkpt lat="48.894749100" lon="11.133465300"><ele>405</ele><time>2014-07-04T10:14:55Z</time></trkpt>
 <trkpt lat="48.894746600" lon="11.133513300"><ele>404</ele><time>2014-07-04T10:14:59Z</time></trkpt>
 <trkpt lat="48.894737400" lon="11.133566200"><ele>404</ele><time>2014-07-04T10:15:03Z</time></trkpt>
 <trkpt lat="48.894738700" lon="11.133600800"><ele>404</ele><time>2014-07-04T10:15:07Z</time></trkpt>
 <trkpt lat="48.894746200" lon="11.133636200"><ele>403</ele><time>2014-07-04T10:15:11Z</time></trkpt>
 <trkpt lat="48.894744100" lon="11.133692400"><ele>403</ele><time>2014-07-04T10:15:15Z</time></trkpt>
 <trkpt lat="48.894739100" lon="11.133737000"><ele>402</ele><time>2014-07-04T10:15:19Z</time></trkpt>
 <trkpt lat="48.894736200" lon="11.133780700"><ele>402</ele><time>2014-07-04T10:15:23Z</time></trkpt>
 <trkpt lat="48.894735300" lon="11.133829100"><ele>401</ele><time>2014-07-04T10:15:27Z</time></trkpt>
 <trkpt lat="48.894736600" lon="11.133870400"><ele>401</ele><time>2014-07-04T10:15:31Z</time></trkpt>
 <trkpt lat="48.894741200" lon="11.133917000"><ele>400</ele><time>2014-07-04T10:15:35Z</time></trkpt>
 <trkpt lat="48.894739100" lon="11.133963700"><ele>400</ele><time>2014-07-04T10:15:39Z</time></trkpt>
 <trkpt lat="48.894737800" lon="11.134001200"><ele>399</ele><time>2014-07-04T10:15:43Z</time></trkpt>
 <trkpt lat="48.894741600" lon="11.134038700"><ele>399</ele><time>2014-07-04T10:15:47Z</time></trkpt>
 <trkpt lat="48.894736200" lon="11.134084100"><ele>399</ele><time>2014-07-04T10:15:51Z</time></trkpt>
 <trkpt lat="48.894734500" lon="11.134120800"><ele>398</ele><time>2014-07-04T10:15:55Z</time></trkpt>
 <trkpt lat="48.894728700" lon="11.134170800"><ele>398</ele><time>2014-07-04T10:15:59Z</time></trkpt>
 <trkpt lat="48.894737000" lon="11.134217400"><ele>397</ele><time>2014-07-04T10:16:03Z</time></trkpt>
 <trkpt lat="48.894744500" lon="11.134265800"><ele>397</ele><time>2014-07-04T10:16:07Z</time></trkpt>
 <trkpt lat="48.894753300" lon="11.134310400"><ele>396</ele><time>2014-07-04T10:16:11Z</time></trkpt>
 <trkpt lat="48.894765800" lon="11.134362900"><ele>396</ele><time>2014-07-04T10:16:15Z</time></trkpt>
 <trkpt lat="48.894769500" lon="11.134435300"><ele>395</ele><time>2014-07-04T10:16:19Z</time></trkpt>
 <trkpt lat="48.894744100" lon="11.134508700"><ele>395</ele><time>2014-07-04T10:16:23Z</time></trkpt>
 <trkpt lat="48.894741200" lon="11.134544500"><ele>394</ele><time>2014-07-04T10:16:27Z</time></trkpt>
 <trkpt lat="48.894752400" lon="11.134594500"><ele>394</ele><time>2014-07-04T10:16:31Z</time></trkpt>
 <trkpt lat="48.894758300" lon="11.134646600"><ele>393</ele><time>2014-07-04T10:16:35Z</time></trkpt>
 <trkpt lat="48.894750800" lon="11.134705800"><ele>393</ele><time>2014-07-04T10:16:39Z</time></trkpt>
 <trkpt lat="48.894738200" lon="11.134760300"><ele>392</ele><time>2014-07-04T10:16:43Z</time></trkpt>
 <trkpt lat="48.894721200" lon="11.134830300"><ele>391</ele><time>2014-07-04T10:16:47Z</time></trkpt>
 <trkpt lat="48.894698700" lon="11.134895800"><ele>391</ele><time>2014-07-04T10:16:51Z</time></trkpt>
 <trkpt lat="48.894682000" lon="11.134949100"><ele>390</ele><time>2014-07-04T10:16:55Z</time></trkpt>
 <trkpt lat="48.894672000" lon="11.134996200"><ele>390</ele><time>2014-07-04T10:16:59Z</time></trkpt>
 <trkpt lat="48.894655400" lon="11.135025300"><ele>389</ele><time>2014-07-04T10:17:03Z</time></trkpt>
 <trkpt lat="48.894638700" lon="11.135049100"><ele>388</ele><time>2014-07-04T10:17:07Z</time></trkpt>
 <trkpt lat="48.894624900" lon="11.135086600"><ele>388</ele><time>2014-07-04T10:17:11Z</time></trkpt>
 <trkpt lat="48.894619900" lon="11.135124500"><ele>387</ele><time>2014-07-04T10:17:15Z</time></trkpt>
 <trkpt lat="48.894613300" lon="11.135150400"><ele>387</ele><time>2014-07-04T10:17:19Z</time></trkpt>
 <trkpt lat="48.894599100" lon="11.135169100"><ele>386</ele><time>2014-07-04T10:17:23Z</time></trkpt>
 <trkpt lat="48.894594500" lon="11.135176600"><ele>386</ele><time>2014-07-04T10:17:27Z</time></trkpt>
 <trkpt lat="48.894605400" lon="11.135212000"><ele>385</ele><time>2014-07-04T10:17:31Z</time></trkpt>
 <trkpt lat="48.894631600" lon="11.135238300"><ele>385</ele><time>2014-07-04T10:17:35Z</time></trkpt>
 <trkpt lat="48.894664900" lon="11.135261200"><ele>384</ele><time>2014-07-04T10:17:39Z</time></trkpt>
 <trkpt lat="48.894682400" lon="11.135292800"><ele>384</ele><time>2014-07-04T10:17:43Z</time></trkpt>
 <trkpt lat="48.894673300" lon="11.135320300"><ele>384</ele><time>2014-07-04T10:17:47Z</time></trkpt>
 <trkpt lat="48.894673700" lon="11.135342400"><ele>383</ele><time>2014-07-04T10:17:51Z</time></trkpt>
 <trkpt lat="48.894678700" lon="11.135370400"><ele>383</ele><time>2014-07-04T10:17:55Z</time></trkpt>
 <trkpt lat="48.894682000" lon="11.135393700"><ele>383</ele><time>2014-07-04T10:17:59Z</time></trkpt>
 <trkpt lat="48.894674500" lon="11.135410800"><ele>383</ele><time>2014-07-04T10:18:03Z</time></trkpt>
 <trkpt lat="48.894671200" lon="11.135418700"><ele>383</ele><time>2014-07-04T10:18:07Z</time></trkpt>
 <trkpt lat="48.894669500" lon="11.135462000"><ele>383</ele><time>2014-07-04T10:18:11Z</time></trkpt>
 <trkpt lat="48.894691200" lon="11.135495300"><ele>383</ele><time>2014-07-04T10:18:15Z</time></trkpt>
 <trkpt lat="48.894682000" lon="11.135550400"><ele>383</ele><time>2014-07-04T10:18:19Z</time></trkpt>
 <trkpt lat="48.894684100" lon="11.135572400"><ele>383</ele><time>2014-07-04T10:18:23Z</time></trkpt>
 <trkpt lat="48.894697800" lon="11.135572000"><ele>383</ele><time>2014-07-04T10:18:27Z</time></trkpt>
 <trkpt lat="48.894697000" lon="11.135580800"><ele>383</ele><time>2014-07-04T10:18:31Z</time></trkpt>
 <trkpt lat="48.894682400" lon="11.135607400"><ele>384</ele><time>2014-07-04T10:18:35Z</time></trkpt>
 <trkpt lat="48.894671600" lon="11.135634900"><ele>384</ele><time>2014-07-04T10:18:39Z</time></trkpt>
 <trkpt lat="48.894704100" lon="11.135695800"><ele>384</ele><time>2014-07-04T10:18:43Z</time></trkpt>
 <trkpt lat="48.894727800" lon="11.135723700"><ele>385</ele><time>2014-07-04T10:18:47Z</time></trkpt>
 <trkpt lat="48.894783700" lon="11.135724100"><ele>385</ele><time>2014-07-04T10:18:51Z</time></trkpt>
 <trkpt lat="48.894785800" lon="11.135739100"><ele>385</ele><time>2014-07-04T10:18:55Z</time></trkpt>
 <trkpt lat="48.894800000" lon="11.135754900"><ele>386</ele><time>2014-07-04T10:18:59Z</time></trkpt>
 <trkpt lat="48.894785300" lon="11.135773300"><ele>386</ele><time>2014-07-04T10:19:03Z</time></trkpt>
 <trkpt lat="48.894756600" lon="11.135794900"><ele>387</ele><time>2014-07-04T10:19:07Z</time></trkpt>
 <trkpt lat="48.894724100" lon="11.135823700"><ele>387</ele><time>2014-07-04T10:19:11Z</time></trkpt>
 <trkpt lat="48.894704500" lon="11.135838700"><ele>388</ele><time>2014-07-04T10:19:15Z</time></trkpt>
 <trkpt lat="48.894697000" lon="11.135846600"><ele>388</ele><time>2014-07-04T10:19:19Z</time></trkpt>
 <trkpt lat="48.894701200" lon="11.135874100"><ele>389</ele><time>2014-07-04T10:19:23Z</time></trkpt>
 <trkpt lat="48.894704100" lon="11.135920800"><ele>390</ele><time>2014-07-04T10:19:27Z</time></trkpt>
 <trkpt lat="48.894687400" lon="11.135964500"><ele>391</ele><time>2014-07-04T10:19:31Z</time></trkpt>
 <trkpt lat="48.894676600" lon="11.135995400"><ele>392</ele><time>2014-07-04T10:19:35Z</time></trkpt>
 <trkpt lat="48.894641600" lon="11.136043700"><ele>393</ele><time>2014-07-04T10:19:39Z</time></trkpt>
 <trkpt lat="48.894598300" lon="11.136093300"><ele>395</ele><time>2014-07-04T10:19:43Z</time></trkpt>
 <trkpt lat="48.894568700" lon="11.136120300"><ele>396</ele><time>2014-07-04T10:19:47Z</time></trkpt>
 <trkpt lat="48.894535300" lon="11.136164100"><ele>397</ele><time>2014-07-04T10:19:51Z</time></trkpt>
 <trkpt lat="48.894497000" lon="11.136162000"><ele>398</ele><time>2014-07-04T10:19:55Z</time></trkpt>
 <trkpt lat="48.894475800" lon="11.136143700"><ele>399</ele><time>2014-07-04T10:19:59Z</time></trkpt>
 <trkpt lat="48.894481600" lon="11.136136200"><ele>400</ele><time>2014-07-04T10:20:03Z</time></trkpt>
 <trkpt lat="48.894493700" lon="11.136135300"><ele>402</ele><time>2014-07-04T10:20:07Z</time></trkpt>
 <trkpt lat="48.894499500" lon="11.136150300"><ele>403</ele><time>2014-07-04T10:20:11Z</time></trkpt>
 <trkpt lat="48.894523300" lon="11.136167400"><ele>404</ele><time>2014-07-04T10:20:15Z</time></trkpt>
 <trkpt lat="48.894555300" lon="11.136186200"><ele>405</ele><time>2014-07-04T10:20:19Z</time></trkpt>
 <trkpt lat="48.894576200" lon="11.136214500"><ele>406</ele><time>2014-07-04T10:20:23Z</time></trkpt>
 <trkpt lat="48.894593300" lon="11.136228700"><ele>407</ele><time>2014-07-04T10:20:27Z</time></trkpt>
 <trkpt lat="48.894569100" lon="11.136299900"><ele>408</ele><time>2014-07-04T10:20:31Z</time></trkpt>
 <trkpt lat="48.894546200" lon="11.136323700"><ele>409</ele><time>2014-07-04T10:20:35Z</time></trkpt>
 <trkpt lat="48.894510800" lon="11.136337000"><ele>410</ele><time>2014-07-04T10:20:39Z</time></trkpt>
 <trkpt lat="48.894508700" lon="11.136353700"><ele>411</ele><time>2014-07-04T10:20:43Z</time></trkpt>
 <trkpt lat="48.894505400" lon="11.136349500"><ele>412</ele><time>2014-07-04T10:20:47Z</time></trkpt>
 <trkpt lat="48.894480800" lon="11.136359500"><ele>413</ele><time>2014-07-04T10:20:51Z</time></trkpt>
 <trkpt lat="48.894468700" lon="11.136367000"><ele>414</ele><time>2014-07-04T10:20:55Z</time></trkpt>
 <trkpt lat="48.894468700" lon="11.136367000"><ele>415</ele><time>2014-07-04T10:20:59Z</time></trkpt>
 <trkpt lat="48.894478300" lon="11.136377400"><ele>416</ele><time>2014-07-04T10:21:03Z</time></trkpt>
 <trkpt lat="48.894498700" lon="11.136383300"><ele>417</ele><time>2014-07-04T10:21:07Z</time></trkpt>
 <trkpt lat="48.894524900" lon="11.136373700"><ele>417</ele><time>2014-07-04T10:21:11Z</time></trkpt>
 <trkpt lat="48.894545400" lon="11.136369100"><ele>418</ele><time>2014-07-04T10:21:15Z</time></trkpt>
 <trkpt lat="48.894550800" lon="11.136360800"><ele>419</ele><time>2014-07-04T10:21:19Z</time></trkpt>
 <trkpt lat="48.894554900" lon="11.136353300"><ele>420</ele><time>2014-07-04T10:21:23Z</time></trkpt>
 <trkpt lat="48.894566600" lon="11.136361600"><ele>420</ele><time>2014-07-04T10:21:27Z</time></trkpt>
 <trkpt lat="48.894566600" lon="11.136371200"><ele>421</ele><time>2014-07-04T10:21:31Z</time></trkpt>
 <trkpt lat="48.894547800" lon="11.136379100"><ele>422</ele><time>2014-07-04T10:21:35Z</time></trkpt>
 <trkpt lat="48.894540400" lon="11.136378200"><ele>422</ele><time>2014-07-04T10:21:39Z</time></trkpt>
 <trkpt lat="48.894533700" lon="11.136394100"><ele>423</ele><time>2014-07-04T10:21:43Z</time></trkpt>
 <trkpt lat="48.894522400" lon="11.136411200"><ele>423</ele><time>2014-07-04T10:21:47Z</time></trkpt>
 <trkpt lat="48.894515300" lon="11.136441200"><ele>424</ele><time>2014-07-04T10:21:51Z</time></trkpt>
 <trkpt lat="48.894491600" lon="11.136447000"><ele>424</ele><time>2014-07-04T10:21:55Z</time></trkpt>
 <trkpt lat="48.894480800" lon="11.136432900"><ele>425</ele><time>2014-07-04T10:21:59Z</time></trkpt>
 <trkpt lat="48.894480800" lon="11.136432900"><ele>425</ele><time>2014-07-04T10:22:03Z</time></trkpt>
 <trkpt lat="48.894494500" lon="11.136432000"><ele>426</ele><time>2014-07-04T10:22:07Z</time></trkpt>
 <trkpt lat="48.894508300" lon="11.136437800"><ele>426</ele><time>2014-07-04T10:22:11Z</time></trkpt>
 <trkpt lat="48.894524900" lon="11.136454500"><ele>427</ele><time>2014-07-04T10:22:15Z</time></trkpt>
 <trkpt lat="48.894528700" lon="11.136482400"><ele>427</ele><time>2014-07-04T10:22:19Z</time></trkpt>
 <trkpt lat="48.894539100" lon="11.136493700"><ele>428</ele><time>2014-07-04T10:22:23Z</time></trkpt>
 <trkpt lat="48.894543300" lon="11.136499500"><ele>429</ele><time>2014-07-04T10:22:27Z</time></trkpt>
 <trkpt lat="48.894530300" lon="11.136502800"><ele>429</ele><time>2014-07-04T10:22:31Z</time></trkpt>
 <trkpt lat="48.894512800" lon="11.136497400"><ele>430</ele><time>2014-07-04T10:22:35Z</time></trkpt>
 <trkpt lat="48.894486600" lon="11.136511600"><ele>430</ele><time>2014-07-04T10:22:39Z</time></trkpt>
 <trkpt lat="48.894469900" lon="11.136522400"><ele>431</ele><time>2014-07-04T10:22:43Z</time></trkpt>
 <trkpt lat="48.894485800" lon="11.136476600"><ele>431</ele><time>2014-07-04T10:22:47Z</time></trkpt>
 <trkpt lat="48.894507400" lon="11.136427400"><ele>432</ele><time>2014-07-04T10:22:51Z</time></trkpt>
 <trkpt lat="48.894511200" lon="11.136411600"><ele>432</ele><time>2014-07-04T10:22:55Z</time></trkpt>
 <trkpt lat="48.894511200" lon="11.136411600"><ele>433</ele><time>2014-07-04T10:22:59Z</time></trkpt>
 <trkpt lat="48.894509100" lon="11.136402000"><ele>433</ele><time>2014-07-04T10:23:03Z</time></trkpt>
 <trkpt lat="48.894507400" lon="11.136393700"><ele>434</ele><time>2014-07-04T10:23:07Z</time></trkpt>
 <trkpt lat="48.894512400" lon="11.136388700"><ele>434</ele><time>2014-07-04T10:23:11Z</time></trkpt>
 <trkpt lat="48.894512400" lon="11.136388700"><ele>435</ele><time>2014-07-04T10:23:15Z</time></trkpt>
 <trkpt lat="48.894518300" lon="11.136387000"><ele>435</ele><time>2014-07-04T10:23:19Z</time></trkpt>
 <trkpt lat="48.894529900" lon="11.136392000"><ele>435</ele><time>2014-07-04T10:23:23Z</time></trkpt>
 <trkpt lat="48.894540400" lon="11.136409100"><ele>436</ele><time>2014-07-04T10:23:27Z</time></trkpt>
 <trkpt lat="48.894547400" lon="11.136437000"><ele>436</ele><time>2014-07-04T10:23:31Z</time></trkpt>
 <trkpt lat="48.894555800" lon="11.136454500"><ele>436</ele><time>2014-07-04T10:23:35Z</time></trkpt>
 <trkpt lat="48.894569900" lon="11.136464900"><ele>436</ele><time>2014-07-04T10:23:39Z</time></trkpt>
 <trkpt lat="48.894578300" lon="11.136464500"><ele>437</ele><time>2014-07-04T10:23:43Z</time></trkpt>
 <trkpt lat="48.894581600" lon="11.136513700"><ele>437</ele><time>2014-07-04T10:23:47Z</time></trkpt>
 <trkpt lat="48.894586200" lon="11.136545800"><ele>437</ele><time>2014-07-04T10:23:51Z</time></trkpt>
 <trkpt lat="48.894584900" lon="11.136577400"><ele>437</ele><time>2014-07-04T10:23:55Z</time></trkpt>
 <trkpt lat="48.894592000" lon="11.136599900"><ele>438</ele><time>2014-07-04T10:23:59Z</time></trkpt>
 <trkpt lat="48.894607000" lon="11.136607400"><ele>438</ele><time>2014-07-04T10:24:03Z</time></trkpt>
 <trkpt lat="48.894610800" lon="11.136601200"><ele>438</ele><time>2014-07-04T10:24:07Z</time></trkpt>
 <trkpt lat="48.894627400" lon="11.136613300"><ele>439</ele><time>2014-07-04T10:24:11Z</time></trkpt>
 <trkpt lat="48.894646600" lon="11.136641600"><ele>439</ele><time>2014-07-04T10:24:15Z</time></trkpt>
 <trkpt lat="48.894652400" lon="11.136691200"><ele>439</ele><time>2014-07-04T10:24:19Z</time></trkpt>
 <trkpt lat="48.894647000" lon="11.136750800"><ele>440</ele><time>2014-07-04T10:24:23Z</time></trkpt>
 <trkpt lat="48.894646200" lon="11.136772400"><ele>440</ele><time>2014-07-04T10:24:27Z</time></trkpt>
 <trkpt lat="48.894647400" lon="11.136790300"><ele>440</ele><time>2014-07-04T10:24:31Z</time></trkpt>
 <trkpt lat="48.894657000" lon="11.136808300"><ele>441</ele><time>2014-07-04T10:24:35Z</time></trkpt>
 <trkpt lat="48.894669900" lon="11.136809900"><ele>441</ele><time>2014-07-04T10:24:39Z</time></trkpt>
 <trkpt lat="48.894680300" lon="11.136829900"><ele>441</ele><time>2014-07-04T10:24:43Z</time></trkpt>
 <trkpt lat="48.894682800" lon="11.136854900"><ele>442</ele><time>2014-07-04T10:24:47Z</time></trkpt>
 <trkpt lat="48.894686600" lon="11.136884100"><ele>442</ele><time>2014-07-04T10:24:51Z</time></trkpt>
 <trkpt lat="48.894687400" lon="11.136914100"><ele>442</ele><time>2014-07-04T10:24:55Z</time></trkpt>
 <trkpt lat="48.894679500" lon="11.136944900"><ele>442</ele><time>2014-07-04T10:24:59Z</time></trkpt>
 <trkpt lat="48.894674500" lon="11.136985400"><ele>442</ele><time>2014-07-04T10:25:03Z</time></trkpt>
 <trkpt lat="48.894684500" lon="11.137014100"><ele>442</ele><time>2014-07-04T10:25:07Z</time></trkpt>
 <trkpt lat="48.894702000" lon="11.137045300"><ele>443</ele><time>2014-07-04T10:25:11Z</time></trkpt>
 <trkpt lat="48.894717000" lon="11.137062000"><ele>443</ele><time>2014-07-04T10:25:15Z</time></trkpt>
 <trkpt lat="48.894747400" lon="11.137076600"><ele>443</ele><time>2014-07-04T10:25:19Z</time></trkpt>
 <trkpt lat="48.894779500" lon="11.137089900"><ele>443</ele><time>2014-07-04T10:25:23Z</time></trkpt>
 <trkpt lat="48.894805800" lon="11.137117400"><ele>443</ele><time>2014-07-04T10:25:27Z</time></trkpt>
 <trkpt lat="48.894827000" lon="11.137133200"><ele>443</ele><time>2014-07-04T10:25:31Z</time></trkpt>
 <trkpt lat="48.894837400" lon="11.137143700"><ele>443</ele><time>2014-07-04T10:25:35Z</time></trkpt>
 <trkpt lat="48.894833700" lon="11.137150800"><ele>444</ele><time>2014-07-04T10:25:39Z</time></trkpt>
 <trkpt lat="48.894822400" lon="11.137167800"><ele>444</ele><time>2014-07-04T10:25:43Z</time></trkpt>
 <trkpt lat="48.894818700" lon="11.137212400"><ele>444</ele><time>2014-07-04T10:25:47Z</time></trkpt>
 <trkpt lat="48.894819500" lon="11.137241600"><ele>444</ele><time>2014-07-04T10:25:51Z</time></trkpt>
 <trkpt lat="48.894830800" lon="11.137257400"><ele>445</ele><time>2014-07-04T10:25:55Z</time></trkpt>
 <trkpt lat="48.894849900" lon="11.137267400"><ele>445</ele><time>2014-07-04T10:25:59Z</time></trkpt>
 <trkpt lat="48.894855400" lon="11.137284500"><ele>445</ele><time>2014-07-04T10:26:03Z</time></trkpt>
 <trkpt lat="48.894872800" lon="11.137294900"><ele>445</ele><time>2014-07-04T10:26:07Z</time></trkpt>
 <trkpt lat="48.894898700" lon="11.137289900"><ele>446</ele><time>2014-07-04T10:26:11Z</time></trkpt>
 <trkpt lat="48.894917400" lon="11.137292800"><ele>446</ele><time>2014-07-04T10:26:15Z</time></trkpt>
 <trkpt lat="48.894943700" lon="11.137302000"><ele>446</ele><time>2014-07-04T10:26:19Z</time></trkpt>
 <trkpt lat="48.894969500" lon="11.137319100"><ele>447</ele><time>2014-07-04T10:26:23Z</time></trkpt>
 <trkpt lat="48.895002000" lon="11.137329100"><ele>447</ele><time>2014-07-04T10:26:27Z</time></trkpt>
 <trkpt lat="48.895044500" lon="11.137321200"><ele>447</ele><time>2014-07-04T10:26:31Z</time></trkpt>
 <trkpt lat="48.895089500" lon="11.137297000"><ele>448</ele><time>2014-07-04T10:26:35Z</time></trkpt>
 <trkpt lat="48.895134100" lon="11.137288300"><ele>448</ele><time>2014-07-04T10:26:39Z</time></trkpt>
 <trkpt lat="48.895171200" lon="11.137287800"><ele>448</ele><time>2014-07-04T10:26:43Z</time></trkpt>
 <trkpt lat="48.895186600" lon="11.137294100"><ele>449</ele><time>2014-07-04T10:26:47Z</time></trkpt>
 <trkpt lat="48.895205800" lon="11.137302400"><ele>449</ele><time>2014-07-04T10:26:51Z</time></trkpt>
 <trkpt lat="48.895232000" lon="11.137292800"><ele>450</ele><time>2014-07-04T10:26:55Z</time></trkpt>
 <trkpt lat="48.895246600" lon="11.137292000"><ele>450</ele><time>2014-07-04T10:26:59Z</time></trkpt>
 <trkpt lat="48.895274100" lon="11.137298700"><ele>451</ele><time>2014-07-04T10:27:03Z</time></trkpt>
 <trkpt lat="48.895302400" lon="11.137314900"><ele>451</ele><time>2014-07-04T10:27:07Z</time></trkpt>
 <trkpt lat="48.895337800" lon="11.137327400"><ele>452</ele><time>2014-07-04T10:27:11Z</time></trkpt>
 <trkpt lat="48.895395300" lon="11.137334100"><ele>452</ele><time>2014-07-04T10:27:15Z</time></trkpt>
 <trkpt lat="48.895412400" lon="11.137368300"><ele>453</ele><time>2014-07-04T10:27:19Z</time></trkpt>
 <trkpt lat="48.895409900" lon="11.137418300"><ele>454</ele><time>2014-07-04T10:27:23Z</time></trkpt>
 <trkpt lat="48.895406200" lon="11.137452800"><ele>455</ele><time>2014-07-04T10:27:27Z</time></trkpt>
 <trkpt lat="48.895413300" lon="11.137484500"><ele>455</ele><time>2014-07-04T10:27:31Z</time></trkpt>
 <trkpt lat="48.895410800" lon="11.137529900"><ele>456</ele><time>2014-07-04T10:27:35Z</time></trkpt>
 <trkpt lat="48.895414900" lon="11.137564900"><ele>457</ele><time>2014-07-04T10:27:39Z</time></trkpt>
 <trkpt lat="48.895423700" lon="11.137584500"><ele>458</ele><time>2014-07-04T10:27:43Z</time></trkpt>
 <trkpt lat="48.895442900" lon="11.137596600"><ele>459</ele><time>2014-07-04T10:27:47Z</time></trkpt>
 <trkpt lat="48.895458300" lon="11.137612800"><ele>460</ele><time>2014-07-04T10:27:51Z</time></trkpt>
 <trkpt lat="48.895479900" lon="11.137627400"><ele>461</ele><time>2014-07-04T10:27:55Z</time></trkpt>
 <trkpt lat="48.895494500" lon="11.137639100"><ele>462</ele><time>2014-07-04T10:27:59Z</time></trkpt>
 <trkpt lat="48.895506600" lon="11.137657400"><ele>463</ele><time>2014-07-04T10:28:03Z</time></trkpt>
 <trkpt lat="48.895519900" lon="11.137677400"><ele>464</ele><time>2014-07-04T10:28:07Z</time></trkpt>
 <trkpt lat="48.895524900" lon="11.137719100"><ele>465</ele><time>2014-07-04T10:28:11Z</time></trkpt>
 <trkpt lat="48.895531600" lon="11.137767000"><ele>465</ele><time>2014-07-04T10:28:15Z</time></trkpt>
 <trkpt lat="48.895537800" lon="11.137789500"><ele>466</ele><time>2014-07-04T10:28:19Z</time></trkpt>
 <trkpt lat="48.895553300" lon="11.137820800"><ele>467</ele><time>2014-07-04T10:28:23Z</time></trkpt>
 <trkpt lat="48.895564500" lon="11.137839100"><ele>468</ele><time>2014-07-04T10:28:27Z</time></trkpt>
 <trkpt lat="48.895585400" lon="11.137854900"><ele>469</ele><time>2014-07-04T10:28:31Z</time></trkpt>
 <trkpt lat="48.895598200" lon="11.137889900"><ele>470</ele><time>2014-07-04T10:28:35Z</time></trkpt>
 <trkpt lat="48.895625800" lon="11.137890400"><ele>471</ele><time>2014-07-04T10:28:39Z</time></trkpt>
 <trkpt lat="48.895655300" lon="11.137880300"><ele>471</ele><time>2014-07-04T10:28:43Z</time></trkpt>
 <trkpt lat="48.895667900" lon="11.137878300"><ele>472</ele><time>2014-07-04T10:28:47Z</time></trkpt>
 <trkpt lat="48.895660800" lon="11.137882400"><ele>473</ele><time>2014-07-04T10:28:51Z</time></trkpt>
 <trkpt lat="48.895653700" lon="11.137885300"><ele>473</ele><time>2014-07-04T10:28:55Z</time></trkpt>
 <trkpt lat="48.895659500" lon="11.137888200"><ele>474</ele><time>2014-07-04T10:28:59Z</time></trkpt>
 <trkpt lat="48.895665300" lon="11.137890700"><ele>474</ele><time>2014-07-04T10:29:03Z</time></trkpt>
 <trkpt lat="48.895670800" lon="11.137888700"><ele>475</ele><time>2014-07-04T10:29:07Z</time></trkpt>
 <trkpt lat="48.895675000" lon="11.137872000"><ele>475</ele><time>2014-07-04T10:29:11Z</time></trkpt>
 <trkpt lat="48.895678300" lon="11.137863300"><ele>476</ele><time>2014-07-04T10:29:15Z</time></trkpt>
 <trkpt lat="48.895699500" lon="11.137851600"><ele>476</ele><time>2014-07-04T10:29:19Z</time></trkpt>
 <trkpt lat="48.895715800" lon="11.137853700"><ele>477</ele><time>2014-07-04T10:29:23Z</time></trkpt>
 <trkpt lat="48.895737000" lon="11.137854900"><ele>477</ele><time>2014-07-04T10:29:27Z</time></trkpt>
 <trkpt lat="48.895774500" lon="11.137839500"><ele>478</ele><time>2014-07-04T10:29:31Z</time></trkpt>
 <trkpt lat="48.895794900" lon="11.137834100"><ele>478</ele><time>2014-07-04T10:29:35Z</time></trkpt>
 <trkpt lat="48.895798700" lon="11.137844100"><ele>478</ele><time>2014-07-04T10:29:39Z</time></trkpt>
 <trkpt lat="48.895799100" lon="11.137852400"><ele>479</ele><time>2014-07-04T10:29:43Z</time></trkpt>
 <trkpt lat="48.895749100" lon="11.137894900"><ele>479</ele><time>2014-07-04T10:29:47Z</time></trkpt>
 <trkpt lat="48.895722000" lon="11.137940300"><ele>479</ele><time>2014-07-04T10:29:51Z</time></trkpt>
 <trkpt lat="48.895702400" lon="11.137971200"><ele>480</ele><time>2014-07-04T10:29:55Z</time></trkpt>
 <trkpt lat="48.895697400" lon="11.137975000"><ele>480</ele><time>2014-07-04T10:29:59Z</time></trkpt>
 <trkpt lat="48.895697400" lon="11.137975000"><ele>481</ele><time>2014-07-04T10:30:03Z</time></trkpt>
 <trkpt lat="48.895692400" lon="11.137982400"><ele>482</ele><time>2014-07-04T10:30:07Z</time></trkpt>
 <trkpt lat="48.895689500" lon="11.137989900"><ele>483</ele><time>2014-07-04T10:30:11Z</time></trkpt>
 <trkpt lat="48.895701200" lon="11.138009100"><ele>484</ele><time>2014-07-04T10:30:15Z</time></trkpt>
 <trkpt lat="48.895720800" lon="11.138040800"><ele>484</ele><time>2014-07-04T10:30:19Z</time></trkpt>
 <trkpt lat="48.895725300" lon="11.138081600"><ele>485</ele><time>2014-07-04T10:30:23Z</time></trkpt>
 <trkpt lat="48.895709100" lon="11.138140300"><ele>486</ele><time>2014-07-04T10:30:27Z</time></trkpt>
 <trkpt lat="48.895706600" lon="11.138147800"><ele>487</ele><time>2014-07-04T10:30:31Z</time></trkpt>
 <trkpt lat="48.895707400" lon="11.138157000"><ele>489</ele><time>2014-07-04T10:30:35Z</time></trkpt>
 <trkpt lat="48.895705000" lon="11.138165800"><ele>490</ele><time>2014-07-04T10:30:39Z</time></trkpt>
 <trkpt lat="48.895697400" lon="11.138169900"><ele>491</ele><time>2014-07-04T10:30:43Z</time></trkpt>
 <trkpt lat="48.895669100" lon="11.138168200"><ele>492</ele><time>2014-07-04T10:30:47Z</time></trkpt>
 <trkpt lat="48.895677900" lon="11.138153200"><ele>494</ele><time>2014-07-04T10:30:51Z</time></trkpt>
 <trkpt lat="48.895687400" lon="11.138183300"><ele>495</ele><time>2014-07-04T10:30:55Z</time></trkpt>
 <trkpt lat="48.895700800" lon="11.138228200"><ele>497</ele><time>2014-07-04T10:30:59Z</time></trkpt>
 <trkpt lat="48.895691600" lon="11.138266200"><ele>498</ele><time>2014-07-04T10:31:03Z</time></trkpt>
 <trkpt lat="48.895651600" lon="11.138314100"><ele>500</ele><time>2014-07-04T10:31:07Z</time></trkpt>
 <trkpt lat="48.895633300" lon="11.138334900"><ele>501</ele><time>2014-07-04T10:31:11Z</time></trkpt>
 <trkpt lat="48.895633300" lon="11.138334900"><ele>502</ele><time>2014-07-04T10:31:15Z</time></trkpt>
 <trkpt lat="48.895639100" lon="11.138317900"><ele>503</ele><time>2014-07-04T10:31:19Z</time></trkpt>
 <trkpt lat="48.895623700" lon="11.138317800"><ele>505</ele><time>2014-07-04T10:31:23Z</time></trkpt>
 <trkpt lat="48.895598300" lon="11.138331600"><ele>506</ele><time>2014-07-04T10:31:27Z</time></trkpt>
 <trkpt lat="48.895590800" lon="11.138324500"><ele>507</ele><time>2014-07-04T10:31:31Z</time></trkpt>
 <trkpt lat="48.895558300" lon="11.138354100"><ele>508</ele><time>2014-07-04T10:31:35Z</time></trkpt>
 <trkpt lat="48.895522400" lon="11.138392000"><ele>509</ele><time>2014-07-04T10:31:39Z</time></trkpt>
 <trkpt lat="48.895491200" lon="11.138430300"><ele>510</ele><time>2014-07-04T10:31:43Z</time></trkpt>
 <trkpt lat="48.895445300" lon="11.138477800"><ele>511</ele><time>2014-07-04T10:31:47Z</time></trkpt>
 <trkpt lat="48.895404100" lon="11.138502400"><ele>512</ele><time>2014-07-04T10:31:51Z</time></trkpt>
 <trkpt lat="48.895367400" lon="11.138526600"><ele>513</ele><time>2014-07-04T10:31:55Z</time></trkpt>
 <trkpt lat="48.895330800" lon="11.138554100"><ele>514</ele><time>2014-07-04T10:31:59Z</time></trkpt>
 <trkpt lat="48.895289100" lon="11.138584500"><ele>514</ele><time>2014-07-04T10:32:03Z</time></trkpt>
 <trkpt lat="48.895237900" lon="11.138619100"><ele>515</ele><time>2014-07-04T10:32:07Z</time></trkpt>
 <trkpt lat="48.895190400" lon="11.138672400"><ele>516</ele><time>2014-07-04T10:32:11Z</time></trkpt>
 <trkpt lat="48.895149900" lon="11.138723300"><ele>516</ele><time>2014-07-04T10:32:15Z</time></trkpt>
 <trkpt lat="48.895108300" lon="11.138769100"><ele>517</ele><time>2014-07-04T10:32:19Z</time></trkpt>
 <trkpt lat="48.895071200" lon="11.138802800"><ele>518</ele><time>2014-07-04T10:32:23Z</time></trkpt>
 <trkpt lat="48.895037400" lon="11.138834100"><ele>518</ele><time>2014-07-04T10:32:27Z</time></trkpt>
 <trkpt lat="48.895012000" lon="11.138878300"><ele>519</ele><time>2014-07-04T10:32:31Z</time></trkpt>
 <trkpt lat="48.894995300" lon="11.138922800"><ele>519</ele><time>2014-07-04T10:32:35Z</time></trkpt>
 <trkpt lat="48.894989100" lon="11.138939500"><ele>519</ele><time>2014-07-04T10:32:39Z</time></trkpt>
 <trkpt lat="48.894989100" lon="11.138939500"><ele>520</ele><time>2014-07-04T10:32:43Z</time></trkpt>
 <trkpt lat="48.894989100" lon="11.138939500"><ele>520</ele><time>2014-07-04T10:32:47Z</time></trkpt>
 <trkpt lat="48.894999500" lon="11.138941600"><ele>520</ele><time>2014-07-04T10:32:51Z</time></trkpt>
 <trkpt lat="48.895014100" lon="11.138970300"><ele>520</ele><time>2014-07-04T10:32:55Z</time></trkpt>
 <trkpt lat="48.895031600" lon="11.139021200"><ele>521</ele><time>2014-07-04T10:32:59Z</time></trkpt>
 <trkpt lat="48.895053700" lon="11.139067400"><ele>521</ele><time>2014-07-04T10:33:03Z</time></trkpt>
 <trkpt lat="48.895059100" lon="11.139119100"><ele>521</ele><time>2014-07-04T10:33:07Z</time></trkpt>
 <trkpt lat="48.895030400" lon="11.139151600"><ele>522</ele><time>2014-07-04T10:33:11Z</time></trkpt>
 <trkpt lat="48.895022400" lon="11.139158300"><ele>522</ele><time>2014-07-04T10:33:15Z</time></trkpt>
 <trkpt lat="48.895018300" lon="11.139173700"><ele>522</ele><time>2014-07-04T10:33:19Z</time></trkpt>
 <trkpt lat="48.895021600" lon="11.139182000"><ele>523</ele><time>2014-07-04T10:33:23Z</time></trkpt>
 <trkpt lat="48.895024500" lon="11.139191600"><ele>523</ele><time>2014-07-04T10:33:27Z</time></trkpt>
 <trkpt lat="48.895024500" lon="11.139191600"><ele>523</ele><time>2014-07-04T10:33:31Z</time></trkpt>
 <trkpt lat="48.895024500" lon="11.139191600"><ele>523</ele><time>2014-07-04T10:33:35Z</time></trkpt>
 <trkpt lat="48.895028700" lon="11.139185800"><ele>524</ele><time>2014-07-04T10:33:39Z</time></trkpt>
 <trkpt lat="48.895028700" lon="11.139185800"><ele>524</ele><time>2014-07-04T10:33:43Z</time></trkpt>
 <trkpt lat="48.895034100" lon="11.139185800"><ele>524</ele><time>2014-07-04T10:33:47Z</time></trkpt>
 <trkpt lat="48.895039900" lon="11.139188700"><ele>524</ele><time>2014-07-04T10:33:51Z</time></trkpt>
 <trkpt lat="48.895045800" lon="11.139192400"><ele>524</ele><time>2014-07-04T10:33:55Z</time></trkpt>
 <trkpt lat="48.895048700" lon="11.139199500"><ele>524</ele><time>2014-07-04T10:33:59Z</time></trkpt>
 <trkpt lat="48.895048700" lon="11.139199500"><ele>524</ele><time>2014-07-04T10:34:03Z</time></trkpt>
 <trkpt lat="48.895054900" lon="11.139199100"><ele>524</ele><time>2014-07-04T10:34:07Z</time></trkpt>
 <trkpt lat="48.895059500" lon="11.139207800"><ele>525</ele><time>2014-07-04T10:34:11Z</time></trkpt>
 <trkpt lat="48.895059500" lon="11.139207800"><ele>525</ele><time>2014-07-04T10:34:15Z</time></trkpt>
 <trkpt lat="48.895059500" lon="11.139207800"><ele>525</ele><time>2014-07-04T10:34:19Z</time></trkpt>
 <trkpt lat="48.895054900" lon="11.139244100"><ele>525</ele><time>2014-07-04T10:34:23Z</time></trkpt>
 <trkpt lat="48.895045800" lon="11.139319100"><ele>525</ele><time>2014-07-04T10:34:27Z</time></trkpt>
 <trkpt lat="48.895048300" lon="11.139377900"><ele>525</ele><time>2014-07-04T10:34:31Z</time></trkpt>
 <trkpt lat="48.895052400" lon="11.139452800"><ele>525</ele><time>2014-07-04T10:34:35Z</time></trkpt>
 <trkpt lat="48.895060300" lon="11.139523700"><ele>525</ele><time>2014-07-04T10:34:39Z</time></trkpt>
 <trkpt lat="48.895081200" lon="11.139588300"><ele>525</ele><time>2014-07-04T10:34:43Z</time></trkpt>
 <trkpt lat="48.895095800" lon="11.139654500"><ele>525</ele><time>2014-07-04T10:34:47Z</time></trkpt>
 <trkpt lat="48.895102400" lon="11.139716200"><ele>525</ele><time>2014-07-04T10:34:51Z</time></trkpt>
 <trkpt lat="48.895117000" lon="11.139775400"><ele>525</ele><time>2014-07-04T10:34:55Z</time></trkpt>
 <trkpt lat="48.895129500" lon="11.139832400"><ele>525</ele><time>2014-07-04T10:34:59Z</time></trkpt>
 <trkpt lat="48.895131200" lon="11.139899900"><ele>525</ele><time>2014-07-04T10:35:03Z</time></trkpt>
 <trkpt lat="48.895142000" lon="11.139971200"><ele>525</ele><time>2014-07-04T10:35:07Z</time></trkpt>
 <trkpt lat="48.895151600" lon="11.140042000"><ele>526</ele><time>2014-07-04T10:35:11Z</time></trkpt>
 <trkpt lat="48.895162000" lon="11.140102000"><ele>526</ele><time>2014-07-04T10:35:15Z</time></trkpt>
 <trkpt lat="48.895153700" lon="11.140117000"><ele>526</ele><time>2014-07-04T10:35:19Z</time></trkpt>
 <trkpt lat="48.895159100" lon="11.140147400"><ele>526</ele><time>2014-07-04T10:35:23Z</time></trkpt>
 <trkpt lat="48.895189100" lon="11.140222800"><ele>526</ele><time>2014-07-04T10:35:27Z</time></trkpt>
 <trkpt lat="48.895191200" lon="11.140272000"><ele>526</ele><time>2014-07-04T10:35:31Z</time></trkpt>
 <trkpt lat="48.895203700" lon="11.140336200"><ele>526</ele><time>2014-07-04T10:35:35Z</time></trkpt>
 <trkpt lat="48.895219900" lon="11.140407000"><ele>526</ele><time>2014-07-04T10:35:39Z</time></trkpt>
 <trkpt lat="48.895236200" lon="11.140476200"><ele>526</ele><time>2014-07-04T10:35:43Z</time></trkpt>
 <trkpt lat="48.895242000" lon="11.140547400"><ele>526</ele><time>2014-07-04T10:35:47Z</time></trkpt>
 <trkpt lat="48.895255400" lon="11.140615300"><ele>526</ele><time>2014-07-04T10:35:51Z</time></trkpt>
 <trkpt lat="48.895267800" lon="11.140687800"><ele>526</ele><time>2014-07-04T10:35:55Z</time></trkpt>
 <trkpt lat="48.895273300" lon="11.140766600"><ele>526</ele><time>2014-07-04T10:35:59Z</time></trkpt>
 <trkpt lat="48.895274100" lon="11.140846200"><ele>526</ele><time>2014-07-04T10:36:03Z</time></trkpt>
 <trkpt lat="48.895280300" lon="11.140907400"><ele>525</ele><time>2014-07-04T10:36:07Z</time></trkpt>
 <trkpt lat="48.895290300" lon="11.140986600"><ele>525</ele><time>2014-07-04T10:36:11Z</time></trkpt>
 <trkpt lat="48.895307000" lon="11.141052400"><ele>525</ele><time>2014-07-04T10:36:15Z</time></trkpt>
 <trkpt lat="48.895315800" lon="11.141123700"><ele>525</ele><time>2014-07-04T10:36:19Z</time></trkpt>
 <trkpt lat="48.895331200" lon="11.141184500"><ele>525</ele><time>2014-07-04T10:36:23Z</time></trkpt>
 <trkpt lat="48.895341200" lon="11.141256200"><ele>525</ele><time>2014-07-04T10:36:27Z</time></trkpt>
 <trkpt lat="48.895354100" lon="11.141343200"><ele>525</ele><time>2014-07-04T10:36:31Z</time></trkpt>
 <trkpt lat="48.895377900" lon="11.141404500"><ele>525</ele><time>2014-07-04T10:36:35Z</time></trkpt>
 <trkpt lat="48.895401200" lon="11.141429900"><ele>525</ele><time>2014-07-04T10:36:39Z</time></trkpt>
 <trkpt lat="48.895439100" lon="11.141436600"><ele>526</ele><time>2014-07-04T10:36:43Z</time></trkpt>
 <trkpt lat="48.895473700" lon="11.141444500"><ele>526</ele><time>2014-07-04T10:36:47Z</time></trkpt>
 <trkpt lat="48.895486600" lon="11.141439900"><ele>526</ele><time>2014-07-04T10:36:51Z</time></trkpt>
 <trkpt lat="48.895486600" lon="11.141439900"><ele>527</ele><time>2014-07-04T10:36:55Z</time></trkpt>
 <trkpt lat="48.895484100" lon="11.141447800"><ele>527</ele><time>2014-07-04T10:36:59Z</time></trkpt>
 <trkpt lat="48.895484100" lon="11.141447800"><ele>528</ele><time>2014-07-04T10:37:03Z</time></trkpt>
 <trkpt lat="48.895484100" lon="11.141447800"><ele>528</ele><time>2014-07-04T10:37:07Z</time></trkpt>
 <trkpt lat="48.895484100" lon="11.141447800"><ele>528</ele><time>2014-07-04T10:37:11Z</time></trkpt>
 <trkpt lat="48.895484100" lon="11.141447800"><ele>529</ele><time>2014-07-04T10:37:15Z</time></trkpt>
 <trkpt lat="48.895484100" lon="11.141447800"><ele>529</ele><time>2014-07-04T10:37:19Z</time></trkpt>
 <trkpt lat="48.895484100" lon="11.141447800"><ele>530</ele><time>2014-07-04T10:37:23Z</time></trkpt>
 <trkpt lat="48.895484100" lon="11.141447800"><ele>530</ele><time>2014-07-04T10:37:27Z</time></trkpt>
 <trkpt lat="48.895484100" lon="11.141447800"><ele>530</ele><time>2014-07-04T10:37:31Z</time></trkpt>
 <trkpt lat="48.895484100" lon="11.141447800"><ele>530</ele><time>2014-07-04T10:37:35Z</time></trkpt>
 <trkpt lat="48.895488700" lon="11.141442400"><ele>530</ele><time>2014-07-04T10:37:39Z</time></trkpt>
 <trkpt lat="48.895533300" lon="11.141440300"><ele>530</ele><time>2014-07-04T10:37:43Z</time></trkpt>
 <trkpt lat="48.895607000" lon="11.141441200"><ele>530</ele><time>2014-07-04T10:37:47Z</time></trkpt>
 <trkpt lat="48.895677800" lon="11.141443700"><ele>530</ele><time>2014-07-04T10:37:51Z</time></trkpt>
 <trkpt lat="48.895817000" lon="11.141478300"><ele>530</ele><time>2014-07-04T10:37:55Z</time></trkpt>
 <trkpt lat="48.895913700" lon="11.141462400"><ele>529</ele><time>2014-07-04T10:37:59Z</time></trkpt>
 <trkpt lat="48.895984900" lon="11.141441600"><ele>529</ele><time>2014-07-04T10:38:03Z</time></trkpt>
 <trkpt lat="48.896041200" lon="11.141424100"><ele>529</ele><time>2014-07-04T10:38:07Z</time></trkpt>
 <trkpt lat="48.896100700" lon="11.141402000"><ele>529</ele><time>2014-07-04T10:38:11Z</time></trkpt>
 <trkpt lat="48.896151200" lon="11.141389100"><ele>529</ele><time>2014-07-04T10:38:15Z</time></trkpt>
 <trkpt lat="48.896204500" lon="11.141377000"><ele>529</ele><time>2014-07-04T10:38:19Z</time></trkpt>
 <trkpt lat="48.896251200" lon="11.141368300"><ele>529</ele><time>2014-07-04T10:38:23Z</time></trkpt>
 <trkpt lat="48.896303700" lon="11.141357400"><ele>530</ele><time>2014-07-04T10:38:27Z</time></trkpt>
 <trkpt lat="48.896358700" lon="11.141339900"><ele>530</ele><time>2014-07-04T10:38:31Z</time></trkpt>
 <trkpt lat="48.896406200" lon="11.141323300"><ele>530</ele><time>2014-07-04T10:38:35Z</time></trkpt>
 <trkpt lat="48.896453300" lon="11.141306600"><ele>531</ele><time>2014-07-04T10:38:39Z</time></trkpt>
 <trkpt lat="48.896505400" lon="11.141277900"><ele>531</ele><time>2014-07-04T10:38:43Z</time></trkpt>
 <trkpt lat="48.896556200" lon="11.141248700"><ele>532</ele><time>2014-07-04T10:38:47Z</time></trkpt>
 <trkpt lat="48.896604500" lon="11.141262400"><ele>533</ele><time>2014-07-04T10:38:51Z</time></trkpt>
 <trkpt lat="48.896648300" lon="11.141288300"><ele>534</ele><time>2014-07-04T10:38:55Z</time></trkpt>
 <trkpt lat="48.896679900" lon="11.141346600"><ele>535</ele><time>2014-07-04T10:38:59Z</time></trkpt>
 <trkpt lat="48.896696600" lon="11.141417000"><ele>536</ele><time>2014-07-04T10:39:03Z</time></trkpt>
 <trkpt lat="48.896690300" lon="11.141486200"><ele>538</ele><time>2014-07-04T10:39:07Z</time></trkpt>
 <trkpt lat="48.896682400" lon="11.141568300"><ele>539</ele><time>2014-07-04T10:39:11Z</time></trkpt>
 <trkpt lat="48.896686600" lon="11.141624500"><ele>540</ele><time>2014-07-04T10:39:15Z</time></trkpt>
 <trkpt lat="48.896696600" lon="11.141699100"><ele>542</ele><time>2014-07-04T10:39:19Z</time></trkpt>
 <trkpt lat="48.896709900" lon="11.141772000"><ele>544</ele><time>2014-07-04T10:39:23Z</time></trkpt>
 <trkpt lat="48.896706200" lon="11.141853700"><ele>545</ele><time>2014-07-04T10:39:27Z</time></trkpt>
 <trkpt lat="48.896694100" lon="11.141922900"><ele>547</ele><time>2014-07-04T10:39:31Z</time></trkpt>
 <trkpt lat="48.896691600" lon="11.141974100"><ele>549</ele><time>2014-07-04T10:39:35Z</time></trkpt>
 <trkpt lat="48.896715800" lon="11.142026200"><ele>551</ele><time>2014-07-04T10:39:39Z</time></trkpt>
 <trkpt lat="48.896743700" lon="11.142083700"><ele>552</ele><time>2014-07-04T10:39:43Z</time></trkpt>
 <trkpt lat="48.896763300" lon="11.142167800"><ele>554</ele><time>2014-07-04T10:39:47Z</time></trkpt>
 <trkpt lat="48.896778300" lon="11.142239900"><ele>556</ele><time>2014-07-04T10:39:51Z</time></trkpt>
 <trkpt lat="48.896788200" lon="11.142331200"><ele>557</ele><time>2014-07-04T10:39:55Z</time></trkpt>
 <trkpt lat="48.896699100" lon="11.142457400"><ele>559</ele><time>2014-07-04T10:39:59Z</time></trkpt>
 <trkpt lat="48.896549500" lon="11.142630800"><ele>560</ele><time>2014-07-04T10:40:03Z</time></trkpt>
 <trkpt lat="48.896504500" lon="11.142732900"><ele>562</ele><time>2014-07-04T10:40:07Z</time></trkpt>
 <trkpt lat="48.896460800" lon="11.142811600"><ele>563</ele><time>2014-07-04T10:40:11Z</time></trkpt>
 <trkpt lat="48.896412800" lon="11.142880800"><ele>565</ele><time>2014-07-04T10:40:15Z</time></trkpt>
 <trkpt lat="48.896377400" lon="11.142950800"><ele>566</ele><time>2014-07-04T10:40:19Z</time></trkpt>
 <trkpt lat="48.896340000" lon="11.143020800"><ele>567</ele><time>2014-07-04T10:40:23Z</time></trkpt>
 <trkpt lat="48.896303300" lon="11.143091600"><ele>569</ele><time>2014-07-04T10:40:27Z</time></trkpt>
 <trkpt lat="48.896268300" lon="11.143155300"><ele>570</ele><time>2014-07-04T10:40:31Z</time></trkpt>
 <trkpt lat="48.896242800" lon="11.143224900"><ele>571</ele><time>2014-07-04T10:40:35Z</time></trkpt>
 <trkpt lat="48.896207900" lon="11.143284500"><ele>572</ele><time>2014-07-04T10:40:39Z</time></trkpt>
 <trkpt lat="48.896171200" lon="11.143357000"><ele>573</ele><time>2014-07-04T10:40:43Z</time></trkpt>
 <trkpt lat="48.896146600" lon="11.143418300"><ele>574</ele><time>2014-07-04T10:40:47Z</time></trkpt>
 <trkpt lat="48.896106600" lon="11.143489100"><ele>575</ele><time>2014-07-04T10:40:51Z</time></trkpt>
 <trkpt lat="48.896058300" lon="11.143576200"><ele>576</ele><time>2014-07-04T10:40:55Z</time></trkpt>
 <trkpt lat="48.896018700" lon="11.143662000"><ele>576</ele><time>2014-07-04T10:40:59Z</time></trkpt>
 <trkpt lat="48.895988700" lon="11.143727000"><ele>577</ele><time>2014-07-04T10:41:03Z</time></trkpt>
 <trkpt lat="48.895970700" lon="11.143785300"><ele>577</ele><time>2014-07-04T10:41:07Z</time></trkpt>
 <trkpt lat="48.895945800" lon="11.143839500"><ele>577</ele><time>2014-07-04T10:41:11Z</time></trkpt>
 <trkpt lat="48.895908700" lon="11.143898700"><ele>577</ele><time>2014-07-04T10:41:15Z</time></trkpt>
 <trkpt lat="48.895874900" lon="11.143957400"><ele>576</ele><time>2014-07-04T10:41:19Z</time></trkpt>
 <trkpt lat="48.895852000" lon="11.144002000"><ele>575</ele><time>2014-07-04T10:41:23Z</time></trkpt>
 <trkpt lat="48.895829900" lon="11.144050800"><ele>574</ele><time>2014-07-04T10:41:27Z</time></trkpt>
 <trkpt lat="48.895808300" lon="11.144100800"><ele>573</ele><time>2014-07-04T10:41:31Z</time></trkpt>
 <trkpt lat="48.895782000" lon="11.144130300"><ele>571</ele><time>2014-07-04T10:41:35Z</time></trkpt>
 <trkpt lat="48.895766200" lon="11.144134500"><ele>569</ele><time>2014-07-04T10:41:39Z</time></trkpt>
 <trkpt lat="48.895755800" lon="11.144160300"><ele>567</ele><time>2014-07-04T10:41:43Z</time></trkpt>
 <trkpt lat="48.895732000" lon="11.144208700"><ele>565</ele><time>2014-07-04T10:41:47Z</time></trkpt>
 <trkpt lat="48.895710800" lon="11.144253300"><ele>563</ele><time>2014-07-04T10:41:51Z</time></trkpt>
 <trkpt lat="48.895685800" lon="11.144304100"><ele>561</ele><time>2014-07-04T10:41:55Z</time></trkpt>
 <trkpt lat="48.895663700" lon="11.144364100"><ele>559</ele><time>2014-07-04T10:41:59Z</time></trkpt>
 <trkpt lat="48.895642400" lon="11.144416200"><ele>557</ele><time>2014-07-04T10:42:03Z</time></trkpt>
 <trkpt lat="48.895616600" lon="11.144457800"><ele>554</ele><time>2014-07-04T10:42:07Z</time></trkpt>
 <trkpt lat="48.895587000" lon="11.144508300"><ele>552</ele><time>2014-07-04T10:42:11Z</time></trkpt>
 <trkpt lat="48.895565800" lon="11.144562800"><ele>550</ele><time>2014-07-04T10:42:15Z</time></trkpt>
 <trkpt lat="48.895544500" lon="11.144614500"><ele>548</ele><time>2014-07-04T10:42:19Z</time></trkpt>
 <trkpt lat="48.895517400" lon="11.144677000"><ele>546</ele><time>2014-07-04T10:42:23Z</time></trkpt>
 <trkpt lat="48.895492000" lon="11.144731200"><ele>544</ele><time>2014-07-04T10:42:27Z</time></trkpt>
 <trkpt lat="48.895467900" lon="11.144792000"><ele>543</ele><time>2014-07-04T10:42:31Z</time></trkpt>
 <trkpt lat="48.895435800" lon="11.144851600"><ele>541</ele><time>2014-07-04T10:42:35Z</time></trkpt>
 <trkpt lat="48.895402000" lon="11.144912000"><ele>540</ele><time>2014-07-04T10:42:39Z</time></trkpt>
 <trkpt lat="48.895379500" lon="11.144963700"><ele>539</ele><time>2014-07-04T10:42:43Z</time></trkpt>
 <trkpt lat="48.895357900" lon="11.145013300"><ele>538</ele><time>2014-07-04T10:42:47Z</time></trkpt>
 <trkpt lat="48.895339100" lon="11.145060800"><ele>537</ele><time>2014-07-04T10:42:51Z</time></trkpt>
 <trkpt lat="48.895319100" lon="11.145122400"><ele>536</ele><time>2014-07-04T10:42:55Z</time></trkpt>
 <trkpt lat="48.895294900" lon="11.145177000"><ele>535</ele><time>2014-07-04T10:42:59Z</time></trkpt>
 <trkpt lat="48.895260300" lon="11.145237900"><ele>534</ele><time>2014-07-04T10:43:03Z</time></trkpt>
 <trkpt lat="48.895226600" lon="11.145299500"><ele>533</ele><time>2014-07-04T10:43:07Z</time></trkpt>
 <trkpt lat="48.895189100" lon="11.145370800"><ele>533</ele><time>2014-07-04T10:43:11Z</time></trkpt>
 <trkpt lat="48.895161600" lon="11.145430300"><ele>532</ele><time>2014-07-04T10:43:15Z</time></trkpt>
 <trkpt lat="48.895147400" lon="11.145492800"><ele>532</ele><time>2014-07-04T10:43:19Z</time></trkpt>
 <trkpt lat="48.895132400" lon="11.145538700"><ele>531</ele><time>2014-07-04T10:43:23Z</time></trkpt>
 <trkpt lat="48.895131200" lon="11.145550400"><ele>531</ele><time>2014-07-04T10:43:27Z</time></trkpt>
 <trkpt lat="48.895132800" lon="11.145558700"><ele>530</ele><time>2014-07-04T10:43:31Z</time></trkpt>
 <trkpt lat="48.895136600" lon="11.145565800"><ele>530</ele><time>2014-07-04T10:43:35Z</time></trkpt>
 <trkpt lat="48.895126200" lon="11.145585700"><ele>530</ele><time>2014-07-04T10:43:39Z</time></trkpt>
 <trkpt lat="48.895095400" lon="11.145623300"><ele>529</ele><time>2014-07-04T10:43:43Z</time></trkpt>
 <trkpt lat="48.895058300" lon="11.145687400"><ele>529</ele><time>2014-07-04T10:43:47Z</time></trkpt>
 <trkpt lat="48.895026200" lon="11.145746200"><ele>529</ele><time>2014-07-04T10:43:51Z</time></trkpt>
 <trkpt lat="48.895005300" lon="11.145802800"><ele>528</ele><time>2014-07-04T10:43:55Z</time></trkpt>
 <trkpt lat="48.895002000" lon="11.145866600"><ele>528</ele><time>2014-07-04T10:43:59Z</time></trkpt>
 <trkpt lat="48.894999100" lon="11.145933700"><ele>528</ele><time>2014-07-04T10:44:03Z</time></trkpt>
 <trkpt lat="48.895001600" lon="11.146002400"><ele>527</ele><time>2014-07-04T10:44:07Z</time></trkpt>
 <trkpt lat="48.895007000" lon="11.146068700"><ele>527</ele><time>2014-07-04T10:44:11Z</time></trkpt>
 <trkpt lat="48.895030300" lon="11.146138300"><ele>527</ele><time>2014-07-04T10:44:15Z</time></trkpt>
 <trkpt lat="48.895050400" lon="11.146203700"><ele>526</ele><time>2014-07-04T10:44:19Z</time></trkpt>
 <trkpt lat="48.895062000" lon="11.146260800"><ele>526</ele><time>2014-07-04T10:44:23Z</time></trkpt>
 <trkpt lat="48.895076600" lon="11.146313700"><ele>526</ele><time>2014-07-04T10:44:27Z</time></trkpt>
 <trkpt lat="48.895091200" lon="11.146371600"><ele>525</ele><time>2014-07-04T10:44:31Z</time></trkpt>
 <trkpt lat="48.895104900" lon="11.146422000"><ele>525</ele><time>2014-07-04T10:44:35Z</time></trkpt>
 <trkpt lat="48.895132400" lon="11.146483300"><ele>524</ele><time>2014-07-04T10:44:39Z</time></trkpt>
 <trkpt lat="48.895158300" lon="11.146544900"><ele>524</ele><time>2014-07-04T10:44:43Z</time></trkpt>
 <trkpt lat="48.895182000" lon="11.146627000"><ele>524</ele><time>2014-07-04T10:44:47Z</time></trkpt>
 <trkpt lat="48.895200400" lon="11.146701200"><ele>523</ele><time>2014-07-04T10:44:51Z</time></trkpt>
 <trkpt lat="48.895217800" lon="11.146770800"><ele>523</ele><time>2014-07-04T10:44:55Z</time></trkpt>
 <trkpt lat="48.895228300" lon="11.146837000"><ele>522</ele><time>2014-07-04T10:44:59Z</time></trkpt>
 <trkpt lat="48.895251600" lon="11.146913200"><ele>522</ele><time>2014-07-04T10:45:03Z</time></trkpt>
 <trkpt lat="48.895267000" lon="11.146980400"><ele>521</ele><time>2014-07-04T10:45:07Z</time></trkpt>
 <trkpt lat="48.895289100" lon="11.147033700"><ele>521</ele><time>2014-07-04T10:45:11Z</time></trkpt>
 <trkpt lat="48.895315400" lon="11.147094100"><ele>520</ele><time>2014-07-04T10:45:15Z</time></trkpt>
 <trkpt lat="48.895342400" lon="11.147151600"><ele>520</ele><time>2014-07-04T10:45:19Z</time></trkpt>
 <trkpt lat="48.895353300" lon="11.147207800"><ele>519</ele><time>2014-07-04T10:45:23Z</time></trkpt>
 <trkpt lat="48.895377400" lon="11.147272400"><ele>519</ele><time>2014-07-04T10:45:27Z</time></trkpt>
 <trkpt lat="48.895393700" lon="11.147349100"><ele>518</ele><time>2014-07-04T10:45:31Z</time></trkpt>
 <trkpt lat="48.895419100" lon="11.147412400"><ele>518</ele><time>2014-07-04T10:45:35Z</time></trkpt>
 <trkpt lat="48.895454900" lon="11.147471200"><ele>517</ele><time>2014-07-04T10:45:39Z</time></trkpt>
 <trkpt lat="48.895482900" lon="11.147529900"><ele>516</ele><time>2014-07-04T10:45:43Z</time></trkpt>
 <trkpt lat="48.895516600" lon="11.147579500"><ele>516</ele><time>2014-07-04T10:45:47Z</time></trkpt>
 <trkpt lat="48.895554500" lon="11.147640300"><ele>515</ele><time>2014-07-04T10:45:51Z</time></trkpt>
 <trkpt lat="48.895574100" lon="11.147694900"><ele>515</ele><time>2014-07-04T10:45:55Z</time></trkpt>
 <trkpt lat="48.895594900" lon="11.147754500"><ele>514</ele><time>2014-07-04T10:45:59Z</time></trkpt>
 <trkpt lat="48.895592000" lon="11.147826200"><ele>514</ele><time>2014-07-04T10:46:03Z</time></trkpt>
 <trkpt lat="48.895594100" lon="11.147885300"><ele>513</ele><time>2014-07-04T10:46:07Z</time></trkpt>
 <trkpt lat="48.895626200" lon="11.147935300"><ele>513</ele><time>2014-07-04T10:46:11Z</time></trkpt>
 <trkpt lat="48.895654500" lon="11.147992400"><ele>513</ele><time>2014-07-04T10:46:15Z</time></trkpt>
 <trkpt lat="48.895674900" lon="11.148039100"><ele>512</ele><time>2014-07-04T10:46:19Z</time></trkpt>
 <trkpt lat="48.895682400" lon="11.148096600"><ele>512</ele><time>2014-07-04T10:46:23Z</time></trkpt>
 <trkpt lat="48.895687000" lon="11.148190300"><ele>512</ele><time>2014-07-04T10:46:27Z</time></trkpt>
 <trkpt lat="48.895681200" lon="11.148250300"><ele>512</ele><time>2014-07-04T10:46:31Z</time></trkpt>
 <trkpt lat="48.895678300" lon="11.148272800"><ele>511</ele><time>2014-07-04T10:46:35Z</time></trkpt>
 <trkpt lat="48.895672800" lon="11.148273700"><ele>511</ele><time>2014-07-04T10:46:39Z</time></trkpt>
 <trkpt lat="48.895680800" lon="11.148277400"><ele>511</ele><time>2014-07-04T10:46:43Z</time></trkpt>
 <trkpt lat="48.895702900" lon="11.148298300"><ele>511</ele><time>2014-07-04T10:46:47Z</time></trkpt>
 <trkpt lat="48.895719100" lon="11.148321200"><ele>511</ele><time>2014-07-04T10:46:51Z</time></trkpt>
 <trkpt lat="48.895712800" lon="11.148324500"><ele>511</ele><time>2014-07-04T10:46:55Z</time></trkpt>
 <trkpt lat="48.895707400" lon="11.148319100"><ele>512</ele><time>2014-07-04T10:46:59Z</time></trkpt>
 <trkpt lat="48.895695800" lon="11.148314100"><ele>512</ele><time>2014-07-04T10:47:03Z</time></trkpt>
 <trkpt lat="48.895695800" lon="11.148314100"><ele>512</ele><time>2014-07-04T10:47:07Z</time></trkpt>
 <trkpt lat="48.895712900" lon="11.148311600"><ele>512</ele><time>2014-07-04T10:47:11Z</time></trkpt>
 <trkpt lat="48.895712900" lon="11.148311600"><ele>512</ele><time>2014-07-04T10:47:15Z</time></trkpt>
 <trkpt lat="48.895716600" lon="11.148319900"><ele>513</ele><time>2014-07-04T10:47:19Z</time></trkpt>
 <trkpt lat="48.895746600" lon="11.148338700"><ele>513</ele><time>2014-07-04T10:47:23Z</time></trkpt>
 <trkpt lat="48.895767400" lon="11.148344100"><ele>513</ele><time>2014-07-04T10:47:27Z</time></trkpt>
 <trkpt lat="48.895774500" lon="11.148346200"><ele>513</ele><time>2014-07-04T10:47:31Z</time></trkpt>
 <trkpt lat="48.895779900" lon="11.148349500"><ele>513</ele><time>2014-07-04T10:47:35Z</time></trkpt>
 <trkpt lat="48.895779900" lon="11.148349500"><ele>514</ele><time>2014-07-04T10:47:39Z</time></trkpt>
 <trkpt lat="48.895782400" lon="11.148357800"><ele>514</ele><time>2014-07-04T10:47:43Z</time></trkpt>
 <trkpt lat="48.895789900" lon="11.148373700"><ele>514</ele><time>2014-07-04T10:47:47Z</time></trkpt>
 <trkpt lat="48.895790800" lon="11.148382000"><ele>514</ele><time>2014-07-04T10:47:51Z</time></trkpt>
 <trkpt lat="48.895788700" lon="11.148390800"><ele>514</ele><time>2014-07-04T10:47:55Z</time></trkpt>
 <trkpt lat="48.895788700" lon="11.148399900"><ele>514</ele><time>2014-07-04T10:47:59Z</time></trkpt>
 <trkpt lat="48.895790000" lon="11.148410300"><ele>514</ele><time>2014-07-04T10:48:03Z</time></trkpt>
 <trkpt lat="48.895790000" lon="11.148410300"><ele>515</ele><time>2014-07-04T10:48:07Z</time></trkpt>
 <trkpt lat="48.895788700" lon="11.148418300"><ele>515</ele><time>2014-07-04T10:48:11Z</time></trkpt>
 <trkpt lat="48.895801600" lon="11.148427400"><ele>515</ele><time>2014-07-04T10:48:15Z</time></trkpt>
 <trkpt lat="48.895809100" lon="11.148401600"><ele>515</ele><time>2014-07-04T10:48:19Z</time></trkpt>
 <trkpt lat="48.895802900" lon="11.148376600"><ele>515</ele><time>2014-07-04T10:48:23Z</time></trkpt>
 <trkpt lat="48.895799900" lon="11.148367000"><ele>515</ele><time>2014-07-04T10:48:27Z</time></trkpt>
 <trkpt lat="48.895799900" lon="11.148367000"><ele>515</ele><time>2014-07-04T10:48:31Z</time></trkpt>
 <trkpt lat="48.895799900" lon="11.148367000"><ele>515</ele><time>2014-07-04T10:48:35Z</time></trkpt>
 <trkpt lat="48.895799900" lon="11.148367000"><ele>515</ele><time>2014-07-04T10:48:39Z</time></trkpt>
 <trkpt lat="48.895799900" lon="11.148367000"><ele>516</ele><time>2014-07-04T10:48:43Z</time></trkpt>
 <trkpt lat="48.895799900" lon="11.148367000"><ele>516</ele><time>2014-07-04T10:48:47Z</time></trkpt>
 <trkpt lat="48.895797400" lon="11.148376200"><ele>516</ele><time>2014-07-04T10:48:51Z</time></trkpt>
 <trkpt lat="48.895803700" lon="11.148408200"><ele>516</ele><time>2014-07-04T10:48:55Z</time></trkpt>
 <trkpt lat="48.895804500" lon="11.148439100"><ele>517</ele><time>2014-07-04T10:48:59Z</time></trkpt>
 <trkpt lat="48.895806600" lon="11.148449500"><ele>517</ele><time>2014-07-04T10:49:03Z</time></trkpt>
 <trkpt lat="48.895809100" lon="11.148440700"><ele>517</ele><time>2014-07-04T10:49:07Z</time></trkpt>
 <trkpt lat="48.895814100" lon="11.148448700"><ele>518</ele><time>2014-07-04T10:49:11Z</time></trkpt>
 <trkpt lat="48.895834100" lon="11.148494100"><ele>518</ele><time>2014-07-04T10:49:15Z</time></trkpt>
 <trkpt lat="48.895846600" lon="11.148556600"><ele>518</ele><time>2014-07-04T10:49:19Z</time></trkpt>
 <trkpt lat="48.895864100" lon="11.148619500"><ele>518</ele><time>2014-07-04T10:49:23Z</time></trkpt>
 <trkpt lat="48.895879100" lon="11.148672400"><ele>519</ele><time>2014-07-04T10:49:27Z</time></trkpt>
 <trkpt lat="48.895891600" lon="11.148720800"><ele>519</ele><time>2014-07-04T10:49:31Z</time></trkpt>
 <trkpt lat="48.895914900" lon="11.148774100"><ele>519</ele><time>2014-07-04T10:49:35Z</time></trkpt>
 <trkpt lat="48.895930300" lon="11.148820800"><ele>520</ele><time>2014-07-04T10:49:39Z</time></trkpt>
 <trkpt lat="48.895953300" lon="11.148877000"><ele>520</ele><time>2014-07-04T10:49:43Z</time></trkpt>
 <trkpt lat="48.895985800" lon="11.148944500"><ele>520</ele><time>2014-07-04T10:49:47Z</time></trkpt>
 <trkpt lat="48.896012800" lon="11.149004500"><ele>520</ele><time>2014-07-04T10:49:51Z</time></trkpt>
 <trkpt lat="48.896021600" lon="11.149047400"><ele>521</ele><time>2014-07-04T10:49:55Z</time></trkpt>
 <trkpt lat="48.896029500" lon="11.149074100"><ele>521</ele><time>2014-07-04T10:49:59Z</time></trkpt>
 <trkpt lat="48.896039100" lon="11.149094500"><ele>521</ele><time>2014-07-04T10:50:03Z</time></trkpt>
 <trkpt lat="48.896042000" lon="11.149113700"><ele>521</ele><time>2014-07-04T10:50:07Z</time></trkpt>
 <trkpt lat="48.896063700" lon="11.149108700"><ele>521</ele><time>2014-07-04T10:50:11Z</time></trkpt>
 <trkpt lat="48.896092000" lon="11.149089900"><ele>522</ele><time>2014-07-04T10:50:15Z</time></trkpt>
 <trkpt lat="48.896120700" lon="11.149074100"><ele>522</ele><time>2014-07-04T10:50:19Z</time></trkpt>
 <trkpt lat="48.896134500" lon="11.149054900"><ele>522</ele><time>2014-07-04T10:50:23Z</time></trkpt>
 <trkpt lat="48.896147000" lon="11.149024500"><ele>522</ele><time>2014-07-04T10:50:27Z</time></trkpt>
 <trkpt lat="48.896164500" lon="11.149004100"><ele>522</ele><time>2014-07-04T10:50:31Z</time></trkpt>
 <trkpt lat="48.896188200" lon="11.148962900"><ele>522</ele><time>2014-07-04T10:50:35Z</time></trkpt>
 <trkpt lat="48.896219500" lon="11.148946600"><ele>522</ele><time>2014-07-04T10:50:39Z</time></trkpt>
 <trkpt lat="48.896249500" lon="11.148924900"><ele>522</ele><time>2014-07-04T10:50:43Z</time></trkpt>
 <trkpt lat="48.896283300" lon="11.148896600"><ele>523</ele><time>2014-07-04T10:50:47Z</time></trkpt>
 <trkpt lat="48.896317800" lon="11.148838300"><ele>523</ele><time>2014-07-04T10:50:51Z</time></trkpt>
 <trkpt lat="48.896359100" lon="11.148796600"><ele>523</ele><time>2014-07-04T10:50:55Z</time></trkpt>
 <trkpt lat="48.896397900" lon="11.148792000"><ele>523</ele><time>2014-07-04T10:50:59Z</time></trkpt>
 <trkpt lat="48.896449500" lon="11.148822800"><ele>523</ele><time>2014-07-04T10:51:03Z</time></trkpt>
 <trkpt lat="48.896473700" lon="11.148835300"><ele>523</ele><time>2014-07-04T10:51:07Z</time></trkpt>
 <trkpt lat="48.896499100" lon="11.148860800"><ele>524</ele><time>2014-07-04T10:51:11Z</time></trkpt>
 <trkpt lat="48.896534500" lon="11.148886600"><ele>524</ele><time>2014-07-04T10:51:15Z</time></trkpt>
 <trkpt lat="48.896585800" lon="11.148916600"><ele>524</ele><time>2014-07-04T10:51:19Z</time></trkpt>
 <trkpt lat="48.896619500" lon="11.148941600"><ele>524</ele><time>2014-07-04T10:51:23Z</time></trkpt>
 <trkpt lat="48.896659900" lon="11.148956200"><ele>525</ele><time>2014-07-04T10:51:27Z</time></trkpt>
 <trkpt lat="48.896702800" lon="11.148971600"><ele>525</ele><time>2014-07-04T10:51:31Z</time></trkpt>
 <trkpt lat="48.896742400" lon="11.148977400"><ele>525</ele><time>2014-07-04T10:51:35Z</time></trkpt>
 <trkpt lat="48.896781600" lon="11.149000800"><ele>525</ele><time>2014-07-04T10:51:39Z</time></trkpt>
 <trkpt lat="48.896812900" lon="11.149034900"><ele>526</ele><time>2014-07-04T10:51:43Z</time></trkpt>
 <trkpt lat="48.896846200" lon="11.149068700"><ele>526</ele><time>2014-07-04T10:51:47Z</time></trkpt>
 <trkpt lat="48.896892900" lon="11.149104500"><ele>526</ele><time>2014-07-04T10:51:51Z</time></trkpt>
 <trkpt lat="48.896929500" lon="11.149154500"><ele>526</ele><time>2014-07-04T10:51:55Z</time></trkpt>
 <trkpt lat="48.896968300" lon="11.149203700"><ele>526</ele><time>2014-07-04T10:51:59Z</time></trkpt>
 <trkpt lat="48.897011600" lon="11.149252800"><ele>527</ele><time>2014-07-04T10:52:03Z</time></trkpt>
 <trkpt lat="48.897049900" lon="11.149297000"><ele>527</ele><time>2014-07-04T10:52:07Z</time></trkpt>
 <trkpt lat="48.897085300" lon="11.149336600"><ele>527</ele><time>2014-07-04T10:52:11Z</time></trkpt>
 <trkpt lat="48.897120800" lon="11.149364100"><ele>527</ele><time>2014-07-04T10:52:15Z</time></trkpt>
 <trkpt lat="48.897157000" lon="11.149391200"><ele>527</ele><time>2014-07-04T10:52:19Z</time></trkpt>
 <trkpt lat="48.897194100" lon="11.149424100"><ele>527</ele><time>2014-07-04T10:52:23Z</time></trkpt>
 <trkpt lat="48.897222400" lon="11.149438700"><ele>527</ele><time>2014-07-04T10:52:27Z</time></trkpt>
 <trkpt lat="48.897250800" lon="11.149451600"><ele>527</ele><time>2014-07-04T10:52:31Z</time></trkpt>
 <trkpt lat="48.897281600" lon="11.149480400"><ele>527</ele><time>2014-07-04T10:52:35Z</time></trkpt>
 <trkpt lat="48.897314100" lon="11.149510800"><ele>527</ele><time>2014-07-04T10:52:39Z</time></trkpt>
 <trkpt lat="48.897342800" lon="11.149543300"><ele>527</ele><time>2014-07-04T10:52:43Z</time></trkpt>
 <trkpt lat="48.897376600" lon="11.149569900"><ele>527</ele><time>2014-07-04T10:52:47Z</time></trkpt>
 <trkpt lat="48.897413700" lon="11.149597000"><ele>527</ele><time>2014-07-04T10:52:51Z</time></trkpt>
 <trkpt lat="48.897449100" lon="11.149634900"><ele>526</ele><time>2014-07-04T10:52:55Z</time></trkpt>
 <trkpt lat="48.897483300" lon="11.149670700"><ele>526</ele><time>2014-07-04T10:52:59Z</time></trkpt>
 <trkpt lat="48.897515300" lon="11.149697400"><ele>526</ele><time>2014-07-04T10:53:03Z</time></trkpt>
 <trkpt lat="48.897552000" lon="11.149747000"><ele>526</ele><time>2014-07-04T10:53:07Z</time></trkpt>
 <trkpt lat="48.897595300" lon="11.149786200"><ele>526</ele><time>2014-07-04T10:53:11Z</time></trkpt>
 <trkpt lat="48.897631600" lon="11.149820800"><ele>526</ele><time>2014-07-04T10:53:15Z</time></trkpt>
 <trkpt lat="48.897669500" lon="11.149868300"><ele>526</ele><time>2014-07-04T10:53:19Z</time></trkpt>
 <trkpt lat="48.897705300" lon="11.149914100"><ele>525</ele><time>2014-07-04T10:53:23Z</time></trkpt>
 <trkpt lat="48.897743700" lon="11.149942400"><ele>525</ele><time>2014-07-04T10:53:27Z</time></trkpt>
 <trkpt lat="48.897773700" lon="11.149973200"><ele>525</ele><time>2014-07-04T10:53:31Z</time></trkpt>
 <trkpt lat="48.897809500" lon="11.150014500"><ele>525</ele><time>2014-07-04T10:53:35Z</time></trkpt>
 <trkpt lat="48.897833300" lon="11.150042400"><ele>525</ele><time>2014-07-04T10:53:39Z</time></trkpt>
 <trkpt lat="48.897824900" lon="11.150059900"><ele>525</ele><time>2014-07-04T10:53:43Z</time></trkpt>
 <trkpt lat="48.897824900" lon="11.150059900"><ele>525</ele><time>2014-07-04T10:53:47Z</time></trkpt>
 <trkpt lat="48.897838700" lon="11.150058300"><ele>525</ele><time>2014-07-04T10:53:51Z</time></trkpt>
 <trkpt lat="48.897844900" lon="11.150057400"><ele>525</ele><time>2014-07-04T10:53:55Z</time></trkpt>
 <trkpt lat="48.897844900" lon="11.150057400"><ele>525</ele><time>2014-07-04T10:53:59Z</time></trkpt>
 <trkpt lat="48.897850300" lon="11.150061200"><ele>525</ele><time>2014-07-04T10:54:03Z</time></trkpt>
 <trkpt lat="48.897856200" lon="11.150057800"><ele>525</ele><time>2014-07-04T10:54:07Z</time></trkpt>
 <trkpt lat="48.897862400" lon="11.150052400"><ele>525</ele><time>2014-07-04T10:54:11Z</time></trkpt>
 <trkpt lat="48.897867000" lon="11.150047000"><ele>525</ele><time>2014-07-04T10:54:15Z</time></trkpt>
 <trkpt lat="48.897867000" lon="11.150047000"><ele>525</ele><time>2014-07-04T10:54:19Z</time></trkpt>
 <trkpt lat="48.897867000" lon="11.150047000"><ele>525</ele><time>2014-07-04T10:54:23Z</time></trkpt>
 <trkpt lat="48.897867000" lon="11.150047000"><ele>525</ele><time>2014-07-04T10:54:27Z</time></trkpt>
 <trkpt lat="48.897894500" lon="11.150081600"><ele>525</ele><time>2014-07-04T10:54:31Z</time></trkpt>
 <trkpt lat="48.897933700" lon="11.150120400"><ele>525</ele><time>2014-07-04T10:54:35Z</time></trkpt>
 <trkpt lat="48.897966600" lon="11.150156200"><ele>525</ele><time>2014-07-04T10:54:39Z</time></trkpt>
 <trkpt lat="48.898001600" lon="11.150197800"><ele>525</ele><time>2014-07-04T10:54:43Z</time></trkpt>
 <trkpt lat="48.898041200" lon="11.150237800"><ele>525</ele><time>2014-07-04T10:54:47Z</time></trkpt>
 <trkpt lat="48.898078700" lon="11.150281200"><ele>525</ele><time>2014-07-04T10:54:51Z</time></trkpt>
 <trkpt lat="48.898113700" lon="11.150322800"><ele>524</ele><time>2014-07-04T10:54:55Z</time></trkpt>
 <trkpt lat="48.898145800" lon="11.150367900"><ele>524</ele><time>2014-07-04T10:54:59Z</time></trkpt>
 <trkpt lat="48.898181200" lon="11.150403700"><ele>524</ele><time>2014-07-04T10:55:03Z</time></trkpt>
 <trkpt lat="48.898207900" lon="11.150443700"><ele>524</ele><time>2014-07-04T10:55:07Z</time></trkpt>
 <trkpt lat="48.898239900" lon="11.150483300"><ele>523</ele><time>2014-07-04T10:55:11Z</time></trkpt>
 <trkpt lat="48.898284500" lon="11.150530400"><ele>523</ele><time>2014-07-04T10:55:15Z</time></trkpt>
 <trkpt lat="48.898327400" lon="11.150571200"><ele>523</ele><time>2014-07-04T10:55:19Z</time></trkpt>
 <trkpt lat="48.898366600" lon="11.150618700"><ele>523</ele><time>2014-07-04T10:55:23Z</time></trkpt>
 <trkpt lat="48.898404900" lon="11.150662400"><ele>523</ele><time>2014-07-04T10:55:27Z</time></trkpt>
 <trkpt lat="48.898440800" lon="11.150705300"><ele>523</ele><time>2014-07-04T10:55:31Z</time></trkpt>
 <trkpt lat="48.898472800" lon="11.150750700"><ele>523</ele><time>2014-07-04T10:55:35Z</time></trkpt>
 <trkpt lat="48.898517000" lon="11.150793200"><ele>523</ele><time>2014-07-04T10:55:39Z</time></trkpt>
 <trkpt lat="48.898558300" lon="11.150839900"><ele>523</ele><time>2014-07-04T10:55:43Z</time></trkpt>
 <trkpt lat="48.898600000" lon="11.150873700"><ele>523</ele><time>2014-07-04T10:55:47Z</time></trkpt>
 <trkpt lat="48.898641200" lon="11.150909100"><ele>524</ele><time>2014-07-04T10:55:51Z</time></trkpt>
 <trkpt lat="48.898682400" lon="11.150954500"><ele>524</ele><time>2014-07-04T10:55:55Z</time></trkpt>
 <trkpt lat="48.898719500" lon="11.150999500"><ele>524</ele><time>2014-07-04T10:55:59Z</time></trkpt>
 <trkpt lat="48.898760300" lon="11.151042400"><ele>525</ele><time>2014-07-04T10:56:03Z</time></trkpt>
 <trkpt lat="48.898798700" lon="11.151098300"><ele>525</ele><time>2014-07-04T10:56:07Z</time></trkpt>
 <trkpt lat="48.898834900" lon="11.151144100"><ele>526</ele><time>2014-07-04T10:56:11Z</time></trkpt>
 <trkpt lat="48.898864500" lon="11.151183200"><ele>526</ele><time>2014-07-04T10:56:15Z</time></trkpt>
 <trkpt lat="48.898899900" lon="11.151223700"><ele>527</ele><time>2014-07-04T10:56:19Z</time></trkpt>
 <trkpt lat="48.898932000" lon="11.151257000"><ele>528</ele><time>2014-07-04T10:56:23Z</time></trkpt>
 <trkpt lat="48.898971600" lon="11.151303300"><ele>528</ele><time>2014-07-04T10:56:27Z</time></trkpt>
 <trkpt lat="48.898997400" lon="11.151341600"><ele>529</ele><time>2014-07-04T10:56:31Z</time></trkpt>
 <trkpt lat="48.899034100" lon="11.151377000"><ele>529</ele><time>2014-07-04T10:56:35Z</time></trkpt>
 <trkpt lat="48.899027000" lon="11.151444100"><ele>530</ele><time>2014-07-04T10:56:39Z</time></trkpt>
 <trkpt lat="48.898994900" lon="11.151505400"><ele>530</ele><time>2014-07-04T10:56:43Z</time></trkpt>
 <trkpt lat="48.898963300" lon="11.151574100"><ele>531</ele><time>2014-07-04T10:56:47Z</time></trkpt>
 <trkpt lat="48.898925800" lon="11.151635300"><ele>531</ele><time>2014-07-04T10:56:51Z</time></trkpt>
 <trkpt lat="48.898896600" lon="11.151707000"><ele>532</ele><time>2014-07-04T10:56:55Z</time></trkpt>
 <trkpt lat="48.898866200" lon="11.151764500"><ele>532</ele><time>2014-07-04T10:56:59Z</time></trkpt>
 <trkpt lat="48.898832900" lon="11.151847900"><ele>533</ele><time>2014-07-04T10:57:03Z</time></trkpt>
 <trkpt lat="48.898802900" lon="11.151917400"><ele>533</ele><time>2014-07-04T10:57:07Z</time></trkpt>
 <trkpt lat="48.898771200" lon="11.151983300"><ele>533</ele><time>2014-07-04T10:57:11Z</time></trkpt>
 <trkpt lat="48.898746200" lon="11.152047400"><ele>533</ele><time>2014-07-04T10:57:15Z</time></trkpt>
 <trkpt lat="48.898717000" lon="11.152108700"><ele>533</ele><time>2014-07-04T10:57:19Z</time></trkpt>
 <trkpt lat="48.898684500" lon="11.152152900"><ele>533</ele><time>2014-07-04T10:57:23Z</time></trkpt>
 <trkpt lat="48.898655300" lon="11.152229500"><ele>533</ele><time>2014-07-04T10:57:27Z</time></trkpt>
 <trkpt lat="48.898625800" lon="11.152287000"><ele>533</ele><time>2014-07-04T10:57:31Z</time></trkpt>
 <trkpt lat="48.898594500" lon="11.152350400"><ele>533</ele><time>2014-07-04T10:57:35Z</time></trkpt>
 <trkpt lat="48.898570300" lon="11.152405000"><ele>533</ele><time>2014-07-04T10:57:39Z</time></trkpt>
 <trkpt lat="48.898547900" lon="11.152464500"><ele>532</ele><time>2014-07-04T10:57:43Z</time></trkpt>
 <trkpt lat="48.898522000" lon="11.152513700"><ele>532</ele><time>2014-07-04T10:57:47Z</time></trkpt>
 <trkpt lat="48.898489500" lon="11.152572400"><ele>531</ele><time>2014-07-04T10:57:51Z</time></trkpt>
 <trkpt lat="48.898454100" lon="11.152619900"><ele>531</ele><time>2014-07-04T10:57:55Z</time></trkpt>
 <trkpt lat="48.898416200" lon="11.152670000"><ele>530</ele><time>2014-07-04T10:57:59Z</time></trkpt>
 <trkpt lat="48.898379500" lon="11.152729900"><ele>530</ele><time>2014-07-04T10:58:03Z</time></trkpt>
 <trkpt lat="48.898343300" lon="11.152786200"><ele>529</ele><time>2014-07-04T10:58:07Z</time></trkpt>
 <trkpt lat="48.898313300" lon="11.152849100"><ele>529</ele><time>2014-07-04T10:58:11Z</time></trkpt>
 <trkpt lat="48.898286200" lon="11.152899100"><ele>528</ele><time>2014-07-04T10:58:15Z</time></trkpt>
 <trkpt lat="48.898266600" lon="11.152954100"><ele>528</ele><time>2014-07-04T10:58:19Z</time></trkpt>
 <trkpt lat="48.898243300" lon="11.153001600"><ele>527</ele><time>2014-07-04T10:58:23Z</time></trkpt>
 <trkpt lat="48.898213300" lon="11.153064900"><ele>526</ele><time>2014-07-04T10:58:27Z</time></trkpt>
 <trkpt lat="48.898179100" lon="11.153119500"><ele>526</ele><time>2014-07-04T10:58:31Z</time></trkpt>
 <trkpt lat="48.898147800" lon="11.153179500"><ele>525</ele><time>2014-07-04T10:58:35Z</time></trkpt>
 <trkpt lat="48.898104900" lon="11.153226200"><ele>524</ele><time>2014-07-04T10:58:39Z</time></trkpt>
 <trkpt lat="48.898076200" lon="11.153273700"><ele>524</ele><time>2014-07-04T10:58:43Z</time></trkpt>
 <trkpt lat="48.898040800" lon="11.153321200"><ele>523</ele><time>2014-07-04T10:58:47Z</time></trkpt>
 <trkpt lat="48.898010300" lon="11.153366600"><ele>523</ele><time>2014-07-04T10:58:51Z</time></trkpt>
 <trkpt lat="48.897978700" lon="11.153419100"><ele>522</ele><time>2014-07-04T10:58:55Z</time></trkpt>
 <trkpt lat="48.897948700" lon="11.153465800"><ele>521</ele><time>2014-07-04T10:58:59Z</time></trkpt>
 <trkpt lat="48.897922000" lon="11.153516600"><ele>521</ele><time>2014-07-04T10:59:03Z</time></trkpt>
 <trkpt lat="48.897890800" lon="11.153564500"><ele>520</ele><time>2014-07-04T10:59:07Z</time></trkpt>
 <trkpt lat="48.897871200" lon="11.153622400"><ele>520</ele><time>2014-07-04T10:59:11Z</time></trkpt>
 <trkpt lat="48.897839500" lon="11.153672400"><ele>519</ele><time>2014-07-04T10:59:15Z</time></trkpt>
 <trkpt lat="48.897819100" lon="11.153724100"><ele>519</ele><time>2014-07-04T10:59:19Z</time></trkpt>
 <trkpt lat="48.897801600" lon="11.153775400"><ele>518</ele><time>2014-07-04T10:59:23Z</time></trkpt>
 <trkpt lat="48.897779900" lon="11.153834100"><ele>517</ele><time>2014-07-04T10:59:27Z</time></trkpt>
 <trkpt lat="48.897766200" lon="11.153886600"><ele>517</ele><time>2014-07-04T10:59:31Z</time></trkpt>
 <trkpt lat="48.897754100" lon="11.153950800"><ele>516</ele><time>2014-07-04T10:59:35Z</time></trkpt>
 <trkpt lat="48.897747800" lon="11.154014900"><ele>516</ele><time>2014-07-04T10:59:39Z</time></trkpt>
 <trkpt lat="48.897744500" lon="11.154065800"><ele>515</ele><time>2014-07-04T10:59:43Z</time></trkpt>
 <trkpt lat="48.897742000" lon="11.154115400"><ele>515</ele><time>2014-07-04T10:59:47Z</time></trkpt>
 <trkpt lat="48.897736600" lon="11.154134100"><ele>514</ele><time>2014-07-04T10:59:51Z</time></trkpt>
 <trkpt lat="48.897730300" lon="11.154135300"><ele>514</ele><time>2014-07-04T10:59:55Z</time></trkpt>
 <trkpt lat="48.897726200" lon="11.154128700"><ele>514</ele><time>2014-07-04T10:59:59Z</time></trkpt>
 <trkpt lat="48.897726200" lon="11.154128700"><ele>514</ele><time>2014-07-04T11:00:03Z</time></trkpt>
 <trkpt lat="48.897726200" lon="11.154128700"><ele>513</ele><time>2014-07-04T11:00:07Z</time></trkpt>
 <trkpt lat="48.897719500" lon="11.154174900"><ele>513</ele><time>2014-07-04T11:00:11Z</time></trkpt>
 <trkpt lat="48.897709500" lon="11.154247000"><ele>513</ele><time>2014-07-04T11:00:15Z</time></trkpt>
 <trkpt lat="48.897697400" lon="11.154305800"><ele>512</ele><time>2014-07-04T11:00:19Z</time></trkpt>
 <trkpt lat="48.897682800" lon="11.154367400"><ele>512</ele><time>2014-07-04T11:00:23Z</time></trkpt>
 <trkpt lat="48.897685300" lon="11.154414500"><ele>512</ele><time>2014-07-04T11:00:27Z</time></trkpt>
 <trkpt lat="48.897670300" lon="11.154473200"><ele>511</ele><time>2014-07-04T11:00:31Z</time></trkpt>
 <trkpt lat="48.897648700" lon="11.154523700"><ele>511</ele><time>2014-07-04T11:00:35Z</time></trkpt>
 <trkpt lat="48.897620300" lon="11.154589100"><ele>511</ele><time>2014-07-04T11:00:39Z</time></trkpt>
 <trkpt lat="48.897604900" lon="11.154649100"><ele>511</ele><time>2014-07-04T11:00:43Z</time></trkpt>
 <trkpt lat="48.897585300" lon="11.154704100"><ele>510</ele><time>2014-07-04T11:00:47Z</time></trkpt>
 <trkpt lat="48.897575300" lon="11.154750300"><ele>510</ele><time>2014-07-04T11:00:51Z</time></trkpt>
 <trkpt lat="48.897561200" lon="11.154806200"><ele>509</ele><time>2014-07-04T11:00:55Z</time></trkpt>
 <trkpt lat="48.897536600" lon="11.154862800"><ele>509</ele><time>2014-07-04T11:00:59Z</time></trkpt>
 <trkpt lat="48.897519500" lon="11.154912900"><ele>509</ele><time>2014-07-04T11:01:03Z</time></trkpt>
 <trkpt lat="48.897497500" lon="11.154967000"><ele>508</ele><time>2014-07-04T11:01:07Z</time></trkpt>
 <trkpt lat="48.897477400" lon="11.155017000"><ele>508</ele><time>2014-07-04T11:01:11Z</time></trkpt>
 <trkpt lat="48.897466600" lon="11.155084900"><ele>507</ele><time>2014-07-04T11:01:15Z</time></trkpt>
 <trkpt lat="48.897462000" lon="11.155159900"><ele>507</ele><time>2014-07-04T11:01:19Z</time></trkpt>
 <trkpt lat="48.897444100" lon="11.155211600"><ele>506</ele><time>2014-07-04T11:01:23Z</time></trkpt>
 <trkpt lat="48.897415300" lon="11.155264100"><ele>506</ele><time>2014-07-04T11:01:27Z</time></trkpt>
 <trkpt lat="48.897388700" lon="11.155307400"><ele>506</ele><time>2014-07-04T11:01:31Z</time></trkpt>
 <trkpt lat="48.897367400" lon="11.155349100"><ele>505</ele><time>2014-07-04T11:01:35Z</time></trkpt>
 <trkpt lat="48.897350700" lon="11.155389500"><ele>505</ele><time>2014-07-04T11:01:39Z</time></trkpt>
 <trkpt lat="48.897345800" lon="11.155399900"><ele>505</ele><time>2014-07-04T11:01:43Z</time></trkpt>
 <trkpt lat="48.897345800" lon="11.155399900"><ele>504</ele><time>2014-07-04T11:01:47Z</time></trkpt>
 <trkpt lat="48.897339900" lon="11.155402000"><ele>504</ele><time>2014-07-04T11:01:51Z</time></trkpt>
 <trkpt lat="48.897339900" lon="11.155402000"><ele>504</ele><time>2014-07-04T11:01:55Z</time></trkpt>
 <trkpt lat="48.897339900" lon="11.155402000"><ele>504</ele><time>2014-07-04T11:01:59Z</time></trkpt>
 <trkpt lat="48.897332000" lon="11.155422800"><ele>503</ele><time>2014-07-04T11:02:03Z</time></trkpt>
 <trkpt lat="48.897315800" lon="11.155470800"><ele>503</ele><time>2014-07-04T11:02:07Z</time></trkpt>
 <trkpt lat="48.897292800" lon="11.155536200"><ele>503</ele><time>2014-07-04T11:02:11Z</time></trkpt>
 <trkpt lat="48.897271600" lon="11.155622000"><ele>503</ele><time>2014-07-04T11:02:15Z</time></trkpt>
 <trkpt lat="48.897256200" lon="11.155664900"><ele>503</ele><time>2014-07-04T11:02:19Z</time></trkpt>
 <trkpt lat="48.897255300" lon="11.155674500"><ele>502</ele><time>2014-07-04T11:02:23Z</time></trkpt>
 <trkpt lat="48.897241200" lon="11.155704900"><ele>502</ele><time>2014-07-04T11:02:27Z</time></trkpt>
 <trkpt lat="48.897229900" lon="11.155754100"><ele>502</ele><time>2014-07-04T11:02:31Z</time></trkpt>
 <trkpt lat="48.897217000" lon="11.155792800"><ele>502</ele><time>2014-07-04T11:02:35Z</time></trkpt>
 <trkpt lat="48.897182800" lon="11.155832000"><ele>501</ele><time>2014-07-04T11:02:39Z</time></trkpt>
 <trkpt lat="48.897154900" lon="11.155873200"><ele>501</ele><time>2014-07-04T11:02:43Z</time></trkpt>
 <trkpt lat="48.897130800" lon="11.155906600"><ele>501</ele><time>2014-07-04T11:02:47Z</time></trkpt>
 <trkpt lat="48.897103300" lon="11.155942000"><ele>500</ele><time>2014-07-04T11:02:51Z</time></trkpt>
 <trkpt lat="48.897081200" lon="11.155962900"><ele>500</ele><time>2014-07-04T11:02:55Z</time></trkpt>
 <trkpt lat="48.897049900" lon="11.155987400"><ele>499</ele><time>2014-07-04T11:02:59Z</time></trkpt>
 <trkpt lat="48.897011200" lon="11.156015300"><ele>499</ele><time>2014-07-04T11:03:03Z</time></trkpt>
 <trkpt lat="48.896972000" lon="11.156049900"><ele>499</ele><time>2014-07-04T11:03:07Z</time></trkpt>
 <trkpt lat="48.896937800" lon="11.156074100"><ele>498</ele><time>2014-07-04T11:03:11Z</time></trkpt>
 <trkpt lat="48.896901600" lon="11.156092400"><ele>498</ele><time>2014-07-04T11:03:15Z</time></trkpt>
 <trkpt lat="48.896871200" lon="11.156107400"><ele>497</ele><time>2014-07-04T11:03:19Z</time></trkpt>
 <trkpt lat="48.896855300" lon="11.156107900"><ele>497</ele><time>2014-07-04T11:03:23Z</time></trkpt>
 <trkpt lat="48.896824500" lon="11.156110300"><ele>496</ele><time>2014-07-04T11:03:27Z</time></trkpt>
 <trkpt lat="48.896799500" lon="11.156129100"><ele>496</ele><time>2014-07-04T11:03:31Z</time></trkpt>
 <trkpt lat="48.896792400" lon="11.156182400"><ele>495</ele><time>2014-07-04T11:03:35Z</time></trkpt>
 <trkpt lat="48.896787000" lon="11.156224900"><ele>495</ele><time>2014-07-04T11:03:39Z</time></trkpt>
 <trkpt lat="48.896794900" lon="11.156243300"><ele>495</ele><time>2014-07-04T11:03:43Z</time></trkpt>
 <trkpt lat="48.896811600" lon="11.156259900"><ele>494</ele><time>2014-07-04T11:03:47Z</time></trkpt>
 <trkpt lat="48.896828700" lon="11.156292800"><ele>494</ele><time>2014-07-04T11:03:51Z</time></trkpt>
 <trkpt lat="48.896851200" lon="11.156336200"><ele>493</ele><time>2014-07-04T11:03:55Z</time></trkpt>
 <trkpt lat="48.896880400" lon="11.156379900"><ele>493</ele><time>2014-07-04T11:03:59Z</time></trkpt>
 <trkpt lat="48.896907000" lon="11.156420000"><ele>492</ele><time>2014-07-04T11:04:03Z</time></trkpt>
 <trkpt lat="48.896929900" lon="11.156478300"><ele>492</ele><time>2014-07-04T11:04:07Z</time></trkpt>
 <trkpt lat="48.896943300" lon="11.156524500"><ele>492</ele><time>2014-07-04T11:04:11Z</time></trkpt>
 <trkpt lat="48.896949500" lon="11.156577400"><ele>491</ele><time>2014-07-04T11:04:15Z</time></trkpt>
 <trkpt lat="48.896955800" lon="11.156642400"><ele>491</ele><time>2014-07-04T11:04:19Z</time></trkpt>
 <trkpt lat="48.896978300" lon="11.156648700"><ele>491</ele><time>2014-07-04T11:04:23Z</time></trkpt>
 <trkpt lat="48.896996600" lon="11.156679500"><ele>490</ele><time>2014-07-04T11:04:27Z</time></trkpt>
 <trkpt lat="48.897004100" lon="11.156731600"><ele>490</ele><time>2014-07-04T11:04:31Z</time></trkpt>
 <trkpt lat="48.897007000" lon="11.156799900"><ele>490</ele><time>2014-07-04T11:04:35Z</time></trkpt>
 <trkpt lat="48.897009500" lon="11.156854900"><ele>490</ele><time>2014-07-04T11:04:39Z</time></trkpt>
 <trkpt lat="48.897005800" lon="11.156909900"><ele>490</ele><time>2014-07-04T11:04:43Z</time></trkpt>
 <trkpt lat="48.897006200" lon="11.156960400"><ele>490</ele><time>2014-07-04T11:04:47Z</time></trkpt>
 <trkpt lat="48.897003700" lon="11.157012000"><ele>490</ele><time>2014-07-04T11:04:51Z</time></trkpt>
 <trkpt lat="48.896998300" lon="11.157062400"><ele>490</ele><time>2014-07-04T11:04:55Z</time></trkpt>
 <trkpt lat="48.896997900" lon="11.157112000"><ele>489</ele><time>2014-07-04T11:04:59Z</time></trkpt>
 <trkpt lat="48.897000300" lon="11.157157000"><ele>489</ele><time>2014-07-04T11:05:03Z</time></trkpt>
 <trkpt lat="48.896998700" lon="11.157210300"><ele>489</ele><time>2014-07-04T11:05:07Z</time></trkpt>
 <trkpt lat="48.897009100" lon="11.157255300"><ele>489</ele><time>2014-07-04T11:05:11Z</time></trkpt>
 <trkpt lat="48.897005400" lon="11.157292800"><ele>489</ele><time>2014-07-04T11:05:15Z</time></trkpt>
 <trkpt lat="48.897012400" lon="11.157353700"><ele>489</ele><time>2014-07-04T11:05:19Z</time></trkpt>
 <trkpt lat="48.897019900" lon="11.157414500"><ele>489</ele><time>2014-07-04T11:05:23Z</time></trkpt>
 <trkpt lat="48.897014100" lon="11.157474100"><ele>489</ele><time>2014-07-04T11:05:27Z</time></trkpt>
 <trkpt lat="48.897013300" lon="11.157532800"><ele>489</ele><time>2014-07-04T11:05:31Z</time></trkpt>
 <trkpt lat="48.897013700" lon="11.157584500"><ele>489</ele><time>2014-07-04T11:05:35Z</time></trkpt>
 <trkpt lat="48.897007900" lon="11.157637800"><ele>490</ele><time>2014-07-04T11:05:39Z</time></trkpt>
 <trkpt lat="48.897037000" lon="11.157690300"><ele>490</ele><time>2014-07-04T11:05:43Z</time></trkpt>
 <trkpt lat="48.897043700" lon="11.157724100"><ele>490</ele><time>2014-07-04T11:05:47Z</time></trkpt>
 <trkpt lat="48.897038300" lon="11.157789100"><ele>490</ele><time>2014-07-04T11:05:51Z</time></trkpt>
 <trkpt lat="48.897056200" lon="11.157860800"><ele>491</ele><time>2014-07-04T11:05:55Z</time></trkpt>
 <trkpt lat="48.897074900" lon="11.157913300"><ele>491</ele><time>2014-07-04T11:05:59Z</time></trkpt>
 <trkpt lat="48.897088700" lon="11.157965300"><ele>492</ele><time>2014-07-04T11:06:03Z</time></trkpt>
 <trkpt lat="48.897088300" lon="11.158025300"><ele>493</ele><time>2014-07-04T11:06:07Z</time></trkpt>
 <trkpt lat="48.897086600" lon="11.158094500"><ele>494</ele><time>2014-07-04T11:06:11Z</time></trkpt>
 <trkpt lat="48.897075800" lon="11.158182800"><ele>495</ele><time>2014-07-04T11:06:15Z</time></trkpt>
 <trkpt lat="48.897074100" lon="11.158278300"><ele>496</ele><time>2014-07-04T11:06:19Z</time></trkpt>
 <trkpt lat="48.897075300" lon="11.158353300"><ele>497</ele><time>2014-07-04T11:06:23Z</time></trkpt>
 <trkpt lat="48.897092400" lon="11.158413700"><ele>498</ele><time>2014-07-04T11:06:27Z</time></trkpt>
 <trkpt lat="48.897094100" lon="11.158463300"><ele>499</ele><time>2014-07-04T11:06:31Z</time></trkpt>
 <trkpt lat="48.897093700" lon="11.158524500"><ele>500</ele><time>2014-07-04T11:06:35Z</time></trkpt>
 <trkpt lat="48.897096200" lon="11.158599100"><ele>502</ele><time>2014-07-04T11:06:39Z</time></trkpt>
 <trkpt lat="48.897112000" lon="11.158672400"><ele>503</ele><time>2014-07-04T11:06:43Z</time></trkpt>
 <trkpt lat="48.897134900" lon="11.158733300"><ele>504</ele><time>2014-07-04T11:06:47Z</time></trkpt>
 <trkpt lat="48.897149100" lon="11.158777400"><ele>505</ele><time>2014-07-04T11:06:51Z</time></trkpt>
 <trkpt lat="48.897167800" lon="11.158861600"><ele>506</ele><time>2014-07-04T11:06:55Z</time></trkpt>
 <trkpt lat="48.897184500" lon="11.158951200"><ele>507</ele><time>2014-07-04T11:06:59Z</time></trkpt>
 <trkpt lat="48.897205800" lon="11.159038300"><ele>508</ele><time>2014-07-04T11:07:03Z</time></trkpt>
 <trkpt lat="48.897229100" lon="11.159092400"><ele>509</ele><time>2014-07-04T11:07:07Z</time></trkpt>
 <trkpt lat="48.897253700" lon="11.159136600"><ele>510</ele><time>2014-07-04T11:07:11Z</time></trkpt>
 <trkpt lat="48.897267800" lon="11.159172800"><ele>511</ele><time>2014-07-04T11:07:15Z</time></trkpt>
 <trkpt lat="48.897284500" lon="11.159232800"><ele>511</ele><time>2014-07-04T11:07:19Z</time></trkpt>
 <trkpt lat="48.897309500" lon="11.159281600"><ele>512</ele><time>2014-07-04T11:07:23Z</time></trkpt>
 <trkpt lat="48.897330700" lon="11.159332400"><ele>512</ele><time>2014-07-04T11:07:27Z</time></trkpt>
 <trkpt lat="48.897331200" lon="11.159372000"><ele>512</ele><time>2014-07-04T11:07:31Z</time></trkpt>
 <trkpt lat="48.897355800" lon="11.159414500"><ele>512</ele><time>2014-07-04T11:07:35Z</time></trkpt>
 <trkpt lat="48.897375300" lon="11.159474500"><ele>512</ele><time>2014-07-04T11:07:39Z</time></trkpt>
 <trkpt lat="48.897394100" lon="11.159551600"><ele>512</ele><time>2014-07-04T11:07:43Z</time></trkpt>
 <trkpt lat="48.897386600" lon="11.159592000"><ele>512</ele><time>2014-07-04T11:07:47Z</time></trkpt>
 <trkpt lat="48.897392800" lon="11.159647400"><ele>511</ele><time>2014-07-04T11:07:51Z</time></trkpt>
 <trkpt lat="48.897423300" lon="11.159707400"><ele>511</ele><time>2014-07-04T11:07:55Z</time></trkpt>
 <trkpt lat="48.897452800" lon="11.159770300"><ele>510</ele><time>2014-07-04T11:07:59Z</time></trkpt>
 <trkpt lat="48.897478300" lon="11.159832000"><ele>510</ele><time>2014-07-04T11:08:03Z</time></trkpt>
 <trkpt lat="48.897496200" lon="11.159865300"><ele>509</ele><time>2014-07-04T11:08:07Z</time></trkpt>
 <trkpt lat="48.897517900" lon="11.159921600"><ele>508</ele><time>2014-07-04T11:08:11Z</time></trkpt>
 <trkpt lat="48.897536600" lon="11.159957900"><ele>508</ele><time>2014-07-04T11:08:15Z</time></trkpt>
 <trkpt lat="48.897556200" lon="11.160017400"><ele>507</ele><time>2014-07-04T11:08:19Z</time></trkpt>
 <trkpt lat="48.897574500" lon="11.160038300"><ele>506</ele><time>2014-07-04T11:08:23Z</time></trkpt>
 <trkpt lat="48.897594100" lon="11.160092400"><ele>505</ele><time>2014-07-04T11:08:27Z</time></trkpt>
 <trkpt lat="48.897607400" lon="11.160153300"><ele>504</ele><time>2014-07-04T11:08:31Z</time></trkpt>
 <trkpt lat="48.897623300" lon="11.160187800"><ele>504</ele><time>2014-07-04T11:08:35Z</time></trkpt>
 <trkpt lat="48.897641200" lon="11.160185300"><ele>503</ele><time>2014-07-04T11:08:39Z</time></trkpt>
 <trkpt lat="48.897624900" lon="11.160149900"><ele>503</ele><time>2014-07-04T11:08:43Z</time></trkpt>
 <trkpt lat="48.897617000" lon="11.160119900"><ele>502</ele><time>2014-07-04T11:08:47Z</time></trkpt>
 <trkpt lat="48.897617000" lon="11.160119900"><ele>502</ele><time>2014-07-04T11:08:51Z</time></trkpt>
 <trkpt lat="48.897611600" lon="11.160121200"><ele>502</ele><time>2014-07-04T11:08:55Z</time></trkpt>
 <trkpt lat="48.897609900" lon="11.160130800"><ele>501</ele><time>2014-07-04T11:08:59Z</time></trkpt>
 <trkpt lat="48.897609900" lon="11.160130800"><ele>501</ele><time>2014-07-04T11:09:03Z</time></trkpt>
 <trkpt lat="48.897609900" lon="11.160130800"><ele>501</ele><time>2014-07-04T11:09:07Z</time></trkpt>
 <trkpt lat="48.897616200" lon="11.160127800"><ele>500</ele><time>2014-07-04T11:09:11Z</time></trkpt>
 <trkpt lat="48.897620800" lon="11.160123300"><ele>500</ele><time>2014-07-04T11:09:15Z</time></trkpt>
 <trkpt lat="48.897625800" lon="11.160116600"><ele>499</ele><time>2014-07-04T11:09:19Z</time></trkpt>
 <trkpt lat="48.897644900" lon="11.160118700"><ele>499</ele><time>2014-07-04T11:09:23Z</time></trkpt>
 <trkpt lat="48.897661200" lon="11.160139500"><ele>498</ele><time>2014-07-04T11:09:27Z</time></trkpt>
 <trkpt lat="48.897689900" lon="11.160167900"><ele>497</ele><time>2014-07-04T11:09:31Z</time></trkpt>
 <trkpt lat="48.897725800" lon="11.160205300"><ele>496</ele><time>2014-07-04T11:09:35Z</time></trkpt>
 <trkpt lat="48.897759900" lon="11.160242800"><ele>495</ele><time>2014-07-04T11:09:39Z</time></trkpt>
 <trkpt lat="48.897791600" lon="11.160245300"><ele>494</ele><time>2014-07-04T11:09:43Z</time></trkpt>
 <trkpt lat="48.897815700" lon="11.160262000"><ele>492</ele><time>2014-07-04T11:09:47Z</time></trkpt>
 <trkpt lat="48.897840300" lon="11.160299900"><ele>490</ele><time>2014-07-04T11:09:51Z</time></trkpt>
 <trkpt lat="48.897843300" lon="11.160309100"><ele>489</ele><time>2014-07-04T11:09:55Z</time></trkpt>
 <trkpt lat="48.897829100" lon="11.160248300"><ele>487</ele><time>2014-07-04T11:09:59Z</time></trkpt>
 <trkpt lat="48.897840300" lon="11.160219100"><ele>485</ele><time>2014-07-04T11:10:03Z</time></trkpt>
 <trkpt lat="48.897869500" lon="11.160227800"><ele>483</ele><time>2014-07-04T11:10:07Z</time></trkpt>
 <trkpt lat="48.897902900" lon="11.160238700"><ele>481</ele><time>2014-07-04T11:10:11Z</time></trkpt>
 <trkpt lat="48.897921600" lon="11.160232800"><ele>479</ele><time>2014-07-04T11:10:15Z</time></trkpt>
 <trkpt lat="48.897948700" lon="11.160267900"><ele>477</ele><time>2014-07-04T11:10:19Z</time></trkpt>
 <trkpt lat="48.897978700" lon="11.160316600"><ele>475</ele><time>2014-07-04T11:10:23Z</time></trkpt>
 <trkpt lat="48.897994900" lon="11.160372800"><ele>474</ele><time>2014-07-04T11:10:27Z</time></trkpt>
 <trkpt lat="48.898010400" lon="11.160415300"><ele>472</ele><time>2014-07-04T11:10:31Z</time></trkpt>
 <trkpt lat="48.898006600" lon="11.160438700"><ele>470</ele><time>2014-07-04T11:10:35Z</time></trkpt>
 <trkpt lat="48.898016600" lon="11.160476600"><ele>468</ele><time>2014-07-04T11:10:39Z</time></trkpt>
 <trkpt lat="48.898041200" lon="11.160509900"><ele>466</ele><time>2014-07-04T11:10:43Z</time></trkpt>
 <trkpt lat="48.898079500" lon="11.160542000"><ele>465</ele><time>2014-07-04T11:10:47Z</time></trkpt>
 <trkpt lat="48.898100800" lon="11.160615400"><ele>463</ele><time>2014-07-04T11:10:51Z</time></trkpt>
 <trkpt lat="48.898120300" lon="11.160667000"><ele>462</ele><time>2014-07-04T11:10:55Z</time></trkpt>
 <trkpt lat="48.898141200" lon="11.160712800"><ele>460</ele><time>2014-07-04T11:10:59Z</time></trkpt>
 <trkpt lat="48.898163300" lon="11.160742800"><ele>459</ele><time>2014-07-04T11:11:03Z</time></trkpt>
 <trkpt lat="48.898161200" lon="11.160766200"><ele>458</ele><time>2014-07-04T11:11:07Z</time></trkpt>
 <trkpt lat="48.898167400" lon="11.160803200"><ele>456</ele><time>2014-07-04T11:11:11Z</time></trkpt>
 <trkpt lat="48.898179100" lon="11.160846200"><ele>455</ele><time>2014-07-04T11:11:15Z</time></trkpt>
 <trkpt lat="48.898191600" lon="11.160896200"><ele>454</ele><time>2014-07-04T11:11:19Z</time></trkpt>
 <trkpt lat="48.898224100" lon="11.160944900"><ele>453</ele><time>2014-07-04T11:11:23Z</time></trkpt>
 <trkpt lat="48.898257000" lon="11.160986200"><ele>452</ele><time>2014-07-04T11:11:27Z</time></trkpt>
 <trkpt lat="48.898293700" lon="11.161017000"><ele>451</ele><time>2014-07-04T11:11:31Z</time></trkpt>
 <trkpt lat="48.898337000" lon="11.161042900"><ele>450</ele><time>2014-07-04T11:11:35Z</time></trkpt>
 <trkpt lat="48.898372400" lon="11.161030300"><ele>449</ele><time>2014-07-04T11:11:39Z</time></trkpt>
 <trkpt lat="48.898400000" lon="11.161032400"><ele>448</ele><time>2014-07-04T11:11:43Z</time></trkpt>
 <trkpt lat="48.898426200" lon="11.161040300"><ele>447</ele><time>2014-07-04T11:11:47Z</time></trkpt>
 <trkpt lat="48.898454100" lon="11.161043300"><ele>447</ele><time>2014-07-04T11:11:51Z</time></trkpt>
 <trkpt lat="48.898502900" lon="11.161054100"><ele>446</ele><time>2014-07-04T11:11:55Z</time></trkpt>
 <trkpt lat="48.898547000" lon="11.161060700"><ele>445</ele><time>2014-07-04T11:11:59Z</time></trkpt>
 <trkpt lat="48.898567400" lon="11.161064100"><ele>444</ele><time>2014-07-04T11:12:03Z</time></trkpt>
 <trkpt lat="48.898567000" lon="11.161072800"><ele>443</ele><time>2014-07-04T11:12:07Z</time></trkpt>
 <trkpt lat="48.898536600" lon="11.161092000"><ele>442</ele><time>2014-07-04T11:12:11Z</time></trkpt>
 <trkpt lat="48.898534900" lon="11.161131600"><ele>441</ele><time>2014-07-04T11:12:15Z</time></trkpt>
 <trkpt lat="48.898565400" lon="11.161179100"><ele>439</ele><time>2014-07-04T11:12:19Z</time></trkpt>
 <trkpt lat="48.898601600" lon="11.161207400"><ele>438</ele><time>2014-07-04T11:12:23Z</time></trkpt>
 <trkpt lat="48.898623700" lon="11.161254500"><ele>437</ele><time>2014-07-04T11:12:27Z</time></trkpt>
 <trkpt lat="48.898642000" lon="11.161291600"><ele>436</ele><time>2014-07-04T11:12:31Z</time></trkpt>
 <trkpt lat="48.898671600" lon="11.161312400"><ele>434</ele><time>2014-07-04T11:12:35Z</time></trkpt>
 <trkpt lat="48.898714900" lon="11.161331200"><ele>433</ele><time>2014-07-04T11:12:39Z</time></trkpt>
 <trkpt lat="48.898735300" lon="11.161354100"><ele>431</ele><time>2014-07-04T11:12:43Z</time></trkpt>
 <trkpt lat="48.898722400" lon="11.161353300"><ele>429</ele><time>2014-07-04T11:12:47Z</time></trkpt>
 <trkpt lat="48.898758300" lon="11.161362400"><ele>428</ele><time>2014-07-04T11:12:51Z</time></trkpt>
 <trkpt lat="48.898746600" lon="11.161332400"><ele>426</ele><time>2014-07-04T11:12:55Z</time></trkpt>
 <trkpt lat="48.898741200" lon="11.161328700"><ele>425</ele><time>2014-07-04T11:12:59Z</time></trkpt>
 <trkpt lat="48.898734900" lon="11.161322400"><ele>423</ele><time>2014-07-04T11:13:03Z</time></trkpt>
 <trkpt lat="48.898734900" lon="11.161322400"><ele>422</ele><time>2014-07-04T11:13:07Z</time></trkpt>
 <trkpt lat="48.898732800" lon="11.161314100"><ele>421</ele><time>2014-07-04T11:13:11Z</time></trkpt>
 <trkpt lat="48.898737400" lon="11.161308700"><ele>420</ele><time>2014-07-04T11:13:15Z</time></trkpt>
 <trkpt lat="48.898737400" lon="11.161308700"><ele>418</ele><time>2014-07-04T11:13:19Z</time></trkpt>
 <trkpt lat="48.898737400" lon="11.161308700"><ele>417</ele><time>2014-07-04T11:13:23Z</time></trkpt>
 <trkpt lat="48.898737400" lon="11.161308700"><ele>416</ele><time>2014-07-04T11:13:27Z</time></trkpt>
 <trkpt lat="48.898737400" lon="11.161308700"><ele>415</ele><time>2014-07-04T11:13:31Z</time></trkpt>
 <trkpt lat="48.898737400" lon="11.161308700"><ele>415</ele><time>2014-07-04T11:13:35Z</time></trkpt>
 <trkpt lat="48.898737400" lon="11.161308700"><ele>414</ele><time>2014-07-04T11:13:39Z</time></trkpt>
 <trkpt lat="48.898737400" lon="11.161308700"><ele>413</ele><time>2014-07-04T11:13:43Z</time></trkpt>
 <trkpt lat="48.898737400" lon="11.161308700"><ele>412</ele><time>2014-07-04T11:13:47Z</time></trkpt>
 <trkpt lat="48.898737400" lon="11.161308700"><ele>412</ele><time>2014-07-04T11:13:51Z</time></trkpt>
 <trkpt lat="48.898737400" lon="11.161308700"><ele>411</ele><time>2014-07-04T11:13:55Z</time></trkpt>
 <trkpt lat="48.898737400" lon="11.161308700"><ele>410</ele><time>2014-07-04T11:13:59Z</time></trkpt>
 <trkpt lat="48.898732000" lon="11.161306200"><ele>409</ele><time>2014-07-04T11:14:03Z</time></trkpt>
 <trkpt lat="48.898732000" lon="11.161306200"><ele>408</ele><time>2014-07-04T11:14:07Z</time></trkpt>
 <trkpt lat="48.898732000" lon="11.161306200"><ele>407</ele><time>2014-07-04T11:14:11Z</time></trkpt>
 <trkpt lat="48.898732000" lon="11.161306200"><ele>405</ele><time>2014-07-04T11:14:15Z</time></trkpt>
 <trkpt lat="48.898732000" lon="11.161306200"><ele>404</ele><time>2014-07-04T11:14:19Z</time></trkpt>
 <trkpt lat="48.898732400" lon="11.161297400"><ele>403</ele><time>2014-07-04T11:14:23Z</time></trkpt>
 <trkpt lat="48.898732400" lon="11.161297400"><ele>402</ele><time>2014-07-04T11:14:27Z</time></trkpt>
 <trkpt lat="48.898732400" lon="11.161297400"><ele>400</ele><time>2014-07-04T11:14:31Z</time></trkpt>
 <trkpt lat="48.898733300" lon="11.161289100"><ele>399</ele><time>2014-07-04T11:14:35Z</time></trkpt>
 <trkpt lat="48.898733300" lon="11.161289100"><ele>397</ele><time>2014-07-04T11:14:39Z</time></trkpt>
 <trkpt lat="48.898733300" lon="11.161289100"><ele>396</ele><time>2014-07-04T11:14:43Z</time></trkpt>
 <trkpt lat="48.898733300" lon="11.161280800"><ele>395</ele><time>2014-07-04T11:14:47Z</time></trkpt>
 <trkpt lat="48.898733300" lon="11.161280800"><ele>393</ele><time>2014-07-04T11:14:51Z</time></trkpt>
 <trkpt lat="48.898736600" lon="11.161274100"><ele>392</ele><time>2014-07-04T11:14:55Z</time></trkpt>
 <trkpt lat="48.898736600" lon="11.161274100"><ele>391</ele><time>2014-07-04T11:14:59Z</time></trkpt>
 <trkpt lat="48.898738700" lon="11.161266200"><ele>390</ele><time>2014-07-04T11:15:03Z</time></trkpt>
 <trkpt lat="48.898738700" lon="11.161266200"><ele>389</ele><time>2014-07-04T11:15:07Z</time></trkpt>
 <trkpt lat="48.898733300" lon="11.161262400"><ele>388</ele><time>2014-07-04T11:15:11Z</time></trkpt>
 <trkpt lat="48.898733300" lon="11.161262400"><ele>387</ele><time>2014-07-04T11:15:15Z</time></trkpt>
 <trkpt lat="48.898727800" lon="11.161260000"><ele>386</ele><time>2014-07-04T11:15:19Z</time></trkpt>
 <trkpt lat="48.898727800" lon="11.161260000"><ele>385</ele><time>2014-07-04T11:15:23Z</time></trkpt>
 <trkpt lat="48.898727800" lon="11.161260000"><ele>384</ele><time>2014-07-04T11:15:27Z</time></trkpt>
 <trkpt lat="48.898727800" lon="11.161260000"><ele>383</ele><time>2014-07-04T11:15:31Z</time></trkpt>
 <trkpt lat="48.898727800" lon="11.161260000"><ele>382</ele><time>2014-07-04T11:15:35Z</time></trkpt>
 <trkpt lat="48.898727800" lon="11.161260000"><ele>381</ele><time>2014-07-04T11:15:39Z</time></trkpt>
 <trkpt lat="48.898727800" lon="11.161260000"><ele>381</ele><time>2014-07-04T11:15:43Z</time></trkpt>
 <trkpt lat="48.898727800" lon="11.161260000"><ele>380</ele><time>2014-07-04T11:15:47Z</time></trkpt>
 <trkpt lat="48.898727800" lon="11.161260000"><ele>380</ele><time>2014-07-04T11:15:51Z</time></trkpt>
 <trkpt lat="48.898733300" lon="11.161256600"><ele>379</ele><time>2014-07-04T11:15:55Z</time></trkpt>
 <trkpt lat="48.898739100" lon="11.161257800"><ele>379</ele><time>2014-07-04T11:15:59Z</time></trkpt>
 <trkpt lat="48.898739100" lon="11.161257800"><ele>379</ele><time>2014-07-04T11:16:03Z</time></trkpt>
 <trkpt lat="48.898739100" lon="11.161257800"><ele>378</ele><time>2014-07-04T11:16:07Z</time></trkpt>
 <trkpt lat="48.898739100" lon="11.161257800"><ele>378</ele><time>2014-07-04T11:16:11Z</time></trkpt>
 <trkpt lat="48.898739100" lon="11.161257800"><ele>378</ele><time>2014-07-04T11:16:15Z</time></trkpt>
 <trkpt lat="48.898739100" lon="11.161257800"><ele>378</ele><time>2014-07-04T11:16:19Z</time></trkpt>
 <trkpt lat="48.898739100" lon="11.161257800"><ele>378</ele><time>2014-07-04T11:16:23Z</time></trkpt>
 <trkpt lat="48.898739100" lon="11.161257800"><ele>378</ele><time>2014-07-04T11:16:27Z</time></trkpt>
 <trkpt lat="48.898739100" lon="11.161257800"><ele>378</ele><time>2014-07-04T11:16:31Z</time></trkpt>
 <trkpt lat="48.898739100" lon="11.161257800"><ele>378</ele><time>2014-07-04T11:16:35Z</time></trkpt>
 <trkpt lat="48.898739100" lon="11.161257800"><ele>378</ele><time>2014-07-04T11:16:39Z</time></trkpt>
 <trkpt lat="48.898739100" lon="11.161257800"><ele>378</ele><time>2014-07-04T11:16:43Z</time></trkpt>
 <trkpt lat="48.898739100" lon="11.161257800"><ele>378</ele><time>2014-07-04T11:16:47Z</time></trkpt>
 <trkpt lat="48.898739100" lon="11.161257800"><ele>378</ele><time>2014-07-04T11:16:51Z</time></trkpt>
 <trkpt lat="48.898739100" lon="11.161257800"><ele>378</ele><time>2014-07-04T11:16:55Z</time></trkpt>
 <trkpt lat="48.898739100" lon="11.161257800"><ele>378</ele><time>2014-07-04T11:16:59Z</time></trkpt>
 <trkpt lat="48.898739100" lon="11.161257800"><ele>378</ele><time>2014-07-04T11:17:03Z</time></trkpt>
 <trkpt lat="48.898739100" lon="11.161257800"><ele>378</ele><time>2014-07-04T11:17:07Z</time></trkpt>
 <trkpt lat="48.898739100" lon="11.161257800"><ele>378</ele><time>2014-07-04T11:17:11Z</time></trkpt>
 <trkpt lat="48.898739100" lon="11.161257800"><ele>378</ele><time>2014-07-04T11:17:15Z</time></trkpt>
 <trkpt lat="48.898739100" lon="11.161257800"><ele>378</ele><time>2014-07-04T11:17:19Z</time></trkpt>
 <trkpt lat="48.898739100" lon="11.161257800"><ele>378</ele><time>2014-07-04T11:17:23Z</time></trkpt>
 <trkpt lat="48.898751600" lon="11.161259100"><ele>378</ele><time>2014-07-04T11:17:27Z</time></trkpt>
 <trkpt lat="48.898762400" lon="11.161284900"><ele>379</ele><time>2014-07-04T11:17:31Z</time></trkpt>
 <trkpt lat="48.898779900" lon="11.161339500"><ele>379</ele><time>2014-07-04T11:17:35Z</time></trkpt>
 <trkpt lat="48.898796600" lon="11.161409900"><ele>380</ele><time>2014-07-04T11:17:39Z</time></trkpt>
 <trkpt lat="48.898820800" lon="11.161478700"><ele>381</ele><time>2014-07-04T11:17:43Z</time></trkpt>
 <trkpt lat="48.898845800" lon="11.161567400"><ele>381</ele><time>2014-07-04T11:17:47Z</time></trkpt>
 <trkpt lat="48.898895300" lon="11.161585800"><ele>382</ele><time>2014-07-04T11:17:51Z</time></trkpt>
 <trkpt lat="48.898927400" lon="11.161532000"><ele>383</ele><time>2014-07-04T11:17:55Z</time></trkpt>
 <trkpt lat="48.898938300" lon="11.161467400"><ele>384</ele><time>2014-07-04T11:17:59Z</time></trkpt>
 <trkpt lat="48.898950800" lon="11.161414100"><ele>385</ele><time>2014-07-04T11:18:03Z</time></trkpt>
 <trkpt lat="48.898976200" lon="11.161369500"><ele>386</ele><time>2014-07-04T11:18:07Z</time></trkpt>
 <trkpt lat="48.898989900" lon="11.161323300"><ele>387</ele><time>2014-07-04T11:18:11Z</time></trkpt>
 <trkpt lat="48.898997000" lon="11.161293700"><ele>388</ele><time>2014-07-04T11:18:15Z</time></trkpt>
 <trkpt lat="48.898995300" lon="11.161258700"><ele>389</ele><time>2014-07-04T11:18:19Z</time></trkpt>
 <trkpt lat="48.898992800" lon="11.161200800"><ele>390</ele><time>2014-07-04T11:18:23Z</time></trkpt>
 <trkpt lat="48.899002400" lon="11.161142000"><ele>392</ele><time>2014-07-04T11:18:27Z</time></trkpt>
 <trkpt lat="48.899016200" lon="11.161084100"><ele>393</ele><time>2014-07-04T11:18:31Z</time></trkpt>
 <trkpt lat="48.899022800" lon="11.161033300"><ele>394</ele><time>2014-07-04T11:18:35Z</time></trkpt>
 <trkpt lat="48.899035800" lon="11.160979500"><ele>395</ele><time>2014-07-04T11:18:39Z</time></trkpt>
 <trkpt lat="48.899056200" lon="11.160913700"><ele>396</ele><time>2014-07-04T11:18:43Z</time></trkpt>
 <trkpt lat="48.899080300" lon="11.160849900"><ele>397</ele><time>2014-07-04T11:18:47Z</time></trkpt>
 <trkpt lat="48.899098700" lon="11.160788700"><ele>397</ele><time>2014-07-04T11:18:51Z</time></trkpt>
 <trkpt lat="48.899104900" lon="11.160714100"><ele>398</ele><time>2014-07-04T11:18:55Z</time></trkpt>
 <trkpt lat="48.899119500" lon="11.160654500"><ele>399</ele><time>2014-07-04T11:18:59Z</time></trkpt>
 <trkpt lat="48.899141600" lon="11.160594100"><ele>400</ele><time>2014-07-04T11:19:03Z</time></trkpt>
 <trkpt lat="48.899170800" lon="11.160537000"><ele>400</ele><time>2014-07-04T11:19:07Z</time></trkpt>
 <trkpt lat="48.899205700" lon="11.160484500"><ele>401</ele><time>2014-07-04T11:19:11Z</time></trkpt>
 <trkpt lat="48.899244100" lon="11.160436200"><ele>402</ele><time>2014-07-04T11:19:15Z</time></trkpt>
 <trkpt lat="48.899284500" lon="11.160382400"><ele>402</ele><time>2014-07-04T11:19:19Z</time></trkpt>
 <trkpt lat="48.899314500" lon="11.160308300"><ele>403</ele><time>2014-07-04T11:19:23Z</time></trkpt>
 <trkpt lat="48.899324100" lon="11.160248700"><ele>404</ele><time>2014-07-04T11:19:27Z</time></trkpt>
 <trkpt lat="48.899337400" lon="11.160211600"><ele>404</ele><time>2014-07-04T11:19:31Z</time></trkpt>
 <trkpt lat="48.899356600" lon="11.160174500"><ele>405</ele><time>2014-07-04T11:19:35Z</time></trkpt>
 <trkpt lat="48.899394900" lon="11.160132000"><ele>405</ele><time>2014-07-04T11:19:39Z</time></trkpt>
 <trkpt lat="48.899436200" lon="11.160082000"><ele>406</ele><time>2014-07-04T11:19:43Z</time></trkpt>
 <trkpt lat="48.899480700" lon="11.160040300"><ele>407</ele><time>2014-07-04T11:19:47Z</time></trkpt>
 <trkpt lat="48.899493300" lon="11.160009500"><ele>407</ele><time>2014-07-04T11:19:51Z</time></trkpt>
 <trkpt lat="48.899498700" lon="11.159973300"><ele>408</ele><time>2014-07-04T11:19:55Z</time></trkpt>
 <trkpt lat="48.899507800" lon="11.159934100"><ele>409</ele><time>2014-07-04T11:19:59Z</time></trkpt>
 <trkpt lat="48.899521200" lon="11.159902400"><ele>409</ele><time>2014-07-04T11:20:03Z</time></trkpt>
 <trkpt lat="48.899542800" lon="11.159873700"><ele>410</ele><time>2014-07-04T11:20:07Z</time></trkpt>
 <trkpt lat="48.899558700" lon="11.159851200"><ele>411</ele><time>2014-07-04T11:20:11Z</time></trkpt>
 <trkpt lat="48.899576600" lon="11.159865700"><ele>412</ele><time>2014-07-04T11:20:15Z</time></trkpt>
 <trkpt lat="48.899599900" lon="11.159884100"><ele>412</ele><time>2014-07-04T11:20:19Z</time></trkpt>
 <trkpt lat="48.899617400" lon="11.159870300"><ele>413</ele><time>2014-07-04T11:20:23Z</time></trkpt>
 <trkpt lat="48.899614900" lon="11.159852400"><ele>414</ele><time>2014-07-04T11:20:27Z</time></trkpt>
 <trkpt lat="48.899595700" lon="11.159837000"><ele>415</ele><time>2014-07-04T11:20:31Z</time></trkpt>
 <trkpt lat="48.899541200" lon="11.159855300"><ele>415</ele><time>2014-07-04T11:20:35Z</time></trkpt>
 <trkpt lat="48.899541200" lon="11.159855300"><ele>416</ele><time>2014-07-04T11:20:39Z</time></trkpt>
 <trkpt lat="48.899541200" lon="11.159855300"><ele>416</ele><time>2014-07-04T11:20:43Z</time></trkpt>
 <trkpt lat="48.899549900" lon="11.159840800"><ele>417</ele><time>2014-07-04T11:20:47Z</time></trkpt>
 <trkpt lat="48.899567400" lon="11.159829500"><ele>417</ele><time>2014-07-04T11:20:51Z</time></trkpt>
 <trkpt lat="48.899595300" lon="11.159813300"><ele>418</ele><time>2014-07-04T11:20:55Z</time></trkpt>
 <trkpt lat="48.899623700" lon="11.159798300"><ele>418</ele><time>2014-07-04T11:20:59Z</time></trkpt>
 <trkpt lat="48.899638700" lon="11.159805400"><ele>419</ele><time>2014-07-04T11:21:03Z</time></trkpt>
 <trkpt lat="48.899654900" lon="11.159792800"><ele>419</ele><time>2014-07-04T11:21:07Z</time></trkpt>
 <trkpt lat="48.899679500" lon="11.159770300"><ele>420</ele><time>2014-07-04T11:21:11Z</time></trkpt>
 <trkpt lat="48.899735800" lon="11.159754100"><ele>420</ele><time>2014-07-04T11:21:15Z</time></trkpt>
 <trkpt lat="48.899765300" lon="11.159743700"><ele>420</ele><time>2014-07-04T11:21:19Z</time></trkpt>
 <trkpt lat="48.899784100" lon="11.159740800"><ele>421</ele><time>2014-07-04T11:21:23Z</time></trkpt>
 <trkpt lat="48.899797000" lon="11.159737000"><ele>421</ele><time>2014-07-04T11:21:27Z</time></trkpt>
 <trkpt lat="48.899807900" lon="11.159725800"><ele>421</ele><time>2014-07-04T11:21:31Z</time></trkpt>
 <trkpt lat="48.899807800" lon="11.159717000"><ele>422</ele><time>2014-07-04T11:21:35Z</time></trkpt>
 <trkpt lat="48.899812000" lon="11.159696600"><ele>422</ele><time>2014-07-04T11:21:39Z</time></trkpt>
 <trkpt lat="48.899816600" lon="11.159690400"><ele>422</ele><time>2014-07-04T11:21:43Z</time></trkpt>
 <trkpt lat="48.899812400" lon="11.159697900"><ele>423</ele><time>2014-07-04T11:21:47Z</time></trkpt>
 <trkpt lat="48.899815000" lon="11.159707400"><ele>423</ele><time>2014-07-04T11:21:51Z</time></trkpt>
 <trkpt lat="48.899809500" lon="11.159745300"><ele>423</ele><time>2014-07-04T11:21:55Z</time></trkpt>
 <trkpt lat="48.899796200" lon="11.159793300"><ele>423</ele><time>2014-07-04T11:21:59Z</time></trkpt>
 <trkpt lat="48.899762400" lon="11.159857000"><ele>424</ele><time>2014-07-04T11:22:03Z</time></trkpt>
 <trkpt lat="48.899738300" lon="11.159922900"><ele>424</ele><time>2014-07-04T11:22:07Z</time></trkpt>
 <trkpt lat="48.899735800" lon="11.159979500"><ele>424</ele><time>2014-07-04T11:22:11Z</time></trkpt>
 <trkpt lat="48.899732800" lon="11.160035800"><ele>424</ele><time>2014-07-04T11:22:15Z</time></trkpt>
 <trkpt lat="48.899733300" lon="11.160073700"><ele>425</ele><time>2014-07-04T11:22:19Z</time></trkpt>
 <trkpt lat="48.899705300" lon="11.160104900"><ele>425</ele><time>2014-07-04T11:22:23Z</time></trkpt>
 <trkpt lat="48.899679900" lon="11.160122800"><ele>425</ele><time>2014-07-04T11:22:27Z</time></trkpt>
 <trkpt lat="48.899677000" lon="11.160133700"><ele>425</ele><time>2014-07-04T11:22:31Z</time></trkpt>
 <trkpt lat="48.899670800" lon="11.160163300"><ele>425</ele><time>2014-07-04T11:22:35Z</time></trkpt>
 <trkpt lat="48.899655300" lon="11.160202800"><ele>425</ele><time>2014-07-04T11:22:39Z</time></trkpt>
 <trkpt lat="48.899644500" lon="11.160233700"><ele>425</ele><time>2014-07-04T11:22:43Z</time></trkpt>
 <trkpt lat="48.899644500" lon="11.160273300"><ele>425</ele><time>2014-07-04T11:22:47Z</time></trkpt>
 <trkpt lat="48.899645800" lon="11.160319100"><ele>425</ele><time>2014-07-04T11:22:51Z</time></trkpt>
 <trkpt lat="48.899644100" lon="11.160381200"><ele>425</ele><time>2014-07-04T11:22:55Z</time></trkpt>
 <trkpt lat="48.899653300" lon="11.160430700"><ele>425</ele><time>2014-07-04T11:22:59Z</time></trkpt>
 <trkpt lat="48.899666600" lon="11.160465300"><ele>425</ele><time>2014-07-04T11:23:03Z</time></trkpt>
 <trkpt lat="48.899677800" lon="11.160488700"><ele>425</ele><time>2014-07-04T11:23:07Z</time></trkpt>
 <trkpt lat="48.899690800" lon="11.160515700"><ele>425</ele><time>2014-07-04T11:23:11Z</time></trkpt>
 <trkpt lat="48.899703700" lon="11.160543200"><ele>425</ele><time>2014-07-04T11:23:15Z</time></trkpt>
 <trkpt lat="48.899715300" lon="11.160573700"><ele>425</ele><time>2014-07-04T11:23:19Z</time></trkpt>
 <trkpt lat="48.899720800" lon="11.160584500"><ele>425</ele><time>2014-07-04T11:23:23Z</time></trkpt>
 <trkpt lat="48.899709900" lon="11.160597800"><ele>424</ele><time>2014-07-04T11:23:27Z</time></trkpt>
 <trkpt lat="48.899707000" lon="11.160605800"><ele>424</ele><time>2014-07-04T11:23:31Z</time></trkpt>
 <trkpt lat="48.899707000" lon="11.160605800"><ele>424</ele><time>2014-07-04T11:23:35Z</time></trkpt>
 <trkpt lat="48.899712000" lon="11.160599900"><ele>424</ele><time>2014-07-04T11:23:39Z</time></trkpt>
 <trkpt lat="48.899717400" lon="11.160598700"><ele>424</ele><time>2014-07-04T11:23:43Z</time></trkpt>
 <trkpt lat="48.899715400" lon="11.160632400"><ele>424</ele><time>2014-07-04T11:23:47Z</time></trkpt>
 <trkpt lat="48.899707000" lon="11.160677000"><ele>424</ele><time>2014-07-04T11:23:51Z</time></trkpt>
 <trkpt lat="48.899697000" lon="11.160718300"><ele>424</ele><time>2014-07-04T11:23:55Z</time></trkpt>
 <trkpt lat="48.899676600" lon="11.160778700"><ele>424</ele><time>2014-07-04T11:23:59Z</time></trkpt>
 <trkpt lat="48.899676600" lon="11.160802800"><ele>424</ele><time>2014-07-04T11:24:03Z</time></trkpt>
 <trkpt lat="48.899669500" lon="11.160831600"><ele>424</ele><time>2014-07-04T11:24:07Z</time></trkpt>
 <trkpt lat="48.899665800" lon="11.160850800"><ele>424</ele><time>2014-07-04T11:24:11Z</time></trkpt>
 <trkpt lat="48.899679900" lon="11.160899100"><ele>424</ele><time>2014-07-04T11:24:15Z</time></trkpt>
 <trkpt lat="48.899691200" lon="11.160927900"><ele>424</ele><time>2014-07-04T11:24:19Z</time></trkpt>
 <trkpt lat="48.899692800" lon="11.160937900"><ele>424</ele><time>2014-07-04T11:24:23Z</time></trkpt>
 <trkpt lat="48.899692800" lon="11.160937900"><ele>424</ele><time>2014-07-04T11:24:27Z</time></trkpt>
 <trkpt lat="48.899692800" lon="11.160937900"><ele>424</ele><time>2014-07-04T11:24:31Z</time></trkpt>
 <trkpt lat="48.899687800" lon="11.160933700"><ele>424</ele><time>2014-07-04T11:24:35Z</time></trkpt>
 <trkpt lat="48.899687800" lon="11.160933700"><ele>424</ele><time>2014-07-04T11:24:39Z</time></trkpt>
 <trkpt lat="48.899687800" lon="11.160933700"><ele>424</ele><time>2014-07-04T11:24:43Z</time></trkpt>
 <trkpt lat="48.899692400" lon="11.160938700"><ele>424</ele><time>2014-07-04T11:24:47Z</time></trkpt>
 <trkpt lat="48.899697800" lon="11.160937000"><ele>424</ele><time>2014-07-04T11:24:51Z</time></trkpt>
 <trkpt lat="48.899681600" lon="11.160961600"><ele>424</ele><time>2014-07-04T11:24:55Z</time></trkpt>
 <trkpt lat="48.899672400" lon="11.160979900"><ele>424</ele><time>2014-07-04T11:24:59Z</time></trkpt>
 <trkpt lat="48.899672400" lon="11.160979900"><ele>424</ele><time>2014-07-04T11:25:03Z</time></trkpt>
 <trkpt lat="48.899666200" lon="11.160977800"><ele>424</ele><time>2014-07-04T11:25:07Z</time></trkpt>
 <trkpt lat="48.899666600" lon="11.160989900"><ele>424</ele><time>2014-07-04T11:25:11Z</time></trkpt>
 <trkpt lat="48.899677000" lon="11.161007900"><ele>424</ele><time>2014-07-04T11:25:15Z</time></trkpt>
 <trkpt lat="48.899677000" lon="11.161007900"><ele>424</ele><time>2014-07-04T11:25:19Z</time></trkpt>
 <trkpt lat="48.899678300" lon="11.160999100"><ele>424</ele><time>2014-07-04T11:25:23Z</time></trkpt>
 <trkpt lat="48.899681600" lon="11.160990400"><ele>424</ele><time>2014-07-04T11:25:27Z</time></trkpt>
 <trkpt lat="48.899681600" lon="11.160990400"><ele>424</ele><time>2014-07-04T11:25:31Z</time></trkpt>
 <trkpt lat="48.899694500" lon="11.161001600"><ele>424</ele><time>2014-07-04T11:25:35Z</time></trkpt>
 <trkpt lat="48.899718200" lon="11.161019100"><ele>424</ele><time>2014-07-04T11:25:39Z</time></trkpt>
 <trkpt lat="48.899733300" lon="11.161024100"><ele>424</ele><time>2014-07-04T11:25:43Z</time></trkpt>
 <trkpt lat="48.899752400" lon="11.161005700"><ele>424</ele><time>2014-07-04T11:25:47Z</time></trkpt>
 <trkpt lat="48.899778300" lon="11.160993700"><ele>424</ele><time>2014-07-04T11:25:51Z</time></trkpt>
 <trkpt lat="48.899806600" lon="11.160972400"><ele>424</ele><time>2014-07-04T11:25:55Z</time></trkpt>
 <trkpt lat="48.899822500" lon="11.160962400"><ele>424</ele><time>2014-07-04T11:25:59Z</time></trkpt>
 <trkpt lat="48.899834900" lon="11.160954100"><ele>424</ele><time>2014-07-04T11:26:03Z</time></trkpt>
 <trkpt lat="48.899857400" lon="11.160930800"><ele>424</ele><time>2014-07-04T11:26:07Z</time></trkpt>
 <trkpt lat="48.899879900" lon="11.160913300"><ele>424</ele><time>2014-07-04T11:26:11Z</time></trkpt>
 <trkpt lat="48.899898300" lon="11.160881600"><ele>424</ele><time>2014-07-04T11:26:15Z</time></trkpt>
 <trkpt lat="48.899922800" lon="11.160844500"><ele>425</ele><time>2014-07-04T11:26:19Z</time></trkpt>
 <trkpt lat="48.899950400" lon="11.160794900"><ele>425</ele><time>2014-07-04T11:26:23Z</time></trkpt>
 <trkpt lat="48.899970300" lon="11.160764500"><ele>425</ele><time>2014-07-04T11:26:27Z</time></trkpt>
 <trkpt lat="48.899984900" lon="11.160754100"><ele>425</ele><time>2014-07-04T11:26:31Z</time></trkpt>
 <trkpt lat="48.900010400" lon="11.160756200"><ele>425</ele><time>2014-07-04T11:26:35Z</time></trkpt>
 <trkpt lat="48.900036200" lon="11.160761600"><ele>425</ele><time>2014-07-04T11:26:39Z</time></trkpt>
 <trkpt lat="48.900064100" lon="11.160748300"><ele>425</ele><time>2014-07-04T11:26:43Z</time></trkpt>
 <trkpt lat="48.900084900" lon="11.160719900"><ele>426</ele><time>2014-07-04T11:26:47Z</time></trkpt>
 <trkpt lat="48.900100300" lon="11.160693700"><ele>426</ele><time>2014-07-04T11:26:51Z</time></trkpt>
 <trkpt lat="48.900122400" lon="11.160672400"><ele>426</ele><time>2014-07-04T11:26:55Z</time></trkpt>
 <trkpt lat="48.900142800" lon="11.160657900"><ele>426</ele><time>2014-07-04T11:26:59Z</time></trkpt>
 <trkpt lat="48.900156200" lon="11.160642400"><ele>427</ele><time>2014-07-04T11:27:03Z</time></trkpt>
 <trkpt lat="48.900168700" lon="11.160629100"><ele>427</ele><time>2014-07-04T11:27:07Z</time></trkpt>
 <trkpt lat="48.900196600" lon="11.160630300"><ele>428</ele><time>2014-07-04T11:27:11Z</time></trkpt>
 <trkpt lat="48.900210800" lon="11.160614900"><ele>428</ele><time>2014-07-04T11:27:15Z</time></trkpt>
 <trkpt lat="48.900238700" lon="11.160594900"><ele>428</ele><time>2014-07-04T11:27:19Z</time></trkpt>
 <trkpt lat="48.900250800" lon="11.160583300"><ele>429</ele><time>2014-07-04T11:27:23Z</time></trkpt>
 <trkpt lat="48.900255800" lon="11.160579100"><ele>429</ele><time>2014-07-04T11:27:27Z</time></trkpt>
 <trkpt lat="48.900255800" lon="11.160579100"><ele>430</ele><time>2014-07-04T11:27:31Z</time></trkpt>
 <trkpt lat="48.900259900" lon="11.160571600"><ele>430</ele><time>2014-07-04T11:27:35Z</time></trkpt>
 <trkpt lat="48.900264900" lon="11.160564100"><ele>430</ele><time>2014-07-04T11:27:39Z</time></trkpt>
 <trkpt lat="48.900269100" lon="11.160557800"><ele>431</ele><time>2014-07-04T11:27:43Z</time></trkpt>
 <trkpt lat="48.900274100" lon="11.160553300"><ele>431</ele><time>2014-07-04T11:27:47Z</time></trkpt>
 <trkpt lat="48.900299100" lon="11.160534900"><ele>431</ele><time>2014-07-04T11:27:51Z</time></trkpt>
 <trkpt lat="48.900314900" lon="11.160520300"><ele>432</ele><time>2014-07-04T11:27:55Z</time></trkpt>
 <trkpt lat="48.900342800" lon="11.160504900"><ele>432</ele><time>2014-07-04T11:27:59Z</time></trkpt>
 <trkpt lat="48.900367800" lon="11.160496200"><ele>432</ele><time>2014-07-04T11:28:03Z</time></trkpt>
 <trkpt lat="48.900382400" lon="11.160493300"><ele>433</ele><time>2014-07-04T11:28:07Z</time></trkpt>
 <trkpt lat="48.900399500" lon="11.160477400"><ele>433</ele><time>2014-07-04T11:28:11Z</time></trkpt>
 <trkpt lat="48.900422800" lon="11.160460800"><ele>434</ele><time>2014-07-04T11:28:15Z</time></trkpt>
 <trkpt lat="48.900433700" lon="11.160439500"><ele>434</ele><time>2014-07-04T11:28:19Z</time></trkpt>
 <trkpt lat="48.900444900" lon="11.160416600"><ele>435</ele><time>2014-07-04T11:28:23Z</time></trkpt>
 <trkpt lat="48.900452000" lon="11.160380400"><ele>435</ele><time>2014-07-04T11:28:27Z</time></trkpt>
 <trkpt lat="48.900476200" lon="11.160359500"><ele>436</ele><time>2014-07-04T11:28:31Z</time></trkpt>
 <trkpt lat="48.900489900" lon="11.160361200"><ele>436</ele><time>2014-07-04T11:28:35Z</time></trkpt>
 <trkpt lat="48.900506600" lon="11.160362800"><ele>437</ele><time>2014-07-04T11:28:39Z</time></trkpt>
 <trkpt lat="48.900518700" lon="11.160341200"><ele>438</ele><time>2014-07-04T11:28:43Z</time></trkpt>
 <trkpt lat="48.900514500" lon="11.160319900"><ele>438</ele><time>2014-07-04T11:28:47Z</time></trkpt>
 <trkpt lat="48.900509900" lon="11.160309900"><ele>439</ele><time>2014-07-04T11:28:51Z</time></trkpt>
 <trkpt lat="48.900504900" lon="11.160298700"><ele>440</ele><time>2014-07-04T11:28:55Z</time></trkpt>
 <trkpt lat="48.900510400" lon="11.160283200"><ele>441</ele><time>2014-07-04T11:28:59Z</time></trkpt>
 <trkpt lat="48.900532800" lon="11.160262800"><ele>441</ele><time>2014-07-04T11:29:03Z</time></trkpt>
 <trkpt lat="48.900550300" lon="11.160257000"><ele>442</ele><time>2014-07-04T11:29:07Z</time></trkpt>
 <trkpt lat="48.900568300" lon="11.160226600"><ele>442</ele><time>2014-07-04T11:29:11Z</time></trkpt>
 <trkpt lat="48.900574900" lon="11.160184100"><ele>443</ele><time>2014-07-04T11:29:15Z</time></trkpt>
 <trkpt lat="48.900556600" lon="11.160192800"><ele>443</ele><time>2014-07-04T11:29:19Z</time></trkpt>
 <trkpt lat="48.900552400" lon="11.160220300"><ele>443</ele><time>2014-07-04T11:29:23Z</time></trkpt>
 <trkpt lat="48.900564900" lon="11.160267900"><ele>444</ele><time>2014-07-04T11:29:27Z</time></trkpt>
 <trkpt lat="48.900567400" lon="11.160327400"><ele>444</ele><time>2014-07-04T11:29:31Z</time></trkpt>
 <trkpt lat="48.900569500" lon="11.160392000"><ele>444</ele><time>2014-07-04T11:29:35Z</time></trkpt>
 <trkpt lat="48.900557900" lon="11.160451600"><ele>445</ele><time>2014-07-04T11:29:39Z</time></trkpt>
 <trkpt lat="48.900557400" lon="11.160489900"><ele>445</ele><time>2014-07-04T11:29:43Z</time></trkpt>
 <trkpt lat="48.900571200" lon="11.160501600"><ele>445</ele><time>2014-07-04T11:29:47Z</time></trkpt>
 <trkpt lat="48.900587900" lon="11.160497900"><ele>445</ele><time>2014-07-04T11:29:51Z</time></trkpt>
 <trkpt lat="48.900593300" lon="11.160494900"><ele>445</ele><time>2014-07-04T11:29:55Z</time></trkpt>
 <trkpt lat="48.900598700" lon="11.160490300"><ele>446</ele><time>2014-07-04T11:29:59Z</time></trkpt>
 <trkpt lat="48.900604100" lon="11.160483200"><ele>446</ele><time>2014-07-04T11:30:03Z</time></trkpt>
 <trkpt lat="48.900637400" lon="11.160497000"><ele>446</ele><time>2014-07-04T11:30:07Z</time></trkpt>
 <trkpt lat="48.900659900" lon="11.160517000"><ele>446</ele><time>2014-07-04T11:30:11Z</time></trkpt>
 <trkpt lat="48.900675400" lon="11.160539100"><ele>446</ele><time>2014-07-04T11:30:15Z</time></trkpt>
 <trkpt lat="48.900687500" lon="11.160549500"><ele>447</ele><time>2014-07-04T11:30:19Z</time></trkpt>
 <trkpt lat="48.900707400" lon="11.160559900"><ele>447</ele><time>2014-07-04T11:30:23Z</time></trkpt>
 <trkpt lat="48.900720800" lon="11.160587800"><ele>447</ele><time>2014-07-04T11:30:27Z</time></trkpt>
 <trkpt lat="48.900732400" lon="11.160614500"><ele>447</ele><time>2014-07-04T11:30:31Z</time></trkpt>
 <trkpt lat="48.900731600" lon="11.160640300"><ele>447</ele><time>2014-07-04T11:30:35Z</time></trkpt>
 <trkpt lat="48.900733700" lon="11.160673300"><ele>448</ele><time>2014-07-04T11:30:39Z</time></trkpt>
 <trkpt lat="48.900737900" lon="11.160692800"><ele>448</ele><time>2014-07-04T11:30:43Z</time></trkpt>
 <trkpt lat="48.900716200" lon="11.160770700"><ele>448</ele><time>2014-07-04T11:30:47Z</time></trkpt>
 <trkpt lat="48.900702800" lon="11.160794100"><ele>448</ele><time>2014-07-04T11:30:51Z</time></trkpt>
 <trkpt lat="48.900702800" lon="11.160794100"><ele>448</ele><time>2014-07-04T11:30:55Z</time></trkpt>
 <trkpt lat="48.900707000" lon="11.160786600"><ele>449</ele><time>2014-07-04T11:30:59Z</time></trkpt>
 <trkpt lat="48.900707000" lon="11.160786600"><ele>449</ele><time>2014-07-04T11:31:03Z</time></trkpt>
 <trkpt lat="48.900707000" lon="11.160786600"><ele>449</ele><time>2014-07-04T11:31:07Z</time></trkpt>
 <trkpt lat="48.900712400" lon="11.160789100"><ele>449</ele><time>2014-07-04T11:31:11Z</time></trkpt>
 <trkpt lat="48.900712400" lon="11.160789100"><ele>449</ele><time>2014-07-04T11:31:15Z</time></trkpt>
 <trkpt lat="48.900717000" lon="11.160794500"><ele>449</ele><time>2014-07-04T11:31:19Z</time></trkpt>
 <trkpt lat="48.900719500" lon="11.160802000"><ele>449</ele><time>2014-07-04T11:31:23Z</time></trkpt>
 <trkpt lat="48.900719500" lon="11.160802000"><ele>450</ele><time>2014-07-04T11:31:27Z</time></trkpt>
 <trkpt lat="48.900724500" lon="11.160805800"><ele>450</ele><time>2014-07-04T11:31:31Z</time></trkpt>
 <trkpt lat="48.900724500" lon="11.160805800"><ele>450</ele><time>2014-07-04T11:31:35Z</time></trkpt>
 <trkpt lat="48.900724500" lon="11.160805800"><ele>450</ele><time>2014-07-04T11:31:39Z</time></trkpt>
 <trkpt lat="48.900724500" lon="11.160805800"><ele>450</ele><time>2014-07-04T11:31:43Z</time></trkpt>
 <trkpt lat="48.900729500" lon="11.160801200"><ele>450</ele><time>2014-07-04T11:31:47Z</time></trkpt>
 <trkpt lat="48.900729500" lon="11.160801200"><ele>450</ele><time>2014-07-04T11:31:51Z</time></trkpt>
 <trkpt lat="48.900735400" lon="11.160798300"><ele>451</ele><time>2014-07-04T11:31:55Z</time></trkpt>
 <trkpt lat="48.900749500" lon="11.160803300"><ele>451</ele><time>2014-07-04T11:31:59Z</time></trkpt>
 <trkpt lat="48.900760700" lon="11.160802400"><ele>451</ele><time>2014-07-04T11:32:03Z</time></trkpt>
 <trkpt lat="48.900767000" lon="11.160798700"><ele>451</ele><time>2014-07-04T11:32:07Z</time></trkpt>
 <trkpt lat="48.900784500" lon="11.160818300"><ele>452</ele><time>2014-07-04T11:32:11Z</time></trkpt>
 <trkpt lat="48.900796200" lon="11.160832000"><ele>452</ele><time>2014-07-04T11:32:15Z</time></trkpt>
 <trkpt lat="48.900796200" lon="11.160832000"><ele>452</ele><time>2014-07-04T11:32:19Z</time></trkpt>
 <trkpt lat="48.900789500" lon="11.160830800"><ele>453</ele><time>2014-07-04T11:32:23Z</time></trkpt>
 <trkpt lat="48.900777800" lon="11.160841200"><ele>453</ele><time>2014-07-04T11:32:27Z</time></trkpt>
 <trkpt lat="48.900777400" lon="11.160852400"><ele>454</ele><time>2014-07-04T11:32:31Z</time></trkpt>
 <trkpt lat="48.900773700" lon="11.160859100"><ele>454</ele><time>2014-07-04T11:32:35Z</time></trkpt>
 <trkpt lat="48.900770800" lon="11.160866600"><ele>455</ele><time>2014-07-04T11:32:39Z</time></trkpt>
 <trkpt lat="48.900788300" lon="11.160888700"><ele>455</ele><time>2014-07-04T11:32:43Z</time></trkpt>
 <trkpt lat="48.900806200" lon="11.160912000"><ele>456</ele><time>2014-07-04T11:32:47Z</time></trkpt>
 <trkpt lat="48.900824500" lon="11.160937400"><ele>456</ele><time>2014-07-04T11:32:51Z</time></trkpt>
 <trkpt lat="48.900843700" lon="11.160959900"><ele>457</ele><time>2014-07-04T11:32:55Z</time></trkpt>
 <trkpt lat="48.900867900" lon="11.160993700"><ele>457</ele><time>2014-07-04T11:32:59Z</time></trkpt>
 <trkpt lat="48.900882400" lon="11.161029100"><ele>458</ele><time>2014-07-04T11:33:03Z</time></trkpt>
 <trkpt lat="48.900898300" lon="11.161056200"><ele>458</ele><time>2014-07-04T11:33:07Z</time></trkpt>
 <trkpt lat="48.900916200" lon="11.161085800"><ele>459</ele><time>2014-07-04T11:33:11Z</time></trkpt>
 <trkpt lat="48.900931600" lon="11.161103700"><ele>459</ele><time>2014-07-04T11:33:15Z</time></trkpt>
 <trkpt lat="48.900953300" lon="11.161138300"><ele>460</ele><time>2014-07-04T11:33:19Z</time></trkpt>
 <trkpt lat="48.900971200" lon="11.161164100"><ele>461</ele><time>2014-07-04T11:33:23Z</time></trkpt>
 <trkpt lat="48.900982000" lon="11.161179500"><ele>461</ele><time>2014-07-04T11:33:27Z</time></trkpt>
 <trkpt lat="48.900997000" lon="11.161211600"><ele>462</ele><time>2014-07-04T11:33:31Z</time></trkpt>
 <trkpt lat="48.901014900" lon="11.161241600"><ele>462</ele><time>2014-07-04T11:33:35Z</time></trkpt>
 <trkpt lat="48.901032400" lon="11.161275800"><ele>463</ele><time>2014-07-04T11:33:39Z</time></trkpt>
 <trkpt lat="48.901049500" lon="11.161307000"><ele>463</ele><time>2014-07-04T11:33:43Z</time></trkpt>
 <trkpt lat="48.901079500" lon="11.161324900"><ele>464</ele><time>2014-07-04T11:33:47Z</time></trkpt>
 <trkpt lat="48.901087000" lon="11.161327800"><ele>464</ele><time>2014-07-04T11:33:51Z</time></trkpt>
 <trkpt lat="48.901092400" lon="11.161332900"><ele>465</ele><time>2014-07-04T11:33:55Z</time></trkpt>
 <trkpt lat="48.901106200" lon="11.161349900"><ele>465</ele><time>2014-07-04T11:33:59Z</time></trkpt>
 <trkpt lat="48.901126200" lon="11.161364900"><ele>466</ele><time>2014-07-04T11:34:03Z</time></trkpt>
 <trkpt lat="48.901139500" lon="11.161371600"><ele>466</ele><time>2014-07-04T11:34:07Z</time></trkpt>
 <trkpt lat="48.901145800" lon="11.161374900"><ele>466</ele><time>2014-07-04T11:34:11Z</time></trkpt>
 <trkpt lat="48.901169100" lon="11.161382900"><ele>467</ele><time>2014-07-04T11:34:15Z</time></trkpt>
 <trkpt lat="48.901185800" lon="11.161388300"><ele>467</ele><time>2014-07-04T11:34:19Z</time></trkpt>
 <trkpt lat="48.901205300" lon="11.161392800"><ele>467</ele><time>2014-07-04T11:34:23Z</time></trkpt>
 <trkpt lat="48.901231200" lon="11.161397400"><ele>467</ele><time>2014-07-04T11:34:27Z</time></trkpt>
 <trkpt lat="48.901241600" lon="11.161409500"><ele>468</ele><time>2014-07-04T11:34:31Z</time></trkpt>
 <trkpt lat="48.901249100" lon="11.161429900"><ele>468</ele><time>2014-07-04T11:34:35Z</time></trkpt>
 <trkpt lat="48.901254100" lon="11.161438700"><ele>468</ele><time>2014-07-04T11:34:39Z</time></trkpt>
 <trkpt lat="48.901254100" lon="11.161438700"><ele>468</ele><time>2014-07-04T11:34:43Z</time></trkpt>
 <trkpt lat="48.901243700" lon="11.161474900"><ele>469</ele><time>2014-07-04T11:34:47Z</time></trkpt>
 <trkpt lat="48.901233700" lon="11.161485800"><ele>469</ele><time>2014-07-04T11:34:51Z</time></trkpt>
 <trkpt lat="48.901233700" lon="11.161485800"><ele>469</ele><time>2014-07-04T11:34:55Z</time></trkpt>
 <trkpt lat="48.901233700" lon="11.161485800"><ele>470</ele><time>2014-07-04T11:34:59Z</time></trkpt>
 <trkpt lat="48.901235400" lon="11.161494100"><ele>470</ele><time>2014-07-04T11:35:03Z</time></trkpt>
 <trkpt lat="48.901247000" lon="11.161484900"><ele>470</ele><time>2014-07-04T11:35:07Z</time></trkpt>
 <trkpt lat="48.901260400" lon="11.161488300"><ele>470</ele><time>2014-07-04T11:35:11Z</time></trkpt>
 <trkpt lat="48.901289500" lon="11.161487400"><ele>471</ele><time>2014-07-04T11:35:15Z</time></trkpt>
 <trkpt lat="48.901314900" lon="11.161491600"><ele>471</ele><time>2014-07-04T11:35:19Z</time></trkpt>
 <trkpt lat="48.901332000" lon="11.161494900"><ele>472</ele><time>2014-07-04T11:35:23Z</time></trkpt>
 <trkpt lat="48.901355800" lon="11.161505300"><ele>472</ele><time>2014-07-04T11:35:27Z</time></trkpt>
 <trkpt lat="48.901384500" lon="11.161512900"><ele>472</ele><time>2014-07-04T11:35:31Z</time></trkpt>
 <trkpt lat="48.901407800" lon="11.161525800"><ele>473</ele><time>2014-07-04T11:35:35Z</time></trkpt>
 <trkpt lat="48.901437800" lon="11.161535800"><ele>473</ele><time>2014-07-04T11:35:39Z</time></trkpt>
 <trkpt lat="48.901467000" lon="11.161547400"><ele>474</ele><time>2014-07-04T11:35:43Z</time></trkpt>
 <trkpt lat="48.901492000" lon="11.161551600"><ele>474</ele><time>2014-07-04T11:35:47Z</time></trkpt>
 <trkpt lat="48.901521200" lon="11.161556600"><ele>475</ele><time>2014-07-04T11:35:51Z</time></trkpt>
 <trkpt lat="48.901545300" lon="11.161559100"><ele>475</ele><time>2014-07-04T11:35:55Z</time></trkpt>
 <trkpt lat="48.901570400" lon="11.161564900"><ele>476</ele><time>2014-07-04T11:35:59Z</time></trkpt>
 <trkpt lat="48.901594500" lon="11.161582400"><ele>476</ele><time>2014-07-04T11:36:03Z</time></trkpt>
 <trkpt lat="48.901611200" lon="11.161597400"><ele>477</ele><time>2014-07-04T11:36:07Z</time></trkpt>
 <trkpt lat="48.901627400" lon="11.161614100"><ele>478</ele><time>2014-07-04T11:36:11Z</time></trkpt>
 <trkpt lat="48.901647400" lon="11.161633700"><ele>478</ele><time>2014-07-04T11:36:15Z</time></trkpt>
 <trkpt lat="48.901659500" lon="11.161656200"><ele>479</ele><time>2014-07-04T11:36:19Z</time></trkpt>
 <trkpt lat="48.901660400" lon="11.161677400"><ele>480</ele><time>2014-07-04T11:36:23Z</time></trkpt>
 <trkpt lat="48.901671600" lon="11.161710700"><ele>481</ele><time>2014-07-04T11:36:27Z</time></trkpt>
 <trkpt lat="48.901691600" lon="11.161740800"><ele>481</ele><time>2014-07-04T11:36:31Z</time></trkpt>
 <trkpt lat="48.901709100" lon="11.161770800"><ele>482</ele><time>2014-07-04T11:36:35Z</time></trkpt>
 <trkpt lat="48.901722400" lon="11.161793700"><ele>483</ele><time>2014-07-04T11:36:39Z</time></trkpt>
 <trkpt lat="48.901740300" lon="11.161823300"><ele>483</ele><time>2014-07-04T11:36:43Z</time></trkpt>
 <trkpt lat="48.901766200" lon="11.161860800"><ele>484</ele><time>2014-07-04T11:36:47Z</time></trkpt>
 <trkpt lat="48.901782800" lon="11.161885700"><ele>485</ele><time>2014-07-04T11:36:51Z</time></trkpt>
 <trkpt lat="48.901807400" lon="11.161910300"><ele>486</ele><time>2014-07-04T11:36:55Z</time></trkpt>
 <trkpt lat="48.901834500" lon="11.161929500"><ele>486</ele><time>2014-07-04T11:36:59Z</time></trkpt>
 <trkpt lat="48.901860800" lon="11.161941200"><ele>487</ele><time>2014-07-04T11:37:03Z</time></trkpt>
 <trkpt lat="48.901883700" lon="11.161963200"><ele>488</ele><time>2014-07-04T11:37:07Z</time></trkpt>
 <trkpt lat="48.901902000" lon="11.161986600"><ele>488</ele><time>2014-07-04T11:37:11Z</time></trkpt>
 <trkpt lat="48.901919500" lon="11.162007000"><ele>489</ele><time>2014-07-04T11:37:15Z</time></trkpt>
 <trkpt lat="48.901927000" lon="11.162035400"><ele>490</ele><time>2014-07-04T11:37:19Z</time></trkpt>
 <trkpt lat="48.901941200" lon="11.162059100"><ele>490</ele><time>2014-07-04T11:37:23Z</time></trkpt>
 <trkpt lat="48.901963700" lon="11.162091600"><ele>491</ele><time>2014-07-04T11:37:27Z</time></trkpt>
 <trkpt lat="48.901974100" lon="11.162116200"><ele>491</ele><time>2014-07-04T11:37:31Z</time></trkpt>
 <trkpt lat="48.901985800" lon="11.162142900"><ele>492</ele><time>2014-07-04T11:37:35Z</time></trkpt>
 <trkpt lat="48.902002000" lon="11.162175800"><ele>492</ele><time>2014-07-04T11:37:39Z</time></trkpt>
 <trkpt lat="48.902025300" lon="11.162199100"><ele>493</ele><time>2014-07-04T11:37:43Z</time></trkpt>
 <trkpt lat="48.902050800" lon="11.162228700"><ele>494</ele><time>2014-07-04T11:37:47Z</time></trkpt>
 <trkpt lat="48.902073300" lon="11.162257900"><ele>494</ele><time>2014-07-04T11:37:51Z</time></trkpt>
 <trkpt lat="48.902094900" lon="11.162294500"><ele>495</ele><time>2014-07-04T11:37:55Z</time></trkpt>
 <trkpt lat="48.902119100" lon="11.162312000"><ele>495</ele><time>2014-07-04T11:37:59Z</time></trkpt>
 <trkpt lat="48.902145300" lon="11.162329100"><ele>496</ele><time>2014-07-04T11:38:03Z</time></trkpt>
 <trkpt lat="48.902173300" lon="11.162350300"><ele>496</ele><time>2014-07-04T11:38:07Z</time></trkpt>
 <trkpt lat="48.902199500" lon="11.162367000"><ele>497</ele><time>2014-07-04T11:38:11Z</time></trkpt>
 <trkpt lat="48.902219900" lon="11.162387000"><ele>498</ele><time>2014-07-04T11:38:15Z</time></trkpt>
 <trkpt lat="48.902239500" lon="11.162400300"><ele>498</ele><time>2014-07-04T11:38:19Z</time></trkpt>
 <trkpt lat="48.902262800" lon="11.162414100"><ele>499</ele><time>2014-07-04T11:38:23Z</time></trkpt>
 <trkpt lat="48.902290400" lon="11.162415300"><ele>499</ele><time>2014-07-04T11:38:27Z</time></trkpt>
 <trkpt lat="48.902321600" lon="11.162426200"><ele>500</ele><time>2014-07-04T11:38:31Z</time></trkpt>
 <trkpt lat="48.902347000" lon="11.162442000"><ele>501</ele><time>2014-07-04T11:38:35Z</time></trkpt>
 <trkpt lat="48.902359900" lon="11.162457400"><ele>501</ele><time>2014-07-04T11:38:39Z</time></trkpt>
 <trkpt lat="48.902376200" lon="11.162464900"><ele>502</ele><time>2014-07-04T11:38:43Z</time></trkpt>
 <trkpt lat="48.902401200" lon="11.162467000"><ele>503</ele><time>2014-07-04T11:38:47Z</time></trkpt>
 <trkpt lat="48.902427400" lon="11.162484100"><ele>503</ele><time>2014-07-04T11:38:51Z</time></trkpt>
 <trkpt lat="48.902451200" lon="11.162503300"><ele>504</ele><time>2014-07-04T11:38:55Z</time></trkpt>
 <trkpt lat="48.902462400" lon="11.162527900"><ele>505</ele><time>2014-07-04T11:38:59Z</time></trkpt>
 <trkpt lat="48.902489900" lon="11.162550300"><ele>505</ele><time>2014-07-04T11:39:03Z</time></trkpt>
 <trkpt lat="48.902512400" lon="11.162565300"><ele>506</ele><time>2014-07-04T11:39:07Z</time></trkpt>
 <trkpt lat="48.902535800" lon="11.162582800"><ele>507</ele><time>2014-07-04T11:39:11Z</time></trkpt>
 <trkpt lat="48.902570800" lon="11.162610800"><ele>507</ele><time>2014-07-04T11:39:15Z</time></trkpt>
 <trkpt lat="48.902599900" lon="11.162638300"><ele>508</ele><time>2014-07-04T11:39:19Z</time></trkpt>
 <trkpt lat="48.902624500" lon="11.162661200"><ele>509</ele><time>2014-07-04T11:39:23Z</time></trkpt>
 <trkpt lat="48.902650800" lon="11.162681600"><ele>509</ele><time>2014-07-04T11:39:27Z</time></trkpt>
 <trkpt lat="48.902679100" lon="11.162700800"><ele>510</ele><time>2014-07-04T11:39:31Z</time></trkpt>
 <trkpt lat="48.902716600" lon="11.162723700"><ele>510</ele><time>2014-07-04T11:39:35Z</time></trkpt>
 <trkpt lat="48.902743300" lon="11.162746200"><ele>511</ele><time>2014-07-04T11:39:39Z</time></trkpt>
 <trkpt lat="48.902768700" lon="11.162762000"><ele>512</ele><time>2014-07-04T11:39:43Z</time></trkpt>
 <trkpt lat="48.902798300" lon="11.162780700"><ele>512</ele><time>2014-07-04T11:39:47Z</time></trkpt>
 <trkpt lat="48.902825400" lon="11.162796200"><ele>513</ele><time>2014-07-04T11:39:51Z</time></trkpt>
 <trkpt lat="48.902854500" lon="11.162817000"><ele>513</ele><time>2014-07-04T11:39:55Z</time></trkpt>
 <trkpt lat="48.902884500" lon="11.162842000"><ele>514</ele><time>2014-07-04T11:39:59Z</time></trkpt>
 <trkpt lat="48.902902500" lon="11.162864500"><ele>514</ele><time>2014-07-04T11:40:03Z</time></trkpt>
 <trkpt lat="48.902923700" lon="11.162884100"><ele>515</ele><time>2014-07-04T11:40:07Z</time></trkpt>
 <trkpt lat="48.902949900" lon="11.162902400"><ele>516</ele><time>2014-07-04T11:40:11Z</time></trkpt>
 <trkpt lat="48.902973700" lon="11.162919900"><ele>516</ele><time>2014-07-04T11:40:15Z</time></trkpt>
 <trkpt lat="48.902996600" lon="11.162942000"><ele>517</ele><time>2014-07-04T11:40:19Z</time></trkpt>
 <trkpt lat="48.903017900" lon="11.162967800"><ele>517</ele><time>2014-07-04T11:40:23Z</time></trkpt>
 <trkpt lat="48.903036200" lon="11.162978300"><ele>517</ele><time>2014-07-04T11:40:27Z</time></trkpt>
 <trkpt lat="48.903049900" lon="11.162984500"><ele>518</ele><time>2014-07-04T11:40:31Z</time></trkpt>
 <trkpt lat="48.903070800" lon="11.163015800"><ele>518</ele><time>2014-07-04T11:40:35Z</time></trkpt>
 <trkpt lat="48.903097400" lon="11.163044900"><ele>519</ele><time>2014-07-04T11:40:39Z</time></trkpt>
 <trkpt lat="48.903105800" lon="11.163074100"><ele>519</ele><time>2014-07-04T11:40:43Z</time></trkpt>
 <trkpt lat="48.903114900" lon="11.163093300"><ele>519</ele><time>2014-07-04T11:40:47Z</time></trkpt>
 <trkpt lat="48.903126200" lon="11.163121600"><ele>520</ele><time>2014-07-04T11:40:51Z</time></trkpt>
 <trkpt lat="48.903159900" lon="11.163132000"><ele>520</ele><time>2014-07-04T11:40:55Z</time></trkpt>
 <trkpt lat="48.903202900" lon="11.163158300"><ele>520</ele><time>2014-07-04T11:40:59Z</time></trkpt>
 <trkpt lat="48.903233300" lon="11.163195800"><ele>521</ele><time>2014-07-04T11:41:03Z</time></trkpt>
 <trkpt lat="48.903265300" lon="11.163238200"><ele>521</ele><time>2014-07-04T11:41:07Z</time></trkpt>
 <trkpt lat="48.903306600" lon="11.163263300"><ele>521</ele><time>2014-07-04T11:41:11Z</time></trkpt>
 <trkpt lat="48.903334500" lon="11.163289500"><ele>522</ele><time>2014-07-04T11:41:15Z</time></trkpt>
 <trkpt lat="48.903353700" lon="11.163312000"><ele>522</ele><time>2014-07-04T11:41:19Z</time></trkpt>
 <trkpt lat="48.903401600" lon="11.163341600"><ele>522</ele><time>2014-07-04T11:41:23Z</time></trkpt>
 <trkpt lat="48.903443300" lon="11.163374900"><ele>522</ele><time>2014-07-04T11:41:27Z</time></trkpt>
 <trkpt lat="48.903472800" lon="11.163403300"><ele>523</ele><time>2014-07-04T11:41:31Z</time></trkpt>
 <trkpt lat="48.903503300" lon="11.163426600"><ele>523</ele><time>2014-07-04T11:41:35Z</time></trkpt>
 <trkpt lat="48.903539500" lon="11.163449900"><ele>523</ele><time>2014-07-04T11:41:39Z</time></trkpt>
 <trkpt lat="48.903582000" lon="11.163484900"><ele>524</ele><time>2014-07-04T11:41:43Z</time></trkpt>
 <trkpt lat="48.903622800" lon="11.163544100"><ele>524</ele><time>2014-07-04T11:41:47Z</time></trkpt>
 <trkpt lat="48.903667400" lon="11.163597400"><ele>524</ele><time>2014-07-04T11:41:51Z</time></trkpt>
 <trkpt lat="48.903706600" lon="11.163632900"><ele>524</ele><time>2014-07-04T11:41:55Z</time></trkpt>
 <trkpt lat="48.903733300" lon="11.163666200"><ele>525</ele><time>2014-07-04T11:41:59Z</time></trkpt>
 <trkpt lat="48.903760300" lon="11.163705800"><ele>525</ele><time>2014-07-04T11:42:03Z</time></trkpt>
 <trkpt lat="48.903779900" lon="11.163763700"><ele>525</ele><time>2014-07-04T11:42:07Z</time></trkpt>
 <trkpt lat="48.903799900" lon="11.163800400"><ele>525</ele><time>2014-07-04T11:42:11Z</time></trkpt>
 <trkpt lat="48.903827800" lon="11.163848700"><ele>526</ele><time>2014-07-04T11:42:15Z</time></trkpt>
 <trkpt lat="48.903833700" lon="11.163904100"><ele>526</ele><time>2014-07-04T11:42:19Z</time></trkpt>
 <trkpt lat="48.903865800" lon="11.163954500"><ele>526</ele><time>2014-07-04T11:42:23Z</time></trkpt>
 <trkpt lat="48.903889900" lon="11.163982800"><ele>526</ele><time>2014-07-04T11:42:27Z</time></trkpt>
 <trkpt lat="48.903902800" lon="11.163995300"><ele>526</ele><time>2014-07-04T11:42:31Z</time></trkpt>
 <trkpt lat="48.903920800" lon="11.164014100"><ele>526</ele><time>2014-07-04T11:42:35Z</time></trkpt>
 <trkpt lat="48.903952900" lon="11.164044100"><ele>526</ele><time>2014-07-04T11:42:39Z</time></trkpt>
 <trkpt lat="48.903993300" lon="11.164093300"><ele>527</ele><time>2014-07-04T11:42:43Z</time></trkpt>
 <trkpt lat="48.904032000" lon="11.164131200"><ele>527</ele><time>2014-07-04T11:42:47Z</time></trkpt>
 <trkpt lat="48.904068700" lon="11.164166600"><ele>527</ele><time>2014-07-04T11:42:51Z</time></trkpt>
 <trkpt lat="48.904102400" lon="11.164213300"><ele>527</ele><time>2014-07-04T11:42:55Z</time></trkpt>
 <trkpt lat="48.904130400" lon="11.164263700"><ele>527</ele><time>2014-07-04T11:42:59Z</time></trkpt>
 <trkpt lat="48.904157400" lon="11.164316200"><ele>527</ele><time>2014-07-04T11:43:03Z</time></trkpt>
 <trkpt lat="48.904183300" lon="11.164373700"><ele>527</ele><time>2014-07-04T11:43:07Z</time></trkpt>
 <trkpt lat="48.904194500" lon="11.164435300"><ele>527</ele><time>2014-07-04T11:43:11Z</time></trkpt>
 <trkpt lat="48.904206200" lon="11.164494100"><ele>528</ele><time>2014-07-04T11:43:15Z</time></trkpt>
 <trkpt lat="48.904229900" lon="11.164562000"><ele>528</ele><time>2014-07-04T11:43:19Z</time></trkpt>
 <trkpt lat="48.904262800" lon="11.164618300"><ele>528</ele><time>2014-07-04T11:43:23Z</time></trkpt>
 <trkpt lat="48.904287400" lon="11.164684500"><ele>528</ele><time>2014-07-04T11:43:27Z</time></trkpt>
 <trkpt lat="48.904311200" lon="11.164744100"><ele>528</ele><time>2014-07-04T11:43:31Z</time></trkpt>
 <trkpt lat="48.904332500" lon="11.164819900"><ele>528</ele><time>2014-07-04T11:43:35Z</time></trkpt>
 <trkpt lat="48.904341600" lon="11.164879900"><ele>528</ele><time>2014-07-04T11:43:39Z</time></trkpt>
 <trkpt lat="48.904348700" lon="11.164944900"><ele>529</ele><time>2014-07-04T11:43:43Z</time></trkpt>
 <trkpt lat="48.904367900" lon="11.165013700"><ele>529</ele><time>2014-07-04T11:43:47Z</time></trkpt>
 <trkpt lat="48.904382800" lon="11.165088700"><ele>529</ele><time>2014-07-04T11:43:51Z</time></trkpt>
 <trkpt lat="48.904408700" lon="11.165167800"><ele>529</ele><time>2014-07-04T11:43:55Z</time></trkpt>
 <trkpt lat="48.904431200" lon="11.165236200"><ele>529</ele><time>2014-07-04T11:43:59Z</time></trkpt>
 <trkpt lat="48.904439100" lon="11.165319100"><ele>529</ele><time>2014-07-04T11:44:03Z</time></trkpt>
 <trkpt lat="48.904444100" lon="11.165386600"><ele>529</ele><time>2014-07-04T11:44:07Z</time></trkpt>
 <trkpt lat="48.904454100" lon="11.165463300"><ele>529</ele><time>2014-07-04T11:44:11Z</time></trkpt>
 <trkpt lat="48.904468700" lon="11.165535700"><ele>529</ele><time>2014-07-04T11:44:15Z</time></trkpt>
 <trkpt lat="48.904485800" lon="11.165609900"><ele>529</ele><time>2014-07-04T11:44:19Z</time></trkpt>
 <trkpt lat="48.904495400" lon="11.165674500"><ele>529</ele><time>2014-07-04T11:44:23Z</time></trkpt>
 <trkpt lat="48.904509900" lon="11.165736600"><ele>529</ele><time>2014-07-04T11:44:27Z</time></trkpt>
 <trkpt lat="48.904522900" lon="11.165811200"><ele>529</ele><time>2014-07-04T11:44:31Z</time></trkpt>
 <trkpt lat="48.904532800" lon="11.165906200"><ele>529</ele><time>2014-07-04T11:44:35Z</time></trkpt>
 <trkpt lat="48.904544900" lon="11.165986600"><ele>529</ele><time>2014-07-04T11:44:39Z</time></trkpt>
 <trkpt lat="48.904556200" lon="11.166061600"><ele>529</ele><time>2014-07-04T11:44:43Z</time></trkpt>
 <trkpt lat="48.904567400" lon="11.166119900"><ele>529</ele><time>2014-07-04T11:44:47Z</time></trkpt>
 <trkpt lat="48.904582000" lon="11.166190800"><ele>529</ele><time>2014-07-04T11:44:51Z</time></trkpt>
 <trkpt lat="48.904585800" lon="11.166280400"><ele>529</ele><time>2014-07-04T11:44:55Z</time></trkpt>
 <trkpt lat="48.904589100" lon="11.166357900"><ele>528</ele><time>2014-07-04T11:44:59Z</time></trkpt>
 <trkpt lat="48.904594500" lon="11.166420300"><ele>528</ele><time>2014-07-04T11:45:03Z</time></trkpt>
 <trkpt lat="48.904601600" lon="11.166494100"><ele>528</ele><time>2014-07-04T11:45:07Z</time></trkpt>
 <trkpt lat="48.904605800" lon="11.166562000"><ele>528</ele><time>2014-07-04T11:45:11Z</time></trkpt>
 <trkpt lat="48.904609900" lon="11.166639900"><ele>528</ele><time>2014-07-04T11:45:15Z</time></trkpt>
 <trkpt lat="48.904623300" lon="11.166719900"><ele>527</ele><time>2014-07-04T11:45:19Z</time></trkpt>
 <trkpt lat="48.904640300" lon="11.166787400"><ele>527</ele><time>2014-07-04T11:45:23Z</time></trkpt>
 <trkpt lat="48.904650300" lon="11.166861200"><ele>527</ele><time>2014-07-04T11:45:27Z</time></trkpt>
 <trkpt lat="48.904647000" lon="11.166943700"><ele>527</ele><time>2014-07-04T11:45:31Z</time></trkpt>
 <trkpt lat="48.904661200" lon="11.167027000"><ele>527</ele><time>2014-07-04T11:45:35Z</time></trkpt>
 <trkpt lat="48.904682400" lon="11.167097000"><ele>526</ele><time>2014-07-04T11:45:39Z</time></trkpt>
 <trkpt lat="48.904689500" lon="11.167173300"><ele>526</ele><time>2014-07-04T11:45:43Z</time></trkpt>
 <trkpt lat="48.904691200" lon="11.167247900"><ele>526</ele><time>2014-07-04T11:45:47Z</time></trkpt>
 <trkpt lat="48.904697400" lon="11.167328300"><ele>526</ele><time>2014-07-04T11:45:51Z</time></trkpt>
 <trkpt lat="48.904712900" lon="11.167392800"><ele>525</ele><time>2014-07-04T11:45:55Z</time></trkpt>
 <trkpt lat="48.904725800" lon="11.167479100"><ele>525</ele><time>2014-07-04T11:45:59Z</time></trkpt>
 <trkpt lat="48.904744900" lon="11.167548700"><ele>525</ele><time>2014-07-04T11:46:03Z</time></trkpt>
 <trkpt lat="48.904747800" lon="11.167624900"><ele>525</ele><time>2014-07-04T11:46:07Z</time></trkpt>
 <trkpt lat="48.904756200" lon="11.167699900"><ele>525</ele><time>2014-07-04T11:46:11Z</time></trkpt>
 <trkpt lat="48.904767000" lon="11.167769900"><ele>524</ele><time>2014-07-04T11:46:15Z</time></trkpt>
 <trkpt lat="48.904768300" lon="11.167850800"><ele>524</ele><time>2014-07-04T11:46:19Z</time></trkpt>
 <trkpt lat="48.904764900" lon="11.167901600"><ele>524</ele><time>2014-07-04T11:46:23Z</time></trkpt>
 <trkpt lat="48.904768700" lon="11.167976600"><ele>524</ele><time>2014-07-04T11:46:27Z</time></trkpt>
 <trkpt lat="48.904769500" lon="11.168029100"><ele>524</ele><time>2014-07-04T11:46:31Z</time></trkpt>
 <trkpt lat="48.904770400" lon="11.168059500"><ele>524</ele><time>2014-07-04T11:46:35Z</time></trkpt>
 <trkpt lat="48.904774100" lon="11.168127000"><ele>524</ele><time>2014-07-04T11:46:39Z</time></trkpt>
 <trkpt lat="48.904777000" lon="11.168190400"><ele>524</ele><time>2014-07-04T11:46:43Z</time></trkpt>
 <trkpt lat="48.904783700" lon="11.168264500"><ele>524</ele><time>2014-07-04T11:46:47Z</time></trkpt>
 <trkpt lat="48.904791200" lon="11.168329900"><ele>524</ele><time>2014-07-04T11:46:51Z</time></trkpt>
 <trkpt lat="48.904794500" lon="11.168406600"><ele>524</ele><time>2014-07-04T11:46:55Z</time></trkpt>
 <trkpt lat="48.904813700" lon="11.168479900"><ele>524</ele><time>2014-07-04T11:46:59Z</time></trkpt>
 <trkpt lat="48.904809100" lon="11.168564900"><ele>524</ele><time>2014-07-04T11:47:03Z</time></trkpt>
 <trkpt lat="48.904796200" lon="11.168633700"><ele>524</ele><time>2014-07-04T11:47:07Z</time></trkpt>
 <trkpt lat="48.904787900" lon="11.168701200"><ele>524</ele><time>2014-07-04T11:47:11Z</time></trkpt>
 <trkpt lat="48.904780800" lon="11.168758700"><ele>524</ele><time>2014-07-04T11:47:15Z</time></trkpt>
 <trkpt lat="48.904766200" lon="11.168816200"><ele>524</ele><time>2014-07-04T11:47:19Z</time></trkpt>
 <trkpt lat="48.904747400" lon="11.168878300"><ele>524</ele><time>2014-07-04T11:47:23Z</time></trkpt>
 <trkpt lat="48.904726200" lon="11.168948700"><ele>524</ele><time>2014-07-04T11:47:27Z</time></trkpt>
 <trkpt lat="48.904684900" lon="11.169027000"><ele>524</ele><time>2014-07-04T11:47:31Z</time></trkpt>
 <trkpt lat="48.904678700" lon="11.169089500"><ele>524</ele><time>2014-07-04T11:47:35Z</time></trkpt>
 <trkpt lat="48.904677900" lon="11.169151200"><ele>524</ele><time>2014-07-04T11:47:39Z</time></trkpt>
 <trkpt lat="48.904670400" lon="11.169213700"><ele>523</ele><time>2014-07-04T11:47:43Z</time></trkpt>
 <trkpt lat="48.904659100" lon="11.169271600"><ele>523</ele><time>2014-07-04T11:47:47Z</time></trkpt>
 <trkpt lat="48.904651600" lon="11.169326600"><ele>523</ele><time>2014-07-04T11:47:51Z</time></trkpt>
 <trkpt lat="48.904656200" lon="11.169382000"><ele>522</ele><time>2014-07-04T11:47:55Z</time></trkpt>
 <trkpt lat="48.904664100" lon="11.169442800"><ele>522</ele><time>2014-07-04T11:47:59Z</time></trkpt>
 <trkpt lat="48.904674500" lon="11.169504500"><ele>521</ele><time>2014-07-04T11:48:03Z</time></trkpt>
 <trkpt lat="48.904690800" lon="11.169573700"><ele>521</ele><time>2014-07-04T11:48:07Z</time></trkpt>
 <trkpt lat="48.904712900" lon="11.169641600"><ele>520</ele><time>2014-07-04T11:48:11Z</time></trkpt>
 <trkpt lat="48.904734500" lon="11.169715400"><ele>519</ele><time>2014-07-04T11:48:15Z</time></trkpt>
 <trkpt lat="48.904747800" lon="11.169772800"><ele>518</ele><time>2014-07-04T11:48:19Z</time></trkpt>
 <trkpt lat="48.904762900" lon="11.169840800"><ele>518</ele><time>2014-07-04T11:48:23Z</time></trkpt>
 <trkpt lat="48.904777000" lon="11.169895300"><ele>517</ele><time>2014-07-04T11:48:27Z</time></trkpt>
 <trkpt lat="48.904804100" lon="11.169961200"><ele>516</ele><time>2014-07-04T11:48:31Z</time></trkpt>
 <trkpt lat="48.904819900" lon="11.170033300"><ele>515</ele><time>2014-07-04T11:48:35Z</time></trkpt>
 <trkpt lat="48.904831600" lon="11.170102800"><ele>514</ele><time>2014-07-04T11:48:39Z</time></trkpt>
 <trkpt lat="48.904843300" lon="11.170165700"><ele>513</ele><time>2014-07-04T11:48:43Z</time></trkpt>
 <trkpt lat="48.904861200" lon="11.170217400"><ele>512</ele><time>2014-07-04T11:48:47Z</time></trkpt>
 <trkpt lat="48.904869500" lon="11.170274100"><ele>511</ele><time>2014-07-04T11:48:51Z</time></trkpt>
 <trkpt lat="48.904884100" lon="11.170326200"><ele>510</ele><time>2014-07-04T11:48:55Z</time></trkpt>
 <trkpt lat="48.904894500" lon="11.170399500"><ele>509</ele><time>2014-07-04T11:48:59Z</time></trkpt>
 <trkpt lat="48.904898700" lon="11.170461200"><ele>509</ele><time>2014-07-04T11:49:03Z</time></trkpt>
 <trkpt lat="48.904877000" lon="11.170549900"><ele>508</ele><time>2014-07-04T11:49:07Z</time></trkpt>
 <trkpt lat="48.904860300" lon="11.170617000"><ele>507</ele><time>2014-07-04T11:49:11Z</time></trkpt>
 <trkpt lat="48.904850800" lon="11.170695800"><ele>506</ele><time>2014-07-04T11:49:15Z</time></trkpt>
 <trkpt lat="48.904848700" lon="11.170764500"><ele>505</ele><time>2014-07-04T11:49:19Z</time></trkpt>
 <trkpt lat="48.904834900" lon="11.170849500"><ele>505</ele><time>2014-07-04T11:49:23Z</time></trkpt>
 <trkpt lat="48.904811200" lon="11.170902000"><ele>504</ele><time>2014-07-04T11:49:27Z</time></trkpt>
 <trkpt lat="48.904800300" lon="11.170969900"><ele>503</ele><time>2014-07-04T11:49:31Z</time></trkpt>
 <trkpt lat="48.904784500" lon="11.171027900"><ele>503</ele><time>2014-07-04T11:49:35Z</time></trkpt>
 <trkpt lat="48.904772400" lon="11.171080800"><ele>502</ele><time>2014-07-04T11:49:39Z</time></trkpt>
 <trkpt lat="48.904770700" lon="11.171136600"><ele>502</ele><time>2014-07-04T11:49:43Z</time></trkpt>
 <trkpt lat="48.904758700" lon="11.171192400"><ele>501</ele><time>2014-07-04T11:49:47Z</time></trkpt>
 <trkpt lat="48.904757400" lon="11.171241600"><ele>501</ele><time>2014-07-04T11:49:51Z</time></trkpt>
 <trkpt lat="48.904747800" lon="11.171297000"><ele>501</ele><time>2014-07-04T11:49:55Z</time></trkpt>
 <trkpt lat="48.904736600" lon="11.171359900"><ele>500</ele><time>2014-07-04T11:49:59Z</time></trkpt>
 <trkpt lat="48.904715300" lon="11.171424500"><ele>500</ele><time>2014-07-04T11:50:03Z</time></trkpt>
 <trkpt lat="48.904698200" lon="11.171493700"><ele>500</ele><time>2014-07-04T11:50:07Z</time></trkpt>
 <trkpt lat="48.904694900" lon="11.171563700"><ele>500</ele><time>2014-07-04T11:50:11Z</time></trkpt>
 <trkpt lat="48.904696200" lon="11.171633300"><ele>499</ele><time>2014-07-04T11:50:15Z</time></trkpt>
 <trkpt lat="48.904704100" lon="11.171697400"><ele>499</ele><time>2014-07-04T11:50:19Z</time></trkpt>
 <trkpt lat="48.904695300" lon="11.171773700"><ele>499</ele><time>2014-07-04T11:50:23Z</time></trkpt>
 <trkpt lat="48.904683700" lon="11.171852800"><ele>499</ele><time>2014-07-04T11:50:27Z</time></trkpt>
 <trkpt lat="48.904677000" lon="11.171919500"><ele>499</ele><time>2014-07-04T11:50:31Z</time></trkpt>
 <trkpt lat="48.904675800" lon="11.171983700"><ele>499</ele><time>2014-07-04T11:50:35Z</time></trkpt>
 <trkpt lat="48.904695400" lon="11.172057000"><ele>499</ele><time>2014-07-04T11:50:39Z</time></trkpt>
 <trkpt lat="48.904703300" lon="11.172121600"><ele>499</ele><time>2014-07-04T11:50:43Z</time></trkpt>
 <trkpt lat="48.904722400" lon="11.172186200"><ele>499</ele><time>2014-07-04T11:50:47Z</time></trkpt>
 <trkpt lat="48.904737400" lon="11.172250400"><ele>499</ele><time>2014-07-04T11:50:51Z</time></trkpt>
 <trkpt lat="48.904752400" lon="11.172311600"><ele>499</ele><time>2014-07-04T11:50:55Z</time></trkpt>
 <trkpt lat="48.904755800" lon="11.172384900"><ele>499</ele><time>2014-07-04T11:50:59Z</time></trkpt>
 <trkpt lat="48.904759100" lon="11.172439900"><ele>499</ele><time>2014-07-04T11:51:03Z</time></trkpt>
 <trkpt lat="48.904755300" lon="11.172483700"><ele>499</ele><time>2014-07-04T11:51:07Z</time></trkpt>
 <trkpt lat="48.904731600" lon="11.172554900"><ele>499</ele><time>2014-07-04T11:51:11Z</time></trkpt>
 <trkpt lat="48.904708700" lon="11.172646200"><ele>499</ele><time>2014-07-04T11:51:15Z</time></trkpt>
 <trkpt lat="48.904692400" lon="11.172723300"><ele>499</ele><time>2014-07-04T11:51:19Z</time></trkpt>
 <trkpt lat="48.904668300" lon="11.172806200"><ele>499</ele><time>2014-07-04T11:51:23Z</time></trkpt>
 <trkpt lat="48.904639500" lon="11.172882400"><ele>499</ele><time>2014-07-04T11:51:27Z</time></trkpt>
 <trkpt lat="48.904610400" lon="11.172916200"><ele>499</ele><time>2014-07-04T11:51:31Z</time></trkpt>
 <trkpt lat="48.904569100" lon="11.172952000"><ele>499</ele><time>2014-07-04T11:51:35Z</time></trkpt>
 <trkpt lat="48.904539900" lon="11.172993300"><ele>499</ele><time>2014-07-04T11:51:39Z</time></trkpt>
 <trkpt lat="48.904505400" lon="11.173035800"><ele>499</ele><time>2014-07-04T11:51:43Z</time></trkpt>
 <trkpt lat="48.904477400" lon="11.173094900"><ele>499</ele><time>2014-07-04T11:51:47Z</time></trkpt>
 <trkpt lat="48.904463700" lon="11.173169500"><ele>499</ele><time>2014-07-04T11:51:51Z</time></trkpt>
 <trkpt lat="48.904449900" lon="11.173228700"><ele>499</ele><time>2014-07-04T11:51:55Z</time></trkpt>
 <trkpt lat="48.904424500" lon="11.173322000"><ele>499</ele><time>2014-07-04T11:51:59Z</time></trkpt>
 <trkpt lat="48.904383700" lon="11.173409900"><ele>499</ele><time>2014-07-04T11:52:03Z</time></trkpt>
 <trkpt lat="48.904356200" lon="11.173492900"><ele>499</ele><time>2014-07-04T11:52:07Z</time></trkpt>
 <trkpt lat="48.904340800" lon="11.173567000"><ele>500</ele><time>2014-07-04T11:52:11Z</time></trkpt>
 <trkpt lat="48.904322000" lon="11.173657000"><ele>500</ele><time>2014-07-04T11:52:15Z</time></trkpt>
 <trkpt lat="48.904316200" lon="11.173735700"><ele>500</ele><time>2014-07-04T11:52:19Z</time></trkpt>
 <trkpt lat="48.904316600" lon="11.173812500"><ele>501</ele><time>2014-07-04T11:52:23Z</time></trkpt>
 <trkpt lat="48.904315400" lon="11.173882400"><ele>502</ele><time>2014-07-04T11:52:27Z</time></trkpt>
 <trkpt lat="48.904319500" lon="11.173954900"><ele>502</ele><time>2014-07-04T11:52:31Z</time></trkpt>
 <trkpt lat="48.904318200" lon="11.174022400"><ele>503</ele><time>2014-07-04T11:52:35Z</time></trkpt>
 <trkpt lat="48.904321200" lon="11.174061600"><ele>504</ele><time>2014-07-04T11:52:39Z</time></trkpt>
 <trkpt lat="48.904324900" lon="11.174103700"><ele>505</ele><time>2014-07-04T11:52:43Z</time></trkpt>
 <trkpt lat="48.904326600" lon="11.174142000"><ele>506</ele><time>2014-07-04T11:52:47Z</time></trkpt>
 <trkpt lat="48.904325400" lon="11.174188700"><ele>507</ele><time>2014-07-04T11:52:51Z</time></trkpt>
 <trkpt lat="48.904313300" lon="11.174256200"><ele>508</ele><time>2014-07-04T11:52:55Z</time></trkpt>
 <trkpt lat="48.904290800" lon="11.174336600"><ele>509</ele><time>2014-07-04T11:52:59Z</time></trkpt>
 <trkpt lat="48.904272400" lon="11.174418300"><ele>510</ele><time>2014-07-04T11:53:03Z</time></trkpt>
 <trkpt lat="48.904261600" lon="11.174515800"><ele>511</ele><time>2014-07-04T11:53:07Z</time></trkpt>
 <trkpt lat="48.904249500" lon="11.174618300"><ele>512</ele><time>2014-07-04T11:53:11Z</time></trkpt>
 <trkpt lat="48.904244500" lon="11.174689500"><ele>513</ele><time>2014-07-04T11:53:15Z</time></trkpt>
 <trkpt lat="48.904244100" lon="11.174764500"><ele>514</ele><time>2014-07-04T11:53:19Z</time></trkpt>
 <trkpt lat="48.904239900" lon="11.174837900"><ele>515</ele><time>2014-07-04T11:53:23Z</time></trkpt>
 <trkpt lat="48.904232900" lon="11.174915400"><ele>516</ele><time>2014-07-04T11:53:27Z</time></trkpt>
 <trkpt lat="48.904218700" lon="11.175015800"><ele>516</ele><time>2014-07-04T11:53:31Z</time></trkpt>
 <trkpt lat="48.904219500" lon="11.175094900"><ele>517</ele><time>2014-07-04T11:53:35Z</time></trkpt>
 <trkpt lat="48.904214500" lon="11.175182400"><ele>518</ele><time>2014-07-04T11:53:39Z</time></trkpt>
 <trkpt lat="48.904224900" lon="11.175271200"><ele>519</ele><time>2014-07-04T11:53:43Z</time></trkpt>
 <trkpt lat="48.904256200" lon="11.175347800"><ele>520</ele><time>2014-07-04T11:53:47Z</time></trkpt>
 <trkpt lat="48.904280300" lon="11.175418700"><ele>520</ele><time>2014-07-04T11:53:51Z</time></trkpt>
 <trkpt lat="48.904321200" lon="11.175454500"><ele>521</ele><time>2014-07-04T11:53:55Z</time></trkpt>
 <trkpt lat="48.904354900" lon="11.175504100"><ele>522</ele><time>2014-07-04T11:53:59Z</time></trkpt>
 <trkpt lat="48.904397000" lon="11.175564500"><ele>522</ele><time>2014-07-04T11:54:03Z</time></trkpt>
 <trkpt lat="48.904431600" lon="11.175592000"><ele>523</ele><time>2014-07-04T11:54:07Z</time></trkpt>
 <trkpt lat="48.904446600" lon="11.175614500"><ele>524</ele><time>2014-07-04T11:54:11Z</time></trkpt>
 <trkpt lat="48.904470300" lon="11.175653700"><ele>524</ele><time>2014-07-04T11:54:15Z</time></trkpt>
 <trkpt lat="48.904502000" lon="11.175690400"><ele>525</ele><time>2014-07-04T11:54:19Z</time></trkpt>
 <trkpt lat="48.904543300" lon="11.175736200"><ele>525</ele><time>2014-07-04T11:54:23Z</time></trkpt>
 <trkpt lat="48.904579100" lon="11.175787400"><ele>526</ele><time>2014-07-04T11:54:27Z</time></trkpt>
 <trkpt lat="48.904626600" lon="11.175836200"><ele>526</ele><time>2014-07-04T11:54:31Z</time></trkpt>
 <trkpt lat="48.904695700" lon="11.175881600"><ele>527</ele><time>2014-07-04T11:54:35Z</time></trkpt>
 <trkpt lat="48.904757000" lon="11.175902000"><ele>528</ele><time>2014-07-04T11:54:39Z</time></trkpt>
 <trkpt lat="48.904807900" lon="11.175933300"><ele>528</ele><time>2014-07-04T11:54:43Z</time></trkpt>
 <trkpt lat="48.904868300" lon="11.175982000"><ele>529</ele><time>2014-07-04T11:54:47Z</time></trkpt>
 <trkpt lat="48.904904100" lon="11.176014900"><ele>530</ele><time>2014-07-04T11:54:51Z</time></trkpt>
 <trkpt lat="48.904932900" lon="11.176050300"><ele>531</ele><time>2014-07-04T11:54:55Z</time></trkpt>
 <trkpt lat="48.904948300" lon="11.176089100"><ele>532</ele><time>2014-07-04T11:54:59Z</time></trkpt>
 <trkpt lat="48.904931600" lon="11.176137000"><ele>533</ele><time>2014-07-04T11:55:03Z</time></trkpt>
 <trkpt lat="48.904887800" lon="11.176151200"><ele>534</ele><time>2014-07-04T11:55:07Z</time></trkpt>
 <trkpt lat="48.904814500" lon="11.176127800"><ele>535</ele><time>2014-07-04T11:55:11Z</time></trkpt>
 <trkpt lat="48.904789900" lon="11.176100400"><ele>536</ele><time>2014-07-04T11:55:15Z</time></trkpt>
 <trkpt lat="48.904757800" lon="11.176079100"><ele>538</ele><time>2014-07-04T11:55:19Z</time></trkpt>
 <trkpt lat="48.904693700" lon="11.176047000"><ele>539</ele><time>2014-07-04T11:55:23Z</time></trkpt>
 <trkpt lat="48.904641200" lon="11.176010800"><ele>540</ele><time>2014-07-04T11:55:27Z</time></trkpt>
 <trkpt lat="48.904583300" lon="11.176006200"><ele>542</ele><time>2014-07-04T11:55:31Z</time></trkpt>
 <trkpt lat="48.904523700" lon="11.176016200"><ele>543</ele><time>2014-07-04T11:55:35Z</time></trkpt>
 <trkpt lat="48.904463700" lon="11.176040300"><ele>544</ele><time>2014-07-04T11:55:39Z</time></trkpt>
 <trkpt lat="48.904418700" lon="11.176071600"><ele>546</ele><time>2014-07-04T11:55:43Z</time></trkpt>
 <trkpt lat="48.904364900" lon="11.176079900"><ele>547</ele><time>2014-07-04T11:55:47Z</time></trkpt>
 <trkpt lat="48.904317000" lon="11.176091200"><ele>549</ele><time>2014-07-04T11:55:51Z</time></trkpt>
 <trkpt lat="48.904263700" lon="11.176121600"><ele>550</ele><time>2014-07-04T11:55:55Z</time></trkpt>
 <trkpt lat="48.904207400" lon="11.176142000"><ele>552</ele><time>2014-07-04T11:55:59Z</time></trkpt>
 <trkpt lat="48.904049900" lon="11.176075800"><ele>553</ele><time>2014-07-04T11:56:03Z</time></trkpt>
 <trkpt lat="48.903864900" lon="11.175993300"><ele>554</ele><time>2014-07-04T11:56:07Z</time></trkpt>
 <trkpt lat="48.903715400" lon="11.175929900"><ele>555</ele><time>2014-07-04T11:56:11Z</time></trkpt>
 <trkpt lat="48.903634100" lon="11.175962400"><ele>557</ele><time>2014-07-04T11:56:15Z</time></trkpt>
 <trkpt lat="48.903550300" lon="11.175918300"><ele>558</ele><time>2014-07-04T11:56:19Z</time></trkpt>
 <trkpt lat="48.903471600" lon="11.175884100"><ele>559</ele><time>2014-07-04T11:56:23Z</time></trkpt>
 <trkpt lat="48.903457400" lon="11.175897800"><ele>560</ele><time>2014-07-04T11:56:27Z</time></trkpt>
 <trkpt lat="48.903460800" lon="11.175919100"><ele>560</ele><time>2014-07-04T11:56:31Z</time></trkpt>
 <trkpt lat="48.903427000" lon="11.175915400"><ele>561</ele><time>2014-07-04T11:56:35Z</time></trkpt>
 <trkpt lat="48.903414100" lon="11.175887800"><ele>561</ele><time>2014-07-04T11:56:39Z</time></trkpt>
 <trkpt lat="48.903427400" lon="11.175903700"><ele>562</ele><time>2014-07-04T11:56:43Z</time></trkpt>
 <trkpt lat="48.903428700" lon="11.175919900"><ele>561</ele><time>2014-07-04T11:56:47Z</time></trkpt>
 <trkpt lat="48.903396600" lon="11.175922900"><ele>560</ele><time>2014-07-04T11:56:51Z</time></trkpt>
 <trkpt lat="48.903351600" lon="11.175911600"><ele>559</ele><time>2014-07-04T11:56:55Z</time></trkpt>
 <trkpt lat="48.903288700" lon="11.175891600"><ele>558</ele><time>2014-07-04T11:56:59Z</time></trkpt>
 <trkpt lat="48.903229500" lon="11.175877400"><ele>556</ele><time>2014-07-04T11:57:03Z</time></trkpt>
 <trkpt lat="48.903262800" lon="11.176047400"><ele>554</ele><time>2014-07-04T11:57:07Z</time></trkpt>
 <trkpt lat="48.903296200" lon="11.176176200"><ele>552</ele><time>2014-07-04T11:57:11Z</time></trkpt>
 <trkpt lat="48.903341600" lon="11.176286600"><ele>550</ele><time>2014-07-04T11:57:15Z</time></trkpt>
 <trkpt lat="48.903355800" lon="11.176367400"><ele>548</ele><time>2014-07-04T11:57:19Z</time></trkpt>
 <trkpt lat="48.903371200" lon="11.176455300"><ele>546</ele><time>2014-07-04T11:57:23Z</time></trkpt>
 <trkpt lat="48.903382900" lon="11.176539100"><ele>543</ele><time>2014-07-04T11:57:27Z</time></trkpt>
 <trkpt lat="48.903389900" lon="11.176595800"><ele>541</ele><time>2014-07-04T11:57:31Z</time></trkpt>
 <trkpt lat="48.903375400" lon="11.176630700"><ele>538</ele><time>2014-07-04T11:57:35Z</time></trkpt>
 <trkpt lat="48.903340800" lon="11.176673700"><ele>536</ele><time>2014-07-04T11:57:39Z</time></trkpt>
 <trkpt lat="48.903313300" lon="11.176706200"><ele>533</ele><time>2014-07-04T11:57:43Z</time></trkpt>
 <trkpt lat="48.903302800" lon="11.176761600"><ele>531</ele><time>2014-07-04T11:57:47Z</time></trkpt>
 <trkpt lat="48.903290300" lon="11.176834100"><ele>528</ele><time>2014-07-04T11:57:51Z</time></trkpt>
 <trkpt lat="48.903263700" lon="11.176894900"><ele>527</ele><time>2014-07-04T11:57:55Z</time></trkpt>
 <trkpt lat="48.903230800" lon="11.176989900"><ele>525</ele><time>2014-07-04T11:57:59Z</time></trkpt>
 <trkpt lat="48.903202400" lon="11.177048300"><ele>524</ele><time>2014-07-04T11:58:03Z</time></trkpt>
 <trkpt lat="48.903179500" lon="11.177107400"><ele>522</ele><time>2014-07-04T11:58:07Z</time></trkpt>
 <trkpt lat="48.903158300" lon="11.177153700"><ele>521</ele><time>2014-07-04T11:58:11Z</time></trkpt>
 <trkpt lat="48.903137000" lon="11.177198300"><ele>520</ele><time>2014-07-04T11:58:15Z</time></trkpt>
 <trkpt lat="48.903116600" lon="11.177249900"><ele>519</ele><time>2014-07-04T11:58:19Z</time></trkpt>
 <trkpt lat="48.903098300" lon="11.177306600"><ele>518</ele><time>2014-07-04T11:58:23Z</time></trkpt>
 <trkpt lat="48.903080800" lon="11.177362800"><ele>517</ele><time>2014-07-04T11:58:27Z</time></trkpt>
 <trkpt lat="48.903068300" lon="11.177430300"><ele>516</ele><time>2014-07-04T11:58:31Z</time></trkpt>
 <trkpt lat="48.903060800" lon="11.177489500"><ele>515</ele><time>2014-07-04T11:58:35Z</time></trkpt>
 <trkpt lat="48.903048200" lon="11.177556600"><ele>514</ele><time>2014-07-04T11:58:39Z</time></trkpt>
 <trkpt lat="48.903038700" lon="11.177616600"><ele>513</ele><time>2014-07-04T11:58:43Z</time></trkpt>
 <trkpt lat="48.903029900" lon="11.177679900"><ele>512</ele><time>2014-07-04T11:58:47Z</time></trkpt>
 <trkpt lat="48.903017400" lon="11.177742000"><ele>512</ele><time>2014-07-04T11:58:51Z</time></trkpt>
 <trkpt lat="48.903005300" lon="11.177800300"><ele>511</ele><time>2014-07-04T11:58:55Z</time></trkpt>
 <trkpt lat="48.902994500" lon="11.177868700"><ele>511</ele><time>2014-07-04T11:58:59Z</time></trkpt>
 <trkpt lat="48.902977400" lon="11.177948700"><ele>510</ele><time>2014-07-04T11:59:03Z</time></trkpt>
 <trkpt lat="48.902955800" lon="11.178033300"><ele>510</ele><time>2014-07-04T11:59:07Z</time></trkpt>
 <trkpt lat="48.902933300" lon="11.178112800"><ele>509</ele><time>2014-07-04T11:59:11Z</time></trkpt>
 <trkpt lat="48.902901200" lon="11.178194100"><ele>509</ele><time>2014-07-04T11:59:15Z</time></trkpt>
 <trkpt lat="48.902878300" lon="11.178270800"><ele>509</ele><time>2014-07-04T11:59:19Z</time></trkpt>
 <trkpt lat="48.902847400" lon="11.178339900"><ele>509</ele><time>2014-07-04T11:59:23Z</time></trkpt>
 <trkpt lat="48.902818300" lon="11.178408300"><ele>508</ele><time>2014-07-04T11:59:27Z</time></trkpt>
 <trkpt lat="48.902796600" lon="11.178468300"><ele>508</ele><time>2014-07-04T11:59:31Z</time></trkpt>
 <trkpt lat="48.902769500" lon="11.178539100"><ele>508</ele><time>2014-07-04T11:59:35Z</time></trkpt>
 <trkpt lat="48.902742000" lon="11.178597800"><ele>508</ele><time>2014-07-04T11:59:39Z</time></trkpt>
 <trkpt lat="48.902700400" lon="11.178659500"><ele>507</ele><time>2014-07-04T11:59:43Z</time></trkpt>
 <trkpt lat="48.902674100" lon="11.178727000"><ele>507</ele><time>2014-07-04T11:59:47Z</time></trkpt>
 <trkpt lat="48.902649900" lon="11.178789500"><ele>507</ele><time>2014-07-04T11:59:51Z</time></trkpt>
 <trkpt lat="48.902619100" lon="11.178867800"><ele>507</ele><time>2014-07-04T11:59:55Z</time></trkpt>
 <trkpt lat="48.902604500" lon="11.178940300"><ele>507</ele><time>2014-07-04T11:59:59Z</time></trkpt>
 <trkpt lat="48.902596200" lon="11.179010800"><ele>507</ele><time>2014-07-04T12:00:03Z</time></trkpt>
 <trkpt lat="48.902605000" lon="11.179072400"><ele>507</ele><time>2014-07-04T12:00:07Z</time></trkpt>
 <trkpt lat="48.902612800" lon="11.179161600"><ele>507</ele><time>2014-07-04T12:00:11Z</time></trkpt>
 <trkpt lat="48.902619100" lon="11.179233700"><ele>507</ele><time>2014-07-04T12:00:15Z</time></trkpt>
 <trkpt lat="48.902630300" lon="11.179308300"><ele>507</ele><time>2014-07-04T12:00:19Z</time></trkpt>
 <trkpt lat="48.902647400" lon="11.179360300"><ele>507</ele><time>2014-07-04T12:00:23Z</time></trkpt>
 <trkpt lat="48.902661600" lon="11.179418700"><ele>506</ele><time>2014-07-04T12:00:27Z</time></trkpt>
 <trkpt lat="48.902679100" lon="11.179474900"><ele>506</ele><time>2014-07-04T12:00:31Z</time></trkpt>
 <trkpt lat="48.902685400" lon="11.179543200"><ele>506</ele><time>2014-07-04T12:00:35Z</time></trkpt>
 <trkpt lat="48.902688700" lon="11.179624500"><ele>506</ele><time>2014-07-04T12:00:39Z</time></trkpt>
 <trkpt lat="48.902688300" lon="11.179720800"><ele>506</ele><time>2014-07-04T12:00:43Z</time></trkpt>
 <trkpt lat="48.902692400" lon="11.179789900"><ele>506</ele><time>2014-07-04T12:00:47Z</time></trkpt>
 <trkpt lat="48.902693700" lon="11.179840800"><ele>506</ele><time>2014-07-04T12:00:51Z</time></trkpt>
 <trkpt lat="48.902694100" lon="11.179902900"><ele>506</ele><time>2014-07-04T12:00:55Z</time></trkpt>
 <trkpt lat="48.902711200" lon="11.179974900"><ele>506</ele><time>2014-07-04T12:00:59Z</time></trkpt>
 <trkpt lat="48.902728300" lon="11.180029900"><ele>506</ele><time>2014-07-04T12:01:03Z</time></trkpt>
 <trkpt lat="48.902731600" lon="11.180084500"><ele>506</ele><time>2014-07-04T12:01:07Z</time></trkpt>
 <trkpt lat="48.902733300" lon="11.180154500"><ele>506</ele><time>2014-07-04T12:01:11Z</time></trkpt>
 <trkpt lat="48.902748700" lon="11.180244900"><ele>506</ele><time>2014-07-04T12:01:15Z</time></trkpt>
 <trkpt lat="48.902768700" lon="11.180365700"><ele>506</ele><time>2014-07-04T12:01:19Z</time></trkpt>
 <trkpt lat="48.902732800" lon="11.180419100"><ele>506</ele><time>2014-07-04T12:01:23Z</time></trkpt>
 <trkpt lat="48.902693700" lon="11.180467400"><ele>507</ele><time>2014-07-04T12:01:27Z</time></trkpt>
 <trkpt lat="48.902655300" lon="11.180512800"><ele>507</ele><time>2014-07-04T12:01:31Z</time></trkpt>
 <trkpt lat="48.902633300" lon="11.180577400"><ele>507</ele><time>2014-07-04T12:01:35Z</time></trkpt>
 <trkpt lat="48.902588700" lon="11.180607900"><ele>507</ele><time>2014-07-04T12:01:39Z</time></trkpt>
 <trkpt lat="48.902557400" lon="11.180641200"><ele>507</ele><time>2014-07-04T12:01:43Z</time></trkpt>
 <trkpt lat="48.902501600" lon="11.180662000"><ele>507</ele><time>2014-07-04T12:01:47Z</time></trkpt>
 <trkpt lat="48.902460300" lon="11.180689500"><ele>507</ele><time>2014-07-04T12:01:51Z</time></trkpt>
 <trkpt lat="48.902411600" lon="11.180704900"><ele>508</ele><time>2014-07-04T12:01:55Z</time></trkpt>
 <trkpt lat="48.902350800" lon="11.180729100"><ele>508</ele><time>2014-07-04T12:01:59Z</time></trkpt>
 <trkpt lat="48.902304500" lon="11.180750800"><ele>508</ele><time>2014-07-04T12:02:03Z</time></trkpt>
 <trkpt lat="48.902263200" lon="11.180777800"><ele>508</ele><time>2014-07-04T12:02:07Z</time></trkpt>
 <trkpt lat="48.902254900" lon="11.180791600"><ele>509</ele><time>2014-07-04T12:02:11Z</time></trkpt>
 <trkpt lat="48.902266600" lon="11.180796200"><ele>509</ele><time>2014-07-04T12:02:15Z</time></trkpt>
 <trkpt lat="48.902281600" lon="11.180793300"><ele>509</ele><time>2014-07-04T12:02:19Z</time></trkpt>
 <trkpt lat="48.902277800" lon="11.180799900"><ele>509</ele><time>2014-07-04T12:02:23Z</time></trkpt>
 <trkpt lat="48.902277800" lon="11.180809900"><ele>509</ele><time>2014-07-04T12:02:27Z</time></trkpt>
 <trkpt lat="48.902238300" lon="11.180805300"><ele>510</ele><time>2014-07-04T12:02:31Z</time></trkpt>
 <trkpt lat="48.902164900" lon="11.180810400"><ele>510</ele><time>2014-07-04T12:02:35Z</time></trkpt>
 <trkpt lat="48.902106600" lon="11.180815300"><ele>510</ele><time>2014-07-04T12:02:39Z</time></trkpt>
 <trkpt lat="48.902079100" lon="11.180840800"><ele>510</ele><time>2014-07-04T12:02:43Z</time></trkpt>
 <trkpt lat="48.902037400" lon="11.180857800"><ele>511</ele><time>2014-07-04T12:02:47Z</time></trkpt>
 <trkpt lat="48.901997400" lon="11.180884900"><ele>511</ele><time>2014-07-04T12:02:51Z</time></trkpt>
 <trkpt lat="48.901936200" lon="11.180916200"><ele>511</ele><time>2014-07-04T12:02:55Z</time></trkpt>
 <trkpt lat="48.901884100" lon="11.180965700"><ele>511</ele><time>2014-07-04T12:02:59Z</time></trkpt>
 <trkpt lat="48.901838700" lon="11.181028700"><ele>511</ele><time>2014-07-04T12:03:03Z</time></trkpt>
 <trkpt lat="48.901785300" lon="11.181050800"><ele>511</ele><time>2014-07-04T12:03:07Z</time></trkpt>
 <trkpt lat="48.901737000" lon="11.181072900"><ele>511</ele><time>2014-07-04T12:03:11Z</time></trkpt>
 <trkpt lat="48.901689900" lon="11.181092400"><ele>511</ele><time>2014-07-04T12:03:15Z</time></trkpt>
 <trkpt lat="48.901626600" lon="11.181129900"><ele>512</ele><time>2014-07-04T12:03:19Z</time></trkpt>
 <trkpt lat="48.901583300" lon="11.181167000"><ele>512</ele><time>2014-07-04T12:03:23Z</time></trkpt>
 <trkpt lat="48.901546600" lon="11.181210800"><ele>512</ele><time>2014-07-04T12:03:27Z</time></trkpt>
 <trkpt lat="48.901527400" lon="11.181262000"><ele>512</ele><time>2014-07-04T12:03:31Z</time></trkpt>
 <trkpt lat="48.901494100" lon="11.181310000"><ele>512</ele><time>2014-07-04T12:03:35Z</time></trkpt>
 <trkpt lat="48.901447800" lon="11.181342900"><ele>512</ele><time>2014-07-04T12:03:39Z</time></trkpt>
 <trkpt lat="48.901432000" lon="11.181403300"><ele>512</ele><time>2014-07-04T12:03:43Z</time></trkpt>
 <trkpt lat="48.901398300" lon="11.181464900"><ele>511</ele><time>2014-07-04T12:03:47Z</time></trkpt>
 <trkpt lat="48.901346600" lon="11.181501600"><ele>511</ele><time>2014-07-04T12:03:51Z</time></trkpt>
 <trkpt lat="48.901295700" lon="11.181586200"><ele>511</ele><time>2014-07-04T12:03:55Z</time></trkpt>
 <trkpt lat="48.901267000" lon="11.181640800"><ele>511</ele><time>2014-07-04T12:03:59Z</time></trkpt>
 <trkpt lat="48.901211600" lon="11.181705300"><ele>511</ele><time>2014-07-04T12:04:03Z</time></trkpt>
 <trkpt lat="48.901177400" lon="11.181771200"><ele>511</ele><time>2014-07-04T12:04:07Z</time></trkpt>
 <trkpt lat="48.901147000" lon="11.181830400"><ele>511</ele><time>2014-07-04T12:04:11Z</time></trkpt>
 <trkpt lat="48.901114500" lon="11.181880800"><ele>511</ele><time>2014-07-04T12:04:15Z</time></trkpt>
 <trkpt lat="48.901062400" lon="11.181935800"><ele>511</ele><time>2014-07-04T12:04:19Z</time></trkpt>
 <trkpt lat="48.901025300" lon="11.182003300"><ele>511</ele><time>2014-07-04T12:04:23Z</time></trkpt>
 <trkpt lat="48.900980300" lon="11.182067000"><ele>511</ele><time>2014-07-04T12:04:27Z</time></trkpt>
 <trkpt lat="48.900927000" lon="11.182128700"><ele>511</ele><time>2014-07-04T12:04:31Z</time></trkpt>
 <trkpt lat="48.900891200" lon="11.182210800"><ele>510</ele><time>2014-07-04T12:04:35Z</time></trkpt>
 <trkpt lat="48.900862800" lon="11.182267400"><ele>510</ele><time>2014-07-04T12:04:39Z</time></trkpt>
 <trkpt lat="48.900786200" lon="11.182297000"><ele>510</ele><time>2014-07-04T12:04:43Z</time></trkpt>
 <trkpt lat="48.900730300" lon="11.182348700"><ele>510</ele><time>2014-07-04T12:04:47Z</time></trkpt>
 <trkpt lat="48.900702800" lon="11.182414100"><ele>510</ele><time>2014-07-04T12:04:51Z</time></trkpt>
 <trkpt lat="48.900656200" lon="11.182474100"><ele>510</ele><time>2014-07-04T12:04:55Z</time></trkpt>
 <trkpt lat="48.900627000" lon="11.182542400"><ele>509</ele><time>2014-07-04T12:04:59Z</time></trkpt>
 <trkpt lat="48.900620800" lon="11.182629100"><ele>509</ele><time>2014-07-04T12:05:03Z</time></trkpt>
 <trkpt lat="48.900629500" lon="11.182690300"><ele>509</ele><time>2014-07-04T12:05:07Z</time></trkpt>
 <trkpt lat="48.900606600" lon="11.182764100"><ele>509</ele><time>2014-07-04T12:05:11Z</time></trkpt>
 <trkpt lat="48.900578300" lon="11.182842000"><ele>508</ele><time>2014-07-04T12:05:15Z</time></trkpt>
 <trkpt lat="48.900563700" lon="11.182911600"><ele>508</ele><time>2014-07-04T12:05:19Z</time></trkpt>
 <trkpt lat="48.900522400" lon="11.182958300"><ele>508</ele><time>2014-07-04T12:05:23Z</time></trkpt>
 <trkpt lat="48.900488300" lon="11.183007000"><ele>507</ele><time>2014-07-04T12:05:27Z</time></trkpt>
 <trkpt lat="48.900455400" lon="11.183062800"><ele>507</ele><time>2014-07-04T12:05:31Z</time></trkpt>
 <trkpt lat="48.900426200" lon="11.183117000"><ele>506</ele><time>2014-07-04T12:05:35Z</time></trkpt>
 <trkpt lat="48.900401600" lon="11.183174100"><ele>506</ele><time>2014-07-04T12:05:39Z</time></trkpt>
 <trkpt lat="48.900341600" lon="11.183217800"><ele>506</ele><time>2014-07-04T12:05:43Z</time></trkpt>
 <trkpt lat="48.900272000" lon="11.183273300"><ele>505</ele><time>2014-07-04T12:05:47Z</time></trkpt>
 <trkpt lat="48.900205800" lon="11.183322000"><ele>505</ele><time>2014-07-04T12:05:51Z</time></trkpt>
 <trkpt lat="48.900180300" lon="11.183374500"><ele>504</ele><time>2014-07-04T12:05:55Z</time></trkpt>
 <trkpt lat="48.900143300" lon="11.183439500"><ele>503</ele><time>2014-07-04T12:05:59Z</time></trkpt>
 <trkpt lat="48.900121200" lon="11.183507000"><ele>503</ele><time>2014-07-04T12:06:03Z</time></trkpt>
 <trkpt lat="48.900082400" lon="11.183550700"><ele>502</ele><time>2014-07-04T12:06:07Z</time></trkpt>
 <trkpt lat="48.900039100" lon="11.183613300"><ele>501</ele><time>2014-07-04T12:06:11Z</time></trkpt>
 <trkpt lat="48.900015400" lon="11.183671600"><ele>501</ele><time>2014-07-04T12:06:15Z</time></trkpt>
 <trkpt lat="48.899985800" lon="11.183749100"><ele>500</ele><time>2014-07-04T12:06:19Z</time></trkpt>
 <trkpt lat="48.899959100" lon="11.183800300"><ele>499</ele><time>2014-07-04T12:06:23Z</time></trkpt>
 <trkpt lat="48.899910400" lon="11.183840800"><ele>498</ele><time>2014-07-04T12:06:27Z</time></trkpt>
 <trkpt lat="48.899867000" lon="11.183863300"><ele>497</ele><time>2014-07-04T12:06:31Z</time></trkpt>
 <trkpt lat="48.899825400" lon="11.183889100"><ele>496</ele><time>2014-07-04T12:06:35Z</time></trkpt>
 <trkpt lat="48.899778700" lon="11.183907900"><ele>495</ele><time>2014-07-04T12:06:39Z</time></trkpt>
 <trkpt lat="48.899739900" lon="11.183949900"><ele>495</ele><time>2014-07-04T12:06:43Z</time></trkpt>
 <trkpt lat="48.899693200" lon="11.183988300"><ele>494</ele><time>2014-07-04T12:06:47Z</time></trkpt>
 <trkpt lat="48.899653300" lon="11.184009500"><ele>493</ele><time>2014-07-04T12:06:51Z</time></trkpt>
 <trkpt lat="48.899612400" lon="11.184039900"><ele>492</ele><time>2014-07-04T12:06:55Z</time></trkpt>
 <trkpt lat="48.899573700" lon="11.184060800"><ele>491</ele><time>2014-07-04T12:06:59Z</time></trkpt>
 <trkpt lat="48.899538700" lon="11.184081200"><ele>490</ele><time>2014-07-04T12:07:03Z</time></trkpt>
 <trkpt lat="48.899506600" lon="11.184096200"><ele>489</ele><time>2014-07-04T12:07:07Z</time></trkpt>
 <trkpt lat="48.899497000" lon="11.184126600"><ele>488</ele><time>2014-07-04T12:07:11Z</time></trkpt>
 <trkpt lat="48.899472400" lon="11.184149900"><ele>487</ele><time>2014-07-04T12:07:15Z</time></trkpt>
 <trkpt lat="48.899443700" lon="11.184156200"><ele>486</ele><time>2014-07-04T12:07:19Z</time></trkpt>
 <trkpt lat="48.899431200" lon="11.184168300"><ele>485</ele><time>2014-07-04T12:07:23Z</time></trkpt>
 <trkpt lat="48.899420800" lon="11.184192800"><ele>484</ele><time>2014-07-04T12:07:27Z</time></trkpt>
 <trkpt lat="48.899394500" lon="11.184217000"><ele>483</ele><time>2014-07-04T12:07:31Z</time></trkpt>
 <trkpt lat="48.899388300" lon="11.184247400"><ele>482</ele><time>2014-07-04T12:07:35Z</time></trkpt>
 <trkpt lat="48.899345400" lon="11.184277900"><ele>481</ele><time>2014-07-04T12:07:39Z</time></trkpt>
 <trkpt lat="48.899312000" lon="11.184314900"><ele>479</ele><time>2014-07-04T12:07:43Z</time></trkpt>
 <trkpt lat="48.899291600" lon="11.184368700"><ele>478</ele><time>2014-07-04T12:07:47Z</time></trkpt>
 <trkpt lat="48.899272500" lon="11.184423300"><ele>477</ele><time>2014-07-04T12:07:51Z</time></trkpt>
 <trkpt lat="48.899255300" lon="11.184483300"><ele>476</ele><time>2014-07-04T12:07:55Z</time></trkpt>
 <trkpt lat="48.899265400" lon="11.184531200"><ele>475</ele><time>2014-07-04T12:07:59Z</time></trkpt>
 <trkpt lat="48.899227800" lon="11.184580800"><ele>475</ele><time>2014-07-04T12:08:03Z</time></trkpt>
 <trkpt lat="48.899197000" lon="11.184627000"><ele>474</ele><time>2014-07-04T12:08:07Z</time></trkpt>
 <trkpt lat="48.899153700" lon="11.184652000"><ele>473</ele><time>2014-07-04T12:08:11Z</time></trkpt>
 <trkpt lat="48.899114500" lon="11.184676200"><ele>472</ele><time>2014-07-04T12:08:15Z</time></trkpt>
 <trkpt lat="48.899102000" lon="11.184671600"><ele>472</ele><time>2014-07-04T12:08:19Z</time></trkpt>
 <trkpt lat="48.899067000" lon="11.184672000"><ele>471</ele><time>2014-07-04T12:08:23Z</time></trkpt>
 <trkpt lat="48.899043700" lon="11.184664100"><ele>471</ele><time>2014-07-04T12:08:27Z</time></trkpt>
 <trkpt lat="48.899044900" lon="11.184652400"><ele>471</ele><time>2014-07-04T12:08:31Z</time></trkpt>
 <trkpt lat="48.899019900" lon="11.184605300"><ele>470</ele><time>2014-07-04T12:08:35Z</time></trkpt>
 <trkpt lat="48.898990400" lon="11.184542000"><ele>470</ele><time>2014-07-04T12:08:39Z</time></trkpt>
 <trkpt lat="48.898947000" lon="11.184465800"><ele>471</ele><time>2014-07-04T12:08:43Z</time></trkpt>
 <trkpt lat="48.898909100" lon="11.184405300"><ele>471</ele><time>2014-07-04T12:08:47Z</time></trkpt>
 <trkpt lat="48.898870300" lon="11.184356600"><ele>471</ele><time>2014-07-04T12:08:51Z</time></trkpt>
 <trkpt lat="48.898817400" lon="11.184279900"><ele>472</ele><time>2014-07-04T12:08:55Z</time></trkpt>
 <trkpt lat="48.898763700" lon="11.184224500"><ele>473</ele><time>2014-07-04T12:08:59Z</time></trkpt>
 <trkpt lat="48.898697900" lon="11.184167800"><ele>473</ele><time>2014-07-04T12:09:03Z</time></trkpt>
 <trkpt lat="48.898635800" lon="11.184100300"><ele>474</ele><time>2014-07-04T12:09:07Z</time></trkpt>
 <trkpt lat="48.898590300" lon="11.184035400"><ele>475</ele><time>2014-07-04T12:09:11Z</time></trkpt>
 <trkpt lat="48.898538700" lon="11.183960700"><ele>476</ele><time>2014-07-04T12:09:15Z</time></trkpt>
 <trkpt lat="48.898509500" lon="11.183914500"><ele>477</ele><time>2014-07-04T12:09:19Z</time></trkpt>
 <trkpt lat="48.898464100" lon="11.183843700"><ele>479</ele><time>2014-07-04T12:09:23Z</time></trkpt>
 <trkpt lat="48.898412000" lon="11.183776200"><ele>480</ele><time>2014-07-04T12:09:27Z</time></trkpt>
 <trkpt lat="48.898364500" lon="11.183699900"><ele>482</ele><time>2014-07-04T12:09:31Z</time></trkpt>
 <trkpt lat="48.898323300" lon="11.183612900"><ele>483</ele><time>2014-07-04T12:09:35Z</time></trkpt>
 <trkpt lat="48.898277400" lon="11.183549500"><ele>485</ele><time>2014-07-04T12:09:39Z</time></trkpt>
 <trkpt lat="48.898258300" lon="11.183498200"><ele>487</ele><time>2014-07-04T12:09:43Z</time></trkpt>
 <trkpt lat="48.898254500" lon="11.183463200"><ele>488</ele><time>2014-07-04T12:09:47Z</time></trkpt>
 <trkpt lat="48.898240300" lon="11.183472800"><ele>490</ele><time>2014-07-04T12:09:51Z</time></trkpt>
 <trkpt lat="48.898195800" lon="11.183512000"><ele>492</ele><time>2014-07-04T12:09:55Z</time></trkpt>
 <trkpt lat="48.898161600" lon="11.183563300"><ele>493</ele><time>2014-07-04T12:09:59Z</time></trkpt>
 <trkpt lat="48.898139100" lon="11.183634500"><ele>495</ele><time>2014-07-04T12:10:03Z</time></trkpt>
 <trkpt lat="48.898108300" lon="11.183707800"><ele>497</ele><time>2014-07-04T12:10:07Z</time></trkpt>
 <trkpt lat="48.898098200" lon="11.183762900"><ele>498</ele><time>2014-07-04T12:10:11Z</time></trkpt>
 <trkpt lat="48.898065400" lon="11.183824500"><ele>500</ele><time>2014-07-04T12:10:15Z</time></trkpt>
 <trkpt lat="48.898041200" lon="11.183887800"><ele>501</ele><time>2014-07-04T12:10:19Z</time></trkpt>
 <trkpt lat="48.898012000" lon="11.183943700"><ele>503</ele><time>2014-07-04T12:10:23Z</time></trkpt>
 <trkpt lat="48.897981200" lon="11.183984900"><ele>504</ele><time>2014-07-04T12:10:27Z</time></trkpt>
 <trkpt lat="48.897953300" lon="11.184036200"><ele>505</ele><time>2014-07-04T12:10:31Z</time></trkpt>
 <trkpt lat="48.897927000" lon="11.184083700"><ele>506</ele><time>2014-07-04T12:10:35Z</time></trkpt>
 <trkpt lat="48.897912900" lon="11.184132400"><ele>507</ele><time>2014-07-04T12:10:39Z</time></trkpt>
 <trkpt lat="48.897894500" lon="11.184153700"><ele>508</ele><time>2014-07-04T12:10:43Z</time></trkpt>
 <trkpt lat="48.897864900" lon="11.184168700"><ele>509</ele><time>2014-07-04T12:10:47Z</time></trkpt>
 <trkpt lat="48.897846200" lon="11.184167800"><ele>510</ele><time>2014-07-04T12:10:51Z</time></trkpt>
 <trkpt lat="48.897823700" lon="11.184162800"><ele>510</ele><time>2014-07-04T12:10:55Z</time></trkpt>
 <trkpt lat="48.897803300" lon="11.184164500"><ele>511</ele><time>2014-07-04T12:10:59Z</time></trkpt>
 <trkpt lat="48.897784500" lon="11.184149900"><ele>512</ele><time>2014-07-04T12:11:03Z</time></trkpt>
 <trkpt lat="48.897751600" lon="11.184136600"><ele>512</ele><time>2014-07-04T12:11:07Z</time></trkpt>
 <trkpt lat="48.897714500" lon="11.184139900"><ele>512</ele><time>2014-07-04T12:11:11Z</time></trkpt>
 <trkpt lat="48.897657800" lon="11.184146600"><ele>513</ele><time>2014-07-04T12:11:15Z</time></trkpt>
 <trkpt lat="48.897626200" lon="11.184163200"><ele>513</ele><time>2014-07-04T12:11:19Z</time></trkpt>
 <trkpt lat="48.897579900" lon="11.184171200"><ele>513</ele><time>2014-07-04T12:11:23Z</time></trkpt>
 <trkpt lat="48.897532400" lon="11.184212900"><ele>513</ele><time>2014-07-04T12:11:27Z</time></trkpt>
 <trkpt lat="48.897501200" lon="11.184268700"><ele>513</ele><time>2014-07-04T12:11:31Z</time></trkpt>
 <trkpt lat="48.897505400" lon="11.184357400"><ele>513</ele><time>2014-07-04T12:11:35Z</time></trkpt>
 <trkpt lat="48.897480800" lon="11.184446200"><ele>514</ele><time>2014-07-04T12:11:39Z</time></trkpt>
 <trkpt lat="48.897469100" lon="11.184537400"><ele>514</ele><time>2014-07-04T12:11:43Z</time></trkpt>
 <trkpt lat="48.897475300" lon="11.184600300"><ele>514</ele><time>2014-07-04T12:11:47Z</time></trkpt>
 <trkpt lat="48.897467800" lon="11.184652400"><ele>514</ele><time>2014-07-04T12:11:51Z</time></trkpt>
 <trkpt lat="48.897431600" lon="11.184697000"><ele>514</ele><time>2014-07-04T12:11:55Z</time></trkpt>
 <trkpt lat="48.897410400" lon="11.184772400"><ele>514</ele><time>2014-07-04T12:11:59Z</time></trkpt>
 <trkpt lat="48.897352800" lon="11.184840300"><ele>514</ele><time>2014-07-04T12:12:03Z</time></trkpt>
 <trkpt lat="48.897336200" lon="11.184910800"><ele>514</ele><time>2014-07-04T12:12:07Z</time></trkpt>
 <trkpt lat="48.897354900" lon="11.184956200"><ele>514</ele><time>2014-07-04T12:12:11Z</time></trkpt>
 <trkpt lat="48.897360300" lon="11.185016200"><ele>514</ele><time>2014-07-04T12:12:15Z</time></trkpt>
 <trkpt lat="48.897337800" lon="11.185062800"><ele>514</ele><time>2014-07-04T12:12:19Z</time></trkpt>
 <trkpt lat="48.897293300" lon="11.185119900"><ele>514</ele><time>2014-07-04T12:12:23Z</time></trkpt>
 <trkpt lat="48.897267400" lon="11.185192000"><ele>515</ele><time>2014-07-04T12:12:27Z</time></trkpt>
 <trkpt lat="48.897268700" lon="11.185257900"><ele>515</ele><time>2014-07-04T12:12:31Z</time></trkpt>
 <trkpt lat="48.897242000" lon="11.185274100"><ele>515</ele><time>2014-07-04T12:12:35Z</time></trkpt>
 <trkpt lat="48.897229900" lon="11.185317400"><ele>516</ele><time>2014-07-04T12:12:39Z</time></trkpt>
 <trkpt lat="48.897207400" lon="11.185361600"><ele>516</ele><time>2014-07-04T12:12:43Z</time></trkpt>
 <trkpt lat="48.897130000" lon="11.185344100"><ele>516</ele><time>2014-07-04T12:12:47Z</time></trkpt>
 <trkpt lat="48.897081600" lon="11.185347400"><ele>517</ele><time>2014-07-04T12:12:51Z</time></trkpt>
 <trkpt lat="48.897021600" lon="11.185322800"><ele>517</ele><time>2014-07-04T12:12:55Z</time></trkpt>
 <trkpt lat="48.896970400" lon="11.185288300"><ele>518</ele><time>2014-07-04T12:12:59Z</time></trkpt>
 <trkpt lat="48.896940300" lon="11.185264500"><ele>518</ele><time>2014-07-04T12:13:03Z</time></trkpt>
 <trkpt lat="48.896899100" lon="11.185212800"><ele>519</ele><time>2014-07-04T12:13:07Z</time></trkpt>
 <trkpt lat="48.896894100" lon="11.185206600"><ele>519</ele><time>2014-07-04T12:13:11Z</time></trkpt>
 <trkpt lat="48.896882000" lon="11.185193700"><ele>520</ele><time>2014-07-04T12:13:15Z</time></trkpt>
 <trkpt lat="48.896826200" lon="11.185176200"><ele>520</ele><time>2014-07-04T12:13:19Z</time></trkpt>
 <trkpt lat="48.896762000" lon="11.185145800"><ele>521</ele><time>2014-07-04T12:13:23Z</time></trkpt>
 <trkpt lat="48.896748300" lon="11.185147000"><ele>521</ele><time>2014-07-04T12:13:27Z</time></trkpt>
 <trkpt lat="48.896734500" lon="11.185152800"><ele>521</ele><time>2014-07-04T12:13:31Z</time></trkpt>
 <trkpt lat="48.896678300" lon="11.185128200"><ele>522</ele><time>2014-07-04T12:13:35Z</time></trkpt>
 <trkpt lat="48.896642400" lon="11.185095800"><ele>522</ele><time>2014-07-04T12:13:39Z</time></trkpt>
 <trkpt lat="48.896571200" lon="11.185022000"><ele>522</ele><time>2014-07-04T12:13:43Z</time></trkpt>
 <trkpt lat="48.896505800" lon="11.184973300"><ele>522</ele><time>2014-07-04T12:13:47Z</time></trkpt>
 <trkpt lat="48.896448300" lon="11.184932800"><ele>523</ele><time>2014-07-04T12:13:51Z</time></trkpt>
 <trkpt lat="48.896431200" lon="11.184925700"><ele>523</ele><time>2014-07-04T12:13:55Z</time></trkpt>
 <trkpt lat="48.896421600" lon="11.184897400"><ele>523</ele><time>2014-07-04T12:13:59Z</time></trkpt>
 <trkpt lat="48.896386200" lon="11.184869500"><ele>523</ele><time>2014-07-04T12:14:03Z</time></trkpt>
 <trkpt lat="48.896370800" lon="11.184850300"><ele>523</ele><time>2014-07-04T12:14:07Z</time></trkpt>
 <trkpt lat="48.896325700" lon="11.184818700"><ele>523</ele><time>2014-07-04T12:14:11Z</time></trkpt>
 <trkpt lat="48.896256200" lon="11.184776200"><ele>523</ele><time>2014-07-04T12:14:15Z</time></trkpt>
 <trkpt lat="48.896205400" lon="11.184749500"><ele>523</ele><time>2014-07-04T12:14:19Z</time></trkpt>
 <trkpt lat="48.896129500" lon="11.184726600"><ele>523</ele><time>2014-07-04T12:14:23Z</time></trkpt>
 <trkpt lat="48.896072400" lon="11.184713700"><ele>523</ele><time>2014-07-04T12:14:27Z</time></trkpt>
 <trkpt lat="48.895993300" lon="11.184712400"><ele>523</ele><time>2014-07-04T12:14:31Z</time></trkpt>
 <trkpt lat="48.895951200" lon="11.184735400"><ele>523</ele><time>2014-07-04T12:14:35Z</time></trkpt>
 <trkpt lat="48.895903300" lon="11.184763300"><ele>523</ele><time>2014-07-04T12:14:39Z</time></trkpt>
 <trkpt lat="48.895887000" lon="11.184815700"><ele>523</ele><time>2014-07-04T12:14:43Z</time></trkpt>
 <trkpt lat="48.895843300" lon="11.184850400"><ele>523</ele><time>2014-07-04T12:14:47Z</time></trkpt>
 <trkpt lat="48.895772000" lon="11.184872400"><ele>523</ele><time>2014-07-04T12:14:51Z</time></trkpt>
 <trkpt lat="48.895719100" lon="11.184905800"><ele>523</ele><time>2014-07-04T12:14:55Z</time></trkpt>
 <trkpt lat="48.895645300" lon="11.184935300"><ele>523</ele><time>2014-07-04T12:14:59Z</time></trkpt>
 <trkpt lat="48.895594900" lon="11.184962000"><ele>523</ele><time>2014-07-04T12:15:03Z</time></trkpt>
 <trkpt lat="48.895572000" lon="11.185030400"><ele>522</ele><time>2014-07-04T12:15:07Z</time></trkpt>
 <trkpt lat="48.895566200" lon="11.185090300"><ele>522</ele><time>2014-07-04T12:15:11Z</time></trkpt>
 <trkpt lat="48.895561200" lon="11.185155800"><ele>522</ele><time>2014-07-04T12:15:15Z</time></trkpt>
 <trkpt lat="48.895548300" lon="11.185225300"><ele>521</ele><time>2014-07-04T12:15:19Z</time></trkpt>
 <trkpt lat="48.895616200" lon="11.185346200"><ele>520</ele><time>2014-07-04T12:15:23Z</time></trkpt>
 <trkpt lat="48.895657800" lon="11.185452400"><ele>519</ele><time>2014-07-04T12:15:27Z</time></trkpt>
 <trkpt lat="48.895586200" lon="11.185486200"><ele>518</ele><time>2014-07-04T12:15:31Z</time></trkpt>
 <trkpt lat="48.895506200" lon="11.185513200"><ele>517</ele><time>2014-07-04T12:15:35Z</time></trkpt>
 <trkpt lat="48.895292800" lon="11.185478700"><ele>516</ele><time>2014-07-04T12:15:39Z</time></trkpt>
 <trkpt lat="48.895155800" lon="11.185497400"><ele>514</ele><time>2014-07-04T12:15:43Z</time></trkpt>
 <trkpt lat="48.895122900" lon="11.185500400"><ele>513</ele><time>2014-07-04T12:15:47Z</time></trkpt>
 <trkpt lat="48.895073300" lon="11.185537000"><ele>511</ele><time>2014-07-04T12:15:51Z</time></trkpt>
 <trkpt lat="48.895030300" lon="11.185578700"><ele>509</ele><time>2014-07-04T12:15:55Z</time></trkpt>
 <trkpt lat="48.894983700" lon="11.185623700"><ele>506</ele><time>2014-07-04T12:15:59Z</time></trkpt>
 <trkpt lat="48.894949500" lon="11.185653300"><ele>503</ele><time>2014-07-04T12:16:03Z</time></trkpt>
 <trkpt lat="48.894915800" lon="11.185652400"><ele>500</ele><time>2014-07-04T12:16:07Z</time></trkpt>
 <trkpt lat="48.894878300" lon="11.185660300"><ele>496</ele><time>2014-07-04T12:16:11Z</time></trkpt>
 <trkpt lat="48.894872000" lon="11.185744500"><ele>493</ele><time>2014-07-04T12:16:15Z</time></trkpt>
 <trkpt lat="48.894877000" lon="11.185866200"><ele>489</ele><time>2014-07-04T12:16:19Z</time></trkpt>
 <trkpt lat="48.894881600" lon="11.185990300"><ele>485</ele><time>2014-07-04T12:16:23Z</time></trkpt>
 <trkpt lat="48.894888700" lon="11.186086200"><ele>482</ele><time>2014-07-04T12:16:27Z</time></trkpt>
 <trkpt lat="48.894895800" lon="11.186155800"><ele>478</ele><time>2014-07-04T12:16:31Z</time></trkpt>
 <trkpt lat="48.894896200" lon="11.186226200"><ele>475</ele><time>2014-07-04T12:16:35Z</time></trkpt>
 <trkpt lat="48.894917000" lon="11.186292000"><ele>471</ele><time>2014-07-04T12:16:39Z</time></trkpt>
 <trkpt lat="48.894953300" lon="11.186322400"><ele>468</ele><time>2014-07-04T12:16:43Z</time></trkpt>
 <trkpt lat="48.894953300" lon="11.186364900"><ele>464</ele><time>2014-07-04T12:16:47Z</time></trkpt>
 <trkpt lat="48.894937000" lon="11.186376600"><ele>461</ele><time>2014-07-04T12:16:51Z</time></trkpt>
 <trkpt lat="48.894892000" lon="11.186349500"><ele>457</ele><time>2014-07-04T12:16:55Z</time></trkpt>
 <trkpt lat="48.894808700" lon="11.186317400"><ele>454</ele><time>2014-07-04T12:16:59Z</time></trkpt>
 <trkpt lat="48.894754500" lon="11.186262400"><ele>452</ele><time>2014-07-04T12:17:03Z</time></trkpt>
 <trkpt lat="48.894741600" lon="11.186215300"><ele>450</ele><time>2014-07-04T12:17:07Z</time></trkpt>
 <trkpt lat="48.894756200" lon="11.186162400"><ele>448</ele><time>2014-07-04T12:17:11Z</time></trkpt>
 <trkpt lat="48.894762400" lon="11.186107400"><ele>446</ele><time>2014-07-04T12:17:15Z</time></trkpt>
 <trkpt lat="48.894773300" lon="11.186059500"><ele>444</ele><time>2014-07-04T12:17:19Z</time></trkpt>
 <trkpt lat="48.894771200" lon="11.186035300"><ele>443</ele><time>2014-07-04T12:17:23Z</time></trkpt>
 <trkpt lat="48.894751600" lon="11.186026200"><ele>441</ele><time>2014-07-04T12:17:27Z</time></trkpt>
 <trkpt lat="48.894733700" lon="11.186068300"><ele>440</ele><time>2014-07-04T12:17:31Z</time></trkpt>
 <trkpt lat="48.894706600" lon="11.186108700"><ele>439</ele><time>2014-07-04T12:17:35Z</time></trkpt>
 <trkpt lat="48.894678300" lon="11.186174500"><ele>438</ele><time>2014-07-04T12:17:39Z</time></trkpt>
 <trkpt lat="48.894674900" lon="11.186227000"><ele>436</ele><time>2014-07-04T12:17:43Z</time></trkpt>
 <trkpt lat="48.894667000" lon="11.186245300"><ele>435</ele><time>2014-07-04T12:17:47Z</time></trkpt>
 <trkpt lat="48.894661600" lon="11.186245800"><ele>434</ele><time>2014-07-04T12:17:51Z</time></trkpt>
 <trkpt lat="48.894662000" lon="11.186220800"><ele>433</ele><time>2014-07-04T12:17:55Z</time></trkpt>
 <trkpt lat="48.894653300" lon="11.186173700"><ele>432</ele><time>2014-07-04T12:17:59Z</time></trkpt>
 <trkpt lat="48.894643300" lon="11.186155800"><ele>431</ele><time>2014-07-04T12:18:03Z</time></trkpt>
 <trkpt lat="48.894625700" lon="11.186167000"><ele>430</ele><time>2014-07-04T12:18:07Z</time></trkpt>
 <trkpt lat="48.894596200" lon="11.186200800"><ele>429</ele><time>2014-07-04T12:18:11Z</time></trkpt>
 <trkpt lat="48.894582800" lon="11.186228700"><ele>428</ele><time>2014-07-04T12:18:15Z</time></trkpt>
 <trkpt lat="48.894598300" lon="11.186278700"><ele>428</ele><time>2014-07-04T12:18:19Z</time></trkpt>
 <trkpt lat="48.894625300" lon="11.186329100"><ele>427</ele><time>2014-07-04T12:18:23Z</time></trkpt>
 <trkpt lat="48.894650300" lon="11.186375400"><ele>426</ele><time>2014-07-04T12:18:27Z</time></trkpt>
 <trkpt lat="48.894679100" lon="11.186423300"><ele>426</ele><time>2014-07-04T12:18:31Z</time></trkpt>
 <trkpt lat="48.894713300" lon="11.186463700"><ele>425</ele><time>2014-07-04T12:18:35Z</time></trkpt>
 <trkpt lat="48.894757900" lon="11.186509100"><ele>424</ele><time>2014-07-04T12:18:39Z</time></trkpt>
 <trkpt lat="48.894802400" lon="11.186557000"><ele>424</ele><time>2014-07-04T12:18:43Z</time></trkpt>
 <trkpt lat="48.894846200" lon="11.186601600"><ele>423</ele><time>2014-07-04T12:18:47Z</time></trkpt>
 <trkpt lat="48.894888700" lon="11.186639900"><ele>422</ele><time>2014-07-04T12:18:51Z</time></trkpt>
 <trkpt lat="48.894929900" lon="11.186685800"><ele>422</ele><time>2014-07-04T12:18:55Z</time></trkpt>
 <trkpt lat="48.894967800" lon="11.186730800"><ele>421</ele><time>2014-07-04T12:18:59Z</time></trkpt>
 <trkpt lat="48.895018300" lon="11.186774500"><ele>421</ele><time>2014-07-04T12:19:03Z</time></trkpt>
 <trkpt lat="48.895058700" lon="11.186832400"><ele>420</ele><time>2014-07-04T12:19:07Z</time></trkpt>
 <trkpt lat="48.895093700" lon="11.186905300"><ele>419</ele><time>2014-07-04T12:19:11Z</time></trkpt>
 <trkpt lat="48.895116200" lon="11.186958700"><ele>419</ele><time>2014-07-04T12:19:15Z</time></trkpt>
 <trkpt lat="48.895142800" lon="11.187005300"><ele>418</ele><time>2014-07-04T12:19:19Z</time></trkpt>
 <trkpt lat="48.895142400" lon="11.187054500"><ele>418</ele><time>2014-07-04T12:19:23Z</time></trkpt>
 <trkpt lat="48.895122400" lon="11.187075300"><ele>417</ele><time>2014-07-04T12:19:27Z</time></trkpt>
 <trkpt lat="48.895093700" lon="11.187058700"><ele>417</ele><time>2014-07-04T12:19:31Z</time></trkpt>
 <trkpt lat="48.895045800" lon="11.187043700"><ele>416</ele><time>2014-07-04T12:19:35Z</time></trkpt>
 <trkpt lat="48.895017800" lon="11.187007400"><ele>416</ele><time>2014-07-04T12:19:39Z</time></trkpt>
 <trkpt lat="48.894992000" lon="11.186989100"><ele>415</ele><time>2014-07-04T12:19:43Z</time></trkpt>
 <trkpt lat="48.894971200" lon="11.186947800"><ele>414</ele><time>2014-07-04T12:19:47Z</time></trkpt>
 <trkpt lat="48.894942000" lon="11.186909100"><ele>414</ele><time>2014-07-04T12:19:51Z</time></trkpt>
 <trkpt lat="48.894904900" lon="11.186909900"><ele>413</ele><time>2014-07-04T12:19:55Z</time></trkpt>
 <trkpt lat="48.894863300" lon="11.186912400"><ele>413</ele><time>2014-07-04T12:19:59Z</time></trkpt>
 <trkpt lat="48.894818300" lon="11.186900300"><ele>412</ele><time>2014-07-04T12:20:03Z</time></trkpt>
 <trkpt lat="48.894774900" lon="11.186881200"><ele>412</ele><time>2014-07-04T12:20:07Z</time></trkpt>
 <trkpt lat="48.894742000" lon="11.186837400"><ele>411</ele><time>2014-07-04T12:20:11Z</time></trkpt>
 <trkpt lat="48.894702000" lon="11.186812800"><ele>410</ele><time>2014-07-04T12:20:15Z</time></trkpt>
 <trkpt lat="48.894669900" lon="11.186768700"><ele>410</ele><time>2014-07-04T12:20:19Z</time></trkpt>
 <trkpt lat="48.894637800" lon="11.186747000"><ele>409</ele><time>2014-07-04T12:20:23Z</time></trkpt>
 <trkpt lat="48.894604900" lon="11.186717000"><ele>408</ele><time>2014-07-04T12:20:27Z</time></trkpt>
 <trkpt lat="48.894565400" lon="11.186693700"><ele>408</ele><time>2014-07-04T12:20:31Z</time></trkpt>
 <trkpt lat="48.894523700" lon="11.186661200"><ele>407</ele><time>2014-07-04T12:20:35Z</time></trkpt>
 <trkpt lat="48.894480000" lon="11.186618700"><ele>406</ele><time>2014-07-04T12:20:39Z</time></trkpt>
 <trkpt lat="48.894435800" lon="11.186595700"><ele>405</ele><time>2014-07-04T12:20:43Z</time></trkpt>
 <trkpt lat="48.894399900" lon="11.186569500"><ele>405</ele><time>2014-07-04T12:20:47Z</time></trkpt>
 <trkpt lat="48.894364500" lon="11.186537800"><ele>404</ele><time>2014-07-04T12:20:51Z</time></trkpt>
 <trkpt lat="48.894334500" lon="11.186521200"><ele>403</ele><time>2014-07-04T12:20:55Z</time></trkpt>
 <trkpt lat="48.894303300" lon="11.186497000"><ele>402</ele><time>2014-07-04T12:20:59Z</time></trkpt>
 <trkpt lat="48.894267400" lon="11.186514500"><ele>401</ele><time>2014-07-04T12:21:03Z</time></trkpt>
 <trkpt lat="48.894229100" lon="11.186557400"><ele>400</ele><time>2014-07-04T12:21:07Z</time></trkpt>
 <trkpt lat="48.894198700" lon="11.186601600"><ele>399</ele><time>2014-07-04T12:21:11Z</time></trkpt>
 <trkpt lat="48.894177400" lon="11.186652400"><ele>398</ele><time>2014-07-04T12:21:15Z</time></trkpt>
 <trkpt lat="48.894172800" lon="11.186699100"><ele>397</ele><time>2014-07-04T12:21:19Z</time></trkpt>
 <trkpt lat="48.894179100" lon="11.186758700"><ele>397</ele><time>2014-07-04T12:21:23Z</time></trkpt>
 <trkpt lat="48.894193300" lon="11.186797400"><ele>396</ele><time>2014-07-04T12:21:27Z</time></trkpt>
 <trkpt lat="48.894210400" lon="11.186846600"><ele>395</ele><time>2014-07-04T12:21:31Z</time></trkpt>
 <trkpt lat="48.894210300" lon="11.186872800"><ele>394</ele><time>2014-07-04T12:21:35Z</time></trkpt>
 <trkpt lat="48.894200800" lon="11.186889500"><ele>394</ele><time>2014-07-04T12:21:39Z</time></trkpt>
 <trkpt lat="48.894194500" lon="11.186888300"><ele>393</ele><time>2014-07-04T12:21:43Z</time></trkpt>
 <trkpt lat="48.894194500" lon="11.186888300"><ele>393</ele><time>2014-07-04T12:21:47Z</time></trkpt>
 <trkpt lat="48.894194500" lon="11.186888300"><ele>392</ele><time>2014-07-04T12:21:51Z</time></trkpt>
 <trkpt lat="48.894197400" lon="11.186880800"><ele>392</ele><time>2014-07-04T12:21:55Z</time></trkpt>
 <trkpt lat="48.894174500" lon="11.186888300"><ele>391</ele><time>2014-07-04T12:21:59Z</time></trkpt>
 <trkpt lat="48.894144900" lon="11.186927000"><ele>391</ele><time>2014-07-04T12:22:03Z</time></trkpt>
 <trkpt lat="48.894113700" lon="11.186952000"><ele>391</ele><time>2014-07-04T12:22:07Z</time></trkpt>
 <trkpt lat="48.894090300" lon="11.186959900"><ele>391</ele><time>2014-07-04T12:22:11Z</time></trkpt>
 <trkpt lat="48.894084500" lon="11.186959100"><ele>391</ele><time>2014-07-04T12:22:15Z</time></trkpt>
 <trkpt lat="48.894070300" lon="11.186956600"><ele>391</ele><time>2014-07-04T12:22:19Z</time></trkpt>
 <trkpt lat="48.894060800" lon="11.186939500"><ele>391</ele><time>2014-07-04T12:22:23Z</time></trkpt>
 <trkpt lat="48.894060300" lon="11.186907000"><ele>391</ele><time>2014-07-04T12:22:27Z</time></trkpt>
 <trkpt lat="48.894070300" lon="11.186854500"><ele>391</ele><time>2014-07-04T12:22:31Z</time></trkpt>
 <trkpt lat="48.894064900" lon="11.186821600"><ele>391</ele><time>2014-07-04T12:22:35Z</time></trkpt>
 <trkpt lat="48.894050800" lon="11.186814500"><ele>391</ele><time>2014-07-04T12:22:39Z</time></trkpt>
 <trkpt lat="48.894057000" lon="11.186793300"><ele>391</ele><time>2014-07-04T12:22:43Z</time></trkpt>
 <trkpt lat="48.894067400" lon="11.186783700"><ele>391</ele><time>2014-07-04T12:22:47Z</time></trkpt>
 <trkpt lat="48.894067400" lon="11.186783700"><ele>391</ele><time>2014-07-04T12:22:51Z</time></trkpt>
 <trkpt lat="48.894067400" lon="11.186783700"><ele>391</ele><time>2014-07-04T12:22:55Z</time></trkpt>
 <trkpt lat="48.894067400" lon="11.186783700"><ele>391</ele><time>2014-07-04T12:22:59Z</time></trkpt>
 <trkpt lat="48.894068300" lon="11.186792000"><ele>391</ele><time>2014-07-04T12:23:03Z</time></trkpt>
 <trkpt lat="48.894066600" lon="11.186800300"><ele>391</ele><time>2014-07-04T12:23:07Z</time></trkpt>
 <trkpt lat="48.894065000" lon="11.186820800"><ele>391</ele><time>2014-07-04T12:23:11Z</time></trkpt>
 <trkpt lat="48.894065000" lon="11.186830800"><ele>392</ele><time>2014-07-04T12:23:15Z</time></trkpt>
 <trkpt lat="48.894065000" lon="11.186830800"><ele>392</ele><time>2014-07-04T12:23:19Z</time></trkpt>
 <trkpt lat="48.894066600" lon="11.186838300"><ele>392</ele><time>2014-07-04T12:23:21Z</time></trkpt>
</trkseg>
</trk>
<extensions>
</extensions>
</gpx>